<?xml version="1.0" encoding="UTF-8" standalone="no" ?>
<gpx xmlns="http://www.topografix.com/GPX/1/1" xmlns:xsi="http://www.w3.org/2001/XMLSchema-instance" xsi:schemaLocation="http://www.topografix.com/GPX/1/1 http://www.topografix.com/GPX/1/1/gpx.xsd" version="1.1" creator="VisuGPX - https://www.visugpx.com">
  <metadata>
    <name>Ddx Thouars modifié (Angers 05 03 2022)</name>
    <desc><![CDATA[Ddx Thouars modifié (Angers 05 03 2022)]]></desc>
  </metadata>
  <trk>
    <name><![CDATA[14216132-Ddx Thouars (Angers 2022)]]></name>
    <trkseg>
      <trkpt lat="47.47285" lon="-0.5821">
        <ele>32</ele>
        <time>2022-02-28T08:19:02Z</time>
      </trkpt>
      <trkpt lat="47.47287" lon="-0.58211">
        <ele>32</ele>
        <time>2022-02-28T08:19:02Z</time>
      </trkpt>
      <trkpt lat="47.47338" lon="-0.58031">
        <ele>30</ele>
        <time>2022-02-28T08:19:26Z</time>
      </trkpt>
      <trkpt lat="47.47342" lon="-0.57995">
        <ele>30</ele>
        <time>2022-02-28T08:19:30Z</time>
      </trkpt>
      <trkpt lat="47.47339" lon="-0.57835">
        <ele>28</ele>
        <time>2022-02-28T08:19:49Z</time>
      </trkpt>
      <trkpt lat="47.47303" lon="-0.57729">
        <ele>24</ele>
        <time>2022-02-28T08:20:04Z</time>
      </trkpt>
      <trkpt lat="47.4728" lon="-0.57669">
        <ele>22</ele>
        <time>2022-02-28T08:20:12Z</time>
      </trkpt>
      <trkpt lat="47.47189" lon="-0.57466">
        <ele>22</ele>
        <time>2022-02-28T08:20:41Z</time>
      </trkpt>
      <trkpt lat="47.47149" lon="-0.57366">
        <ele>18</ele>
        <time>2022-02-28T08:20:55Z</time>
      </trkpt>
      <trkpt lat="47.47121" lon="-0.57289">
        <ele>17</ele>
        <time>2022-02-28T08:21:06Z</time>
      </trkpt>
      <trkpt lat="47.47089" lon="-0.57178">
        <ele>19</ele>
        <time>2022-02-28T08:21:20Z</time>
      </trkpt>
      <trkpt lat="47.4706" lon="-0.57056">
        <ele>18</ele>
        <time>2022-02-28T08:21:36Z</time>
      </trkpt>
      <trkpt lat="47.47033" lon="-0.56929">
        <ele>21</ele>
        <time>2022-02-28T08:21:52Z</time>
      </trkpt>
      <trkpt lat="47.47025" lon="-0.56934">
        <ele>20</ele>
        <time>2022-02-28T08:21:53Z</time>
      </trkpt>
      <trkpt lat="47.47018" lon="-0.56931">
        <ele>20</ele>
        <time>2022-02-28T08:21:55Z</time>
      </trkpt>
      <trkpt lat="47.47012" lon="-0.56924">
        <ele>21</ele>
        <time>2022-02-28T08:21:56Z</time>
      </trkpt>
      <trkpt lat="47.4701" lon="-0.56909">
        <ele>21</ele>
        <time>2022-02-28T08:21:58Z</time>
      </trkpt>
      <trkpt lat="47.47013" lon="-0.569">
        <ele>21</ele>
        <time>2022-02-28T08:21:59Z</time>
      </trkpt>
      <trkpt lat="47.47017" lon="-0.56894">
        <ele>22</ele>
        <time>2022-02-28T08:22:00Z</time>
      </trkpt>
      <trkpt lat="47.47024" lon="-0.56891">
        <ele>22</ele>
        <time>2022-02-28T08:22:01Z</time>
      </trkpt>
      <trkpt lat="47.47031" lon="-0.56877">
        <ele>22</ele>
        <time>2022-02-28T08:22:04Z</time>
      </trkpt>
      <trkpt lat="47.47087" lon="-0.56806">
        <ele>23</ele>
        <time>2022-02-28T08:22:17Z</time>
      </trkpt>
      <trkpt lat="47.47116" lon="-0.56767">
        <ele>25</ele>
        <time>2022-02-28T08:22:24Z</time>
      </trkpt>
      <trkpt lat="47.47173" lon="-0.56699">
        <ele>26</ele>
        <time>2022-02-28T08:22:37Z</time>
      </trkpt>
      <trkpt lat="47.47177" lon="-0.56687">
        <ele>25</ele>
        <time>2022-02-28T08:22:38Z</time>
      </trkpt>
      <trkpt lat="47.47176" lon="-0.56677">
        <ele>25</ele>
        <time>2022-02-28T08:22:40Z</time>
      </trkpt>
      <trkpt lat="47.47163" lon="-0.56645">
        <ele>25</ele>
        <time>2022-02-28T08:22:44Z</time>
      </trkpt>
      <trkpt lat="47.47159" lon="-0.56627">
        <ele>24</ele>
        <time>2022-02-28T08:22:46Z</time>
      </trkpt>
      <trkpt lat="47.47141" lon="-0.5658">
        <ele>23</ele>
        <time>2022-02-28T08:22:53Z</time>
      </trkpt>
      <trkpt lat="47.47103" lon="-0.56482">
        <ele>22</ele>
        <time>2022-02-28T08:23:06Z</time>
      </trkpt>
      <trkpt lat="47.47092" lon="-0.56454">
        <ele>20</ele>
        <time>2022-02-28T08:23:10Z</time>
      </trkpt>
      <trkpt lat="47.47084" lon="-0.56451">
        <ele>20</ele>
        <time>2022-02-28T08:23:12Z</time>
      </trkpt>
      <trkpt lat="47.47011" lon="-0.56269">
        <ele>18</ele>
        <time>2022-02-28T08:23:37Z</time>
      </trkpt>
      <trkpt lat="47.47009" lon="-0.56262">
        <ele>18</ele>
        <time>2022-02-28T08:23:38Z</time>
      </trkpt>
      <trkpt lat="47.4701" lon="-0.56253">
        <ele>19</ele>
        <time>2022-02-28T08:23:39Z</time>
      </trkpt>
      <trkpt lat="47.46999" lon="-0.56231">
        <ele>21</ele>
        <time>2022-02-28T08:23:42Z</time>
      </trkpt>
      <trkpt lat="47.46976" lon="-0.56176">
        <ele>29</ele>
        <time>2022-02-28T08:23:50Z</time>
      </trkpt>
      <trkpt lat="47.46969" lon="-0.56181">
        <ele>29</ele>
        <time>2022-02-28T08:23:52Z</time>
      </trkpt>
      <trkpt lat="47.46969" lon="-0.56181">
        <ele>29</ele>
        <time>2022-02-28T08:23:52Z</time>
      </trkpt>
      <trkpt lat="47.46966" lon="-0.56185">
        <ele>29</ele>
        <time>2022-02-28T08:23:52Z</time>
      </trkpt>
      <trkpt lat="47.46935" lon="-0.56263">
        <ele>28</ele>
        <time>2022-02-28T08:24:03Z</time>
      </trkpt>
      <trkpt lat="47.46923" lon="-0.56287">
        <ele>28</ele>
        <time>2022-02-28T08:24:07Z</time>
      </trkpt>
      <trkpt lat="47.46919" lon="-0.56298">
        <ele>28</ele>
        <time>2022-02-28T08:24:08Z</time>
      </trkpt>
      <trkpt lat="47.46907" lon="-0.56339">
        <ele>27</ele>
        <time>2022-02-28T08:24:14Z</time>
      </trkpt>
      <trkpt lat="47.46901" lon="-0.56378">
        <ele>23</ele>
        <time>2022-02-28T08:24:19Z</time>
      </trkpt>
      <trkpt lat="47.46893" lon="-0.56404">
        <ele>20</ele>
        <time>2022-02-28T08:24:22Z</time>
      </trkpt>
      <trkpt lat="47.46888" lon="-0.56414">
        <ele>20</ele>
        <time>2022-02-28T08:24:23Z</time>
      </trkpt>
      <trkpt lat="47.46874" lon="-0.56426">
        <ele>21</ele>
        <time>2022-02-28T08:24:26Z</time>
      </trkpt>
      <trkpt lat="47.46872" lon="-0.56436">
        <ele>22</ele>
        <time>2022-02-28T08:24:28Z</time>
      </trkpt>
      <trkpt lat="47.46859" lon="-0.56448">
        <ele>23</ele>
        <time>2022-02-28T08:24:30Z</time>
      </trkpt>
      <trkpt lat="47.46762" lon="-0.56521">
        <ele>23</ele>
        <time>2022-02-28T08:24:50Z</time>
      </trkpt>
      <trkpt lat="47.46738" lon="-0.56535">
        <ele>23</ele>
        <time>2022-02-28T08:24:54Z</time>
      </trkpt>
      <trkpt lat="47.46724" lon="-0.56541">
        <ele>23</ele>
        <time>2022-02-28T08:24:57Z</time>
      </trkpt>
      <trkpt lat="47.46497" lon="-0.56572">
        <ele>23</ele>
        <time>2022-02-28T08:25:37Z</time>
      </trkpt>
      <trkpt lat="47.46496" lon="-0.56584">
        <ele>23</ele>
        <time>2022-02-28T08:25:39Z</time>
      </trkpt>
      <trkpt lat="47.4649" lon="-0.56593">
        <ele>22</ele>
        <time>2022-02-28T08:25:40Z</time>
      </trkpt>
      <trkpt lat="47.46485" lon="-0.56595">
        <ele>22</ele>
        <time>2022-02-28T08:25:41Z</time>
      </trkpt>
      <trkpt lat="47.46477" lon="-0.56593">
        <ele>22</ele>
        <time>2022-02-28T08:25:43Z</time>
      </trkpt>
      <trkpt lat="47.46474" lon="-0.5659">
        <ele>22</ele>
        <time>2022-02-28T08:25:43Z</time>
      </trkpt>
      <trkpt lat="47.46469" lon="-0.56579">
        <ele>23</ele>
        <time>2022-02-28T08:25:45Z</time>
      </trkpt>
      <trkpt lat="47.46245" lon="-0.56649">
        <ele>22</ele>
        <time>2022-02-28T08:26:26Z</time>
      </trkpt>
      <trkpt lat="47.46244" lon="-0.56656">
        <ele>22</ele>
        <time>2022-02-28T08:26:27Z</time>
      </trkpt>
      <trkpt lat="47.4624" lon="-0.56661">
        <ele>21</ele>
        <time>2022-02-28T08:26:28Z</time>
      </trkpt>
      <trkpt lat="47.46234" lon="-0.56661">
        <ele>21</ele>
        <time>2022-02-28T08:26:29Z</time>
      </trkpt>
      <trkpt lat="47.4623" lon="-0.56657">
        <ele>22</ele>
        <time>2022-02-28T08:26:29Z</time>
      </trkpt>
      <trkpt lat="47.46145" lon="-0.5673">
        <ele>19</ele>
        <time>2022-02-28T08:26:47Z</time>
      </trkpt>
      <trkpt lat="47.45855" lon="-0.56934">
        <ele>27</ele>
        <time>2022-02-28T08:27:44Z</time>
      </trkpt>
      <trkpt lat="47.4579" lon="-0.56984">
        <ele>27</ele>
        <time>2022-02-28T08:27:57Z</time>
      </trkpt>
      <trkpt lat="47.45716" lon="-0.57052">
        <ele>25</ele>
        <time>2022-02-28T08:28:13Z</time>
      </trkpt>
      <trkpt lat="47.4571" lon="-0.57071">
        <ele>24</ele>
        <time>2022-02-28T08:28:15Z</time>
      </trkpt>
      <trkpt lat="47.45704" lon="-0.57083">
        <ele>24</ele>
        <time>2022-02-28T08:28:17Z</time>
      </trkpt>
      <trkpt lat="47.45703" lon="-0.57091">
        <ele>24</ele>
        <time>2022-02-28T08:28:18Z</time>
      </trkpt>
      <trkpt lat="47.45698" lon="-0.57097">
        <ele>24</ele>
        <time>2022-02-28T08:28:19Z</time>
      </trkpt>
      <trkpt lat="47.45692" lon="-0.57096">
        <ele>24</ele>
        <time>2022-02-28T08:28:20Z</time>
      </trkpt>
      <trkpt lat="47.45678" lon="-0.57104">
        <ele>24</ele>
        <time>2022-02-28T08:28:23Z</time>
      </trkpt>
      <trkpt lat="47.45673" lon="-0.57104">
        <ele>24</ele>
        <time>2022-02-28T08:28:24Z</time>
      </trkpt>
      <trkpt lat="47.45626" lon="-0.57166">
        <ele>22</ele>
        <time>2022-02-28T08:28:35Z</time>
      </trkpt>
      <trkpt lat="47.45629" lon="-0.57169">
        <ele>21</ele>
        <time>2022-02-28T08:28:36Z</time>
      </trkpt>
      <trkpt lat="47.45631" lon="-0.57179">
        <ele>21</ele>
        <time>2022-02-28T08:28:37Z</time>
      </trkpt>
      <trkpt lat="47.45627" lon="-0.57188">
        <ele>21</ele>
        <time>2022-02-28T08:28:38Z</time>
      </trkpt>
      <trkpt lat="47.45625" lon="-0.5719">
        <ele>21</ele>
        <time>2022-02-28T08:28:39Z</time>
      </trkpt>
      <trkpt lat="47.45619" lon="-0.5719">
        <ele>21</ele>
        <time>2022-02-28T08:28:40Z</time>
      </trkpt>
      <trkpt lat="47.45614" lon="-0.57185">
        <ele>22</ele>
        <time>2022-02-28T08:28:41Z</time>
      </trkpt>
      <trkpt lat="47.45612" lon="-0.57176">
        <ele>22</ele>
        <time>2022-02-28T08:28:42Z</time>
      </trkpt>
      <trkpt lat="47.45616" lon="-0.57167">
        <ele>22</ele>
        <time>2022-02-28T08:28:43Z</time>
      </trkpt>
      <trkpt lat="47.45582" lon="-0.57113">
        <ele>28</ele>
        <time>2022-02-28T08:28:52Z</time>
      </trkpt>
      <trkpt lat="47.45573" lon="-0.57108">
        <ele>28</ele>
        <time>2022-02-28T08:28:54Z</time>
      </trkpt>
      <trkpt lat="47.45563" lon="-0.5711">
        <ele>29</ele>
        <time>2022-02-28T08:28:56Z</time>
      </trkpt>
      <trkpt lat="47.45503" lon="-0.57155">
        <ele>29</ele>
        <time>2022-02-28T08:29:07Z</time>
      </trkpt>
      <trkpt lat="47.45444" lon="-0.57184">
        <ele>32</ele>
        <time>2022-02-28T08:29:19Z</time>
      </trkpt>
      <trkpt lat="47.4541" lon="-0.57199">
        <ele>33</ele>
        <time>2022-02-28T08:29:25Z</time>
      </trkpt>
      <trkpt lat="47.4537" lon="-0.57226">
        <ele>34</ele>
        <time>2022-02-28T08:29:33Z</time>
      </trkpt>
      <trkpt lat="47.45358" lon="-0.57236">
        <ele>35</ele>
        <time>2022-02-28T08:29:35Z</time>
      </trkpt>
      <trkpt lat="47.45259" lon="-0.57349">
        <ele>36</ele>
        <time>2022-02-28T08:29:57Z</time>
      </trkpt>
      <trkpt lat="47.45047" lon="-0.57571">
        <ele>42</ele>
        <time>2022-02-28T08:30:44Z</time>
      </trkpt>
      <trkpt lat="47.45036" lon="-0.57579">
        <ele>42</ele>
        <time>2022-02-28T08:30:46Z</time>
      </trkpt>
      <trkpt lat="47.45023" lon="-0.57583">
        <ele>42</ele>
        <time>2022-02-28T08:30:48Z</time>
      </trkpt>
      <trkpt lat="47.44998" lon="-0.57583">
        <ele>41</ele>
        <time>2022-02-28T08:30:53Z</time>
      </trkpt>
      <trkpt lat="47.4499" lon="-0.5758">
        <ele>41</ele>
        <time>2022-02-28T08:30:54Z</time>
      </trkpt>
      <trkpt lat="47.44981" lon="-0.57572">
        <ele>40</ele>
        <time>2022-02-28T08:30:56Z</time>
      </trkpt>
      <trkpt lat="47.44973" lon="-0.57561">
        <ele>39</ele>
        <time>2022-02-28T08:30:58Z</time>
      </trkpt>
      <trkpt lat="47.44962" lon="-0.57529">
        <ele>37</ele>
        <time>2022-02-28T08:31:02Z</time>
      </trkpt>
      <trkpt lat="47.44907" lon="-0.57369">
        <ele>38</ele>
        <time>2022-02-28T08:31:24Z</time>
      </trkpt>
      <trkpt lat="47.44896" lon="-0.57344">
        <ele>39</ele>
        <time>2022-02-28T08:31:27Z</time>
      </trkpt>
      <trkpt lat="47.44888" lon="-0.57334">
        <ele>39</ele>
        <time>2022-02-28T08:31:29Z</time>
      </trkpt>
      <trkpt lat="47.44884" lon="-0.57333">
        <ele>39</ele>
        <time>2022-02-28T08:31:30Z</time>
      </trkpt>
      <trkpt lat="47.44859" lon="-0.57342">
        <ele>39</ele>
        <time>2022-02-28T08:31:35Z</time>
      </trkpt>
      <trkpt lat="47.44542" lon="-0.57615">
        <ele>42</ele>
        <time>2022-02-28T08:32:40Z</time>
      </trkpt>
      <trkpt lat="47.44472" lon="-0.57677">
        <ele>42</ele>
        <time>2022-02-28T08:32:54Z</time>
      </trkpt>
      <trkpt lat="47.44414" lon="-0.57559">
        <ele>43</ele>
        <time>2022-02-28T08:33:12Z</time>
      </trkpt>
      <trkpt lat="47.44391" lon="-0.57526">
        <ele>43</ele>
        <time>2022-02-28T08:33:18Z</time>
      </trkpt>
      <trkpt lat="47.44312" lon="-0.57424">
        <ele>43</ele>
        <time>2022-02-28T08:33:36Z</time>
      </trkpt>
      <trkpt lat="47.44303" lon="-0.57407">
        <ele>44</ele>
        <time>2022-02-28T08:33:39Z</time>
      </trkpt>
      <trkpt lat="47.44295" lon="-0.57399">
        <ele>44</ele>
        <time>2022-02-28T08:33:41Z</time>
      </trkpt>
      <trkpt lat="47.44289" lon="-0.57396">
        <ele>44</ele>
        <time>2022-02-28T08:33:42Z</time>
      </trkpt>
      <trkpt lat="47.44282" lon="-0.57387">
        <ele>45</ele>
        <time>2022-02-28T08:33:43Z</time>
      </trkpt>
      <trkpt lat="47.4424" lon="-0.57325">
        <ele>47</ele>
        <time>2022-02-28T08:33:54Z</time>
      </trkpt>
      <trkpt lat="47.44175" lon="-0.57235">
        <ele>46</ele>
        <time>2022-02-28T08:34:10Z</time>
      </trkpt>
      <trkpt lat="47.44156" lon="-0.57207">
        <ele>45</ele>
        <time>2022-02-28T08:34:15Z</time>
      </trkpt>
      <trkpt lat="47.44136" lon="-0.57169">
        <ele>44</ele>
        <time>2022-02-28T08:34:20Z</time>
      </trkpt>
      <trkpt lat="47.44116" lon="-0.57143">
        <ele>43</ele>
        <time>2022-02-28T08:34:25Z</time>
      </trkpt>
      <trkpt lat="47.44101" lon="-0.57131">
        <ele>43</ele>
        <time>2022-02-28T08:34:28Z</time>
      </trkpt>
      <trkpt lat="47.44091" lon="-0.57097">
        <ele>42</ele>
        <time>2022-02-28T08:34:33Z</time>
      </trkpt>
      <trkpt lat="47.44068" lon="-0.57038">
        <ele>42</ele>
        <time>2022-02-28T08:34:41Z</time>
      </trkpt>
      <trkpt lat="47.44021" lon="-0.56937">
        <ele>41</ele>
        <time>2022-02-28T08:34:55Z</time>
      </trkpt>
      <trkpt lat="47.43926" lon="-0.56791">
        <ele>40</ele>
        <time>2022-02-28T08:35:20Z</time>
      </trkpt>
      <trkpt lat="47.43816" lon="-0.56638">
        <ele>39</ele>
        <time>2022-02-28T08:35:47Z</time>
      </trkpt>
      <trkpt lat="47.43799" lon="-0.56611">
        <ele>40</ele>
        <time>2022-02-28T08:35:51Z</time>
      </trkpt>
      <trkpt lat="47.4377" lon="-0.56547">
        <ele>40</ele>
        <time>2022-02-28T08:36:00Z</time>
      </trkpt>
      <trkpt lat="47.4376" lon="-0.56534">
        <ele>41</ele>
        <time>2022-02-28T08:36:03Z</time>
      </trkpt>
      <trkpt lat="47.43743" lon="-0.56524">
        <ele>40</ele>
        <time>2022-02-28T08:36:06Z</time>
      </trkpt>
      <trkpt lat="47.43712" lon="-0.56489">
        <ele>39</ele>
        <time>2022-02-28T08:36:13Z</time>
      </trkpt>
      <trkpt lat="47.43692" lon="-0.56453">
        <ele>39</ele>
        <time>2022-02-28T08:36:19Z</time>
      </trkpt>
      <trkpt lat="47.43637" lon="-0.56337">
        <ele>39</ele>
        <time>2022-02-28T08:36:36Z</time>
      </trkpt>
      <trkpt lat="47.43629" lon="-0.56317">
        <ele>39</ele>
        <time>2022-02-28T08:36:38Z</time>
      </trkpt>
      <trkpt lat="47.43545" lon="-0.56178">
        <ele>39</ele>
        <time>2022-02-28T08:37:01Z</time>
      </trkpt>
      <trkpt lat="47.43477" lon="-0.56077">
        <ele>37</ele>
        <time>2022-02-28T08:37:18Z</time>
      </trkpt>
      <trkpt lat="47.4345" lon="-0.56029">
        <ele>36</ele>
        <time>2022-02-28T08:37:26Z</time>
      </trkpt>
      <trkpt lat="47.43419" lon="-0.55967">
        <ele>37</ele>
        <time>2022-02-28T08:37:35Z</time>
      </trkpt>
      <trkpt lat="47.43394" lon="-0.55901">
        <ele>37</ele>
        <time>2022-02-28T08:37:44Z</time>
      </trkpt>
      <trkpt lat="47.43372" lon="-0.55855">
        <ele>37</ele>
        <time>2022-02-28T08:37:51Z</time>
      </trkpt>
      <trkpt lat="47.43327" lon="-0.55795">
        <ele>35</ele>
        <time>2022-02-28T08:38:02Z</time>
      </trkpt>
      <trkpt lat="47.4331" lon="-0.55765">
        <ele>35</ele>
        <time>2022-02-28T08:38:06Z</time>
      </trkpt>
      <trkpt lat="47.4328" lon="-0.55695">
        <ele>35</ele>
        <time>2022-02-28T08:38:16Z</time>
      </trkpt>
      <trkpt lat="47.43256" lon="-0.55634">
        <ele>35</ele>
        <time>2022-02-28T08:38:25Z</time>
      </trkpt>
      <trkpt lat="47.43215" lon="-0.55545">
        <ele>34</ele>
        <time>2022-02-28T08:38:38Z</time>
      </trkpt>
      <trkpt lat="47.43201" lon="-0.55507">
        <ele>33</ele>
        <time>2022-02-28T08:38:43Z</time>
      </trkpt>
      <trkpt lat="47.43193" lon="-0.55476">
        <ele>32</ele>
        <time>2022-02-28T08:38:47Z</time>
      </trkpt>
      <trkpt lat="47.43161" lon="-0.5542">
        <ele>32</ele>
        <time>2022-02-28T08:38:56Z</time>
      </trkpt>
      <trkpt lat="47.43097" lon="-0.55254">
        <ele>33</ele>
        <time>2022-02-28T08:39:19Z</time>
      </trkpt>
      <trkpt lat="47.43057" lon="-0.55169">
        <ele>33</ele>
        <time>2022-02-28T08:39:31Z</time>
      </trkpt>
      <trkpt lat="47.4299" lon="-0.55044">
        <ele>31</ele>
        <time>2022-02-28T08:39:50Z</time>
      </trkpt>
      <trkpt lat="47.4296" lon="-0.54967">
        <ele>28</ele>
        <time>2022-02-28T08:40:01Z</time>
      </trkpt>
      <trkpt lat="47.42949" lon="-0.54951">
        <ele>28</ele>
        <time>2022-02-28T08:40:04Z</time>
      </trkpt>
      <trkpt lat="47.42941" lon="-0.54943">
        <ele>28</ele>
        <time>2022-02-28T08:40:05Z</time>
      </trkpt>
      <trkpt lat="47.42918" lon="-0.54956">
        <ele>27</ele>
        <time>2022-02-28T08:40:10Z</time>
      </trkpt>
      <trkpt lat="47.42887" lon="-0.54981">
        <ele>26</ele>
        <time>2022-02-28T08:40:16Z</time>
      </trkpt>
      <trkpt lat="47.42876" lon="-0.54987">
        <ele>26</ele>
        <time>2022-02-28T08:40:18Z</time>
      </trkpt>
      <trkpt lat="47.42865" lon="-0.54988">
        <ele>25</ele>
        <time>2022-02-28T08:40:20Z</time>
      </trkpt>
      <trkpt lat="47.42858" lon="-0.54938">
        <ele>25</ele>
        <time>2022-02-28T08:40:26Z</time>
      </trkpt>
      <trkpt lat="47.42864" lon="-0.54928">
        <ele>25</ele>
        <time>2022-02-28T08:40:28Z</time>
      </trkpt>
      <trkpt lat="47.42954" lon="-0.54634">
        <ele>22</ele>
        <time>2022-02-28T08:41:07Z</time>
      </trkpt>
      <trkpt lat="47.42956" lon="-0.5462">
        <ele>22</ele>
        <time>2022-02-28T08:41:09Z</time>
      </trkpt>
      <trkpt lat="47.42955" lon="-0.54603">
        <ele>21</ele>
        <time>2022-02-28T08:41:11Z</time>
      </trkpt>
      <trkpt lat="47.42954" lon="-0.54592">
        <ele>20</ele>
        <time>2022-02-28T08:41:12Z</time>
      </trkpt>
      <trkpt lat="47.42951" lon="-0.54587">
        <ele>20</ele>
        <time>2022-02-28T08:41:13Z</time>
      </trkpt>
      <trkpt lat="47.43005" lon="-0.54409">
        <ele>20</ele>
        <time>2022-02-28T08:41:36Z</time>
      </trkpt>
      <trkpt lat="47.43009" lon="-0.54393">
        <ele>19</ele>
        <time>2022-02-28T08:41:38Z</time>
      </trkpt>
      <trkpt lat="47.43005" lon="-0.54385">
        <ele>19</ele>
        <time>2022-02-28T08:41:39Z</time>
      </trkpt>
      <trkpt lat="47.43005" lon="-0.54381">
        <ele>19</ele>
        <time>2022-02-28T08:41:40Z</time>
      </trkpt>
      <trkpt lat="47.43006" lon="-0.54372">
        <ele>19</ele>
        <time>2022-02-28T08:41:41Z</time>
      </trkpt>
      <trkpt lat="47.43021" lon="-0.54356">
        <ele>19</ele>
        <time>2022-02-28T08:41:44Z</time>
      </trkpt>
      <trkpt lat="47.43052" lon="-0.54252">
        <ele>20</ele>
        <time>2022-02-28T08:41:58Z</time>
      </trkpt>
      <trkpt lat="47.43056" lon="-0.54227">
        <ele>20</ele>
        <time>2022-02-28T08:42:01Z</time>
      </trkpt>
      <trkpt lat="47.43054" lon="-0.54223">
        <ele>20</ele>
        <time>2022-02-28T08:42:02Z</time>
      </trkpt>
      <trkpt lat="47.43049" lon="-0.54216">
        <ele>20</ele>
        <time>2022-02-28T08:42:03Z</time>
      </trkpt>
      <trkpt lat="47.4304" lon="-0.5421">
        <ele>20</ele>
        <time>2022-02-28T08:42:05Z</time>
      </trkpt>
      <trkpt lat="47.43029" lon="-0.54203">
        <ele>20</ele>
        <time>2022-02-28T08:42:07Z</time>
      </trkpt>
      <trkpt lat="47.43017" lon="-0.54196">
        <ele>20</ele>
        <time>2022-02-28T08:42:09Z</time>
      </trkpt>
      <trkpt lat="47.43004" lon="-0.54194">
        <ele>20</ele>
        <time>2022-02-28T08:42:11Z</time>
      </trkpt>
      <trkpt lat="47.42996" lon="-0.542">
        <ele>20</ele>
        <time>2022-02-28T08:42:13Z</time>
      </trkpt>
      <trkpt lat="47.42989" lon="-0.54201">
        <ele>20</ele>
        <time>2022-02-28T08:42:14Z</time>
      </trkpt>
      <trkpt lat="47.42983" lon="-0.54198">
        <ele>19</ele>
        <time>2022-02-28T08:42:15Z</time>
      </trkpt>
      <trkpt lat="47.42978" lon="-0.54192">
        <ele>19</ele>
        <time>2022-02-28T08:42:17Z</time>
      </trkpt>
      <trkpt lat="47.42973" lon="-0.54178">
        <ele>19</ele>
        <time>2022-02-28T08:42:18Z</time>
      </trkpt>
      <trkpt lat="47.42974" lon="-0.54162">
        <ele>19</ele>
        <time>2022-02-28T08:42:20Z</time>
      </trkpt>
      <trkpt lat="47.42981" lon="-0.54149">
        <ele>19</ele>
        <time>2022-02-28T08:42:22Z</time>
      </trkpt>
      <trkpt lat="47.42991" lon="-0.54144">
        <ele>19</ele>
        <time>2022-02-28T08:42:24Z</time>
      </trkpt>
      <trkpt lat="47.42999" lon="-0.54133">
        <ele>19</ele>
        <time>2022-02-28T08:42:26Z</time>
      </trkpt>
      <trkpt lat="47.43119" lon="-0.5374">
        <ele>18</ele>
        <time>2022-02-28T08:43:18Z</time>
      </trkpt>
      <trkpt lat="47.43174" lon="-0.53552">
        <ele>20</ele>
        <time>2022-02-28T08:43:43Z</time>
      </trkpt>
      <trkpt lat="47.43194" lon="-0.535">
        <ele>21</ele>
        <time>2022-02-28T08:43:50Z</time>
      </trkpt>
      <trkpt lat="47.43197" lon="-0.53486">
        <ele>21</ele>
        <time>2022-02-28T08:43:52Z</time>
      </trkpt>
      <trkpt lat="47.432" lon="-0.53478">
        <ele>21</ele>
        <time>2022-02-28T08:43:53Z</time>
      </trkpt>
      <trkpt lat="47.43202" lon="-0.53463">
        <ele>21</ele>
        <time>2022-02-28T08:43:55Z</time>
      </trkpt>
      <trkpt lat="47.43208" lon="-0.53451">
        <ele>22</ele>
        <time>2022-02-28T08:43:56Z</time>
      </trkpt>
      <trkpt lat="47.43212" lon="-0.53433">
        <ele>22</ele>
        <time>2022-02-28T08:43:59Z</time>
      </trkpt>
      <trkpt lat="47.43209" lon="-0.53432">
        <ele>22</ele>
        <time>2022-02-28T08:43:59Z</time>
      </trkpt>
      <trkpt lat="47.43211" lon="-0.53425">
        <ele>22</ele>
        <time>2022-02-28T08:44:00Z</time>
      </trkpt>
      <trkpt lat="47.43211" lon="-0.53397">
        <ele>22</ele>
        <time>2022-02-28T08:44:04Z</time>
      </trkpt>
      <trkpt lat="47.43204" lon="-0.53373">
        <ele>22</ele>
        <time>2022-02-28T08:44:07Z</time>
      </trkpt>
      <trkpt lat="47.43182" lon="-0.53263">
        <ele>23</ele>
        <time>2022-02-28T08:44:21Z</time>
      </trkpt>
      <trkpt lat="47.43179" lon="-0.5323">
        <ele>23</ele>
        <time>2022-02-28T08:44:25Z</time>
      </trkpt>
      <trkpt lat="47.4318" lon="-0.53164">
        <ele>23</ele>
        <time>2022-02-28T08:44:32Z</time>
      </trkpt>
      <trkpt lat="47.43176" lon="-0.53153">
        <ele>23</ele>
        <time>2022-02-28T08:44:34Z</time>
      </trkpt>
      <trkpt lat="47.43186" lon="-0.53156">
        <ele>23</ele>
        <time>2022-02-28T08:44:36Z</time>
      </trkpt>
      <trkpt lat="47.43188" lon="-0.53117">
        <ele>22</ele>
        <time>2022-02-28T08:44:41Z</time>
      </trkpt>
      <trkpt lat="47.43204" lon="-0.5293">
        <ele>22</ele>
        <time>2022-02-28T08:45:03Z</time>
      </trkpt>
      <trkpt lat="47.43202" lon="-0.52903">
        <ele>22</ele>
        <time>2022-02-28T08:45:06Z</time>
      </trkpt>
      <trkpt lat="47.43205" lon="-0.52883">
        <ele>22</ele>
        <time>2022-02-28T08:45:09Z</time>
      </trkpt>
      <trkpt lat="47.43172" lon="-0.52866">
        <ele>21</ele>
        <time>2022-02-28T08:45:15Z</time>
      </trkpt>
      <trkpt lat="47.4308" lon="-0.52831">
        <ele>19</ele>
        <time>2022-02-28T08:45:32Z</time>
      </trkpt>
      <trkpt lat="47.4305" lon="-0.5282">
        <ele>19</ele>
        <time>2022-02-28T08:45:38Z</time>
      </trkpt>
      <trkpt lat="47.43013" lon="-0.52806">
        <ele>20</ele>
        <time>2022-02-28T08:45:44Z</time>
      </trkpt>
      <trkpt lat="47.42982" lon="-0.52797">
        <ele>20</ele>
        <time>2022-02-28T08:45:50Z</time>
      </trkpt>
      <trkpt lat="47.42969" lon="-0.52794">
        <ele>20</ele>
        <time>2022-02-28T08:45:52Z</time>
      </trkpt>
      <trkpt lat="47.42914" lon="-0.52789">
        <ele>21</ele>
        <time>2022-02-28T08:46:02Z</time>
      </trkpt>
      <trkpt lat="47.42895" lon="-0.52784">
        <ele>21</ele>
        <time>2022-02-28T08:46:06Z</time>
      </trkpt>
      <trkpt lat="47.42867" lon="-0.52773">
        <ele>22</ele>
        <time>2022-02-28T08:46:11Z</time>
      </trkpt>
      <trkpt lat="47.42799" lon="-0.52739">
        <ele>23</ele>
        <time>2022-02-28T08:46:23Z</time>
      </trkpt>
      <trkpt lat="47.42731" lon="-0.52692">
        <ele>21</ele>
        <time>2022-02-28T08:46:37Z</time>
      </trkpt>
      <trkpt lat="47.42645" lon="-0.52631">
        <ele>20</ele>
        <time>2022-02-28T08:46:54Z</time>
      </trkpt>
      <trkpt lat="47.4261" lon="-0.52605">
        <ele>21</ele>
        <time>2022-02-28T08:47:01Z</time>
      </trkpt>
      <trkpt lat="47.42604" lon="-0.52605">
        <ele>22</ele>
        <time>2022-02-28T08:47:02Z</time>
      </trkpt>
      <trkpt lat="47.42522" lon="-0.52548">
        <ele>23</ele>
        <time>2022-02-28T08:47:18Z</time>
      </trkpt>
      <trkpt lat="47.42508" lon="-0.52537">
        <ele>23</ele>
        <time>2022-02-28T08:47:21Z</time>
      </trkpt>
      <trkpt lat="47.42497" lon="-0.52534">
        <ele>23</ele>
        <time>2022-02-28T08:47:23Z</time>
      </trkpt>
      <trkpt lat="47.42486" lon="-0.52538">
        <ele>23</ele>
        <time>2022-02-28T08:47:25Z</time>
      </trkpt>
      <trkpt lat="47.42481" lon="-0.52541">
        <ele>23</ele>
        <time>2022-02-28T08:47:26Z</time>
      </trkpt>
      <trkpt lat="47.42475" lon="-0.52541">
        <ele>23</ele>
        <time>2022-02-28T08:47:27Z</time>
      </trkpt>
      <trkpt lat="47.42469" lon="-0.52534">
        <ele>23</ele>
        <time>2022-02-28T08:47:28Z</time>
      </trkpt>
      <trkpt lat="47.42467" lon="-0.52527">
        <ele>23</ele>
        <time>2022-02-28T08:47:29Z</time>
      </trkpt>
      <trkpt lat="47.42467" lon="-0.52519">
        <ele>23</ele>
        <time>2022-02-28T08:47:30Z</time>
      </trkpt>
      <trkpt lat="47.42456" lon="-0.525">
        <ele>23</ele>
        <time>2022-02-28T08:47:33Z</time>
      </trkpt>
      <trkpt lat="47.42379" lon="-0.52442">
        <ele>24</ele>
        <time>2022-02-28T08:47:48Z</time>
      </trkpt>
      <trkpt lat="47.42284" lon="-0.52377">
        <ele>22</ele>
        <time>2022-02-28T08:48:07Z</time>
      </trkpt>
      <trkpt lat="47.42255" lon="-0.52371">
        <ele>21</ele>
        <time>2022-02-28T08:48:12Z</time>
      </trkpt>
      <trkpt lat="47.41976" lon="-0.5235">
        <ele>17</ele>
        <time>2022-02-28T08:49:02Z</time>
      </trkpt>
      <trkpt lat="47.41847" lon="-0.5234">
        <ele>22</ele>
        <time>2022-02-28T08:49:25Z</time>
      </trkpt>
      <trkpt lat="47.4184" lon="-0.5234">
        <ele>22</ele>
        <time>2022-02-28T08:49:26Z</time>
      </trkpt>
      <trkpt lat="47.41837" lon="-0.52337">
        <ele>22</ele>
        <time>2022-02-28T08:49:27Z</time>
      </trkpt>
      <trkpt lat="47.41689" lon="-0.52329">
        <ele>23</ele>
        <time>2022-02-28T08:49:53Z</time>
      </trkpt>
      <trkpt lat="47.41588" lon="-0.52319">
        <ele>24</ele>
        <time>2022-02-28T08:50:11Z</time>
      </trkpt>
      <trkpt lat="47.41477" lon="-0.52314">
        <ele>24</ele>
        <time>2022-02-28T08:50:31Z</time>
      </trkpt>
      <trkpt lat="47.41466" lon="-0.52315">
        <ele>23</ele>
        <time>2022-02-28T08:50:33Z</time>
      </trkpt>
      <trkpt lat="47.4136" lon="-0.52339">
        <ele>21</ele>
        <time>2022-02-28T08:50:52Z</time>
      </trkpt>
      <trkpt lat="47.41229" lon="-0.52378">
        <ele>21</ele>
        <time>2022-02-28T08:51:16Z</time>
      </trkpt>
      <trkpt lat="47.41184" lon="-0.52389">
        <ele>19</ele>
        <time>2022-02-28T08:51:24Z</time>
      </trkpt>
      <trkpt lat="47.41041" lon="-0.5244">
        <ele>20</ele>
        <time>2022-02-28T08:51:50Z</time>
      </trkpt>
      <trkpt lat="47.4101" lon="-0.52451">
        <ele>21</ele>
        <time>2022-02-28T08:51:56Z</time>
      </trkpt>
      <trkpt lat="47.4094" lon="-0.52483">
        <ele>21</ele>
        <time>2022-02-28T08:52:09Z</time>
      </trkpt>
      <trkpt lat="47.40671" lon="-0.52578">
        <ele>17</ele>
        <time>2022-02-28T08:52:58Z</time>
      </trkpt>
      <trkpt lat="47.40664" lon="-0.52581">
        <ele>17</ele>
        <time>2022-02-28T08:52:59Z</time>
      </trkpt>
      <trkpt lat="47.40616" lon="-0.52597">
        <ele>22</ele>
        <time>2022-02-28T08:53:08Z</time>
      </trkpt>
      <trkpt lat="47.40602" lon="-0.526">
        <ele>23</ele>
        <time>2022-02-28T08:53:11Z</time>
      </trkpt>
      <trkpt lat="47.40538" lon="-0.52582">
        <ele>30</ele>
        <time>2022-02-28T08:53:22Z</time>
      </trkpt>
      <trkpt lat="47.40515" lon="-0.5258">
        <ele>32</ele>
        <time>2022-02-28T08:53:26Z</time>
      </trkpt>
      <trkpt lat="47.40496" lon="-0.52586">
        <ele>33</ele>
        <time>2022-02-28T08:53:30Z</time>
      </trkpt>
      <trkpt lat="47.40453" lon="-0.5261">
        <ele>32</ele>
        <time>2022-02-28T08:53:38Z</time>
      </trkpt>
      <trkpt lat="47.40343" lon="-0.52739">
        <ele>31</ele>
        <time>2022-02-28T08:54:03Z</time>
      </trkpt>
      <trkpt lat="47.40276" lon="-0.52679">
        <ele>32</ele>
        <time>2022-02-28T08:54:17Z</time>
      </trkpt>
      <trkpt lat="47.40177" lon="-0.52594">
        <ele>33</ele>
        <time>2022-02-28T08:54:37Z</time>
      </trkpt>
      <trkpt lat="47.40169" lon="-0.52523">
        <ele>32</ele>
        <time>2022-02-28T08:54:46Z</time>
      </trkpt>
      <trkpt lat="47.40152" lon="-0.52524">
        <ele>32</ele>
        <time>2022-02-28T08:54:49Z</time>
      </trkpt>
      <trkpt lat="47.40113" lon="-0.52515">
        <ele>32</ele>
        <time>2022-02-28T08:54:56Z</time>
      </trkpt>
      <trkpt lat="47.4008" lon="-0.52503">
        <ele>31</ele>
        <time>2022-02-28T08:55:02Z</time>
      </trkpt>
      <trkpt lat="47.39998" lon="-0.52461">
        <ele>31</ele>
        <time>2022-02-28T08:55:17Z</time>
      </trkpt>
      <trkpt lat="47.3997" lon="-0.52441">
        <ele>31</ele>
        <time>2022-02-28T08:55:23Z</time>
      </trkpt>
      <trkpt lat="47.39904" lon="-0.52373">
        <ele>31</ele>
        <time>2022-02-28T08:55:37Z</time>
      </trkpt>
      <trkpt lat="47.39895" lon="-0.52369">
        <ele>31</ele>
        <time>2022-02-28T08:55:39Z</time>
      </trkpt>
      <trkpt lat="47.39892" lon="-0.52372">
        <ele>31</ele>
        <time>2022-02-28T08:55:40Z</time>
      </trkpt>
      <trkpt lat="47.39889" lon="-0.52369">
        <ele>31</ele>
        <time>2022-02-28T08:55:40Z</time>
      </trkpt>
      <trkpt lat="47.39843" lon="-0.52381">
        <ele>32</ele>
        <time>2022-02-28T08:55:49Z</time>
      </trkpt>
      <trkpt lat="47.39714" lon="-0.52399">
        <ele>36</ele>
        <time>2022-02-28T08:56:12Z</time>
      </trkpt>
      <trkpt lat="47.39714" lon="-0.52404">
        <ele>36</ele>
        <time>2022-02-28T08:56:12Z</time>
      </trkpt>
      <trkpt lat="47.39711" lon="-0.52406">
        <ele>36</ele>
        <time>2022-02-28T08:56:13Z</time>
      </trkpt>
      <trkpt lat="47.39708" lon="-0.52405">
        <ele>36</ele>
        <time>2022-02-28T08:56:13Z</time>
      </trkpt>
      <trkpt lat="47.39707" lon="-0.52401">
        <ele>36</ele>
        <time>2022-02-28T08:56:14Z</time>
      </trkpt>
      <trkpt lat="47.39619" lon="-0.52408">
        <ele>37</ele>
        <time>2022-02-28T08:56:30Z</time>
      </trkpt>
      <trkpt lat="47.39558" lon="-0.52414">
        <ele>38</ele>
        <time>2022-02-28T08:56:40Z</time>
      </trkpt>
      <trkpt lat="47.3953" lon="-0.52419">
        <ele>38</ele>
        <time>2022-02-28T08:56:45Z</time>
      </trkpt>
      <trkpt lat="47.39527" lon="-0.52392">
        <ele>39</ele>
        <time>2022-02-28T08:56:49Z</time>
      </trkpt>
      <trkpt lat="47.39528" lon="-0.5238">
        <ele>39</ele>
        <time>2022-02-28T08:56:50Z</time>
      </trkpt>
      <trkpt lat="47.39532" lon="-0.52369">
        <ele>39</ele>
        <time>2022-02-28T08:56:52Z</time>
      </trkpt>
      <trkpt lat="47.39557" lon="-0.52319">
        <ele>38</ele>
        <time>2022-02-28T08:56:59Z</time>
      </trkpt>
      <trkpt lat="47.39566" lon="-0.52291">
        <ele>37</ele>
        <time>2022-02-28T08:57:03Z</time>
      </trkpt>
      <trkpt lat="47.39581" lon="-0.52231">
        <ele>36</ele>
        <time>2022-02-28T08:57:11Z</time>
      </trkpt>
      <trkpt lat="47.396" lon="-0.5214">
        <ele>34</ele>
        <time>2022-02-28T08:57:22Z</time>
      </trkpt>
      <trkpt lat="47.39615" lon="-0.52073">
        <ele>33</ele>
        <time>2022-02-28T08:57:31Z</time>
      </trkpt>
      <trkpt lat="47.39618" lon="-0.5205">
        <ele>33</ele>
        <time>2022-02-28T08:57:33Z</time>
      </trkpt>
      <trkpt lat="47.39617" lon="-0.52037">
        <ele>33</ele>
        <time>2022-02-28T08:57:35Z</time>
      </trkpt>
      <trkpt lat="47.39611" lon="-0.52016">
        <ele>34</ele>
        <time>2022-02-28T08:57:38Z</time>
      </trkpt>
      <trkpt lat="47.39591" lon="-0.51989">
        <ele>35</ele>
        <time>2022-02-28T08:57:43Z</time>
      </trkpt>
      <trkpt lat="47.39536" lon="-0.51938">
        <ele>37</ele>
        <time>2022-02-28T08:57:54Z</time>
      </trkpt>
      <trkpt lat="47.3933" lon="-0.51772">
        <ele>43</ele>
        <time>2022-02-28T08:58:36Z</time>
      </trkpt>
      <trkpt lat="47.39309" lon="-0.51746">
        <ele>43</ele>
        <time>2022-02-28T08:58:41Z</time>
      </trkpt>
      <trkpt lat="47.39261" lon="-0.5168">
        <ele>44</ele>
        <time>2022-02-28T08:58:52Z</time>
      </trkpt>
      <trkpt lat="47.39193" lon="-0.51594">
        <ele>45</ele>
        <time>2022-02-28T08:59:08Z</time>
      </trkpt>
      <trkpt lat="47.39181" lon="-0.51577">
        <ele>45</ele>
        <time>2022-02-28T08:59:11Z</time>
      </trkpt>
      <trkpt lat="47.39165" lon="-0.51544">
        <ele>46</ele>
        <time>2022-02-28T08:59:16Z</time>
      </trkpt>
      <trkpt lat="47.39137" lon="-0.51457">
        <ele>47</ele>
        <time>2022-02-28T08:59:28Z</time>
      </trkpt>
      <trkpt lat="47.39122" lon="-0.51424">
        <ele>48</ele>
        <time>2022-02-28T08:59:33Z</time>
      </trkpt>
      <trkpt lat="47.39101" lon="-0.51396">
        <ele>48</ele>
        <time>2022-02-28T08:59:38Z</time>
      </trkpt>
      <trkpt lat="47.39088" lon="-0.51384">
        <ele>49</ele>
        <time>2022-02-28T08:59:40Z</time>
      </trkpt>
      <trkpt lat="47.39074" lon="-0.51373">
        <ele>50</ele>
        <time>2022-02-28T08:59:43Z</time>
      </trkpt>
      <trkpt lat="47.38887" lon="-0.51288">
        <ele>50</ele>
        <time>2022-02-28T09:00:18Z</time>
      </trkpt>
      <trkpt lat="47.38826" lon="-0.51245">
        <ele>51</ele>
        <time>2022-02-28T09:00:30Z</time>
      </trkpt>
      <trkpt lat="47.38811" lon="-0.51225">
        <ele>51</ele>
        <time>2022-02-28T09:00:34Z</time>
      </trkpt>
      <trkpt lat="47.38802" lon="-0.51202">
        <ele>51</ele>
        <time>2022-02-28T09:00:37Z</time>
      </trkpt>
      <trkpt lat="47.38797" lon="-0.51203">
        <ele>51</ele>
        <time>2022-02-28T09:00:38Z</time>
      </trkpt>
      <trkpt lat="47.3879" lon="-0.512">
        <ele>51</ele>
        <time>2022-02-28T09:00:39Z</time>
      </trkpt>
      <trkpt lat="47.38785" lon="-0.51193">
        <ele>51</ele>
        <time>2022-02-28T09:00:40Z</time>
      </trkpt>
      <trkpt lat="47.38784" lon="-0.51188">
        <ele>51</ele>
        <time>2022-02-28T09:00:41Z</time>
      </trkpt>
      <trkpt lat="47.38759" lon="-0.51191">
        <ele>52</ele>
        <time>2022-02-28T09:00:45Z</time>
      </trkpt>
      <trkpt lat="47.3875" lon="-0.51187">
        <ele>52</ele>
        <time>2022-02-28T09:00:47Z</time>
      </trkpt>
      <trkpt lat="47.38555" lon="-0.51029">
        <ele>51</ele>
        <time>2022-02-28T09:01:27Z</time>
      </trkpt>
      <trkpt lat="47.38527" lon="-0.51011">
        <ele>50</ele>
        <time>2022-02-28T09:01:32Z</time>
      </trkpt>
      <trkpt lat="47.38503" lon="-0.50998">
        <ele>49</ele>
        <time>2022-02-28T09:01:37Z</time>
      </trkpt>
      <trkpt lat="47.38478" lon="-0.50987">
        <ele>49</ele>
        <time>2022-02-28T09:01:41Z</time>
      </trkpt>
      <trkpt lat="47.38425" lon="-0.50972">
        <ele>49</ele>
        <time>2022-02-28T09:01:51Z</time>
      </trkpt>
      <trkpt lat="47.38331" lon="-0.50948">
        <ele>49</ele>
        <time>2022-02-28T09:02:08Z</time>
      </trkpt>
      <trkpt lat="47.38261" lon="-0.50939">
        <ele>47</ele>
        <time>2022-02-28T09:02:20Z</time>
      </trkpt>
      <trkpt lat="47.38196" lon="-0.50917">
        <ele>45</ele>
        <time>2022-02-28T09:02:32Z</time>
      </trkpt>
      <trkpt lat="47.38148" lon="-0.50897">
        <ele>44</ele>
        <time>2022-02-28T09:02:41Z</time>
      </trkpt>
      <trkpt lat="47.38024" lon="-0.50837">
        <ele>41</ele>
        <time>2022-02-28T09:03:04Z</time>
      </trkpt>
      <trkpt lat="47.38001" lon="-0.50819">
        <ele>41</ele>
        <time>2022-02-28T09:03:09Z</time>
      </trkpt>
      <trkpt lat="47.37986" lon="-0.50802">
        <ele>40</ele>
        <time>2022-02-28T09:03:12Z</time>
      </trkpt>
      <trkpt lat="47.37965" lon="-0.50768">
        <ele>39</ele>
        <time>2022-02-28T09:03:18Z</time>
      </trkpt>
      <trkpt lat="47.37936" lon="-0.50713">
        <ele>38</ele>
        <time>2022-02-28T09:03:26Z</time>
      </trkpt>
      <trkpt lat="47.3791" lon="-0.50678">
        <ele>38</ele>
        <time>2022-02-28T09:03:32Z</time>
      </trkpt>
      <trkpt lat="47.37873" lon="-0.50645">
        <ele>36</ele>
        <time>2022-02-28T09:03:40Z</time>
      </trkpt>
      <trkpt lat="47.3784" lon="-0.50612">
        <ele>34</ele>
        <time>2022-02-28T09:03:47Z</time>
      </trkpt>
      <trkpt lat="47.3782" lon="-0.50584">
        <ele>34</ele>
        <time>2022-02-28T09:03:52Z</time>
      </trkpt>
      <trkpt lat="47.37812" lon="-0.50568">
        <ele>33</ele>
        <time>2022-02-28T09:03:54Z</time>
      </trkpt>
      <trkpt lat="47.37741" lon="-0.50379">
        <ele>29</ele>
        <time>2022-02-28T09:04:21Z</time>
      </trkpt>
      <trkpt lat="47.37718" lon="-0.50333">
        <ele>29</ele>
        <time>2022-02-28T09:04:27Z</time>
      </trkpt>
      <trkpt lat="47.37663" lon="-0.50253">
        <ele>27</ele>
        <time>2022-02-28T09:04:41Z</time>
      </trkpt>
      <trkpt lat="47.37635" lon="-0.50209">
        <ele>27</ele>
        <time>2022-02-28T09:04:48Z</time>
      </trkpt>
      <trkpt lat="47.37568" lon="-0.50081">
        <ele>29</ele>
        <time>2022-02-28T09:05:08Z</time>
      </trkpt>
      <trkpt lat="47.37542" lon="-0.50039">
        <ele>29</ele>
        <time>2022-02-28T09:05:15Z</time>
      </trkpt>
      <trkpt lat="47.37487" lon="-0.4996">
        <ele>29</ele>
        <time>2022-02-28T09:05:28Z</time>
      </trkpt>
      <trkpt lat="47.37437" lon="-0.499">
        <ele>27</ele>
        <time>2022-02-28T09:05:40Z</time>
      </trkpt>
      <trkpt lat="47.37393" lon="-0.49856">
        <ele>27</ele>
        <time>2022-02-28T09:05:49Z</time>
      </trkpt>
      <trkpt lat="47.37375" lon="-0.49833">
        <ele>27</ele>
        <time>2022-02-28T09:05:54Z</time>
      </trkpt>
      <trkpt lat="47.37365" lon="-0.49814">
        <ele>27</ele>
        <time>2022-02-28T09:05:56Z</time>
      </trkpt>
      <trkpt lat="47.37332" lon="-0.49726">
        <ele>27</ele>
        <time>2022-02-28T09:06:09Z</time>
      </trkpt>
      <trkpt lat="47.37324" lon="-0.49718">
        <ele>27</ele>
        <time>2022-02-28T09:06:10Z</time>
      </trkpt>
      <trkpt lat="47.37312" lon="-0.49716">
        <ele>27</ele>
        <time>2022-02-28T09:06:12Z</time>
      </trkpt>
      <trkpt lat="47.37292" lon="-0.49718">
        <ele>27</ele>
        <time>2022-02-28T09:06:16Z</time>
      </trkpt>
      <trkpt lat="47.37259" lon="-0.49721">
        <ele>27</ele>
        <time>2022-02-28T09:06:22Z</time>
      </trkpt>
      <trkpt lat="47.37235" lon="-0.49719">
        <ele>28</ele>
        <time>2022-02-28T09:06:26Z</time>
      </trkpt>
      <trkpt lat="47.37221" lon="-0.49716">
        <ele>29</ele>
        <time>2022-02-28T09:06:29Z</time>
      </trkpt>
      <trkpt lat="47.37044" lon="-0.49652">
        <ele>39</ele>
        <time>2022-02-28T09:07:01Z</time>
      </trkpt>
      <trkpt lat="47.37045" lon="-0.49643">
        <ele>39</ele>
        <time>2022-02-28T09:07:02Z</time>
      </trkpt>
      <trkpt lat="47.37044" lon="-0.4963">
        <ele>39</ele>
        <time>2022-02-28T09:07:04Z</time>
      </trkpt>
      <trkpt lat="47.37036" lon="-0.49587">
        <ele>38</ele>
        <time>2022-02-28T09:07:09Z</time>
      </trkpt>
      <trkpt lat="47.37027" lon="-0.49557">
        <ele>38</ele>
        <time>2022-02-28T09:07:13Z</time>
      </trkpt>
      <trkpt lat="47.36992" lon="-0.49417">
        <ele>37</ele>
        <time>2022-02-28T09:07:31Z</time>
      </trkpt>
      <trkpt lat="47.36974" lon="-0.49355">
        <ele>38</ele>
        <time>2022-02-28T09:07:39Z</time>
      </trkpt>
      <trkpt lat="47.36968" lon="-0.49304">
        <ele>38</ele>
        <time>2022-02-28T09:07:45Z</time>
      </trkpt>
      <trkpt lat="47.36959" lon="-0.49253">
        <ele>39</ele>
        <time>2022-02-28T09:07:52Z</time>
      </trkpt>
      <trkpt lat="47.36928" lon="-0.49103">
        <ele>37</ele>
        <time>2022-02-28T09:08:11Z</time>
      </trkpt>
      <trkpt lat="47.36861" lon="-0.4876">
        <ele>36</ele>
        <time>2022-02-28T09:08:54Z</time>
      </trkpt>
      <trkpt lat="47.36855" lon="-0.48736">
        <ele>37</ele>
        <time>2022-02-28T09:08:57Z</time>
      </trkpt>
      <trkpt lat="47.36835" lon="-0.48672">
        <ele>39</ele>
        <time>2022-02-28T09:09:05Z</time>
      </trkpt>
      <trkpt lat="47.36797" lon="-0.48526">
        <ele>40</ele>
        <time>2022-02-28T09:09:24Z</time>
      </trkpt>
      <trkpt lat="47.36785" lon="-0.48465">
        <ele>40</ele>
        <time>2022-02-28T09:09:32Z</time>
      </trkpt>
      <trkpt lat="47.3677" lon="-0.48365">
        <ele>39</ele>
        <time>2022-02-28T09:09:44Z</time>
      </trkpt>
      <trkpt lat="47.36764" lon="-0.48333">
        <ele>39</ele>
        <time>2022-02-28T09:09:48Z</time>
      </trkpt>
      <trkpt lat="47.36755" lon="-0.48303">
        <ele>39</ele>
        <time>2022-02-28T09:09:52Z</time>
      </trkpt>
      <trkpt lat="47.36689" lon="-0.48152">
        <ele>38</ele>
        <time>2022-02-28T09:10:14Z</time>
      </trkpt>
      <trkpt lat="47.36621" lon="-0.48024">
        <ele>36</ele>
        <time>2022-02-28T09:10:33Z</time>
      </trkpt>
      <trkpt lat="47.36576" lon="-0.47925">
        <ele>36</ele>
        <time>2022-02-28T09:10:48Z</time>
      </trkpt>
      <trkpt lat="47.36554" lon="-0.47859">
        <ele>34</ele>
        <time>2022-02-28T09:10:57Z</time>
      </trkpt>
      <trkpt lat="47.3654" lon="-0.47838">
        <ele>34</ele>
        <time>2022-02-28T09:11:00Z</time>
      </trkpt>
      <trkpt lat="47.36527" lon="-0.47831">
        <ele>34</ele>
        <time>2022-02-28T09:11:03Z</time>
      </trkpt>
      <trkpt lat="47.3651" lon="-0.47831">
        <ele>34</ele>
        <time>2022-02-28T09:11:06Z</time>
      </trkpt>
      <trkpt lat="47.36409" lon="-0.47864">
        <ele>35</ele>
        <time>2022-02-28T09:11:24Z</time>
      </trkpt>
      <trkpt lat="47.36383" lon="-0.47868">
        <ele>35</ele>
        <time>2022-02-28T09:11:29Z</time>
      </trkpt>
      <trkpt lat="47.36327" lon="-0.47862">
        <ele>35</ele>
        <time>2022-02-28T09:11:39Z</time>
      </trkpt>
      <trkpt lat="47.36293" lon="-0.47856">
        <ele>36</ele>
        <time>2022-02-28T09:11:45Z</time>
      </trkpt>
      <trkpt lat="47.36274" lon="-0.47846">
        <ele>36</ele>
        <time>2022-02-28T09:11:48Z</time>
      </trkpt>
      <trkpt lat="47.36258" lon="-0.4783">
        <ele>36</ele>
        <time>2022-02-28T09:11:52Z</time>
      </trkpt>
      <trkpt lat="47.3624" lon="-0.47804">
        <ele>35</ele>
        <time>2022-02-28T09:11:56Z</time>
      </trkpt>
      <trkpt lat="47.36227" lon="-0.4778">
        <ele>34</ele>
        <time>2022-02-28T09:12:00Z</time>
      </trkpt>
      <trkpt lat="47.36217" lon="-0.47753">
        <ele>33</ele>
        <time>2022-02-28T09:12:04Z</time>
      </trkpt>
      <trkpt lat="47.36201" lon="-0.47666">
        <ele>31</ele>
        <time>2022-02-28T09:12:15Z</time>
      </trkpt>
      <trkpt lat="47.36199" lon="-0.47627">
        <ele>32</ele>
        <time>2022-02-28T09:12:19Z</time>
      </trkpt>
      <trkpt lat="47.362" lon="-0.47608">
        <ele>32</ele>
        <time>2022-02-28T09:12:22Z</time>
      </trkpt>
      <trkpt lat="47.36211" lon="-0.47497">
        <ele>34</ele>
        <time>2022-02-28T09:12:35Z</time>
      </trkpt>
      <trkpt lat="47.36212" lon="-0.47475">
        <ele>34</ele>
        <time>2022-02-28T09:12:38Z</time>
      </trkpt>
      <trkpt lat="47.3621" lon="-0.47451">
        <ele>35</ele>
        <time>2022-02-28T09:12:41Z</time>
      </trkpt>
      <trkpt lat="47.36207" lon="-0.47438">
        <ele>36</ele>
        <time>2022-02-28T09:12:42Z</time>
      </trkpt>
      <trkpt lat="47.36116" lon="-0.4745">
        <ele>39</ele>
        <time>2022-02-28T09:12:59Z</time>
      </trkpt>
      <trkpt lat="47.35983" lon="-0.47451">
        <ele>41</ele>
        <time>2022-02-28T09:13:22Z</time>
      </trkpt>
      <trkpt lat="47.35961" lon="-0.47453">
        <ele>42</ele>
        <time>2022-02-28T09:13:26Z</time>
      </trkpt>
      <trkpt lat="47.35857" lon="-0.47473">
        <ele>44</ele>
        <time>2022-02-28T09:13:45Z</time>
      </trkpt>
      <trkpt lat="47.35581" lon="-0.47508">
        <ele>50</ele>
        <time>2022-02-28T09:14:34Z</time>
      </trkpt>
      <trkpt lat="47.35519" lon="-0.47528">
        <ele>50</ele>
        <time>2022-02-28T09:14:45Z</time>
      </trkpt>
      <trkpt lat="47.35461" lon="-0.47553">
        <ele>49</ele>
        <time>2022-02-28T09:14:56Z</time>
      </trkpt>
      <trkpt lat="47.35398" lon="-0.47553">
        <ele>52</ele>
        <time>2022-02-28T09:15:07Z</time>
      </trkpt>
      <trkpt lat="47.35333" lon="-0.47526">
        <ele>56</ele>
        <time>2022-02-28T09:15:19Z</time>
      </trkpt>
      <trkpt lat="47.35311" lon="-0.47513">
        <ele>57</ele>
        <time>2022-02-28T09:15:24Z</time>
      </trkpt>
      <trkpt lat="47.35302" lon="-0.47506">
        <ele>57</ele>
        <time>2022-02-28T09:15:25Z</time>
      </trkpt>
      <trkpt lat="47.35272" lon="-0.47472">
        <ele>59</ele>
        <time>2022-02-28T09:15:32Z</time>
      </trkpt>
      <trkpt lat="47.35136" lon="-0.47415">
        <ele>61</ele>
        <time>2022-02-28T09:15:57Z</time>
      </trkpt>
      <trkpt lat="47.3508" lon="-0.47428">
        <ele>60</ele>
        <time>2022-02-28T09:16:07Z</time>
      </trkpt>
      <trkpt lat="47.34947" lon="-0.47448">
        <ele>60</ele>
        <time>2022-02-28T09:16:31Z</time>
      </trkpt>
      <trkpt lat="47.3488" lon="-0.47463">
        <ele>62</ele>
        <time>2022-02-28T09:16:43Z</time>
      </trkpt>
      <trkpt lat="47.34844" lon="-0.47474">
        <ele>63</ele>
        <time>2022-02-28T09:16:50Z</time>
      </trkpt>
      <trkpt lat="47.34812" lon="-0.47487">
        <ele>64</ele>
        <time>2022-02-28T09:16:56Z</time>
      </trkpt>
      <trkpt lat="47.34765" lon="-0.47519">
        <ele>65</ele>
        <time>2022-02-28T09:17:05Z</time>
      </trkpt>
      <trkpt lat="47.34722" lon="-0.47551">
        <ele>66</ele>
        <time>2022-02-28T09:17:13Z</time>
      </trkpt>
      <trkpt lat="47.34641" lon="-0.47583">
        <ele>68</ele>
        <time>2022-02-28T09:17:28Z</time>
      </trkpt>
      <trkpt lat="47.34527" lon="-0.47624">
        <ele>69</ele>
        <time>2022-02-28T09:17:49Z</time>
      </trkpt>
      <trkpt lat="47.34486" lon="-0.47645">
        <ele>70</ele>
        <time>2022-02-28T09:17:57Z</time>
      </trkpt>
      <trkpt lat="47.34439" lon="-0.47681">
        <ele>70</ele>
        <time>2022-02-28T09:18:06Z</time>
      </trkpt>
      <trkpt lat="47.34429" lon="-0.47697">
        <ele>70</ele>
        <time>2022-02-28T09:18:09Z</time>
      </trkpt>
      <trkpt lat="47.34425" lon="-0.47714">
        <ele>70</ele>
        <time>2022-02-28T09:18:11Z</time>
      </trkpt>
      <trkpt lat="47.34423" lon="-0.4774">
        <ele>70</ele>
        <time>2022-02-28T09:18:14Z</time>
      </trkpt>
      <trkpt lat="47.34419" lon="-0.47759">
        <ele>70</ele>
        <time>2022-02-28T09:18:17Z</time>
      </trkpt>
      <trkpt lat="47.34412" lon="-0.47774">
        <ele>70</ele>
        <time>2022-02-28T09:18:19Z</time>
      </trkpt>
      <trkpt lat="47.34352" lon="-0.47802">
        <ele>69</ele>
        <time>2022-02-28T09:18:30Z</time>
      </trkpt>
      <trkpt lat="47.34324" lon="-0.47817">
        <ele>70</ele>
        <time>2022-02-28T09:18:35Z</time>
      </trkpt>
      <trkpt lat="47.34293" lon="-0.47853">
        <ele>70</ele>
        <time>2022-02-28T09:18:42Z</time>
      </trkpt>
      <trkpt lat="47.34266" lon="-0.47878">
        <ele>71</ele>
        <time>2022-02-28T09:18:48Z</time>
      </trkpt>
      <trkpt lat="47.34254" lon="-0.47883">
        <ele>71</ele>
        <time>2022-02-28T09:18:50Z</time>
      </trkpt>
      <trkpt lat="47.34242" lon="-0.47878">
        <ele>70</ele>
        <time>2022-02-28T09:18:53Z</time>
      </trkpt>
      <trkpt lat="47.34222" lon="-0.4786">
        <ele>70</ele>
        <time>2022-02-28T09:18:57Z</time>
      </trkpt>
      <trkpt lat="47.34148" lon="-0.47785">
        <ele>70</ele>
        <time>2022-02-28T09:19:13Z</time>
      </trkpt>
      <trkpt lat="47.34111" lon="-0.47759">
        <ele>70</ele>
        <time>2022-02-28T09:19:20Z</time>
      </trkpt>
      <trkpt lat="47.34043" lon="-0.47723">
        <ele>71</ele>
        <time>2022-02-28T09:19:33Z</time>
      </trkpt>
      <trkpt lat="47.34001" lon="-0.47712">
        <ele>72</ele>
        <time>2022-02-28T09:19:40Z</time>
      </trkpt>
      <trkpt lat="47.33989" lon="-0.47717">
        <ele>72</ele>
        <time>2022-02-28T09:19:43Z</time>
      </trkpt>
      <trkpt lat="47.33901" lon="-0.47771">
        <ele>72</ele>
        <time>2022-02-28T09:20:00Z</time>
      </trkpt>
      <trkpt lat="47.33846" lon="-0.47799">
        <ele>73</ele>
        <time>2022-02-28T09:20:10Z</time>
      </trkpt>
      <trkpt lat="47.33801" lon="-0.47811">
        <ele>73</ele>
        <time>2022-02-28T09:20:18Z</time>
      </trkpt>
      <trkpt lat="47.33764" lon="-0.47816">
        <ele>73</ele>
        <time>2022-02-28T09:20:25Z</time>
      </trkpt>
      <trkpt lat="47.337" lon="-0.4782">
        <ele>74</ele>
        <time>2022-02-28T09:20:36Z</time>
      </trkpt>
      <trkpt lat="47.33655" lon="-0.47818">
        <ele>74</ele>
        <time>2022-02-28T09:20:44Z</time>
      </trkpt>
      <trkpt lat="47.33625" lon="-0.47836">
        <ele>73</ele>
        <time>2022-02-28T09:20:50Z</time>
      </trkpt>
      <trkpt lat="47.33599" lon="-0.47821">
        <ele>72</ele>
        <time>2022-02-28T09:20:55Z</time>
      </trkpt>
      <trkpt lat="47.33569" lon="-0.47799">
        <ele>72</ele>
        <time>2022-02-28T09:21:01Z</time>
      </trkpt>
      <trkpt lat="47.33524" lon="-0.47756">
        <ele>71</ele>
        <time>2022-02-28T09:21:10Z</time>
      </trkpt>
      <trkpt lat="47.33481" lon="-0.4772">
        <ele>70</ele>
        <time>2022-02-28T09:21:19Z</time>
      </trkpt>
      <trkpt lat="47.33411" lon="-0.47631">
        <ele>68</ele>
        <time>2022-02-28T09:21:36Z</time>
      </trkpt>
      <trkpt lat="47.3338" lon="-0.47599">
        <ele>67</ele>
        <time>2022-02-28T09:21:42Z</time>
      </trkpt>
      <trkpt lat="47.33352" lon="-0.47654">
        <ele>67</ele>
        <time>2022-02-28T09:21:51Z</time>
      </trkpt>
      <trkpt lat="47.33326" lon="-0.47681">
        <ele>67</ele>
        <time>2022-02-28T09:21:56Z</time>
      </trkpt>
      <trkpt lat="47.33326" lon="-0.47688">
        <ele>67</ele>
        <time>2022-02-28T09:21:57Z</time>
      </trkpt>
      <trkpt lat="47.33322" lon="-0.47692">
        <ele>68</ele>
        <time>2022-02-28T09:21:58Z</time>
      </trkpt>
      <trkpt lat="47.33319" lon="-0.47689">
        <ele>68</ele>
        <time>2022-02-28T09:21:59Z</time>
      </trkpt>
      <trkpt lat="47.33318" lon="-0.47683">
        <ele>68</ele>
        <time>2022-02-28T09:21:59Z</time>
      </trkpt>
      <trkpt lat="47.33288" lon="-0.47687">
        <ele>68</ele>
        <time>2022-02-28T09:22:05Z</time>
      </trkpt>
      <trkpt lat="47.33209" lon="-0.47702">
        <ele>70</ele>
        <time>2022-02-28T09:22:19Z</time>
      </trkpt>
      <trkpt lat="47.33184" lon="-0.47713">
        <ele>71</ele>
        <time>2022-02-28T09:22:24Z</time>
      </trkpt>
      <trkpt lat="47.33173" lon="-0.47723">
        <ele>72</ele>
        <time>2022-02-28T09:22:26Z</time>
      </trkpt>
      <trkpt lat="47.3315" lon="-0.47734">
        <ele>72</ele>
        <time>2022-02-28T09:22:30Z</time>
      </trkpt>
      <trkpt lat="47.33082" lon="-0.47754">
        <ele>73</ele>
        <time>2022-02-28T09:22:42Z</time>
      </trkpt>
      <trkpt lat="47.33077" lon="-0.47753">
        <ele>73</ele>
        <time>2022-02-28T09:22:43Z</time>
      </trkpt>
      <trkpt lat="47.33072" lon="-0.47748">
        <ele>73</ele>
        <time>2022-02-28T09:22:44Z</time>
      </trkpt>
      <trkpt lat="47.33019" lon="-0.47557">
        <ele>72</ele>
        <time>2022-02-28T09:23:09Z</time>
      </trkpt>
      <trkpt lat="47.33006" lon="-0.47483">
        <ele>71</ele>
        <time>2022-02-28T09:23:19Z</time>
      </trkpt>
      <trkpt lat="47.33" lon="-0.47469">
        <ele>70</ele>
        <time>2022-02-28T09:23:21Z</time>
      </trkpt>
      <trkpt lat="47.32988" lon="-0.47458">
        <ele>70</ele>
        <time>2022-02-28T09:23:23Z</time>
      </trkpt>
      <trkpt lat="47.3298" lon="-0.47454">
        <ele>70</ele>
        <time>2022-02-28T09:23:25Z</time>
      </trkpt>
      <trkpt lat="47.32928" lon="-0.47442">
        <ele>71</ele>
        <time>2022-02-28T09:23:34Z</time>
      </trkpt>
      <trkpt lat="47.32916" lon="-0.47437">
        <ele>71</ele>
        <time>2022-02-28T09:23:36Z</time>
      </trkpt>
      <trkpt lat="47.32902" lon="-0.47424">
        <ele>71</ele>
        <time>2022-02-28T09:23:39Z</time>
      </trkpt>
      <trkpt lat="47.32889" lon="-0.47403">
        <ele>71</ele>
        <time>2022-02-28T09:23:43Z</time>
      </trkpt>
      <trkpt lat="47.32864" lon="-0.47341">
        <ele>71</ele>
        <time>2022-02-28T09:23:51Z</time>
      </trkpt>
      <trkpt lat="47.32854" lon="-0.47323">
        <ele>71</ele>
        <time>2022-02-28T09:23:54Z</time>
      </trkpt>
      <trkpt lat="47.32813" lon="-0.47261">
        <ele>72</ele>
        <time>2022-02-28T09:24:04Z</time>
      </trkpt>
      <trkpt lat="47.32789" lon="-0.47216">
        <ele>72</ele>
        <time>2022-02-28T09:24:11Z</time>
      </trkpt>
      <trkpt lat="47.32775" lon="-0.47182">
        <ele>72</ele>
        <time>2022-02-28T09:24:16Z</time>
      </trkpt>
      <trkpt lat="47.32767" lon="-0.47154">
        <ele>72</ele>
        <time>2022-02-28T09:24:20Z</time>
      </trkpt>
      <trkpt lat="47.32761" lon="-0.47125">
        <ele>73</ele>
        <time>2022-02-28T09:24:24Z</time>
      </trkpt>
      <trkpt lat="47.32745" lon="-0.47022">
        <ele>74</ele>
        <time>2022-02-28T09:24:36Z</time>
      </trkpt>
      <trkpt lat="47.32742" lon="-0.46997">
        <ele>74</ele>
        <time>2022-02-28T09:24:39Z</time>
      </trkpt>
      <trkpt lat="47.32738" lon="-0.46929">
        <ele>75</ele>
        <time>2022-02-28T09:24:48Z</time>
      </trkpt>
      <trkpt lat="47.32715" lon="-0.46763">
        <ele>76</ele>
        <time>2022-02-28T09:25:08Z</time>
      </trkpt>
      <trkpt lat="47.327" lon="-0.46629">
        <ele>74</ele>
        <time>2022-02-28T09:25:24Z</time>
      </trkpt>
      <trkpt lat="47.32693" lon="-0.466">
        <ele>73</ele>
        <time>2022-02-28T09:25:28Z</time>
      </trkpt>
      <trkpt lat="47.32677" lon="-0.46559">
        <ele>72</ele>
        <time>2022-02-28T09:25:34Z</time>
      </trkpt>
      <trkpt lat="47.32654" lon="-0.46519">
        <ele>70</ele>
        <time>2022-02-28T09:25:40Z</time>
      </trkpt>
      <trkpt lat="47.3264" lon="-0.46498">
        <ele>69</ele>
        <time>2022-02-28T09:25:44Z</time>
      </trkpt>
      <trkpt lat="47.32308" lon="-0.46069">
        <ele>49</ele>
        <time>2022-02-28T09:27:02Z</time>
      </trkpt>
      <trkpt lat="47.32297" lon="-0.46059">
        <ele>49</ele>
        <time>2022-02-28T09:27:04Z</time>
      </trkpt>
      <trkpt lat="47.3228" lon="-0.46044">
        <ele>50</ele>
        <time>2022-02-28T09:27:08Z</time>
      </trkpt>
      <trkpt lat="47.32265" lon="-0.46037">
        <ele>50</ele>
        <time>2022-02-28T09:27:11Z</time>
      </trkpt>
      <trkpt lat="47.32202" lon="-0.46024">
        <ele>51</ele>
        <time>2022-02-28T09:27:22Z</time>
      </trkpt>
      <trkpt lat="47.32166" lon="-0.46028">
        <ele>50</ele>
        <time>2022-02-28T09:27:29Z</time>
      </trkpt>
      <trkpt lat="47.3207" lon="-0.46065">
        <ele>57</ele>
        <time>2022-02-28T09:27:46Z</time>
      </trkpt>
      <trkpt lat="47.32049" lon="-0.46071">
        <ele>58</ele>
        <time>2022-02-28T09:27:50Z</time>
      </trkpt>
      <trkpt lat="47.32035" lon="-0.46072">
        <ele>59</ele>
        <time>2022-02-28T09:27:53Z</time>
      </trkpt>
      <trkpt lat="47.32021" lon="-0.4607">
        <ele>59</ele>
        <time>2022-02-28T09:27:55Z</time>
      </trkpt>
      <trkpt lat="47.32005" lon="-0.46064">
        <ele>60</ele>
        <time>2022-02-28T09:27:58Z</time>
      </trkpt>
      <trkpt lat="47.31927" lon="-0.46015">
        <ele>62</ele>
        <time>2022-02-28T09:28:13Z</time>
      </trkpt>
      <trkpt lat="47.31902" lon="-0.46006">
        <ele>62</ele>
        <time>2022-02-28T09:28:18Z</time>
      </trkpt>
      <trkpt lat="47.31836" lon="-0.46005">
        <ele>65</ele>
        <time>2022-02-28T09:28:29Z</time>
      </trkpt>
      <trkpt lat="47.31796" lon="-0.4599">
        <ele>64</ele>
        <time>2022-02-28T09:28:37Z</time>
      </trkpt>
      <trkpt lat="47.31699" lon="-0.45964">
        <ele>64</ele>
        <time>2022-02-28T09:28:54Z</time>
      </trkpt>
      <trkpt lat="47.31614" lon="-0.45962">
        <ele>64</ele>
        <time>2022-02-28T09:29:09Z</time>
      </trkpt>
      <trkpt lat="47.31519" lon="-0.45955">
        <ele>63</ele>
        <time>2022-02-28T09:29:26Z</time>
      </trkpt>
      <trkpt lat="47.31382" lon="-0.45957">
        <ele>60</ele>
        <time>2022-02-28T09:29:51Z</time>
      </trkpt>
      <trkpt lat="47.31365" lon="-0.45954">
        <ele>60</ele>
        <time>2022-02-28T09:29:54Z</time>
      </trkpt>
      <trkpt lat="47.3135" lon="-0.4595">
        <ele>59</ele>
        <time>2022-02-28T09:29:56Z</time>
      </trkpt>
      <trkpt lat="47.3133" lon="-0.45936">
        <ele>59</ele>
        <time>2022-02-28T09:30:00Z</time>
      </trkpt>
      <trkpt lat="47.31278" lon="-0.45893">
        <ele>62</ele>
        <time>2022-02-28T09:30:11Z</time>
      </trkpt>
      <trkpt lat="47.31249" lon="-0.45873">
        <ele>64</ele>
        <time>2022-02-28T09:30:17Z</time>
      </trkpt>
      <trkpt lat="47.31197" lon="-0.45841">
        <ele>65</ele>
        <time>2022-02-28T09:30:27Z</time>
      </trkpt>
      <trkpt lat="47.31108" lon="-0.45799">
        <ele>67</ele>
        <time>2022-02-28T09:30:43Z</time>
      </trkpt>
      <trkpt lat="47.31067" lon="-0.45784">
        <ele>67</ele>
        <time>2022-02-28T09:30:51Z</time>
      </trkpt>
      <trkpt lat="47.31042" lon="-0.45772">
        <ele>67</ele>
        <time>2022-02-28T09:30:56Z</time>
      </trkpt>
      <trkpt lat="47.30916" lon="-0.45701">
        <ele>66</ele>
        <time>2022-02-28T09:31:20Z</time>
      </trkpt>
      <trkpt lat="47.30844" lon="-0.45652">
        <ele>67</ele>
        <time>2022-02-28T09:31:34Z</time>
      </trkpt>
      <trkpt lat="47.30819" lon="-0.45638">
        <ele>67</ele>
        <time>2022-02-28T09:31:38Z</time>
      </trkpt>
      <trkpt lat="47.3078" lon="-0.45625">
        <ele>68</ele>
        <time>2022-02-28T09:31:45Z</time>
      </trkpt>
      <trkpt lat="47.30714" lon="-0.45614">
        <ele>68</ele>
        <time>2022-02-28T09:31:57Z</time>
      </trkpt>
      <trkpt lat="47.30692" lon="-0.45606">
        <ele>68</ele>
        <time>2022-02-28T09:32:01Z</time>
      </trkpt>
      <trkpt lat="47.30652" lon="-0.45585">
        <ele>69</ele>
        <time>2022-02-28T09:32:09Z</time>
      </trkpt>
      <trkpt lat="47.30586" lon="-0.45566">
        <ele>69</ele>
        <time>2022-02-28T09:32:21Z</time>
      </trkpt>
      <trkpt lat="47.30565" lon="-0.45582">
        <ele>70</ele>
        <time>2022-02-28T09:32:25Z</time>
      </trkpt>
      <trkpt lat="47.30421" lon="-0.4563">
        <ele>72</ele>
        <time>2022-02-28T09:32:51Z</time>
      </trkpt>
      <trkpt lat="47.30369" lon="-0.45643">
        <ele>73</ele>
        <time>2022-02-28T09:33:01Z</time>
      </trkpt>
      <trkpt lat="47.30318" lon="-0.45665">
        <ele>73</ele>
        <time>2022-02-28T09:33:10Z</time>
      </trkpt>
      <trkpt lat="47.30199" lon="-0.4568">
        <ele>75</ele>
        <time>2022-02-28T09:33:31Z</time>
      </trkpt>
      <trkpt lat="47.30175" lon="-0.45697">
        <ele>75</ele>
        <time>2022-02-28T09:33:36Z</time>
      </trkpt>
      <trkpt lat="47.30104" lon="-0.45769">
        <ele>73</ele>
        <time>2022-02-28T09:33:51Z</time>
      </trkpt>
      <trkpt lat="47.30041" lon="-0.45813">
        <ele>72</ele>
        <time>2022-02-28T09:34:04Z</time>
      </trkpt>
      <trkpt lat="47.29999" lon="-0.4583">
        <ele>71</ele>
        <time>2022-02-28T09:34:12Z</time>
      </trkpt>
      <trkpt lat="47.29927" lon="-0.45836">
        <ele>73</ele>
        <time>2022-02-28T09:34:24Z</time>
      </trkpt>
      <trkpt lat="47.29818" lon="-0.45825">
        <ele>73</ele>
        <time>2022-02-28T09:34:44Z</time>
      </trkpt>
      <trkpt lat="47.29769" lon="-0.45827">
        <ele>72</ele>
        <time>2022-02-28T09:34:53Z</time>
      </trkpt>
      <trkpt lat="47.2973" lon="-0.45833">
        <ele>72</ele>
        <time>2022-02-28T09:35:00Z</time>
      </trkpt>
      <trkpt lat="47.2969" lon="-0.45854">
        <ele>73</ele>
        <time>2022-02-28T09:35:07Z</time>
      </trkpt>
      <trkpt lat="47.2966" lon="-0.45875">
        <ele>73</ele>
        <time>2022-02-28T09:35:13Z</time>
      </trkpt>
      <trkpt lat="47.29651" lon="-0.45886">
        <ele>73</ele>
        <time>2022-02-28T09:35:15Z</time>
      </trkpt>
      <trkpt lat="47.29635" lon="-0.45896">
        <ele>74</ele>
        <time>2022-02-28T09:35:18Z</time>
      </trkpt>
      <trkpt lat="47.29631" lon="-0.45896">
        <ele>74</ele>
        <time>2022-02-28T09:35:19Z</time>
      </trkpt>
      <trkpt lat="47.29618" lon="-0.45913">
        <ele>75</ele>
        <time>2022-02-28T09:35:22Z</time>
      </trkpt>
      <trkpt lat="47.29543" lon="-0.45988">
        <ele>77</ele>
        <time>2022-02-28T09:35:38Z</time>
      </trkpt>
      <trkpt lat="47.29504" lon="-0.46039">
        <ele>78</ele>
        <time>2022-02-28T09:35:47Z</time>
      </trkpt>
      <trkpt lat="47.29456" lon="-0.45988">
        <ele>79</ele>
        <time>2022-02-28T09:35:58Z</time>
      </trkpt>
      <trkpt lat="47.29341" lon="-0.45879">
        <ele>74</ele>
        <time>2022-02-28T09:36:22Z</time>
      </trkpt>
      <trkpt lat="47.29338" lon="-0.45877">
        <ele>74</ele>
        <time>2022-02-28T09:36:23Z</time>
      </trkpt>
      <trkpt lat="47.29179" lon="-0.46207">
        <ele>76</ele>
        <time>2022-02-28T09:37:12Z</time>
      </trkpt>
      <trkpt lat="47.2913" lon="-0.46314">
        <ele>79</ele>
        <time>2022-02-28T09:37:27Z</time>
      </trkpt>
      <trkpt lat="47.29111" lon="-0.46367">
        <ele>80</ele>
        <time>2022-02-28T09:37:35Z</time>
      </trkpt>
      <trkpt lat="47.29095" lon="-0.46428">
        <ele>80</ele>
        <time>2022-02-28T09:37:42Z</time>
      </trkpt>
      <trkpt lat="47.29086" lon="-0.46485">
        <ele>79</ele>
        <time>2022-02-28T09:37:50Z</time>
      </trkpt>
      <trkpt lat="47.29077" lon="-0.46581">
        <ele>81</ele>
        <time>2022-02-28T09:38:01Z</time>
      </trkpt>
      <trkpt lat="47.29064" lon="-0.46653">
        <ele>83</ele>
        <time>2022-02-28T09:38:10Z</time>
      </trkpt>
      <trkpt lat="47.2905" lon="-0.46706">
        <ele>83</ele>
        <time>2022-02-28T09:38:17Z</time>
      </trkpt>
      <trkpt lat="47.2883" lon="-0.47274">
        <ele>86</ele>
        <time>2022-02-28T09:39:36Z</time>
      </trkpt>
      <trkpt lat="47.28754" lon="-0.47466">
        <ele>86</ele>
        <time>2022-02-28T09:40:03Z</time>
      </trkpt>
      <trkpt lat="47.28717" lon="-0.4754">
        <ele>86</ele>
        <time>2022-02-28T09:40:14Z</time>
      </trkpt>
      <trkpt lat="47.287" lon="-0.47569">
        <ele>86</ele>
        <time>2022-02-28T09:40:19Z</time>
      </trkpt>
      <trkpt lat="47.28663" lon="-0.4762">
        <ele>87</ele>
        <time>2022-02-28T09:40:28Z</time>
      </trkpt>
      <trkpt lat="47.28616" lon="-0.47671">
        <ele>88</ele>
        <time>2022-02-28T09:40:38Z</time>
      </trkpt>
      <trkpt lat="47.28514" lon="-0.47761">
        <ele>89</ele>
        <time>2022-02-28T09:40:59Z</time>
      </trkpt>
      <trkpt lat="47.28398" lon="-0.47856">
        <ele>90</ele>
        <time>2022-02-28T09:41:23Z</time>
      </trkpt>
      <trkpt lat="47.28271" lon="-0.47954">
        <ele>91</ele>
        <time>2022-02-28T09:41:48Z</time>
      </trkpt>
      <trkpt lat="47.27863" lon="-0.48288">
        <ele>90</ele>
        <time>2022-02-28T09:43:11Z</time>
      </trkpt>
      <trkpt lat="47.27822" lon="-0.48318">
        <ele>89</ele>
        <time>2022-02-28T09:43:19Z</time>
      </trkpt>
      <trkpt lat="47.27751" lon="-0.48378">
        <ele>87</ele>
        <time>2022-02-28T09:43:34Z</time>
      </trkpt>
      <trkpt lat="47.27727" lon="-0.48404">
        <ele>87</ele>
        <time>2022-02-28T09:43:39Z</time>
      </trkpt>
      <trkpt lat="47.2771" lon="-0.48428">
        <ele>86</ele>
        <time>2022-02-28T09:43:43Z</time>
      </trkpt>
      <trkpt lat="47.27696" lon="-0.48451">
        <ele>86</ele>
        <time>2022-02-28T09:43:47Z</time>
      </trkpt>
      <trkpt lat="47.27679" lon="-0.48487">
        <ele>85</ele>
        <time>2022-02-28T09:43:52Z</time>
      </trkpt>
      <trkpt lat="47.27674" lon="-0.48482">
        <ele>85</ele>
        <time>2022-02-28T09:43:54Z</time>
      </trkpt>
      <trkpt lat="47.27653" lon="-0.48469">
        <ele>86</ele>
        <time>2022-02-28T09:43:58Z</time>
      </trkpt>
      <trkpt lat="47.27642" lon="-0.48455">
        <ele>86</ele>
        <time>2022-02-28T09:44:00Z</time>
      </trkpt>
      <trkpt lat="47.27636" lon="-0.48442">
        <ele>87</ele>
        <time>2022-02-28T09:44:02Z</time>
      </trkpt>
      <trkpt lat="47.27613" lon="-0.48355">
        <ele>89</ele>
        <time>2022-02-28T09:44:13Z</time>
      </trkpt>
      <trkpt lat="47.27598" lon="-0.48318">
        <ele>90</ele>
        <time>2022-02-28T09:44:19Z</time>
      </trkpt>
      <trkpt lat="47.27575" lon="-0.48288">
        <ele>91</ele>
        <time>2022-02-28T09:44:24Z</time>
      </trkpt>
      <trkpt lat="47.2756" lon="-0.48262">
        <ele>91</ele>
        <time>2022-02-28T09:44:28Z</time>
      </trkpt>
      <trkpt lat="47.27529" lon="-0.48239">
        <ele>91</ele>
        <time>2022-02-28T09:44:34Z</time>
      </trkpt>
      <trkpt lat="47.27521" lon="-0.48228">
        <ele>91</ele>
        <time>2022-02-28T09:44:36Z</time>
      </trkpt>
      <trkpt lat="47.27442" lon="-0.48029">
        <ele>93</ele>
        <time>2022-02-28T09:45:04Z</time>
      </trkpt>
      <trkpt lat="47.27345" lon="-0.47833">
        <ele>89</ele>
        <time>2022-02-28T09:45:33Z</time>
      </trkpt>
      <trkpt lat="47.2729" lon="-0.47709">
        <ele>87</ele>
        <time>2022-02-28T09:45:51Z</time>
      </trkpt>
      <trkpt lat="47.27275" lon="-0.4767">
        <ele>87</ele>
        <time>2022-02-28T09:45:57Z</time>
      </trkpt>
      <trkpt lat="47.27207" lon="-0.47459">
        <ele>91</ele>
        <time>2022-02-28T09:46:25Z</time>
      </trkpt>
      <trkpt lat="47.27163" lon="-0.47332">
        <ele>93</ele>
        <time>2022-02-28T09:46:42Z</time>
      </trkpt>
      <trkpt lat="47.27134" lon="-0.47269">
        <ele>94</ele>
        <time>2022-02-28T09:46:51Z</time>
      </trkpt>
      <trkpt lat="47.27112" lon="-0.47227">
        <ele>94</ele>
        <time>2022-02-28T09:46:58Z</time>
      </trkpt>
      <trkpt lat="47.27025" lon="-0.47077">
        <ele>93</ele>
        <time>2022-02-28T09:47:22Z</time>
      </trkpt>
      <trkpt lat="47.26945" lon="-0.46957">
        <ele>95</ele>
        <time>2022-02-28T09:47:42Z</time>
      </trkpt>
      <trkpt lat="47.26889" lon="-0.46845">
        <ele>95</ele>
        <time>2022-02-28T09:47:59Z</time>
      </trkpt>
      <trkpt lat="47.26885" lon="-0.4683">
        <ele>95</ele>
        <time>2022-02-28T09:48:01Z</time>
      </trkpt>
      <trkpt lat="47.26882" lon="-0.46811">
        <ele>95</ele>
        <time>2022-02-28T09:48:03Z</time>
      </trkpt>
      <trkpt lat="47.26881" lon="-0.46756">
        <ele>96</ele>
        <time>2022-02-28T09:48:10Z</time>
      </trkpt>
      <trkpt lat="47.26791" lon="-0.46757">
        <ele>95</ele>
        <time>2022-02-28T09:48:26Z</time>
      </trkpt>
      <trkpt lat="47.2673" lon="-0.46769">
        <ele>96</ele>
        <time>2022-02-28T09:48:37Z</time>
      </trkpt>
      <trkpt lat="47.26704" lon="-0.46776">
        <ele>96</ele>
        <time>2022-02-28T09:48:41Z</time>
      </trkpt>
      <trkpt lat="47.26676" lon="-0.46788">
        <ele>97</ele>
        <time>2022-02-28T09:48:46Z</time>
      </trkpt>
      <trkpt lat="47.26657" lon="-0.46793">
        <ele>97</ele>
        <time>2022-02-28T09:48:50Z</time>
      </trkpt>
      <trkpt lat="47.26569" lon="-0.468">
        <ele>97</ele>
        <time>2022-02-28T09:49:06Z</time>
      </trkpt>
      <trkpt lat="47.26538" lon="-0.46809">
        <ele>96</ele>
        <time>2022-02-28T09:49:11Z</time>
      </trkpt>
      <trkpt lat="47.26516" lon="-0.46819">
        <ele>95</ele>
        <time>2022-02-28T09:49:15Z</time>
      </trkpt>
      <trkpt lat="47.26469" lon="-0.4685">
        <ele>93</ele>
        <time>2022-02-28T09:49:24Z</time>
      </trkpt>
      <trkpt lat="47.26372" lon="-0.46895">
        <ele>88</ele>
        <time>2022-02-28T09:49:43Z</time>
      </trkpt>
      <trkpt lat="47.26318" lon="-0.46931">
        <ele>85</ele>
        <time>2022-02-28T09:49:53Z</time>
      </trkpt>
      <trkpt lat="47.2614" lon="-0.47053">
        <ele>71</ele>
        <time>2022-02-28T09:50:28Z</time>
      </trkpt>
      <trkpt lat="47.26034" lon="-0.47135">
        <ele>65</ele>
        <time>2022-02-28T09:50:49Z</time>
      </trkpt>
      <trkpt lat="47.26002" lon="-0.47155">
        <ele>64</ele>
        <time>2022-02-28T09:50:55Z</time>
      </trkpt>
      <trkpt lat="47.259" lon="-0.47209">
        <ele>62</ele>
        <time>2022-02-28T09:51:15Z</time>
      </trkpt>
      <trkpt lat="47.25868" lon="-0.47229">
        <ele>62</ele>
        <time>2022-02-28T09:51:21Z</time>
      </trkpt>
      <trkpt lat="47.25857" lon="-0.47241">
        <ele>62</ele>
        <time>2022-02-28T09:51:23Z</time>
      </trkpt>
      <trkpt lat="47.25846" lon="-0.47258">
        <ele>61</ele>
        <time>2022-02-28T09:51:26Z</time>
      </trkpt>
      <trkpt lat="47.25807" lon="-0.47335">
        <ele>56</ele>
        <time>2022-02-28T09:51:38Z</time>
      </trkpt>
      <trkpt lat="47.25732" lon="-0.47443">
        <ele>51</ele>
        <time>2022-02-28T09:51:56Z</time>
      </trkpt>
      <trkpt lat="47.25721" lon="-0.47461">
        <ele>50</ele>
        <time>2022-02-28T09:51:59Z</time>
      </trkpt>
      <trkpt lat="47.2569" lon="-0.4753">
        <ele>48</ele>
        <time>2022-02-28T09:52:09Z</time>
      </trkpt>
      <trkpt lat="47.2565" lon="-0.47448">
        <ele>49</ele>
        <time>2022-02-28T09:52:22Z</time>
      </trkpt>
      <trkpt lat="47.25628" lon="-0.47396">
        <ele>49</ele>
        <time>2022-02-28T09:52:29Z</time>
      </trkpt>
      <trkpt lat="47.25607" lon="-0.47341">
        <ele>49</ele>
        <time>2022-02-28T09:52:37Z</time>
      </trkpt>
      <trkpt lat="47.25565" lon="-0.47215">
        <ele>49</ele>
        <time>2022-02-28T09:52:54Z</time>
      </trkpt>
      <trkpt lat="47.25545" lon="-0.47137">
        <ele>49</ele>
        <time>2022-02-28T09:53:04Z</time>
      </trkpt>
      <trkpt lat="47.25534" lon="-0.47076">
        <ele>49</ele>
        <time>2022-02-28T09:53:11Z</time>
      </trkpt>
      <trkpt lat="47.25526" lon="-0.4699">
        <ele>48</ele>
        <time>2022-02-28T09:53:22Z</time>
      </trkpt>
      <trkpt lat="47.25521" lon="-0.46902">
        <ele>47</ele>
        <time>2022-02-28T09:53:32Z</time>
      </trkpt>
      <trkpt lat="47.25513" lon="-0.46827">
        <ele>49</ele>
        <time>2022-02-28T09:53:42Z</time>
      </trkpt>
      <trkpt lat="47.25503" lon="-0.46771">
        <ele>50</ele>
        <time>2022-02-28T09:53:49Z</time>
      </trkpt>
      <trkpt lat="47.25491" lon="-0.46725">
        <ele>52</ele>
        <time>2022-02-28T09:53:55Z</time>
      </trkpt>
      <trkpt lat="47.25482" lon="-0.46695">
        <ele>52</ele>
        <time>2022-02-28T09:53:58Z</time>
      </trkpt>
      <trkpt lat="47.2547" lon="-0.46667">
        <ele>53</ele>
        <time>2022-02-28T09:54:02Z</time>
      </trkpt>
      <trkpt lat="47.25444" lon="-0.46612">
        <ele>54</ele>
        <time>2022-02-28T09:54:11Z</time>
      </trkpt>
      <trkpt lat="47.25365" lon="-0.46472">
        <ele>53</ele>
        <time>2022-02-28T09:54:33Z</time>
      </trkpt>
      <trkpt lat="47.25281" lon="-0.46336">
        <ele>52</ele>
        <time>2022-02-28T09:54:55Z</time>
      </trkpt>
      <trkpt lat="47.25261" lon="-0.46292">
        <ele>50</ele>
        <time>2022-02-28T09:55:01Z</time>
      </trkpt>
      <trkpt lat="47.25216" lon="-0.46177">
        <ele>49</ele>
        <time>2022-02-28T09:55:17Z</time>
      </trkpt>
      <trkpt lat="47.25192" lon="-0.46132">
        <ele>48</ele>
        <time>2022-02-28T09:55:24Z</time>
      </trkpt>
      <trkpt lat="47.25165" lon="-0.46091">
        <ele>46</ele>
        <time>2022-02-28T09:55:31Z</time>
      </trkpt>
      <trkpt lat="47.25121" lon="-0.46036">
        <ele>45</ele>
        <time>2022-02-28T09:55:41Z</time>
      </trkpt>
      <trkpt lat="47.25087" lon="-0.45988">
        <ele>44</ele>
        <time>2022-02-28T09:55:50Z</time>
      </trkpt>
      <trkpt lat="47.25063" lon="-0.45944">
        <ele>44</ele>
        <time>2022-02-28T09:55:56Z</time>
      </trkpt>
      <trkpt lat="47.25041" lon="-0.45896">
        <ele>44</ele>
        <time>2022-02-28T09:56:03Z</time>
      </trkpt>
      <trkpt lat="47.25018" lon="-0.45832">
        <ele>43</ele>
        <time>2022-02-28T09:56:12Z</time>
      </trkpt>
      <trkpt lat="47.24947" lon="-0.45602">
        <ele>44</ele>
        <time>2022-02-28T09:56:43Z</time>
      </trkpt>
      <trkpt lat="47.24896" lon="-0.45464">
        <ele>46</ele>
        <time>2022-02-28T09:57:02Z</time>
      </trkpt>
      <trkpt lat="47.24815" lon="-0.45288">
        <ele>49</ele>
        <time>2022-02-28T09:57:27Z</time>
      </trkpt>
      <trkpt lat="47.24766" lon="-0.45134">
        <ele>52</ele>
        <time>2022-02-28T09:57:48Z</time>
      </trkpt>
      <trkpt lat="47.24753" lon="-0.45096">
        <ele>52</ele>
        <time>2022-02-28T09:57:53Z</time>
      </trkpt>
      <trkpt lat="47.24589" lon="-0.44766">
        <ele>56</ele>
        <time>2022-02-28T09:58:42Z</time>
      </trkpt>
      <trkpt lat="47.24523" lon="-0.44649">
        <ele>57</ele>
        <time>2022-02-28T09:59:01Z</time>
      </trkpt>
      <trkpt lat="47.24389" lon="-0.44436">
        <ele>59</ele>
        <time>2022-02-28T09:59:36Z</time>
      </trkpt>
      <trkpt lat="47.24357" lon="-0.4439">
        <ele>59</ele>
        <time>2022-02-28T09:59:44Z</time>
      </trkpt>
      <trkpt lat="47.24319" lon="-0.44344">
        <ele>59</ele>
        <time>2022-02-28T09:59:53Z</time>
      </trkpt>
      <trkpt lat="47.24252" lon="-0.44272">
        <ele>62</ele>
        <time>2022-02-28T10:00:07Z</time>
      </trkpt>
      <trkpt lat="47.24227" lon="-0.44249">
        <ele>64</ele>
        <time>2022-02-28T10:00:13Z</time>
      </trkpt>
      <trkpt lat="47.24146" lon="-0.44182">
        <ele>66</ele>
        <time>2022-02-28T10:00:29Z</time>
      </trkpt>
      <trkpt lat="47.23779" lon="-0.43913">
        <ele>62</ele>
        <time>2022-02-28T10:01:42Z</time>
      </trkpt>
      <trkpt lat="47.23719" lon="-0.43876">
        <ele>61</ele>
        <time>2022-02-28T10:01:54Z</time>
      </trkpt>
      <trkpt lat="47.23633" lon="-0.43833">
        <ele>60</ele>
        <time>2022-02-28T10:02:10Z</time>
      </trkpt>
      <trkpt lat="47.2356" lon="-0.43804">
        <ele>59</ele>
        <time>2022-02-28T10:02:23Z</time>
      </trkpt>
      <trkpt lat="47.23545" lon="-0.43794">
        <ele>59</ele>
        <time>2022-02-28T10:02:26Z</time>
      </trkpt>
      <trkpt lat="47.2353" lon="-0.43779">
        <ele>59</ele>
        <time>2022-02-28T10:02:29Z</time>
      </trkpt>
      <trkpt lat="47.23523" lon="-0.43784">
        <ele>59</ele>
        <time>2022-02-28T10:02:31Z</time>
      </trkpt>
      <trkpt lat="47.23516" lon="-0.43784">
        <ele>59</ele>
        <time>2022-02-28T10:02:32Z</time>
      </trkpt>
      <trkpt lat="47.2333" lon="-0.43743">
        <ele>60</ele>
        <time>2022-02-28T10:03:06Z</time>
      </trkpt>
      <trkpt lat="47.231" lon="-0.43723">
        <ele>59</ele>
        <time>2022-02-28T10:03:47Z</time>
      </trkpt>
      <trkpt lat="47.22944" lon="-0.43688">
        <ele>60</ele>
        <time>2022-02-28T10:04:15Z</time>
      </trkpt>
      <trkpt lat="47.22932" lon="-0.43681">
        <ele>60</ele>
        <time>2022-02-28T10:04:17Z</time>
      </trkpt>
      <trkpt lat="47.22925" lon="-0.43697">
        <ele>60</ele>
        <time>2022-02-28T10:04:19Z</time>
      </trkpt>
      <trkpt lat="47.22916" lon="-0.43695">
        <ele>60</ele>
        <time>2022-02-28T10:04:21Z</time>
      </trkpt>
      <trkpt lat="47.22909" lon="-0.43688">
        <ele>60</ele>
        <time>2022-02-28T10:04:22Z</time>
      </trkpt>
      <trkpt lat="47.22901" lon="-0.43674">
        <ele>60</ele>
        <time>2022-02-28T10:04:25Z</time>
      </trkpt>
      <trkpt lat="47.22889" lon="-0.43657">
        <ele>59</ele>
        <time>2022-02-28T10:04:28Z</time>
      </trkpt>
      <trkpt lat="47.22814" lon="-0.43575">
        <ele>57</ele>
        <time>2022-02-28T10:04:44Z</time>
      </trkpt>
      <trkpt lat="47.22795" lon="-0.43554">
        <ele>57</ele>
        <time>2022-02-28T10:04:48Z</time>
      </trkpt>
      <trkpt lat="47.22773" lon="-0.43523">
        <ele>56</ele>
        <time>2022-02-28T10:04:54Z</time>
      </trkpt>
      <trkpt lat="47.22705" lon="-0.43419">
        <ele>55</ele>
        <time>2022-02-28T10:05:11Z</time>
      </trkpt>
      <trkpt lat="47.22689" lon="-0.434">
        <ele>54</ele>
        <time>2022-02-28T10:05:15Z</time>
      </trkpt>
      <trkpt lat="47.22675" lon="-0.43386">
        <ele>54</ele>
        <time>2022-02-28T10:05:18Z</time>
      </trkpt>
      <trkpt lat="47.22643" lon="-0.4336">
        <ele>55</ele>
        <time>2022-02-28T10:05:24Z</time>
      </trkpt>
      <trkpt lat="47.22604" lon="-0.4334">
        <ele>56</ele>
        <time>2022-02-28T10:05:32Z</time>
      </trkpt>
      <trkpt lat="47.22569" lon="-0.43329">
        <ele>57</ele>
        <time>2022-02-28T10:05:38Z</time>
      </trkpt>
      <trkpt lat="47.22529" lon="-0.43324">
        <ele>57</ele>
        <time>2022-02-28T10:05:45Z</time>
      </trkpt>
      <trkpt lat="47.22493" lon="-0.43328">
        <ele>57</ele>
        <time>2022-02-28T10:05:52Z</time>
      </trkpt>
      <trkpt lat="47.22297" lon="-0.43369">
        <ele>57</ele>
        <time>2022-02-28T10:06:27Z</time>
      </trkpt>
      <trkpt lat="47.22263" lon="-0.43382">
        <ele>56</ele>
        <time>2022-02-28T10:06:33Z</time>
      </trkpt>
      <trkpt lat="47.22239" lon="-0.43394">
        <ele>56</ele>
        <time>2022-02-28T10:06:38Z</time>
      </trkpt>
      <trkpt lat="47.22123" lon="-0.43464">
        <ele>57</ele>
        <time>2022-02-28T10:07:00Z</time>
      </trkpt>
      <trkpt lat="47.22099" lon="-0.43472">
        <ele>57</ele>
        <time>2022-02-28T10:07:04Z</time>
      </trkpt>
      <trkpt lat="47.22059" lon="-0.4348">
        <ele>56</ele>
        <time>2022-02-28T10:07:12Z</time>
      </trkpt>
      <trkpt lat="47.22038" lon="-0.43481">
        <ele>56</ele>
        <time>2022-02-28T10:07:15Z</time>
      </trkpt>
      <trkpt lat="47.22002" lon="-0.43477">
        <ele>55</ele>
        <time>2022-02-28T10:07:22Z</time>
      </trkpt>
      <trkpt lat="47.2198" lon="-0.4347">
        <ele>55</ele>
        <time>2022-02-28T10:07:26Z</time>
      </trkpt>
      <trkpt lat="47.21941" lon="-0.43452">
        <ele>54</ele>
        <time>2022-02-28T10:07:33Z</time>
      </trkpt>
      <trkpt lat="47.21841" lon="-0.43377">
        <ele>50</ele>
        <time>2022-02-28T10:07:53Z</time>
      </trkpt>
      <trkpt lat="47.21791" lon="-0.43324">
        <ele>47</ele>
        <time>2022-02-28T10:08:04Z</time>
      </trkpt>
      <trkpt lat="47.21685" lon="-0.43205">
        <ele>42</ele>
        <time>2022-02-28T10:08:28Z</time>
      </trkpt>
      <trkpt lat="47.21647" lon="-0.43175">
        <ele>40</ele>
        <time>2022-02-28T10:08:35Z</time>
      </trkpt>
      <trkpt lat="47.21606" lon="-0.43153">
        <ele>39</ele>
        <time>2022-02-28T10:08:43Z</time>
      </trkpt>
      <trkpt lat="47.21578" lon="-0.43145">
        <ele>39</ele>
        <time>2022-02-28T10:08:48Z</time>
      </trkpt>
      <trkpt lat="47.21468" lon="-0.43121">
        <ele>39</ele>
        <time>2022-02-28T10:09:08Z</time>
      </trkpt>
      <trkpt lat="47.21432" lon="-0.43113">
        <ele>40</ele>
        <time>2022-02-28T10:09:14Z</time>
      </trkpt>
      <trkpt lat="47.21345" lon="-0.43098">
        <ele>41</ele>
        <time>2022-02-28T10:09:30Z</time>
      </trkpt>
      <trkpt lat="47.21314" lon="-0.43098">
        <ele>42</ele>
        <time>2022-02-28T10:09:35Z</time>
      </trkpt>
      <trkpt lat="47.21276" lon="-0.43107">
        <ele>43</ele>
        <time>2022-02-28T10:09:42Z</time>
      </trkpt>
      <trkpt lat="47.21245" lon="-0.43121">
        <ele>44</ele>
        <time>2022-02-28T10:09:48Z</time>
      </trkpt>
      <trkpt lat="47.21219" lon="-0.43137">
        <ele>45</ele>
        <time>2022-02-28T10:09:53Z</time>
      </trkpt>
      <trkpt lat="47.21035" lon="-0.43272">
        <ele>52</ele>
        <time>2022-02-28T10:10:30Z</time>
      </trkpt>
      <trkpt lat="47.21002" lon="-0.43289">
        <ele>53</ele>
        <time>2022-02-28T10:10:36Z</time>
      </trkpt>
      <trkpt lat="47.20968" lon="-0.43299">
        <ele>55</ele>
        <time>2022-02-28T10:10:42Z</time>
      </trkpt>
      <trkpt lat="47.20793" lon="-0.43325">
        <ele>58</ele>
        <time>2022-02-28T10:11:13Z</time>
      </trkpt>
      <trkpt lat="47.2069" lon="-0.43319">
        <ele>59</ele>
        <time>2022-02-28T10:11:32Z</time>
      </trkpt>
      <trkpt lat="47.20674" lon="-0.43321">
        <ele>60</ele>
        <time>2022-02-28T10:11:35Z</time>
      </trkpt>
      <trkpt lat="47.20659" lon="-0.4332">
        <ele>60</ele>
        <time>2022-02-28T10:11:37Z</time>
      </trkpt>
      <trkpt lat="47.2064" lon="-0.43315">
        <ele>60</ele>
        <time>2022-02-28T10:11:41Z</time>
      </trkpt>
      <trkpt lat="47.20565" lon="-0.43309">
        <ele>59</ele>
        <time>2022-02-28T10:11:54Z</time>
      </trkpt>
      <trkpt lat="47.20548" lon="-0.43305">
        <ele>60</ele>
        <time>2022-02-28T10:11:57Z</time>
      </trkpt>
      <trkpt lat="47.20468" lon="-0.43281">
        <ele>60</ele>
        <time>2022-02-28T10:12:12Z</time>
      </trkpt>
      <trkpt lat="47.20384" lon="-0.4325">
        <ele>58</ele>
        <time>2022-02-28T10:12:27Z</time>
      </trkpt>
      <trkpt lat="47.20349" lon="-0.43233">
        <ele>58</ele>
        <time>2022-02-28T10:12:34Z</time>
      </trkpt>
      <trkpt lat="47.20338" lon="-0.43231">
        <ele>58</ele>
        <time>2022-02-28T10:12:36Z</time>
      </trkpt>
      <trkpt lat="47.20313" lon="-0.43231">
        <ele>56</ele>
        <time>2022-02-28T10:12:40Z</time>
      </trkpt>
      <trkpt lat="47.20313" lon="-0.43225">
        <ele>56</ele>
        <time>2022-02-28T10:12:41Z</time>
      </trkpt>
      <trkpt lat="47.20307" lon="-0.43208">
        <ele>56</ele>
        <time>2022-02-28T10:12:43Z</time>
      </trkpt>
      <trkpt lat="47.20294" lon="-0.43193">
        <ele>56</ele>
        <time>2022-02-28T10:12:46Z</time>
      </trkpt>
      <trkpt lat="47.20277" lon="-0.43168">
        <ele>56</ele>
        <time>2022-02-28T10:12:50Z</time>
      </trkpt>
      <trkpt lat="47.20245" lon="-0.43114">
        <ele>57</ele>
        <time>2022-02-28T10:12:59Z</time>
      </trkpt>
      <trkpt lat="47.20202" lon="-0.43055">
        <ele>56</ele>
        <time>2022-02-28T10:13:09Z</time>
      </trkpt>
      <trkpt lat="47.20195" lon="-0.43049">
        <ele>56</ele>
        <time>2022-02-28T10:13:11Z</time>
      </trkpt>
      <trkpt lat="47.20127" lon="-0.43005">
        <ele>56</ele>
        <time>2022-02-28T10:13:24Z</time>
      </trkpt>
      <trkpt lat="47.20109" lon="-0.42987">
        <ele>56</ele>
        <time>2022-02-28T10:13:28Z</time>
      </trkpt>
      <trkpt lat="47.20104" lon="-0.42981">
        <ele>56</ele>
        <time>2022-02-28T10:13:29Z</time>
      </trkpt>
      <trkpt lat="47.20078" lon="-0.42933">
        <ele>58</ele>
        <time>2022-02-28T10:13:37Z</time>
      </trkpt>
      <trkpt lat="47.20067" lon="-0.42919">
        <ele>58</ele>
        <time>2022-02-28T10:13:39Z</time>
      </trkpt>
      <trkpt lat="47.20051" lon="-0.42908">
        <ele>59</ele>
        <time>2022-02-28T10:13:42Z</time>
      </trkpt>
      <trkpt lat="47.2002" lon="-0.429">
        <ele>59</ele>
        <time>2022-02-28T10:13:48Z</time>
      </trkpt>
      <trkpt lat="47.20014" lon="-0.42896">
        <ele>59</ele>
        <time>2022-02-28T10:13:49Z</time>
      </trkpt>
      <trkpt lat="47.2001" lon="-0.42894">
        <ele>59</ele>
        <time>2022-02-28T10:13:50Z</time>
      </trkpt>
      <trkpt lat="47.19971" lon="-0.42892">
        <ele>59</ele>
        <time>2022-02-28T10:13:57Z</time>
      </trkpt>
      <trkpt lat="47.19943" lon="-0.42886">
        <ele>59</ele>
        <time>2022-02-28T10:14:02Z</time>
      </trkpt>
      <trkpt lat="47.1989" lon="-0.42869">
        <ele>59</ele>
        <time>2022-02-28T10:14:11Z</time>
      </trkpt>
      <trkpt lat="47.19823" lon="-0.42827">
        <ele>60</ele>
        <time>2022-02-28T10:14:24Z</time>
      </trkpt>
      <trkpt lat="47.19593" lon="-0.42711">
        <ele>61</ele>
        <time>2022-02-28T10:15:08Z</time>
      </trkpt>
      <trkpt lat="47.1943" lon="-0.42671">
        <ele>60</ele>
        <time>2022-02-28T10:15:37Z</time>
      </trkpt>
      <trkpt lat="47.19321" lon="-0.42624">
        <ele>61</ele>
        <time>2022-02-28T10:15:57Z</time>
      </trkpt>
      <trkpt lat="47.1932" lon="-0.42614">
        <ele>61</ele>
        <time>2022-02-28T10:15:58Z</time>
      </trkpt>
      <trkpt lat="47.19312" lon="-0.42584">
        <ele>62</ele>
        <time>2022-02-28T10:16:02Z</time>
      </trkpt>
      <trkpt lat="47.19289" lon="-0.42367">
        <ele>60</ele>
        <time>2022-02-28T10:16:29Z</time>
      </trkpt>
      <trkpt lat="47.19272" lon="-0.42253">
        <ele>58</ele>
        <time>2022-02-28T10:16:43Z</time>
      </trkpt>
      <trkpt lat="47.19265" lon="-0.42228">
        <ele>57</ele>
        <time>2022-02-28T10:16:46Z</time>
      </trkpt>
      <trkpt lat="47.19247" lon="-0.42185">
        <ele>56</ele>
        <time>2022-02-28T10:16:52Z</time>
      </trkpt>
      <trkpt lat="47.19235" lon="-0.42165">
        <ele>55</ele>
        <time>2022-02-28T10:16:56Z</time>
      </trkpt>
      <trkpt lat="47.19214" lon="-0.42142">
        <ele>55</ele>
        <time>2022-02-28T10:17:00Z</time>
      </trkpt>
      <trkpt lat="47.19086" lon="-0.42032">
        <ele>57</ele>
        <time>2022-02-28T10:17:27Z</time>
      </trkpt>
      <trkpt lat="47.19054" lon="-0.42012">
        <ele>58</ele>
        <time>2022-02-28T10:17:33Z</time>
      </trkpt>
      <trkpt lat="47.18962" lon="-0.41972">
        <ele>58</ele>
        <time>2022-02-28T10:17:50Z</time>
      </trkpt>
      <trkpt lat="47.18929" lon="-0.41954">
        <ele>57</ele>
        <time>2022-02-28T10:17:56Z</time>
      </trkpt>
      <trkpt lat="47.18743" lon="-0.41827">
        <ele>60</ele>
        <time>2022-02-28T10:18:33Z</time>
      </trkpt>
      <trkpt lat="47.18641" lon="-0.41741">
        <ele>61</ele>
        <time>2022-02-28T10:18:54Z</time>
      </trkpt>
      <trkpt lat="47.18624" lon="-0.4173">
        <ele>61</ele>
        <time>2022-02-28T10:18:57Z</time>
      </trkpt>
      <trkpt lat="47.18594" lon="-0.41714">
        <ele>61</ele>
        <time>2022-02-28T10:19:03Z</time>
      </trkpt>
      <trkpt lat="47.1854" lon="-0.41691">
        <ele>61</ele>
        <time>2022-02-28T10:19:13Z</time>
      </trkpt>
      <trkpt lat="47.18393" lon="-0.41648">
        <ele>60</ele>
        <time>2022-02-28T10:19:39Z</time>
      </trkpt>
      <trkpt lat="47.18377" lon="-0.41639">
        <ele>60</ele>
        <time>2022-02-28T10:19:42Z</time>
      </trkpt>
      <trkpt lat="47.18363" lon="-0.41627">
        <ele>60</ele>
        <time>2022-02-28T10:19:45Z</time>
      </trkpt>
      <trkpt lat="47.18342" lon="-0.41601">
        <ele>60</ele>
        <time>2022-02-28T10:19:50Z</time>
      </trkpt>
      <trkpt lat="47.18322" lon="-0.4156">
        <ele>59</ele>
        <time>2022-02-28T10:19:56Z</time>
      </trkpt>
      <trkpt lat="47.18216" lon="-0.4126">
        <ele>55</ele>
        <time>2022-02-28T10:20:37Z</time>
      </trkpt>
      <trkpt lat="47.18212" lon="-0.4125">
        <ele>55</ele>
        <time>2022-02-28T10:20:38Z</time>
      </trkpt>
      <trkpt lat="47.18185" lon="-0.41182">
        <ele>58</ele>
        <time>2022-02-28T10:20:48Z</time>
      </trkpt>
      <trkpt lat="47.18172" lon="-0.41155">
        <ele>60</ele>
        <time>2022-02-28T10:20:52Z</time>
      </trkpt>
      <trkpt lat="47.18157" lon="-0.41137">
        <ele>61</ele>
        <time>2022-02-28T10:20:55Z</time>
      </trkpt>
      <trkpt lat="47.18142" lon="-0.41124">
        <ele>61</ele>
        <time>2022-02-28T10:20:58Z</time>
      </trkpt>
      <trkpt lat="47.18125" lon="-0.41113">
        <ele>61</ele>
        <time>2022-02-28T10:21:02Z</time>
      </trkpt>
      <trkpt lat="47.18091" lon="-0.41101">
        <ele>60</ele>
        <time>2022-02-28T10:21:08Z</time>
      </trkpt>
      <trkpt lat="47.18036" lon="-0.41099">
        <ele>58</ele>
        <time>2022-02-28T10:21:18Z</time>
      </trkpt>
      <trkpt lat="47.17848" lon="-0.41109">
        <ele>59</ele>
        <time>2022-02-28T10:21:51Z</time>
      </trkpt>
      <trkpt lat="47.1781" lon="-0.4111">
        <ele>60</ele>
        <time>2022-02-28T10:21:58Z</time>
      </trkpt>
      <trkpt lat="47.17648" lon="-0.41101">
        <ele>63</ele>
        <time>2022-02-28T10:22:27Z</time>
      </trkpt>
      <trkpt lat="47.17615" lon="-0.41101">
        <ele>63</ele>
        <time>2022-02-28T10:22:33Z</time>
      </trkpt>
      <trkpt lat="47.17607" lon="-0.41105">
        <ele>63</ele>
        <time>2022-02-28T10:22:34Z</time>
      </trkpt>
      <trkpt lat="47.17596" lon="-0.41086">
        <ele>63</ele>
        <time>2022-02-28T10:22:37Z</time>
      </trkpt>
      <trkpt lat="47.1755" lon="-0.40978">
        <ele>64</ele>
        <time>2022-02-28T10:22:53Z</time>
      </trkpt>
      <trkpt lat="47.1754" lon="-0.4096">
        <ele>63</ele>
        <time>2022-02-28T10:22:56Z</time>
      </trkpt>
      <trkpt lat="47.17504" lon="-0.40926">
        <ele>63</ele>
        <time>2022-02-28T10:23:03Z</time>
      </trkpt>
      <trkpt lat="47.17496" lon="-0.40921">
        <ele>63</ele>
        <time>2022-02-28T10:23:05Z</time>
      </trkpt>
      <trkpt lat="47.17456" lon="-0.40921">
        <ele>63</ele>
        <time>2022-02-28T10:23:12Z</time>
      </trkpt>
      <trkpt lat="47.17417" lon="-0.40914">
        <ele>63</ele>
        <time>2022-02-28T10:23:19Z</time>
      </trkpt>
      <trkpt lat="47.17399" lon="-0.40914">
        <ele>63</ele>
        <time>2022-02-28T10:23:22Z</time>
      </trkpt>
      <trkpt lat="47.17357" lon="-0.40926">
        <ele>63</ele>
        <time>2022-02-28T10:23:30Z</time>
      </trkpt>
      <trkpt lat="47.17313" lon="-0.40944">
        <ele>63</ele>
        <time>2022-02-28T10:23:38Z</time>
      </trkpt>
      <trkpt lat="47.17292" lon="-0.40955">
        <ele>63</ele>
        <time>2022-02-28T10:23:42Z</time>
      </trkpt>
      <trkpt lat="47.17286" lon="-0.40949">
        <ele>63</ele>
        <time>2022-02-28T10:23:43Z</time>
      </trkpt>
      <trkpt lat="47.17278" lon="-0.40945">
        <ele>63</ele>
        <time>2022-02-28T10:23:44Z</time>
      </trkpt>
      <trkpt lat="47.17224" lon="-0.40904">
        <ele>61</ele>
        <time>2022-02-28T10:23:55Z</time>
      </trkpt>
      <trkpt lat="47.17202" lon="-0.40893">
        <ele>61</ele>
        <time>2022-02-28T10:23:59Z</time>
      </trkpt>
      <trkpt lat="47.17075" lon="-0.40847">
        <ele>62</ele>
        <time>2022-02-28T10:24:23Z</time>
      </trkpt>
      <trkpt lat="47.17055" lon="-0.40836">
        <ele>63</ele>
        <time>2022-02-28T10:24:26Z</time>
      </trkpt>
      <trkpt lat="47.16977" lon="-0.40775">
        <ele>63</ele>
        <time>2022-02-28T10:24:42Z</time>
      </trkpt>
      <trkpt lat="47.16843" lon="-0.40694">
        <ele>64</ele>
        <time>2022-02-28T10:25:08Z</time>
      </trkpt>
      <trkpt lat="47.16826" lon="-0.40677">
        <ele>64</ele>
        <time>2022-02-28T10:25:12Z</time>
      </trkpt>
      <trkpt lat="47.16812" lon="-0.40658">
        <ele>64</ele>
        <time>2022-02-28T10:25:15Z</time>
      </trkpt>
      <trkpt lat="47.16655" lon="-0.40384">
        <ele>65</ele>
        <time>2022-02-28T10:25:58Z</time>
      </trkpt>
      <trkpt lat="47.16641" lon="-0.40369">
        <ele>65</ele>
        <time>2022-02-28T10:26:01Z</time>
      </trkpt>
      <trkpt lat="47.16603" lon="-0.40346">
        <ele>66</ele>
        <time>2022-02-28T10:26:09Z</time>
      </trkpt>
      <trkpt lat="47.16588" lon="-0.40341">
        <ele>66</ele>
        <time>2022-02-28T10:26:12Z</time>
      </trkpt>
      <trkpt lat="47.16575" lon="-0.4034">
        <ele>67</ele>
        <time>2022-02-28T10:26:14Z</time>
      </trkpt>
      <trkpt lat="47.1655" lon="-0.4035">
        <ele>68</ele>
        <time>2022-02-28T10:26:18Z</time>
      </trkpt>
      <trkpt lat="47.16536" lon="-0.4035">
        <ele>68</ele>
        <time>2022-02-28T10:26:21Z</time>
      </trkpt>
      <trkpt lat="47.16511" lon="-0.40343">
        <ele>69</ele>
        <time>2022-02-28T10:26:25Z</time>
      </trkpt>
      <trkpt lat="47.1649" lon="-0.40342">
        <ele>69</ele>
        <time>2022-02-28T10:26:29Z</time>
      </trkpt>
      <trkpt lat="47.16464" lon="-0.40353">
        <ele>70</ele>
        <time>2022-02-28T10:26:34Z</time>
      </trkpt>
      <trkpt lat="47.16434" lon="-0.40374">
        <ele>71</ele>
        <time>2022-02-28T10:26:40Z</time>
      </trkpt>
      <trkpt lat="47.16424" lon="-0.40378">
        <ele>71</ele>
        <time>2022-02-28T10:26:42Z</time>
      </trkpt>
      <trkpt lat="47.16414" lon="-0.40377">
        <ele>71</ele>
        <time>2022-02-28T10:26:44Z</time>
      </trkpt>
      <trkpt lat="47.16376" lon="-0.40342">
        <ele>72</ele>
        <time>2022-02-28T10:26:52Z</time>
      </trkpt>
      <trkpt lat="47.16363" lon="-0.40333">
        <ele>72</ele>
        <time>2022-02-28T10:26:54Z</time>
      </trkpt>
      <trkpt lat="47.16281" lon="-0.40282">
        <ele>71</ele>
        <time>2022-02-28T10:27:10Z</time>
      </trkpt>
      <trkpt lat="47.16259" lon="-0.40264">
        <ele>71</ele>
        <time>2022-02-28T10:27:14Z</time>
      </trkpt>
      <trkpt lat="47.16193" lon="-0.402">
        <ele>69</ele>
        <time>2022-02-28T10:27:28Z</time>
      </trkpt>
      <trkpt lat="47.16158" lon="-0.40161">
        <ele>67</ele>
        <time>2022-02-28T10:27:36Z</time>
      </trkpt>
      <trkpt lat="47.16114" lon="-0.401">
        <ele>68</ele>
        <time>2022-02-28T10:27:47Z</time>
      </trkpt>
      <trkpt lat="47.16095" lon="-0.4007">
        <ele>68</ele>
        <time>2022-02-28T10:27:52Z</time>
      </trkpt>
      <trkpt lat="47.16074" lon="-0.40053">
        <ele>69</ele>
        <time>2022-02-28T10:27:56Z</time>
      </trkpt>
      <trkpt lat="47.16005" lon="-0.39987">
        <ele>69</ele>
        <time>2022-02-28T10:28:11Z</time>
      </trkpt>
      <trkpt lat="47.15974" lon="-0.39964">
        <ele>70</ele>
        <time>2022-02-28T10:28:17Z</time>
      </trkpt>
      <trkpt lat="47.15954" lon="-0.39958">
        <ele>71</ele>
        <time>2022-02-28T10:28:21Z</time>
      </trkpt>
      <trkpt lat="47.15933" lon="-0.39958">
        <ele>71</ele>
        <time>2022-02-28T10:28:24Z</time>
      </trkpt>
      <trkpt lat="47.15907" lon="-0.39959">
        <ele>72</ele>
        <time>2022-02-28T10:28:29Z</time>
      </trkpt>
      <trkpt lat="47.15875" lon="-0.39965">
        <ele>73</ele>
        <time>2022-02-28T10:28:35Z</time>
      </trkpt>
      <trkpt lat="47.15861" lon="-0.3997">
        <ele>74</ele>
        <time>2022-02-28T10:28:37Z</time>
      </trkpt>
      <trkpt lat="47.1583" lon="-0.3999">
        <ele>75</ele>
        <time>2022-02-28T10:28:43Z</time>
      </trkpt>
      <trkpt lat="47.15783" lon="-0.40014">
        <ele>77</ele>
        <time>2022-02-28T10:28:52Z</time>
      </trkpt>
      <trkpt lat="47.1576" lon="-0.40021">
        <ele>78</ele>
        <time>2022-02-28T10:28:56Z</time>
      </trkpt>
      <trkpt lat="47.15707" lon="-0.40029">
        <ele>81</ele>
        <time>2022-02-28T10:29:06Z</time>
      </trkpt>
      <trkpt lat="47.15678" lon="-0.4003">
        <ele>83</ele>
        <time>2022-02-28T10:29:11Z</time>
      </trkpt>
      <trkpt lat="47.15602" lon="-0.40029">
        <ele>89</ele>
        <time>2022-02-28T10:29:25Z</time>
      </trkpt>
      <trkpt lat="47.15543" lon="-0.40032">
        <ele>91</ele>
        <time>2022-02-28T10:29:35Z</time>
      </trkpt>
      <trkpt lat="47.15439" lon="-0.40016">
        <ele>89</ele>
        <time>2022-02-28T10:29:54Z</time>
      </trkpt>
      <trkpt lat="47.1537" lon="-0.40002">
        <ele>84</ele>
        <time>2022-02-28T10:30:06Z</time>
      </trkpt>
      <trkpt lat="47.15353" lon="-0.39988">
        <ele>82</ele>
        <time>2022-02-28T10:30:10Z</time>
      </trkpt>
      <trkpt lat="47.1529" lon="-0.39872">
        <ele>80</ele>
        <time>2022-02-28T10:30:28Z</time>
      </trkpt>
      <trkpt lat="47.15263" lon="-0.3983">
        <ele>81</ele>
        <time>2022-02-28T10:30:35Z</time>
      </trkpt>
      <trkpt lat="47.15184" lon="-0.39753">
        <ele>84</ele>
        <time>2022-02-28T10:30:51Z</time>
      </trkpt>
      <trkpt lat="47.15158" lon="-0.39731">
        <ele>84</ele>
        <time>2022-02-28T10:30:57Z</time>
      </trkpt>
      <trkpt lat="47.15144" lon="-0.39722">
        <ele>83</ele>
        <time>2022-02-28T10:30:59Z</time>
      </trkpt>
      <trkpt lat="47.15029" lon="-0.39667">
        <ele>78</ele>
        <time>2022-02-28T10:31:21Z</time>
      </trkpt>
      <trkpt lat="47.14956" lon="-0.39606">
        <ele>72</ele>
        <time>2022-02-28T10:31:36Z</time>
      </trkpt>
      <trkpt lat="47.14927" lon="-0.39586">
        <ele>71</ele>
        <time>2022-02-28T10:31:42Z</time>
      </trkpt>
      <trkpt lat="47.14877" lon="-0.39566">
        <ele>69</ele>
        <time>2022-02-28T10:31:51Z</time>
      </trkpt>
      <trkpt lat="47.14858" lon="-0.39552">
        <ele>69</ele>
        <time>2022-02-28T10:31:55Z</time>
      </trkpt>
      <trkpt lat="47.14774" lon="-0.39463">
        <ele>76</ele>
        <time>2022-02-28T10:32:13Z</time>
      </trkpt>
      <trkpt lat="47.14726" lon="-0.39407">
        <ele>81</ele>
        <time>2022-02-28T10:32:24Z</time>
      </trkpt>
      <trkpt lat="47.14706" lon="-0.3939">
        <ele>82</ele>
        <time>2022-02-28T10:32:28Z</time>
      </trkpt>
      <trkpt lat="47.14689" lon="-0.3938">
        <ele>83</ele>
        <time>2022-02-28T10:32:31Z</time>
      </trkpt>
      <trkpt lat="47.14663" lon="-0.39373">
        <ele>84</ele>
        <time>2022-02-28T10:32:36Z</time>
      </trkpt>
      <trkpt lat="47.14615" lon="-0.39369">
        <ele>86</ele>
        <time>2022-02-28T10:32:45Z</time>
      </trkpt>
      <trkpt lat="47.14551" lon="-0.39368">
        <ele>89</ele>
        <time>2022-02-28T10:32:56Z</time>
      </trkpt>
      <trkpt lat="47.1449" lon="-0.39376">
        <ele>91</ele>
        <time>2022-02-28T10:33:07Z</time>
      </trkpt>
      <trkpt lat="47.14331" lon="-0.39409">
        <ele>92</ele>
        <time>2022-02-28T10:33:35Z</time>
      </trkpt>
      <trkpt lat="47.14303" lon="-0.39417">
        <ele>93</ele>
        <time>2022-02-28T10:33:40Z</time>
      </trkpt>
      <trkpt lat="47.14162" lon="-0.39505">
        <ele>94</ele>
        <time>2022-02-28T10:34:08Z</time>
      </trkpt>
      <trkpt lat="47.14139" lon="-0.39512">
        <ele>94</ele>
        <time>2022-02-28T10:34:12Z</time>
      </trkpt>
      <trkpt lat="47.14106" lon="-0.39514">
        <ele>93</ele>
        <time>2022-02-28T10:34:18Z</time>
      </trkpt>
      <trkpt lat="47.1394" lon="-0.39497">
        <ele>92</ele>
        <time>2022-02-28T10:34:47Z</time>
      </trkpt>
      <trkpt lat="47.13913" lon="-0.39501">
        <ele>91</ele>
        <time>2022-02-28T10:34:52Z</time>
      </trkpt>
      <trkpt lat="47.13875" lon="-0.39523">
        <ele>92</ele>
        <time>2022-02-28T10:34:59Z</time>
      </trkpt>
      <trkpt lat="47.13742" lon="-0.39616">
        <ele>93</ele>
        <time>2022-02-28T10:35:26Z</time>
      </trkpt>
      <trkpt lat="47.13696" lon="-0.39652">
        <ele>94</ele>
        <time>2022-02-28T10:35:35Z</time>
      </trkpt>
      <trkpt lat="47.13632" lon="-0.39716">
        <ele>95</ele>
        <time>2022-02-28T10:35:49Z</time>
      </trkpt>
      <trkpt lat="47.13562" lon="-0.3976">
        <ele>96</ele>
        <time>2022-02-28T10:36:02Z</time>
      </trkpt>
      <trkpt lat="47.13467" lon="-0.39824">
        <ele>96</ele>
        <time>2022-02-28T10:36:21Z</time>
      </trkpt>
      <trkpt lat="47.1345" lon="-0.39833">
        <ele>97</ele>
        <time>2022-02-28T10:36:24Z</time>
      </trkpt>
      <trkpt lat="47.13441" lon="-0.39742">
        <ele>98</ele>
        <time>2022-02-28T10:36:35Z</time>
      </trkpt>
      <trkpt lat="47.13435" lon="-0.39708">
        <ele>98</ele>
        <time>2022-02-28T10:36:39Z</time>
      </trkpt>
      <trkpt lat="47.13427" lon="-0.39682">
        <ele>98</ele>
        <time>2022-02-28T10:36:43Z</time>
      </trkpt>
      <trkpt lat="47.13417" lon="-0.39661">
        <ele>98</ele>
        <time>2022-02-28T10:36:46Z</time>
      </trkpt>
      <trkpt lat="47.13402" lon="-0.39639">
        <ele>97</ele>
        <time>2022-02-28T10:36:50Z</time>
      </trkpt>
      <trkpt lat="47.13339" lon="-0.39564">
        <ele>95</ele>
        <time>2022-02-28T10:37:04Z</time>
      </trkpt>
      <trkpt lat="47.13303" lon="-0.39515">
        <ele>94</ele>
        <time>2022-02-28T10:37:13Z</time>
      </trkpt>
      <trkpt lat="47.13201" lon="-0.39601">
        <ele>99</ele>
        <time>2022-02-28T10:37:34Z</time>
      </trkpt>
      <trkpt lat="47.13087" lon="-0.39688">
        <ele>100</ele>
        <time>2022-02-28T10:37:57Z</time>
      </trkpt>
      <trkpt lat="47.13078" lon="-0.39699">
        <ele>101</ele>
        <time>2022-02-28T10:37:59Z</time>
      </trkpt>
      <trkpt lat="47.12917" lon="-0.40021">
        <ele>106</ele>
        <time>2022-02-28T10:38:47Z</time>
      </trkpt>
      <trkpt lat="47.1291" lon="-0.40025">
        <ele>106</ele>
        <time>2022-02-28T10:38:49Z</time>
      </trkpt>
      <trkpt lat="47.12894" lon="-0.40029">
        <ele>105</ele>
        <time>2022-02-28T10:38:51Z</time>
      </trkpt>
      <trkpt lat="47.12837" lon="-0.40027">
        <ele>102</ele>
        <time>2022-02-28T10:39:02Z</time>
      </trkpt>
      <trkpt lat="47.12808" lon="-0.40021">
        <ele>100</ele>
        <time>2022-02-28T10:39:07Z</time>
      </trkpt>
      <trkpt lat="47.12745" lon="-0.4">
        <ele>95</ele>
        <time>2022-02-28T10:39:18Z</time>
      </trkpt>
      <trkpt lat="47.12701" lon="-0.39977">
        <ele>93</ele>
        <time>2022-02-28T10:39:27Z</time>
      </trkpt>
      <trkpt lat="47.12657" lon="-0.3995">
        <ele>91</ele>
        <time>2022-02-28T10:39:35Z</time>
      </trkpt>
      <trkpt lat="47.1264" lon="-0.39942">
        <ele>92</ele>
        <time>2022-02-28T10:39:38Z</time>
      </trkpt>
      <trkpt lat="47.12602" lon="-0.39938">
        <ele>92</ele>
        <time>2022-02-28T10:39:45Z</time>
      </trkpt>
      <trkpt lat="47.12585" lon="-0.39941">
        <ele>92</ele>
        <time>2022-02-28T10:39:48Z</time>
      </trkpt>
      <trkpt lat="47.1252" lon="-0.39983">
        <ele>95</ele>
        <time>2022-02-28T10:40:01Z</time>
      </trkpt>
      <trkpt lat="47.12427" lon="-0.40016">
        <ele>97</ele>
        <time>2022-02-28T10:40:18Z</time>
      </trkpt>
      <trkpt lat="47.12377" lon="-0.40021">
        <ele>99</ele>
        <time>2022-02-28T10:40:27Z</time>
      </trkpt>
      <trkpt lat="47.12348" lon="-0.4002">
        <ele>99</ele>
        <time>2022-02-28T10:40:32Z</time>
      </trkpt>
      <trkpt lat="47.12254" lon="-0.39994">
        <ele>100</ele>
        <time>2022-02-28T10:40:49Z</time>
      </trkpt>
      <trkpt lat="47.122" lon="-0.39974">
        <ele>102</ele>
        <time>2022-02-28T10:40:59Z</time>
      </trkpt>
      <trkpt lat="47.1219" lon="-0.39968">
        <ele>102</ele>
        <time>2022-02-28T10:41:01Z</time>
      </trkpt>
      <trkpt lat="47.12112" lon="-0.39909">
        <ele>103</ele>
        <time>2022-02-28T10:41:16Z</time>
      </trkpt>
      <trkpt lat="47.12071" lon="-0.39873">
        <ele>105</ele>
        <time>2022-02-28T10:41:25Z</time>
      </trkpt>
      <trkpt lat="47.12002" lon="-0.39801">
        <ele>107</ele>
        <time>2022-02-28T10:41:40Z</time>
      </trkpt>
      <trkpt lat="47.1196" lon="-0.3975">
        <ele>107</ele>
        <time>2022-02-28T10:41:50Z</time>
      </trkpt>
      <trkpt lat="47.11937" lon="-0.39725">
        <ele>106</ele>
        <time>2022-02-28T10:41:55Z</time>
      </trkpt>
      <trkpt lat="47.11916" lon="-0.39707">
        <ele>106</ele>
        <time>2022-02-28T10:41:59Z</time>
      </trkpt>
      <trkpt lat="47.11862" lon="-0.39672">
        <ele>107</ele>
        <time>2022-02-28T10:42:09Z</time>
      </trkpt>
      <trkpt lat="47.11843" lon="-0.39664">
        <ele>108</ele>
        <time>2022-02-28T10:42:13Z</time>
      </trkpt>
      <trkpt lat="47.11811" lon="-0.39657">
        <ele>108</ele>
        <time>2022-02-28T10:42:19Z</time>
      </trkpt>
      <trkpt lat="47.11699" lon="-0.39643">
        <ele>107</ele>
        <time>2022-02-28T10:42:39Z</time>
      </trkpt>
      <trkpt lat="47.11685" lon="-0.39637">
        <ele>107</ele>
        <time>2022-02-28T10:42:41Z</time>
      </trkpt>
      <trkpt lat="47.11672" lon="-0.39627">
        <ele>107</ele>
        <time>2022-02-28T10:42:44Z</time>
      </trkpt>
      <trkpt lat="47.11603" lon="-0.39561">
        <ele>107</ele>
        <time>2022-02-28T10:42:59Z</time>
      </trkpt>
      <trkpt lat="47.1156" lon="-0.39511">
        <ele>106</ele>
        <time>2022-02-28T10:43:08Z</time>
      </trkpt>
      <trkpt lat="47.11531" lon="-0.39484">
        <ele>105</ele>
        <time>2022-02-28T10:43:14Z</time>
      </trkpt>
      <trkpt lat="47.11468" lon="-0.39435">
        <ele>104</ele>
        <time>2022-02-28T10:43:27Z</time>
      </trkpt>
      <trkpt lat="47.11444" lon="-0.3942">
        <ele>104</ele>
        <time>2022-02-28T10:43:32Z</time>
      </trkpt>
      <trkpt lat="47.11223" lon="-0.39306">
        <ele>101</ele>
        <time>2022-02-28T10:44:13Z</time>
      </trkpt>
      <trkpt lat="47.11043" lon="-0.39209">
        <ele>100</ele>
        <time>2022-02-28T10:44:48Z</time>
      </trkpt>
      <trkpt lat="47.11015" lon="-0.39174">
        <ele>99</ele>
        <time>2022-02-28T10:44:54Z</time>
      </trkpt>
      <trkpt lat="47.10905" lon="-0.39056">
        <ele>98</ele>
        <time>2022-02-28T10:45:18Z</time>
      </trkpt>
      <trkpt lat="47.10877" lon="-0.39045">
        <ele>97</ele>
        <time>2022-02-28T10:45:23Z</time>
      </trkpt>
      <trkpt lat="47.10837" lon="-0.39041">
        <ele>97</ele>
        <time>2022-02-28T10:45:31Z</time>
      </trkpt>
      <trkpt lat="47.10799" lon="-0.3904">
        <ele>96</ele>
        <time>2022-02-28T10:45:37Z</time>
      </trkpt>
      <trkpt lat="47.10762" lon="-0.39031">
        <ele>95</ele>
        <time>2022-02-28T10:45:44Z</time>
      </trkpt>
      <trkpt lat="47.1075" lon="-0.39031">
        <ele>95</ele>
        <time>2022-02-28T10:45:46Z</time>
      </trkpt>
      <trkpt lat="47.10733" lon="-0.39023">
        <ele>94</ele>
        <time>2022-02-28T10:45:49Z</time>
      </trkpt>
      <trkpt lat="47.10678" lon="-0.38973">
        <ele>91</ele>
        <time>2022-02-28T10:46:01Z</time>
      </trkpt>
      <trkpt lat="47.10671" lon="-0.38967">
        <ele>90</ele>
        <time>2022-02-28T10:46:02Z</time>
      </trkpt>
      <trkpt lat="47.10666" lon="-0.38966">
        <ele>90</ele>
        <time>2022-02-28T10:46:03Z</time>
      </trkpt>
      <trkpt lat="47.10664" lon="-0.38962">
        <ele>90</ele>
        <time>2022-02-28T10:46:04Z</time>
      </trkpt>
      <trkpt lat="47.10653" lon="-0.38955">
        <ele>89</ele>
        <time>2022-02-28T10:46:06Z</time>
      </trkpt>
      <trkpt lat="47.10623" lon="-0.38952">
        <ele>85</ele>
        <time>2022-02-28T10:46:11Z</time>
      </trkpt>
      <trkpt lat="47.10615" lon="-0.38947">
        <ele>84</ele>
        <time>2022-02-28T10:46:13Z</time>
      </trkpt>
      <trkpt lat="47.10589" lon="-0.38907">
        <ele>79</ele>
        <time>2022-02-28T10:46:20Z</time>
      </trkpt>
      <trkpt lat="47.10581" lon="-0.389">
        <ele>78</ele>
        <time>2022-02-28T10:46:21Z</time>
      </trkpt>
      <trkpt lat="47.10577" lon="-0.38909">
        <ele>78</ele>
        <time>2022-02-28T10:46:22Z</time>
      </trkpt>
      <trkpt lat="47.10568" lon="-0.38923">
        <ele>79</ele>
        <time>2022-02-28T10:46:25Z</time>
      </trkpt>
      <trkpt lat="47.1056" lon="-0.38931">
        <ele>79</ele>
        <time>2022-02-28T10:46:27Z</time>
      </trkpt>
      <trkpt lat="47.10544" lon="-0.3884">
        <ele>72</ele>
        <time>2022-02-28T10:46:38Z</time>
      </trkpt>
      <trkpt lat="47.10536" lon="-0.38809">
        <ele>70</ele>
        <time>2022-02-28T10:46:42Z</time>
      </trkpt>
      <trkpt lat="47.10528" lon="-0.3879">
        <ele>69</ele>
        <time>2022-02-28T10:46:45Z</time>
      </trkpt>
      <trkpt lat="47.1052" lon="-0.3878">
        <ele>69</ele>
        <time>2022-02-28T10:46:47Z</time>
      </trkpt>
      <trkpt lat="47.10498" lon="-0.38757">
        <ele>67</ele>
        <time>2022-02-28T10:46:51Z</time>
      </trkpt>
      <trkpt lat="47.10465" lon="-0.38726">
        <ele>70</ele>
        <time>2022-02-28T10:46:58Z</time>
      </trkpt>
      <trkpt lat="47.10448" lon="-0.38715">
        <ele>71</ele>
        <time>2022-02-28T10:47:02Z</time>
      </trkpt>
      <trkpt lat="47.10432" lon="-0.38708">
        <ele>73</ele>
        <time>2022-02-28T10:47:05Z</time>
      </trkpt>
      <trkpt lat="47.10414" lon="-0.38708">
        <ele>74</ele>
        <time>2022-02-28T10:47:08Z</time>
      </trkpt>
      <trkpt lat="47.104" lon="-0.38711">
        <ele>75</ele>
        <time>2022-02-28T10:47:10Z</time>
      </trkpt>
      <trkpt lat="47.10385" lon="-0.38721">
        <ele>76</ele>
        <time>2022-02-28T10:47:13Z</time>
      </trkpt>
      <trkpt lat="47.10375" lon="-0.38732">
        <ele>77</ele>
        <time>2022-02-28T10:47:15Z</time>
      </trkpt>
      <trkpt lat="47.10369" lon="-0.38745">
        <ele>78</ele>
        <time>2022-02-28T10:47:17Z</time>
      </trkpt>
      <trkpt lat="47.10348" lon="-0.38821">
        <ele>77</ele>
        <time>2022-02-28T10:47:27Z</time>
      </trkpt>
      <trkpt lat="47.10339" lon="-0.38835">
        <ele>77</ele>
        <time>2022-02-28T10:47:30Z</time>
      </trkpt>
      <trkpt lat="47.10327" lon="-0.38841">
        <ele>78</ele>
        <time>2022-02-28T10:47:32Z</time>
      </trkpt>
      <trkpt lat="47.10314" lon="-0.38839">
        <ele>79</ele>
        <time>2022-02-28T10:47:34Z</time>
      </trkpt>
      <trkpt lat="47.10298" lon="-0.38828">
        <ele>80</ele>
        <time>2022-02-28T10:47:37Z</time>
      </trkpt>
      <trkpt lat="47.1022" lon="-0.38765">
        <ele>86</ele>
        <time>2022-02-28T10:47:53Z</time>
      </trkpt>
      <trkpt lat="47.10203" lon="-0.38754">
        <ele>87</ele>
        <time>2022-02-28T10:47:56Z</time>
      </trkpt>
      <trkpt lat="47.10169" lon="-0.38746">
        <ele>89</ele>
        <time>2022-02-28T10:48:03Z</time>
      </trkpt>
      <trkpt lat="47.1013" lon="-0.38743">
        <ele>90</ele>
        <time>2022-02-28T10:48:10Z</time>
      </trkpt>
      <trkpt lat="47.10103" lon="-0.38746">
        <ele>91</ele>
        <time>2022-02-28T10:48:14Z</time>
      </trkpt>
      <trkpt lat="47.10077" lon="-0.38741">
        <ele>92</ele>
        <time>2022-02-28T10:48:19Z</time>
      </trkpt>
      <trkpt lat="47.10025" lon="-0.38721">
        <ele>95</ele>
        <time>2022-02-28T10:48:29Z</time>
      </trkpt>
      <trkpt lat="47.09805" lon="-0.38627">
        <ele>100</ele>
        <time>2022-02-28T10:49:09Z</time>
      </trkpt>
      <trkpt lat="47.09792" lon="-0.38626">
        <ele>100</ele>
        <time>2022-02-28T10:49:12Z</time>
      </trkpt>
      <trkpt lat="47.09781" lon="-0.38633">
        <ele>100</ele>
        <time>2022-02-28T10:49:14Z</time>
      </trkpt>
      <trkpt lat="47.09759" lon="-0.38654">
        <ele>101</ele>
        <time>2022-02-28T10:49:18Z</time>
      </trkpt>
      <trkpt lat="47.09696" lon="-0.38724">
        <ele>102</ele>
        <time>2022-02-28T10:49:33Z</time>
      </trkpt>
      <trkpt lat="47.09677" lon="-0.38738">
        <ele>103</ele>
        <time>2022-02-28T10:49:36Z</time>
      </trkpt>
      <trkpt lat="47.09648" lon="-0.38749">
        <ele>103</ele>
        <time>2022-02-28T10:49:42Z</time>
      </trkpt>
      <trkpt lat="47.09562" lon="-0.38762">
        <ele>105</ele>
        <time>2022-02-28T10:49:57Z</time>
      </trkpt>
      <trkpt lat="47.09509" lon="-0.38774">
        <ele>107</ele>
        <time>2022-02-28T10:50:07Z</time>
      </trkpt>
      <trkpt lat="47.09487" lon="-0.38776">
        <ele>107</ele>
        <time>2022-02-28T10:50:10Z</time>
      </trkpt>
      <trkpt lat="47.09463" lon="-0.38773">
        <ele>108</ele>
        <time>2022-02-28T10:50:15Z</time>
      </trkpt>
      <trkpt lat="47.09291" lon="-0.38725">
        <ele>108</ele>
        <time>2022-02-28T10:50:46Z</time>
      </trkpt>
      <trkpt lat="47.09158" lon="-0.38698">
        <ele>107</ele>
        <time>2022-02-28T10:51:10Z</time>
      </trkpt>
      <trkpt lat="47.09107" lon="-0.38697">
        <ele>106</ele>
        <time>2022-02-28T10:51:19Z</time>
      </trkpt>
      <trkpt lat="47.09084" lon="-0.387">
        <ele>105</ele>
        <time>2022-02-28T10:51:23Z</time>
      </trkpt>
      <trkpt lat="47.09017" lon="-0.38716">
        <ele>104</ele>
        <time>2022-02-28T10:51:35Z</time>
      </trkpt>
      <trkpt lat="47.08978" lon="-0.38715">
        <ele>103</ele>
        <time>2022-02-28T10:51:42Z</time>
      </trkpt>
      <trkpt lat="47.08947" lon="-0.38711">
        <ele>103</ele>
        <time>2022-02-28T10:51:48Z</time>
      </trkpt>
      <trkpt lat="47.08915" lon="-0.38702">
        <ele>102</ele>
        <time>2022-02-28T10:51:53Z</time>
      </trkpt>
      <trkpt lat="47.08839" lon="-0.38665">
        <ele>102</ele>
        <time>2022-02-28T10:52:08Z</time>
      </trkpt>
      <trkpt lat="47.08796" lon="-0.3865">
        <ele>101</ele>
        <time>2022-02-28T10:52:15Z</time>
      </trkpt>
      <trkpt lat="47.08734" lon="-0.38636">
        <ele>100</ele>
        <time>2022-02-28T10:52:27Z</time>
      </trkpt>
      <trkpt lat="47.08668" lon="-0.38623">
        <ele>100</ele>
        <time>2022-02-28T10:52:38Z</time>
      </trkpt>
      <trkpt lat="47.08503" lon="-0.38571">
        <ele>95</ele>
        <time>2022-02-28T10:53:08Z</time>
      </trkpt>
      <trkpt lat="47.08385" lon="-0.38527">
        <ele>94</ele>
        <time>2022-02-28T10:53:30Z</time>
      </trkpt>
      <trkpt lat="47.0836" lon="-0.38521">
        <ele>94</ele>
        <time>2022-02-28T10:53:35Z</time>
      </trkpt>
      <trkpt lat="47.08284" lon="-0.38522">
        <ele>95</ele>
        <time>2022-02-28T10:53:48Z</time>
      </trkpt>
      <trkpt lat="47.08258" lon="-0.3852">
        <ele>95</ele>
        <time>2022-02-28T10:53:53Z</time>
      </trkpt>
      <trkpt lat="47.08197" lon="-0.38511">
        <ele>96</ele>
        <time>2022-02-28T10:54:04Z</time>
      </trkpt>
      <trkpt lat="47.08143" lon="-0.385">
        <ele>97</ele>
        <time>2022-02-28T10:54:13Z</time>
      </trkpt>
      <trkpt lat="47.08116" lon="-0.38488">
        <ele>98</ele>
        <time>2022-02-28T10:54:18Z</time>
      </trkpt>
      <trkpt lat="47.08082" lon="-0.3847">
        <ele>98</ele>
        <time>2022-02-28T10:54:25Z</time>
      </trkpt>
      <trkpt lat="47.08051" lon="-0.38457">
        <ele>97</ele>
        <time>2022-02-28T10:54:31Z</time>
      </trkpt>
      <trkpt lat="47.0803" lon="-0.38453">
        <ele>97</ele>
        <time>2022-02-28T10:54:34Z</time>
      </trkpt>
      <trkpt lat="47.08018" lon="-0.38459">
        <ele>96</ele>
        <time>2022-02-28T10:54:37Z</time>
      </trkpt>
      <trkpt lat="47.07908" lon="-0.3857">
        <ele>95</ele>
        <time>2022-02-28T10:55:00Z</time>
      </trkpt>
      <trkpt lat="47.07837" lon="-0.38631">
        <ele>94</ele>
        <time>2022-02-28T10:55:15Z</time>
      </trkpt>
      <trkpt lat="47.07756" lon="-0.38674">
        <ele>94</ele>
        <time>2022-02-28T10:55:30Z</time>
      </trkpt>
      <trkpt lat="47.07739" lon="-0.38686">
        <ele>93</ele>
        <time>2022-02-28T10:55:34Z</time>
      </trkpt>
      <trkpt lat="47.0768" lon="-0.38754">
        <ele>92</ele>
        <time>2022-02-28T10:55:47Z</time>
      </trkpt>
      <trkpt lat="47.07615" lon="-0.38809">
        <ele>91</ele>
        <time>2022-02-28T10:56:00Z</time>
      </trkpt>
      <trkpt lat="47.0757" lon="-0.38867">
        <ele>91</ele>
        <time>2022-02-28T10:56:11Z</time>
      </trkpt>
      <trkpt lat="47.07461" lon="-0.38993">
        <ele>92</ele>
        <time>2022-02-28T10:56:36Z</time>
      </trkpt>
      <trkpt lat="47.07431" lon="-0.39026">
        <ele>91</ele>
        <time>2022-02-28T10:56:42Z</time>
      </trkpt>
      <trkpt lat="47.07389" lon="-0.39063">
        <ele>92</ele>
        <time>2022-02-28T10:56:51Z</time>
      </trkpt>
      <trkpt lat="47.07287" lon="-0.38919">
        <ele>89</ele>
        <time>2022-02-28T10:57:16Z</time>
      </trkpt>
      <trkpt lat="47.07263" lon="-0.38879">
        <ele>88</ele>
        <time>2022-02-28T10:57:23Z</time>
      </trkpt>
      <trkpt lat="47.07061" lon="-0.38471">
        <ele>84</ele>
        <time>2022-02-28T10:58:24Z</time>
      </trkpt>
      <trkpt lat="47.07043" lon="-0.38432">
        <ele>82</ele>
        <time>2022-02-28T10:58:30Z</time>
      </trkpt>
      <trkpt lat="47.07031" lon="-0.384">
        <ele>82</ele>
        <time>2022-02-28T10:58:34Z</time>
      </trkpt>
      <trkpt lat="47.07019" lon="-0.3836">
        <ele>83</ele>
        <time>2022-02-28T10:58:39Z</time>
      </trkpt>
      <trkpt lat="47.07011" lon="-0.38316">
        <ele>83</ele>
        <time>2022-02-28T10:58:45Z</time>
      </trkpt>
      <trkpt lat="47.07002" lon="-0.38221">
        <ele>81</ele>
        <time>2022-02-28T10:58:56Z</time>
      </trkpt>
      <trkpt lat="47.06993" lon="-0.38227">
        <ele>81</ele>
        <time>2022-02-28T10:58:58Z</time>
      </trkpt>
      <trkpt lat="47.06871" lon="-0.38483">
        <ele>87</ele>
        <time>2022-02-28T10:59:36Z</time>
      </trkpt>
      <trkpt lat="47.06693" lon="-0.3879">
        <ele>91</ele>
        <time>2022-02-28T11:00:25Z</time>
      </trkpt>
      <trkpt lat="47.06632" lon="-0.38885">
        <ele>90</ele>
        <time>2022-02-28T11:00:41Z</time>
      </trkpt>
      <trkpt lat="47.06608" lon="-0.38927">
        <ele>90</ele>
        <time>2022-02-28T11:00:47Z</time>
      </trkpt>
      <trkpt lat="47.06603" lon="-0.38957">
        <ele>90</ele>
        <time>2022-02-28T11:00:51Z</time>
      </trkpt>
      <trkpt lat="47.06602" lon="-0.38975">
        <ele>90</ele>
        <time>2022-02-28T11:00:53Z</time>
      </trkpt>
      <trkpt lat="47.06607" lon="-0.39002">
        <ele>90</ele>
        <time>2022-02-28T11:00:57Z</time>
      </trkpt>
      <trkpt lat="47.06626" lon="-0.39063">
        <ele>89</ele>
        <time>2022-02-28T11:01:05Z</time>
      </trkpt>
      <trkpt lat="47.0663" lon="-0.39082">
        <ele>89</ele>
        <time>2022-02-28T11:01:07Z</time>
      </trkpt>
      <trkpt lat="47.06631" lon="-0.39101">
        <ele>89</ele>
        <time>2022-02-28T11:01:10Z</time>
      </trkpt>
      <trkpt lat="47.0662" lon="-0.39212">
        <ele>90</ele>
        <time>2022-02-28T11:01:23Z</time>
      </trkpt>
      <trkpt lat="47.06615" lon="-0.39311">
        <ele>90</ele>
        <time>2022-02-28T11:01:35Z</time>
      </trkpt>
      <trkpt lat="47.06616" lon="-0.39458">
        <ele>90</ele>
        <time>2022-02-28T11:01:53Z</time>
      </trkpt>
      <trkpt lat="47.06614" lon="-0.39485">
        <ele>90</ele>
        <time>2022-02-28T11:01:56Z</time>
      </trkpt>
      <trkpt lat="47.06604" lon="-0.39524">
        <ele>91</ele>
        <time>2022-02-28T11:02:01Z</time>
      </trkpt>
      <trkpt lat="47.06566" lon="-0.39601">
        <ele>91</ele>
        <time>2022-02-28T11:02:13Z</time>
      </trkpt>
      <trkpt lat="47.0654" lon="-0.39668">
        <ele>90</ele>
        <time>2022-02-28T11:02:22Z</time>
      </trkpt>
      <trkpt lat="47.06529" lon="-0.39708">
        <ele>90</ele>
        <time>2022-02-28T11:02:27Z</time>
      </trkpt>
      <trkpt lat="47.06508" lon="-0.39813">
        <ele>90</ele>
        <time>2022-02-28T11:02:41Z</time>
      </trkpt>
      <trkpt lat="47.06479" lon="-0.39903">
        <ele>91</ele>
        <time>2022-02-28T11:02:53Z</time>
      </trkpt>
      <trkpt lat="47.06465" lon="-0.39933">
        <ele>91</ele>
        <time>2022-02-28T11:02:57Z</time>
      </trkpt>
      <trkpt lat="47.06409" lon="-0.40032">
        <ele>90</ele>
        <time>2022-02-28T11:03:13Z</time>
      </trkpt>
      <trkpt lat="47.06394" lon="-0.40064">
        <ele>89</ele>
        <time>2022-02-28T11:03:17Z</time>
      </trkpt>
      <trkpt lat="47.06374" lon="-0.4012">
        <ele>90</ele>
        <time>2022-02-28T11:03:25Z</time>
      </trkpt>
      <trkpt lat="47.06348" lon="-0.40207">
        <ele>92</ele>
        <time>2022-02-28T11:03:37Z</time>
      </trkpt>
      <trkpt lat="47.06338" lon="-0.40231">
        <ele>92</ele>
        <time>2022-02-28T11:03:40Z</time>
      </trkpt>
      <trkpt lat="47.06321" lon="-0.40261">
        <ele>93</ele>
        <time>2022-02-28T11:03:45Z</time>
      </trkpt>
      <trkpt lat="47.06285" lon="-0.40312">
        <ele>93</ele>
        <time>2022-02-28T11:03:54Z</time>
      </trkpt>
      <trkpt lat="47.06253" lon="-0.40352">
        <ele>94</ele>
        <time>2022-02-28T11:04:01Z</time>
      </trkpt>
      <trkpt lat="47.06132" lon="-0.40486">
        <ele>93</ele>
        <time>2022-02-28T11:04:28Z</time>
      </trkpt>
      <trkpt lat="47.06092" lon="-0.40543">
        <ele>93</ele>
        <time>2022-02-28T11:04:38Z</time>
      </trkpt>
      <trkpt lat="47.06067" lon="-0.40592">
        <ele>94</ele>
        <time>2022-02-28T11:04:46Z</time>
      </trkpt>
      <trkpt lat="47.06047" lon="-0.40635">
        <ele>93</ele>
        <time>2022-02-28T11:04:52Z</time>
      </trkpt>
      <trkpt lat="47.06031" lon="-0.40676">
        <ele>93</ele>
        <time>2022-02-28T11:04:58Z</time>
      </trkpt>
      <trkpt lat="47.05981" lon="-0.40819">
        <ele>92</ele>
        <time>2022-02-28T11:05:17Z</time>
      </trkpt>
      <trkpt lat="47.05965" lon="-0.40859">
        <ele>92</ele>
        <time>2022-02-28T11:05:23Z</time>
      </trkpt>
      <trkpt lat="47.0588" lon="-0.40994">
        <ele>95</ele>
        <time>2022-02-28T11:05:45Z</time>
      </trkpt>
      <trkpt lat="47.05845" lon="-0.41103">
        <ele>94</ele>
        <time>2022-02-28T11:06:00Z</time>
      </trkpt>
      <trkpt lat="47.05822" lon="-0.41165">
        <ele>95</ele>
        <time>2022-02-28T11:06:08Z</time>
      </trkpt>
      <trkpt lat="47.05792" lon="-0.41233">
        <ele>96</ele>
        <time>2022-02-28T11:06:18Z</time>
      </trkpt>
      <trkpt lat="47.05744" lon="-0.41323">
        <ele>96</ele>
        <time>2022-02-28T11:06:32Z</time>
      </trkpt>
      <trkpt lat="47.05691" lon="-0.41413">
        <ele>98</ele>
        <time>2022-02-28T11:06:46Z</time>
      </trkpt>
      <trkpt lat="47.05673" lon="-0.41453">
        <ele>98</ele>
        <time>2022-02-28T11:06:52Z</time>
      </trkpt>
      <trkpt lat="47.05665" lon="-0.41489">
        <ele>97</ele>
        <time>2022-02-28T11:06:57Z</time>
      </trkpt>
      <trkpt lat="47.05646" lon="-0.41626">
        <ele>97</ele>
        <time>2022-02-28T11:07:14Z</time>
      </trkpt>
      <trkpt lat="47.05634" lon="-0.41751">
        <ele>98</ele>
        <time>2022-02-28T11:07:29Z</time>
      </trkpt>
      <trkpt lat="47.05633" lon="-0.41812">
        <ele>100</ele>
        <time>2022-02-28T11:07:36Z</time>
      </trkpt>
      <trkpt lat="47.05633" lon="-0.42009">
        <ele>103</ele>
        <time>2022-02-28T11:08:00Z</time>
      </trkpt>
      <trkpt lat="47.05631" lon="-0.42075">
        <ele>103</ele>
        <time>2022-02-28T11:08:08Z</time>
      </trkpt>
      <trkpt lat="47.05624" lon="-0.42119">
        <ele>103</ele>
        <time>2022-02-28T11:08:14Z</time>
      </trkpt>
      <trkpt lat="47.05587" lon="-0.42271">
        <ele>104</ele>
        <time>2022-02-28T11:08:33Z</time>
      </trkpt>
      <trkpt lat="47.05569" lon="-0.42313">
        <ele>104</ele>
        <time>2022-02-28T11:08:39Z</time>
      </trkpt>
      <trkpt lat="47.05551" lon="-0.42342">
        <ele>104</ele>
        <time>2022-02-28T11:08:44Z</time>
      </trkpt>
      <trkpt lat="47.05329" lon="-0.42579">
        <ele>106</ele>
        <time>2022-02-28T11:09:33Z</time>
      </trkpt>
      <trkpt lat="47.0531" lon="-0.42605">
        <ele>105</ele>
        <time>2022-02-28T11:09:37Z</time>
      </trkpt>
      <trkpt lat="47.05295" lon="-0.42632">
        <ele>105</ele>
        <time>2022-02-28T11:09:42Z</time>
      </trkpt>
      <trkpt lat="47.0528" lon="-0.4267">
        <ele>105</ele>
        <time>2022-02-28T11:09:47Z</time>
      </trkpt>
      <trkpt lat="47.0522" lon="-0.42645">
        <ele>104</ele>
        <time>2022-02-28T11:09:58Z</time>
      </trkpt>
      <trkpt lat="47.0516" lon="-0.42628">
        <ele>103</ele>
        <time>2022-02-28T11:10:09Z</time>
      </trkpt>
      <trkpt lat="47.05013" lon="-0.42611">
        <ele>104</ele>
        <time>2022-02-28T11:10:35Z</time>
      </trkpt>
      <trkpt lat="47.04972" lon="-0.42611">
        <ele>104</ele>
        <time>2022-02-28T11:10:42Z</time>
      </trkpt>
      <trkpt lat="47.04807" lon="-0.42632">
        <ele>106</ele>
        <time>2022-02-28T11:11:12Z</time>
      </trkpt>
      <trkpt lat="47.04773" lon="-0.42628">
        <ele>106</ele>
        <time>2022-02-28T11:11:18Z</time>
      </trkpt>
      <trkpt lat="47.0475" lon="-0.42629">
        <ele>107</ele>
        <time>2022-02-28T11:11:22Z</time>
      </trkpt>
      <trkpt lat="47.04725" lon="-0.42635">
        <ele>107</ele>
        <time>2022-02-28T11:11:27Z</time>
      </trkpt>
      <trkpt lat="47.04704" lon="-0.42643">
        <ele>108</ele>
        <time>2022-02-28T11:11:30Z</time>
      </trkpt>
      <trkpt lat="47.04608" lon="-0.42695">
        <ele>110</ele>
        <time>2022-02-28T11:11:49Z</time>
      </trkpt>
      <trkpt lat="47.04509" lon="-0.42738">
        <ele>113</ele>
        <time>2022-02-28T11:12:07Z</time>
      </trkpt>
      <trkpt lat="47.04415" lon="-0.42795">
        <ele>113</ele>
        <time>2022-02-28T11:12:25Z</time>
      </trkpt>
      <trkpt lat="47.04388" lon="-0.42807">
        <ele>112</ele>
        <time>2022-02-28T11:12:30Z</time>
      </trkpt>
      <trkpt lat="47.04353" lon="-0.42816">
        <ele>112</ele>
        <time>2022-02-28T11:12:36Z</time>
      </trkpt>
      <trkpt lat="47.04336" lon="-0.42824">
        <ele>112</ele>
        <time>2022-02-28T11:12:40Z</time>
      </trkpt>
      <trkpt lat="47.04292" lon="-0.42851">
        <ele>112</ele>
        <time>2022-02-28T11:12:48Z</time>
      </trkpt>
      <trkpt lat="47.04196" lon="-0.42921">
        <ele>112</ele>
        <time>2022-02-28T11:13:07Z</time>
      </trkpt>
      <trkpt lat="47.04053" lon="-0.43008">
        <ele>111</ele>
        <time>2022-02-28T11:13:35Z</time>
      </trkpt>
      <trkpt lat="47.04004" lon="-0.43032">
        <ele>111</ele>
        <time>2022-02-28T11:13:44Z</time>
      </trkpt>
      <trkpt lat="47.03822" lon="-0.43115">
        <ele>114</ele>
        <time>2022-02-28T11:14:18Z</time>
      </trkpt>
      <trkpt lat="47.03733" lon="-0.43152">
        <ele>114</ele>
        <time>2022-02-28T11:14:34Z</time>
      </trkpt>
      <trkpt lat="47.03613" lon="-0.43189">
        <ele>114</ele>
        <time>2022-02-28T11:14:56Z</time>
      </trkpt>
      <trkpt lat="47.03505" lon="-0.43227">
        <ele>115</ele>
        <time>2022-02-28T11:15:16Z</time>
      </trkpt>
      <trkpt lat="47.03449" lon="-0.43253">
        <ele>116</ele>
        <time>2022-02-28T11:15:26Z</time>
      </trkpt>
      <trkpt lat="47.03368" lon="-0.43285">
        <ele>117</ele>
        <time>2022-02-28T11:15:41Z</time>
      </trkpt>
      <trkpt lat="47.03315" lon="-0.43303">
        <ele>118</ele>
        <time>2022-02-28T11:15:51Z</time>
      </trkpt>
      <trkpt lat="47.03266" lon="-0.43329">
        <ele>118</ele>
        <time>2022-02-28T11:16:00Z</time>
      </trkpt>
      <trkpt lat="47.03208" lon="-0.43352">
        <ele>118</ele>
        <time>2022-02-28T11:16:11Z</time>
      </trkpt>
      <trkpt lat="47.03143" lon="-0.43382">
        <ele>119</ele>
        <time>2022-02-28T11:16:23Z</time>
      </trkpt>
      <trkpt lat="47.03119" lon="-0.43397">
        <ele>120</ele>
        <time>2022-02-28T11:16:28Z</time>
      </trkpt>
      <trkpt lat="47.03083" lon="-0.43433">
        <ele>121</ele>
        <time>2022-02-28T11:16:35Z</time>
      </trkpt>
      <trkpt lat="47.03062" lon="-0.43449">
        <ele>121</ele>
        <time>2022-02-28T11:16:40Z</time>
      </trkpt>
      <trkpt lat="47.02823" lon="-0.43577">
        <ele>118</ele>
        <time>2022-02-28T11:17:25Z</time>
      </trkpt>
      <trkpt lat="47.02802" lon="-0.43591">
        <ele>118</ele>
        <time>2022-02-28T11:17:29Z</time>
      </trkpt>
      <trkpt lat="47.02776" lon="-0.43617">
        <ele>118</ele>
        <time>2022-02-28T11:17:35Z</time>
      </trkpt>
      <trkpt lat="47.02748" lon="-0.4364">
        <ele>118</ele>
        <time>2022-02-28T11:17:40Z</time>
      </trkpt>
      <trkpt lat="47.02563" lon="-0.43758">
        <ele>118</ele>
        <time>2022-02-28T11:18:16Z</time>
      </trkpt>
      <trkpt lat="47.02387" lon="-0.43837">
        <ele>117</ele>
        <time>2022-02-28T11:18:49Z</time>
      </trkpt>
      <trkpt lat="47.02274" lon="-0.43891">
        <ele>118</ele>
        <time>2022-02-28T11:19:10Z</time>
      </trkpt>
      <trkpt lat="47.02116" lon="-0.43989">
        <ele>120</ele>
        <time>2022-02-28T11:19:41Z</time>
      </trkpt>
      <trkpt lat="47.02091" lon="-0.44002">
        <ele>121</ele>
        <time>2022-02-28T11:19:45Z</time>
      </trkpt>
      <trkpt lat="47.02071" lon="-0.44008">
        <ele>121</ele>
        <time>2022-02-28T11:19:49Z</time>
      </trkpt>
      <trkpt lat="47.01999" lon="-0.44019">
        <ele>121</ele>
        <time>2022-02-28T11:20:02Z</time>
      </trkpt>
      <trkpt lat="47.01979" lon="-0.44028">
        <ele>121</ele>
        <time>2022-02-28T11:20:06Z</time>
      </trkpt>
      <trkpt lat="47.01942" lon="-0.4406">
        <ele>122</ele>
        <time>2022-02-28T11:20:13Z</time>
      </trkpt>
      <trkpt lat="47.01912" lon="-0.44077">
        <ele>122</ele>
        <time>2022-02-28T11:20:19Z</time>
      </trkpt>
      <trkpt lat="47.01746" lon="-0.44151">
        <ele>126</ele>
        <time>2022-02-28T11:20:50Z</time>
      </trkpt>
      <trkpt lat="47.0172" lon="-0.4416">
        <ele>126</ele>
        <time>2022-02-28T11:20:55Z</time>
      </trkpt>
      <trkpt lat="47.01694" lon="-0.44162">
        <ele>126</ele>
        <time>2022-02-28T11:20:59Z</time>
      </trkpt>
      <trkpt lat="47.01634" lon="-0.4415">
        <ele>124</ele>
        <time>2022-02-28T11:21:10Z</time>
      </trkpt>
      <trkpt lat="47.01492" lon="-0.44101">
        <ele>121</ele>
        <time>2022-02-28T11:21:36Z</time>
      </trkpt>
      <trkpt lat="47.01312" lon="-0.44022">
        <ele>123</ele>
        <time>2022-02-28T11:22:09Z</time>
      </trkpt>
      <trkpt lat="47.0128" lon="-0.44013">
        <ele>123</ele>
        <time>2022-02-28T11:22:15Z</time>
      </trkpt>
      <trkpt lat="47.01253" lon="-0.4401">
        <ele>122</ele>
        <time>2022-02-28T11:22:20Z</time>
      </trkpt>
      <trkpt lat="47.0114" lon="-0.44014">
        <ele>123</ele>
        <time>2022-02-28T11:22:40Z</time>
      </trkpt>
      <trkpt lat="47.01051" lon="-0.44014">
        <ele>124</ele>
        <time>2022-02-28T11:22:56Z</time>
      </trkpt>
      <trkpt lat="47.00971" lon="-0.44006">
        <ele>126</ele>
        <time>2022-02-28T11:23:10Z</time>
      </trkpt>
      <trkpt lat="47.00942" lon="-0.44009">
        <ele>126</ele>
        <time>2022-02-28T11:23:15Z</time>
      </trkpt>
      <trkpt lat="47.00867" lon="-0.44022">
        <ele>126</ele>
        <time>2022-02-28T11:23:29Z</time>
      </trkpt>
      <trkpt lat="47.00781" lon="-0.44022">
        <ele>125</ele>
        <time>2022-02-28T11:23:44Z</time>
      </trkpt>
      <trkpt lat="47.0075" lon="-0.44025">
        <ele>125</ele>
        <time>2022-02-28T11:23:50Z</time>
      </trkpt>
      <trkpt lat="47.0058" lon="-0.44065">
        <ele>128</ele>
        <time>2022-02-28T11:24:20Z</time>
      </trkpt>
      <trkpt lat="47.00485" lon="-0.44083">
        <ele>128</ele>
        <time>2022-02-28T11:24:37Z</time>
      </trkpt>
      <trkpt lat="47.00433" lon="-0.44098">
        <ele>129</ele>
        <time>2022-02-28T11:24:47Z</time>
      </trkpt>
      <trkpt lat="47.0027" lon="-0.44162">
        <ele>136</ele>
        <time>2022-02-28T11:25:17Z</time>
      </trkpt>
      <trkpt lat="47.00144" lon="-0.44206">
        <ele>140</ele>
        <time>2022-02-28T11:25:40Z</time>
      </trkpt>
      <trkpt lat="47.00117" lon="-0.44212">
        <ele>140</ele>
        <time>2022-02-28T11:25:45Z</time>
      </trkpt>
      <trkpt lat="47.00083" lon="-0.44208">
        <ele>142</ele>
        <time>2022-02-28T11:25:51Z</time>
      </trkpt>
      <trkpt lat="46.99953" lon="-0.44152">
        <ele>143</ele>
        <time>2022-02-28T11:26:15Z</time>
      </trkpt>
      <trkpt lat="46.9992" lon="-0.44125">
        <ele>143</ele>
        <time>2022-02-28T11:26:22Z</time>
      </trkpt>
      <trkpt lat="46.99904" lon="-0.44105">
        <ele>142</ele>
        <time>2022-02-28T11:26:25Z</time>
      </trkpt>
      <trkpt lat="46.99866" lon="-0.44036">
        <ele>142</ele>
        <time>2022-02-28T11:26:36Z</time>
      </trkpt>
      <trkpt lat="46.99844" lon="-0.44004">
        <ele>141</ele>
        <time>2022-02-28T11:26:42Z</time>
      </trkpt>
      <trkpt lat="46.99735" lon="-0.43882">
        <ele>138</ele>
        <time>2022-02-28T11:27:06Z</time>
      </trkpt>
      <trkpt lat="46.99691" lon="-0.43837">
        <ele>138</ele>
        <time>2022-02-28T11:27:16Z</time>
      </trkpt>
      <trkpt lat="46.99653" lon="-0.43803">
        <ele>137</ele>
        <time>2022-02-28T11:27:23Z</time>
      </trkpt>
      <trkpt lat="46.996" lon="-0.43762">
        <ele>136</ele>
        <time>2022-02-28T11:27:34Z</time>
      </trkpt>
      <trkpt lat="46.99583" lon="-0.43746">
        <ele>136</ele>
        <time>2022-02-28T11:27:38Z</time>
      </trkpt>
      <trkpt lat="46.99568" lon="-0.43726">
        <ele>134</ele>
        <time>2022-02-28T11:27:41Z</time>
      </trkpt>
      <trkpt lat="46.99551" lon="-0.43696">
        <ele>133</ele>
        <time>2022-02-28T11:27:46Z</time>
      </trkpt>
      <trkpt lat="46.99503" lon="-0.43589">
        <ele>128</ele>
        <time>2022-02-28T11:28:02Z</time>
      </trkpt>
      <trkpt lat="46.99475" lon="-0.43532">
        <ele>125</ele>
        <time>2022-02-28T11:28:10Z</time>
      </trkpt>
      <trkpt lat="46.99452" lon="-0.43498">
        <ele>123</ele>
        <time>2022-02-28T11:28:16Z</time>
      </trkpt>
      <trkpt lat="46.99413" lon="-0.43442">
        <ele>122</ele>
        <time>2022-02-28T11:28:26Z</time>
      </trkpt>
      <trkpt lat="46.99379" lon="-0.4338">
        <ele>121</ele>
        <time>2022-02-28T11:28:35Z</time>
      </trkpt>
      <trkpt lat="46.99349" lon="-0.43315">
        <ele>120</ele>
        <time>2022-02-28T11:28:45Z</time>
      </trkpt>
      <trkpt lat="46.99346" lon="-0.43307">
        <ele>120</ele>
        <time>2022-02-28T11:28:46Z</time>
      </trkpt>
      <trkpt lat="46.99134" lon="-0.43406">
        <ele>125</ele>
        <time>2022-02-28T11:29:26Z</time>
      </trkpt>
      <trkpt lat="46.99112" lon="-0.4342">
        <ele>126</ele>
        <time>2022-02-28T11:29:30Z</time>
      </trkpt>
      <trkpt lat="46.99092" lon="-0.43443">
        <ele>126</ele>
        <time>2022-02-28T11:29:34Z</time>
      </trkpt>
      <trkpt lat="46.99031" lon="-0.43537">
        <ele>123</ele>
        <time>2022-02-28T11:29:50Z</time>
      </trkpt>
      <trkpt lat="46.99008" lon="-0.43575">
        <ele>121</ele>
        <time>2022-02-28T11:29:56Z</time>
      </trkpt>
      <trkpt lat="46.98992" lon="-0.43624">
        <ele>120</ele>
        <time>2022-02-28T11:30:03Z</time>
      </trkpt>
      <trkpt lat="46.98964" lon="-0.43732">
        <ele>116</ele>
        <time>2022-02-28T11:30:17Z</time>
      </trkpt>
      <trkpt lat="46.98932" lon="-0.44011">
        <ele>101</ele>
        <time>2022-02-28T11:30:51Z</time>
      </trkpt>
      <trkpt lat="46.98932" lon="-0.44038">
        <ele>102</ele>
        <time>2022-02-28T11:30:54Z</time>
      </trkpt>
      <trkpt lat="46.98908" lon="-0.44041">
        <ele>100</ele>
        <time>2022-02-28T11:30:59Z</time>
      </trkpt>
      <trkpt lat="46.98744" lon="-0.44114">
        <ele>93</ele>
        <time>2022-02-28T11:31:29Z</time>
      </trkpt>
      <trkpt lat="46.98724" lon="-0.44128">
        <ele>92</ele>
        <time>2022-02-28T11:31:33Z</time>
      </trkpt>
      <trkpt lat="46.98714" lon="-0.44141">
        <ele>90</ele>
        <time>2022-02-28T11:31:36Z</time>
      </trkpt>
      <trkpt lat="46.98707" lon="-0.44153">
        <ele>89</ele>
        <time>2022-02-28T11:31:37Z</time>
      </trkpt>
      <trkpt lat="46.98702" lon="-0.44171">
        <ele>89</ele>
        <time>2022-02-28T11:31:40Z</time>
      </trkpt>
      <trkpt lat="46.9869" lon="-0.44215">
        <ele>87</ele>
        <time>2022-02-28T11:31:46Z</time>
      </trkpt>
      <trkpt lat="46.98681" lon="-0.44257">
        <ele>88</ele>
        <time>2022-02-28T11:31:51Z</time>
      </trkpt>
      <trkpt lat="46.9868" lon="-0.44286">
        <ele>90</ele>
        <time>2022-02-28T11:31:54Z</time>
      </trkpt>
      <trkpt lat="46.98686" lon="-0.4433">
        <ele>93</ele>
        <time>2022-02-28T11:32:00Z</time>
      </trkpt>
      <trkpt lat="46.98685" lon="-0.44344">
        <ele>94</ele>
        <time>2022-02-28T11:32:02Z</time>
      </trkpt>
      <trkpt lat="46.98682" lon="-0.44358">
        <ele>94</ele>
        <time>2022-02-28T11:32:03Z</time>
      </trkpt>
      <trkpt lat="46.98678" lon="-0.4437">
        <ele>95</ele>
        <time>2022-02-28T11:32:05Z</time>
      </trkpt>
      <trkpt lat="46.98663" lon="-0.44401">
        <ele>96</ele>
        <time>2022-02-28T11:32:10Z</time>
      </trkpt>
      <trkpt lat="46.98639" lon="-0.44456">
        <ele>100</ele>
        <time>2022-02-28T11:32:18Z</time>
      </trkpt>
      <trkpt lat="46.98627" lon="-0.44509">
        <ele>101</ele>
        <time>2022-02-28T11:32:24Z</time>
      </trkpt>
      <trkpt lat="46.98617" lon="-0.4454">
        <ele>102</ele>
        <time>2022-02-28T11:32:28Z</time>
      </trkpt>
      <trkpt lat="46.98603" lon="-0.44573">
        <ele>104</ele>
        <time>2022-02-28T11:32:33Z</time>
      </trkpt>
      <trkpt lat="46.98578" lon="-0.44623">
        <ele>105</ele>
        <time>2022-02-28T11:32:41Z</time>
      </trkpt>
      <trkpt lat="46.98563" lon="-0.4466">
        <ele>105</ele>
        <time>2022-02-28T11:32:46Z</time>
      </trkpt>
      <trkpt lat="46.98554" lon="-0.44689">
        <ele>106</ele>
        <time>2022-02-28T11:32:50Z</time>
      </trkpt>
      <trkpt lat="46.98548" lon="-0.4472">
        <ele>107</ele>
        <time>2022-02-28T11:32:54Z</time>
      </trkpt>
      <trkpt lat="46.98543" lon="-0.44755">
        <ele>108</ele>
        <time>2022-02-28T11:32:58Z</time>
      </trkpt>
      <trkpt lat="46.98542" lon="-0.44776">
        <ele>108</ele>
        <time>2022-02-28T11:33:01Z</time>
      </trkpt>
      <trkpt lat="46.98548" lon="-0.44869">
        <ele>108</ele>
        <time>2022-02-28T11:33:12Z</time>
      </trkpt>
      <trkpt lat="46.98547" lon="-0.44892">
        <ele>110</ele>
        <time>2022-02-28T11:33:15Z</time>
      </trkpt>
      <trkpt lat="46.98545" lon="-0.44901">
        <ele>111</ele>
        <time>2022-02-28T11:33:16Z</time>
      </trkpt>
      <trkpt lat="46.98523" lon="-0.44953">
        <ele>115</ele>
        <time>2022-02-28T11:33:23Z</time>
      </trkpt>
      <trkpt lat="46.98529" lon="-0.44961">
        <ele>115</ele>
        <time>2022-02-28T11:33:25Z</time>
      </trkpt>
      <trkpt lat="46.9853" lon="-0.44966">
        <ele>115</ele>
        <time>2022-02-28T11:33:25Z</time>
      </trkpt>
      <trkpt lat="46.98541" lon="-0.44967">
        <ele>114</ele>
        <time>2022-02-28T11:33:27Z</time>
      </trkpt>
      <trkpt lat="46.98547" lon="-0.4497">
        <ele>114</ele>
        <time>2022-02-28T11:33:29Z</time>
      </trkpt>
      <trkpt lat="46.98579" lon="-0.45007">
        <ele>115</ele>
        <time>2022-02-28T11:33:36Z</time>
      </trkpt>
      <trkpt lat="46.98547" lon="-0.4497">
        <ele>114</ele>
        <time>2022-02-28T11:33:43Z</time>
      </trkpt>
      <trkpt lat="46.98541" lon="-0.44967">
        <ele>114</ele>
        <time>2022-02-28T11:33:44Z</time>
      </trkpt>
      <trkpt lat="46.9853" lon="-0.44966">
        <ele>115</ele>
        <time>2022-02-28T11:33:46Z</time>
      </trkpt>
      <trkpt lat="46.98529" lon="-0.44976">
        <ele>115</ele>
        <time>2022-02-28T11:33:47Z</time>
      </trkpt>
      <trkpt lat="46.98525" lon="-0.44983">
        <ele>115</ele>
        <time>2022-02-28T11:33:48Z</time>
      </trkpt>
      <trkpt lat="46.98518" lon="-0.44986">
        <ele>116</ele>
        <time>2022-02-28T11:33:50Z</time>
      </trkpt>
      <trkpt lat="46.98511" lon="-0.44983">
        <ele>116</ele>
        <time>2022-02-28T11:33:51Z</time>
      </trkpt>
      <trkpt lat="46.98507" lon="-0.44974">
        <ele>116</ele>
        <time>2022-02-28T11:33:52Z</time>
      </trkpt>
      <trkpt lat="46.98495" lon="-0.44986">
        <ele>116</ele>
        <time>2022-02-28T11:33:55Z</time>
      </trkpt>
      <trkpt lat="46.98411" lon="-0.45085">
        <ele>115</ele>
        <time>2022-02-28T11:34:14Z</time>
      </trkpt>
      <trkpt lat="46.98349" lon="-0.45161">
        <ele>109</ele>
        <time>2022-02-28T11:34:28Z</time>
      </trkpt>
      <trkpt lat="46.9833" lon="-0.45189">
        <ele>108</ele>
        <time>2022-02-28T11:34:33Z</time>
      </trkpt>
      <trkpt lat="46.98315" lon="-0.45217">
        <ele>105</ele>
        <time>2022-02-28T11:34:38Z</time>
      </trkpt>
      <trkpt lat="46.983" lon="-0.45254">
        <ele>102</ele>
        <time>2022-02-28T11:34:43Z</time>
      </trkpt>
      <trkpt lat="46.98284" lon="-0.45305">
        <ele>99</ele>
        <time>2022-02-28T11:34:50Z</time>
      </trkpt>
      <trkpt lat="46.98277" lon="-0.4534">
        <ele>97</ele>
        <time>2022-02-28T11:34:54Z</time>
      </trkpt>
      <trkpt lat="46.98253" lon="-0.45501">
        <ele>93</ele>
        <time>2022-02-28T11:35:14Z</time>
      </trkpt>
      <trkpt lat="46.98248" lon="-0.45516">
        <ele>91</ele>
        <time>2022-02-28T11:35:16Z</time>
      </trkpt>
      <trkpt lat="46.98239" lon="-0.45528">
        <ele>91</ele>
        <time>2022-02-28T11:35:18Z</time>
      </trkpt>
      <trkpt lat="46.98227" lon="-0.45539">
        <ele>91</ele>
        <time>2022-02-28T11:35:21Z</time>
      </trkpt>
      <trkpt lat="46.98167" lon="-0.45568">
        <ele>92</ele>
        <time>2022-02-28T11:35:32Z</time>
      </trkpt>
      <trkpt lat="46.98069" lon="-0.45616">
        <ele>98</ele>
        <time>2022-02-28T11:35:50Z</time>
      </trkpt>
      <trkpt lat="46.9805" lon="-0.45623">
        <ele>99</ele>
        <time>2022-02-28T11:35:54Z</time>
      </trkpt>
      <trkpt lat="46.98005" lon="-0.45626">
        <ele>104</ele>
        <time>2022-02-28T11:36:02Z</time>
      </trkpt>
      <trkpt lat="46.97981" lon="-0.4563">
        <ele>107</ele>
        <time>2022-02-28T11:36:06Z</time>
      </trkpt>
      <trkpt lat="46.97972" lon="-0.45636">
        <ele>107</ele>
        <time>2022-02-28T11:36:08Z</time>
      </trkpt>
      <trkpt lat="46.97954" lon="-0.45653">
        <ele>108</ele>
        <time>2022-02-28T11:36:12Z</time>
      </trkpt>
      <trkpt lat="46.97914" lon="-0.45727">
        <ele>108</ele>
        <time>2022-02-28T11:36:23Z</time>
      </trkpt>
      <trkpt lat="46.979" lon="-0.4575">
        <ele>107</ele>
        <time>2022-02-28T11:36:27Z</time>
      </trkpt>
      <trkpt lat="46.9787" lon="-0.4578">
        <ele>107</ele>
        <time>2022-02-28T11:36:33Z</time>
      </trkpt>
      <trkpt lat="46.97854" lon="-0.4579">
        <ele>108</ele>
        <time>2022-02-28T11:36:37Z</time>
      </trkpt>
      <trkpt lat="46.97839" lon="-0.45796">
        <ele>110</ele>
        <time>2022-02-28T11:36:39Z</time>
      </trkpt>
      <trkpt lat="46.97824" lon="-0.45797">
        <ele>111</ele>
        <time>2022-02-28T11:36:42Z</time>
      </trkpt>
      <trkpt lat="46.97811" lon="-0.45796">
        <ele>112</ele>
        <time>2022-02-28T11:36:44Z</time>
      </trkpt>
      <trkpt lat="46.97781" lon="-0.45783">
        <ele>114</ele>
        <time>2022-02-28T11:36:50Z</time>
      </trkpt>
      <trkpt lat="46.9777" lon="-0.45773">
        <ele>115</ele>
        <time>2022-02-28T11:36:52Z</time>
      </trkpt>
      <trkpt lat="46.97749" lon="-0.45747">
        <ele>117</ele>
        <time>2022-02-28T11:36:57Z</time>
      </trkpt>
      <trkpt lat="46.97364" lon="-0.45105">
        <ele>125</ele>
        <time>2022-02-28T11:38:41Z</time>
      </trkpt>
      <trkpt lat="46.97322" lon="-0.45038">
        <ele>126</ele>
        <time>2022-02-28T11:38:52Z</time>
      </trkpt>
      <trkpt lat="46.97308" lon="-0.45022">
        <ele>126</ele>
        <time>2022-02-28T11:38:55Z</time>
      </trkpt>
      <trkpt lat="46.97283" lon="-0.45002">
        <ele>126</ele>
        <time>2022-02-28T11:39:00Z</time>
      </trkpt>
      <trkpt lat="46.97269" lon="-0.44993">
        <ele>126</ele>
        <time>2022-02-28T11:39:03Z</time>
      </trkpt>
      <trkpt lat="46.97246" lon="-0.44985">
        <ele>126</ele>
        <time>2022-02-28T11:39:07Z</time>
      </trkpt>
      <trkpt lat="46.97257" lon="-0.44865">
        <ele>128</ele>
        <time>2022-02-28T11:39:22Z</time>
      </trkpt>
      <trkpt lat="46.97284" lon="-0.44605">
        <ele>128</ele>
        <time>2022-02-28T11:39:54Z</time>
      </trkpt>
      <trkpt lat="46.97279" lon="-0.44605">
        <ele>128</ele>
        <time>2022-02-28T11:39:55Z</time>
      </trkpt>
      <trkpt lat="46.97136" lon="-0.44577">
        <ele>131</ele>
        <time>2022-02-28T11:40:20Z</time>
      </trkpt>
      <trkpt lat="46.97007" lon="-0.44533">
        <ele>131</ele>
        <time>2022-02-28T11:40:44Z</time>
      </trkpt>
      <trkpt lat="46.96997" lon="-0.44525">
        <ele>131</ele>
        <time>2022-02-28T11:40:46Z</time>
      </trkpt>
      <trkpt lat="46.96911" lon="-0.4442">
        <ele>133</ele>
        <time>2022-02-28T11:41:06Z</time>
      </trkpt>
      <trkpt lat="46.9689" lon="-0.44398">
        <ele>134</ele>
        <time>2022-02-28T11:41:10Z</time>
      </trkpt>
      <trkpt lat="46.96863" lon="-0.44376">
        <ele>134</ele>
        <time>2022-02-28T11:41:16Z</time>
      </trkpt>
      <trkpt lat="46.96788" lon="-0.44327">
        <ele>137</ele>
        <time>2022-02-28T11:41:30Z</time>
      </trkpt>
      <trkpt lat="46.96768" lon="-0.44316">
        <ele>138</ele>
        <time>2022-02-28T11:41:34Z</time>
      </trkpt>
      <trkpt lat="46.96742" lon="-0.44304">
        <ele>138</ele>
        <time>2022-02-28T11:41:39Z</time>
      </trkpt>
      <trkpt lat="46.96617" lon="-0.4426">
        <ele>138</ele>
        <time>2022-02-28T11:42:02Z</time>
      </trkpt>
      <trkpt lat="46.96601" lon="-0.4425">
        <ele>137</ele>
        <time>2022-02-28T11:42:05Z</time>
      </trkpt>
      <trkpt lat="46.96479" lon="-0.44184">
        <ele>133</ele>
        <time>2022-02-28T11:42:28Z</time>
      </trkpt>
      <trkpt lat="46.9646" lon="-0.44178">
        <ele>133</ele>
        <time>2022-02-28T11:42:32Z</time>
      </trkpt>
      <trkpt lat="46.96418" lon="-0.4417">
        <ele>132</ele>
        <time>2022-02-28T11:42:39Z</time>
      </trkpt>
      <trkpt lat="46.96351" lon="-0.44143">
        <ele>133</ele>
        <time>2022-02-28T11:42:52Z</time>
      </trkpt>
      <trkpt lat="46.96333" lon="-0.44133">
        <ele>133</ele>
        <time>2022-02-28T11:42:55Z</time>
      </trkpt>
      <trkpt lat="46.96312" lon="-0.44116">
        <ele>132</ele>
        <time>2022-02-28T11:42:59Z</time>
      </trkpt>
      <trkpt lat="46.9614" lon="-0.43938">
        <ele>130</ele>
        <time>2022-02-28T11:43:37Z</time>
      </trkpt>
      <trkpt lat="46.96011" lon="-0.43789">
        <ele>128</ele>
        <time>2022-02-28T11:44:06Z</time>
      </trkpt>
      <trkpt lat="46.95975" lon="-0.43745">
        <ele>127</ele>
        <time>2022-02-28T11:44:14Z</time>
      </trkpt>
      <trkpt lat="46.95939" lon="-0.43694">
        <ele>126</ele>
        <time>2022-02-28T11:44:23Z</time>
      </trkpt>
      <trkpt lat="46.9589" lon="-0.43637">
        <ele>124</ele>
        <time>2022-02-28T11:44:34Z</time>
      </trkpt>
      <trkpt lat="46.95829" lon="-0.43547">
        <ele>121</ele>
        <time>2022-02-28T11:44:50Z</time>
      </trkpt>
      <trkpt lat="46.95809" lon="-0.43515">
        <ele>121</ele>
        <time>2022-02-28T11:44:55Z</time>
      </trkpt>
      <trkpt lat="46.95755" lon="-0.43452">
        <ele>122</ele>
        <time>2022-02-28T11:45:07Z</time>
      </trkpt>
      <trkpt lat="46.95735" lon="-0.43436">
        <ele>123</ele>
        <time>2022-02-28T11:45:11Z</time>
      </trkpt>
      <trkpt lat="46.95693" lon="-0.43419">
        <ele>123</ele>
        <time>2022-02-28T11:45:19Z</time>
      </trkpt>
      <trkpt lat="46.95617" lon="-0.434">
        <ele>124</ele>
        <time>2022-02-28T11:45:33Z</time>
      </trkpt>
      <trkpt lat="46.95586" lon="-0.43398">
        <ele>124</ele>
        <time>2022-02-28T11:45:38Z</time>
      </trkpt>
      <trkpt lat="46.95471" lon="-0.43418">
        <ele>122</ele>
        <time>2022-02-28T11:45:59Z</time>
      </trkpt>
      <trkpt lat="46.95398" lon="-0.43423">
        <ele>120</ele>
        <time>2022-02-28T11:46:12Z</time>
      </trkpt>
      <trkpt lat="46.95282" lon="-0.43414">
        <ele>117</ele>
        <time>2022-02-28T11:46:33Z</time>
      </trkpt>
      <trkpt lat="46.95155" lon="-0.43415">
        <ele>113</ele>
        <time>2022-02-28T11:46:55Z</time>
      </trkpt>
      <trkpt lat="46.9514" lon="-0.43413">
        <ele>112</ele>
        <time>2022-02-28T11:46:58Z</time>
      </trkpt>
      <trkpt lat="46.95122" lon="-0.43405">
        <ele>111</ele>
        <time>2022-02-28T11:47:01Z</time>
      </trkpt>
      <trkpt lat="46.94968" lon="-0.43309">
        <ele>102</ele>
        <time>2022-02-28T11:47:31Z</time>
      </trkpt>
      <trkpt lat="46.94955" lon="-0.43302">
        <ele>102</ele>
        <time>2022-02-28T11:47:33Z</time>
      </trkpt>
      <trkpt lat="46.94879" lon="-0.43272">
        <ele>104</ele>
        <time>2022-02-28T11:47:47Z</time>
      </trkpt>
      <trkpt lat="46.94847" lon="-0.43256">
        <ele>105</ele>
        <time>2022-02-28T11:47:53Z</time>
      </trkpt>
      <trkpt lat="46.94728" lon="-0.43192">
        <ele>107</ele>
        <time>2022-02-28T11:48:16Z</time>
      </trkpt>
      <trkpt lat="46.94652" lon="-0.43156">
        <ele>108</ele>
        <time>2022-02-28T11:48:30Z</time>
      </trkpt>
      <trkpt lat="46.94612" lon="-0.43176">
        <ele>108</ele>
        <time>2022-02-28T11:48:38Z</time>
      </trkpt>
      <trkpt lat="46.94571" lon="-0.43216">
        <ele>108</ele>
        <time>2022-02-28T11:48:47Z</time>
      </trkpt>
      <trkpt lat="46.9455" lon="-0.43226">
        <ele>109</ele>
        <time>2022-02-28T11:48:50Z</time>
      </trkpt>
      <trkpt lat="46.94497" lon="-0.43233">
        <ele>109</ele>
        <time>2022-02-28T11:49:00Z</time>
      </trkpt>
      <trkpt lat="46.94476" lon="-0.43238">
        <ele>110</ele>
        <time>2022-02-28T11:49:04Z</time>
      </trkpt>
      <trkpt lat="46.94408" lon="-0.43261">
        <ele>112</ele>
        <time>2022-02-28T11:49:16Z</time>
      </trkpt>
      <trkpt lat="46.94384" lon="-0.43266">
        <ele>112</ele>
        <time>2022-02-28T11:49:20Z</time>
      </trkpt>
      <trkpt lat="46.94306" lon="-0.43274">
        <ele>114</ele>
        <time>2022-02-28T11:49:34Z</time>
      </trkpt>
      <trkpt lat="46.94268" lon="-0.43268">
        <ele>116</ele>
        <time>2022-02-28T11:49:41Z</time>
      </trkpt>
      <trkpt lat="46.94162" lon="-0.43261">
        <ele>118</ele>
        <time>2022-02-28T11:50:00Z</time>
      </trkpt>
      <trkpt lat="46.94144" lon="-0.43258">
        <ele>118</ele>
        <time>2022-02-28T11:50:03Z</time>
      </trkpt>
      <trkpt lat="46.9399" lon="-0.43212">
        <ele>118</ele>
        <time>2022-02-28T11:50:31Z</time>
      </trkpt>
      <trkpt lat="46.93924" lon="-0.43212">
        <ele>118</ele>
        <time>2022-02-28T11:50:43Z</time>
      </trkpt>
      <trkpt lat="46.93743" lon="-0.432">
        <ele>118</ele>
        <time>2022-02-28T11:51:15Z</time>
      </trkpt>
      <trkpt lat="46.93668" lon="-0.43194">
        <ele>117</ele>
        <time>2022-02-28T11:51:29Z</time>
      </trkpt>
      <trkpt lat="46.93539" lon="-0.4318">
        <ele>119</ele>
        <time>2022-02-28T11:51:52Z</time>
      </trkpt>
      <trkpt lat="46.93519" lon="-0.4318">
        <ele>120</ele>
        <time>2022-02-28T11:51:55Z</time>
      </trkpt>
      <trkpt lat="46.93498" lon="-0.43186">
        <ele>120</ele>
        <time>2022-02-28T11:51:59Z</time>
      </trkpt>
      <trkpt lat="46.93463" lon="-0.43202">
        <ele>121</ele>
        <time>2022-02-28T11:52:05Z</time>
      </trkpt>
      <trkpt lat="46.93448" lon="-0.43206">
        <ele>121</ele>
        <time>2022-02-28T11:52:08Z</time>
      </trkpt>
      <trkpt lat="46.93432" lon="-0.43207">
        <ele>121</ele>
        <time>2022-02-28T11:52:11Z</time>
      </trkpt>
      <trkpt lat="46.93408" lon="-0.43205">
        <ele>121</ele>
        <time>2022-02-28T11:52:15Z</time>
      </trkpt>
      <trkpt lat="46.93355" lon="-0.43195">
        <ele>122</ele>
        <time>2022-02-28T11:52:25Z</time>
      </trkpt>
      <trkpt lat="46.93199" lon="-0.4315">
        <ele>128</ele>
        <time>2022-02-28T11:52:53Z</time>
      </trkpt>
      <trkpt lat="46.93182" lon="-0.43143">
        <ele>128</ele>
        <time>2022-02-28T11:52:56Z</time>
      </trkpt>
      <trkpt lat="46.93145" lon="-0.43123">
        <ele>129</ele>
        <time>2022-02-28T11:53:03Z</time>
      </trkpt>
      <trkpt lat="46.93118" lon="-0.43117">
        <ele>129</ele>
        <time>2022-02-28T11:53:08Z</time>
      </trkpt>
      <trkpt lat="46.93074" lon="-0.43121">
        <ele>130</ele>
        <time>2022-02-28T11:53:16Z</time>
      </trkpt>
      <trkpt lat="46.93011" lon="-0.43137">
        <ele>131</ele>
        <time>2022-02-28T11:53:27Z</time>
      </trkpt>
      <trkpt lat="46.92987" lon="-0.43148">
        <ele>132</ele>
        <time>2022-02-28T11:53:32Z</time>
      </trkpt>
      <trkpt lat="46.92945" lon="-0.43178">
        <ele>132</ele>
        <time>2022-02-28T11:53:40Z</time>
      </trkpt>
      <trkpt lat="46.92923" lon="-0.43187">
        <ele>132</ele>
        <time>2022-02-28T11:53:44Z</time>
      </trkpt>
      <trkpt lat="46.92903" lon="-0.43189">
        <ele>132</ele>
        <time>2022-02-28T11:53:48Z</time>
      </trkpt>
      <trkpt lat="46.9288" lon="-0.43188">
        <ele>132</ele>
        <time>2022-02-28T11:53:52Z</time>
      </trkpt>
      <trkpt lat="46.92819" lon="-0.43177">
        <ele>132</ele>
        <time>2022-02-28T11:54:03Z</time>
      </trkpt>
      <trkpt lat="46.92692" lon="-0.43163">
        <ele>131</ele>
        <time>2022-02-28T11:54:25Z</time>
      </trkpt>
      <trkpt lat="46.92526" lon="-0.43115">
        <ele>129</ele>
        <time>2022-02-28T11:54:56Z</time>
      </trkpt>
      <trkpt lat="46.92504" lon="-0.43111">
        <ele>129</ele>
        <time>2022-02-28T11:54:59Z</time>
      </trkpt>
      <trkpt lat="46.9248" lon="-0.43111">
        <ele>129</ele>
        <time>2022-02-28T11:55:04Z</time>
      </trkpt>
      <trkpt lat="46.9236" lon="-0.43124">
        <ele>128</ele>
        <time>2022-02-28T11:55:25Z</time>
      </trkpt>
      <trkpt lat="46.92338" lon="-0.43124">
        <ele>128</ele>
        <time>2022-02-28T11:55:29Z</time>
      </trkpt>
      <trkpt lat="46.92319" lon="-0.43119">
        <ele>129</ele>
        <time>2022-02-28T11:55:33Z</time>
      </trkpt>
      <trkpt lat="46.92282" lon="-0.43095">
        <ele>130</ele>
        <time>2022-02-28T11:55:40Z</time>
      </trkpt>
      <trkpt lat="46.92233" lon="-0.43096">
        <ele>131</ele>
        <time>2022-02-28T11:55:48Z</time>
      </trkpt>
      <trkpt lat="46.92224" lon="-0.43087">
        <ele>131</ele>
        <time>2022-02-28T11:55:50Z</time>
      </trkpt>
      <trkpt lat="46.92206" lon="-0.43057">
        <ele>131</ele>
        <time>2022-02-28T11:55:55Z</time>
      </trkpt>
      <trkpt lat="46.92201" lon="-0.43039">
        <ele>131</ele>
        <time>2022-02-28T11:55:58Z</time>
      </trkpt>
      <trkpt lat="46.92194" lon="-0.43037">
        <ele>131</ele>
        <time>2022-02-28T11:55:59Z</time>
      </trkpt>
      <trkpt lat="46.92187" lon="-0.43031">
        <ele>131</ele>
        <time>2022-02-28T11:56:00Z</time>
      </trkpt>
      <trkpt lat="46.92156" lon="-0.42995">
        <ele>130</ele>
        <time>2022-02-28T11:56:07Z</time>
      </trkpt>
      <trkpt lat="46.92149" lon="-0.42992">
        <ele>130</ele>
        <time>2022-02-28T11:56:09Z</time>
      </trkpt>
      <trkpt lat="46.92136" lon="-0.4299">
        <ele>130</ele>
        <time>2022-02-28T11:56:11Z</time>
      </trkpt>
      <trkpt lat="46.92116" lon="-0.42995">
        <ele>130</ele>
        <time>2022-02-28T11:56:15Z</time>
      </trkpt>
      <trkpt lat="46.92078" lon="-0.42981">
        <ele>129</ele>
        <time>2022-02-28T11:56:22Z</time>
      </trkpt>
      <trkpt lat="46.92066" lon="-0.42963">
        <ele>129</ele>
        <time>2022-02-28T11:56:25Z</time>
      </trkpt>
      <trkpt lat="46.92065" lon="-0.42915">
        <ele>128</ele>
        <time>2022-02-28T11:56:30Z</time>
      </trkpt>
      <trkpt lat="46.92065" lon="-0.42873">
        <ele>126</ele>
        <time>2022-02-28T11:56:36Z</time>
      </trkpt>
      <trkpt lat="46.92062" lon="-0.42852">
        <ele>125</ele>
        <time>2022-02-28T11:56:38Z</time>
      </trkpt>
      <trkpt lat="46.91998" lon="-0.42566">
        <ele>118</ele>
        <time>2022-02-28T11:57:15Z</time>
      </trkpt>
      <trkpt lat="46.91993" lon="-0.4254">
        <ele>117</ele>
        <time>2022-02-28T11:57:18Z</time>
      </trkpt>
      <trkpt lat="46.91975" lon="-0.42411">
        <ele>112</ele>
        <time>2022-02-28T11:57:34Z</time>
      </trkpt>
      <trkpt lat="46.91969" lon="-0.42385">
        <ele>111</ele>
        <time>2022-02-28T11:57:37Z</time>
      </trkpt>
      <trkpt lat="46.91964" lon="-0.42368">
        <ele>111</ele>
        <time>2022-02-28T11:57:40Z</time>
      </trkpt>
      <trkpt lat="46.91937" lon="-0.42326">
        <ele>110</ele>
        <time>2022-02-28T11:57:47Z</time>
      </trkpt>
      <trkpt lat="46.91928" lon="-0.42312">
        <ele>110</ele>
        <time>2022-02-28T11:57:49Z</time>
      </trkpt>
      <trkpt lat="46.91818" lon="-0.42156">
        <ele>117</ele>
        <time>2022-02-28T11:58:16Z</time>
      </trkpt>
      <trkpt lat="46.91753" lon="-0.4204">
        <ele>119</ele>
        <time>2022-02-28T11:58:34Z</time>
      </trkpt>
      <trkpt lat="46.91728" lon="-0.42002">
        <ele>119</ele>
        <time>2022-02-28T11:58:41Z</time>
      </trkpt>
      <trkpt lat="46.91706" lon="-0.41976">
        <ele>119</ele>
        <time>2022-02-28T11:58:46Z</time>
      </trkpt>
      <trkpt lat="46.91494" lon="-0.41761">
        <ele>126</ele>
        <time>2022-02-28T11:59:32Z</time>
      </trkpt>
      <trkpt lat="46.91478" lon="-0.41749">
        <ele>127</ele>
        <time>2022-02-28T11:59:35Z</time>
      </trkpt>
      <trkpt lat="46.91464" lon="-0.41742">
        <ele>127</ele>
        <time>2022-02-28T11:59:38Z</time>
      </trkpt>
      <trkpt lat="46.91393" lon="-0.4173">
        <ele>128</ele>
        <time>2022-02-28T11:59:50Z</time>
      </trkpt>
      <trkpt lat="46.91373" lon="-0.41724">
        <ele>128</ele>
        <time>2022-02-28T11:59:54Z</time>
      </trkpt>
      <trkpt lat="46.91357" lon="-0.41714">
        <ele>128</ele>
        <time>2022-02-28T11:59:57Z</time>
      </trkpt>
      <trkpt lat="46.9134" lon="-0.417">
        <ele>128</ele>
        <time>2022-02-28T12:00:01Z</time>
      </trkpt>
      <trkpt lat="46.91292" lon="-0.41644">
        <ele>130</ele>
        <time>2022-02-28T12:00:11Z</time>
      </trkpt>
      <trkpt lat="46.9128" lon="-0.41626">
        <ele>130</ele>
        <time>2022-02-28T12:00:14Z</time>
      </trkpt>
      <trkpt lat="46.91256" lon="-0.41578">
        <ele>132</ele>
        <time>2022-02-28T12:00:22Z</time>
      </trkpt>
      <trkpt lat="46.91231" lon="-0.41492">
        <ele>134</ele>
        <time>2022-02-28T12:00:33Z</time>
      </trkpt>
      <trkpt lat="46.91209" lon="-0.41446">
        <ele>135</ele>
        <time>2022-02-28T12:00:40Z</time>
      </trkpt>
      <trkpt lat="46.91197" lon="-0.41429">
        <ele>135</ele>
        <time>2022-02-28T12:00:43Z</time>
      </trkpt>
      <trkpt lat="46.91139" lon="-0.4136">
        <ele>137</ele>
        <time>2022-02-28T12:00:56Z</time>
      </trkpt>
      <trkpt lat="46.91115" lon="-0.41335">
        <ele>137</ele>
        <time>2022-02-28T12:01:01Z</time>
      </trkpt>
      <trkpt lat="46.90909" lon="-0.41134">
        <ele>145</ele>
        <time>2022-02-28T12:01:45Z</time>
      </trkpt>
      <trkpt lat="46.90775" lon="-0.41007">
        <ele>148</ele>
        <time>2022-02-28T12:02:14Z</time>
      </trkpt>
      <trkpt lat="46.90664" lon="-0.40894">
        <ele>147</ele>
        <time>2022-02-28T12:02:38Z</time>
      </trkpt>
      <trkpt lat="46.9059" lon="-0.40821">
        <ele>147</ele>
        <time>2022-02-28T12:02:54Z</time>
      </trkpt>
      <trkpt lat="46.90559" lon="-0.40794">
        <ele>147</ele>
        <time>2022-02-28T12:03:00Z</time>
      </trkpt>
      <trkpt lat="46.90539" lon="-0.40778">
        <ele>147</ele>
        <time>2022-02-28T12:03:04Z</time>
      </trkpt>
      <trkpt lat="46.90499" lon="-0.40751">
        <ele>148</ele>
        <time>2022-02-28T12:03:12Z</time>
      </trkpt>
      <trkpt lat="46.90431" lon="-0.40709">
        <ele>148</ele>
        <time>2022-02-28T12:03:25Z</time>
      </trkpt>
      <trkpt lat="46.90392" lon="-0.40679">
        <ele>148</ele>
        <time>2022-02-28T12:03:33Z</time>
      </trkpt>
      <trkpt lat="46.90374" lon="-0.40662">
        <ele>148</ele>
        <time>2022-02-28T12:03:37Z</time>
      </trkpt>
      <trkpt lat="46.90302" lon="-0.4057">
        <ele>151</ele>
        <time>2022-02-28T12:03:54Z</time>
      </trkpt>
      <trkpt lat="46.9025" lon="-0.40515">
        <ele>153</ele>
        <time>2022-02-28T12:04:05Z</time>
      </trkpt>
      <trkpt lat="46.90043" lon="-0.40335">
        <ele>157</ele>
        <time>2022-02-28T12:04:48Z</time>
      </trkpt>
      <trkpt lat="46.89974" lon="-0.40279">
        <ele>161</ele>
        <time>2022-02-28T12:05:02Z</time>
      </trkpt>
      <trkpt lat="46.89941" lon="-0.40258">
        <ele>161</ele>
        <time>2022-02-28T12:05:09Z</time>
      </trkpt>
      <trkpt lat="46.89717" lon="-0.40125">
        <ele>158</ele>
        <time>2022-02-28T12:05:52Z</time>
      </trkpt>
      <trkpt lat="46.89426" lon="-0.39954">
        <ele>160</ele>
        <time>2022-02-28T12:06:47Z</time>
      </trkpt>
      <trkpt lat="46.89369" lon="-0.39927">
        <ele>163</ele>
        <time>2022-02-28T12:06:58Z</time>
      </trkpt>
      <trkpt lat="46.89208" lon="-0.39862">
        <ele>168</ele>
        <time>2022-02-28T12:07:28Z</time>
      </trkpt>
      <trkpt lat="46.89187" lon="-0.39852">
        <ele>168</ele>
        <time>2022-02-28T12:07:32Z</time>
      </trkpt>
      <trkpt lat="46.89104" lon="-0.39788">
        <ele>167</ele>
        <time>2022-02-28T12:07:48Z</time>
      </trkpt>
      <trkpt lat="46.89034" lon="-0.39743">
        <ele>166</ele>
        <time>2022-02-28T12:08:02Z</time>
      </trkpt>
      <trkpt lat="46.88966" lon="-0.39703">
        <ele>167</ele>
        <time>2022-02-28T12:08:15Z</time>
      </trkpt>
      <trkpt lat="46.88854" lon="-0.39646">
        <ele>167</ele>
        <time>2022-02-28T12:08:36Z</time>
      </trkpt>
      <trkpt lat="46.88738" lon="-0.39594">
        <ele>165</ele>
        <time>2022-02-28T12:08:58Z</time>
      </trkpt>
      <trkpt lat="46.88659" lon="-0.39556">
        <ele>161</ele>
        <time>2022-02-28T12:09:13Z</time>
      </trkpt>
      <trkpt lat="46.88535" lon="-0.39478">
        <ele>158</ele>
        <time>2022-02-28T12:09:37Z</time>
      </trkpt>
      <trkpt lat="46.88417" lon="-0.39413">
        <ele>156</ele>
        <time>2022-02-28T12:09:59Z</time>
      </trkpt>
      <trkpt lat="46.88289" lon="-0.39376">
        <ele>157</ele>
        <time>2022-02-28T12:10:22Z</time>
      </trkpt>
      <trkpt lat="46.88185" lon="-0.39362">
        <ele>158</ele>
        <time>2022-02-28T12:10:41Z</time>
      </trkpt>
      <trkpt lat="46.8828" lon="-0.39201">
        <ele>159</ele>
        <time>2022-02-28T12:11:07Z</time>
      </trkpt>
      <trkpt lat="46.88345" lon="-0.3908">
        <ele>160</ele>
        <time>2022-02-28T12:11:25Z</time>
      </trkpt>
      <trkpt lat="46.8845" lon="-0.38913">
        <ele>162</ele>
        <time>2022-02-28T12:11:53Z</time>
      </trkpt>
      <trkpt lat="46.88511" lon="-0.38807">
        <ele>163</ele>
        <time>2022-02-28T12:12:10Z</time>
      </trkpt>
      <trkpt lat="46.88581" lon="-0.38695">
        <ele>163</ele>
        <time>2022-02-28T12:12:28Z</time>
      </trkpt>
      <trkpt lat="46.88596" lon="-0.38664">
        <ele>163</ele>
        <time>2022-02-28T12:12:33Z</time>
      </trkpt>
      <trkpt lat="46.88634" lon="-0.38573">
        <ele>164</ele>
        <time>2022-02-28T12:12:46Z</time>
      </trkpt>
      <trkpt lat="46.88688" lon="-0.38455">
        <ele>166</ele>
        <time>2022-02-28T12:13:03Z</time>
      </trkpt>
      <trkpt lat="46.88695" lon="-0.38432">
        <ele>166</ele>
        <time>2022-02-28T12:13:06Z</time>
      </trkpt>
      <trkpt lat="46.88712" lon="-0.38362">
        <ele>167</ele>
        <time>2022-02-28T12:13:15Z</time>
      </trkpt>
      <trkpt lat="46.88721" lon="-0.38339">
        <ele>167</ele>
        <time>2022-02-28T12:13:18Z</time>
      </trkpt>
      <trkpt lat="46.8874" lon="-0.38305">
        <ele>168</ele>
        <time>2022-02-28T12:13:24Z</time>
      </trkpt>
      <trkpt lat="46.88803" lon="-0.38202">
        <ele>170</ele>
        <time>2022-02-28T12:13:41Z</time>
      </trkpt>
      <trkpt lat="46.88846" lon="-0.38072">
        <ele>172</ele>
        <time>2022-02-28T12:13:58Z</time>
      </trkpt>
      <trkpt lat="46.88853" lon="-0.38028">
        <ele>170</ele>
        <time>2022-02-28T12:14:04Z</time>
      </trkpt>
      <trkpt lat="46.8887" lon="-0.3794">
        <ele>170</ele>
        <time>2022-02-28T12:14:15Z</time>
      </trkpt>
      <trkpt lat="46.88884" lon="-0.37898">
        <ele>170</ele>
        <time>2022-02-28T12:14:20Z</time>
      </trkpt>
      <trkpt lat="46.88995" lon="-0.37901">
        <ele>173</ele>
        <time>2022-02-28T12:14:40Z</time>
      </trkpt>
      <trkpt lat="46.89084" lon="-0.37915">
        <ele>175</ele>
        <time>2022-02-28T12:14:56Z</time>
      </trkpt>
      <trkpt lat="46.89177" lon="-0.37995">
        <ele>179</ele>
        <time>2022-02-28T12:15:15Z</time>
      </trkpt>
      <trkpt lat="46.89195" lon="-0.38001">
        <ele>179</ele>
        <time>2022-02-28T12:15:19Z</time>
      </trkpt>
      <trkpt lat="46.89266" lon="-0.37995">
        <ele>180</ele>
        <time>2022-02-28T12:15:31Z</time>
      </trkpt>
      <trkpt lat="46.8927" lon="-0.37959">
        <ele>180</ele>
        <time>2022-02-28T12:15:36Z</time>
      </trkpt>
      <trkpt lat="46.89269" lon="-0.37793">
        <ele>179</ele>
        <time>2022-02-28T12:15:56Z</time>
      </trkpt>
      <trkpt lat="46.89273" lon="-0.3777">
        <ele>179</ele>
        <time>2022-02-28T12:15:59Z</time>
      </trkpt>
      <trkpt lat="46.89301" lon="-0.37739">
        <ele>179</ele>
        <time>2022-02-28T12:16:05Z</time>
      </trkpt>
      <trkpt lat="46.89375" lon="-0.3768">
        <ele>178</ele>
        <time>2022-02-28T12:16:20Z</time>
      </trkpt>
      <trkpt lat="46.8941" lon="-0.37663">
        <ele>178</ele>
        <time>2022-02-28T12:16:27Z</time>
      </trkpt>
      <trkpt lat="46.89486" lon="-0.37632">
        <ele>177</ele>
        <time>2022-02-28T12:16:41Z</time>
      </trkpt>
      <trkpt lat="46.89569" lon="-0.37633">
        <ele>174</ele>
        <time>2022-02-28T12:16:55Z</time>
      </trkpt>
      <trkpt lat="46.896" lon="-0.37626">
        <ele>173</ele>
        <time>2022-02-28T12:17:01Z</time>
      </trkpt>
      <trkpt lat="46.89779" lon="-0.37485">
        <ele>169</ele>
        <time>2022-02-28T12:17:37Z</time>
      </trkpt>
      <trkpt lat="46.89882" lon="-0.37397">
        <ele>167</ele>
        <time>2022-02-28T12:17:58Z</time>
      </trkpt>
      <trkpt lat="46.90118" lon="-0.3718">
        <ele>161</ele>
        <time>2022-02-28T12:18:48Z</time>
      </trkpt>
      <trkpt lat="46.90167" lon="-0.37124">
        <ele>160</ele>
        <time>2022-02-28T12:18:59Z</time>
      </trkpt>
      <trkpt lat="46.90173" lon="-0.37104">
        <ele>160</ele>
        <time>2022-02-28T12:19:02Z</time>
      </trkpt>
      <trkpt lat="46.90168" lon="-0.37025">
        <ele>159</ele>
        <time>2022-02-28T12:19:11Z</time>
      </trkpt>
      <trkpt lat="46.90161" lon="-0.36964">
        <ele>158</ele>
        <time>2022-02-28T12:19:19Z</time>
      </trkpt>
      <trkpt lat="46.90142" lon="-0.36899">
        <ele>157</ele>
        <time>2022-02-28T12:19:27Z</time>
      </trkpt>
      <trkpt lat="46.90138" lon="-0.36864">
        <ele>157</ele>
        <time>2022-02-28T12:19:32Z</time>
      </trkpt>
      <trkpt lat="46.90133" lon="-0.36802">
        <ele>157</ele>
        <time>2022-02-28T12:19:39Z</time>
      </trkpt>
      <trkpt lat="46.9013" lon="-0.3669">
        <ele>158</ele>
        <time>2022-02-28T12:19:53Z</time>
      </trkpt>
      <trkpt lat="46.90141" lon="-0.36666">
        <ele>158</ele>
        <time>2022-02-28T12:19:56Z</time>
      </trkpt>
      <trkpt lat="46.90155" lon="-0.36648">
        <ele>158</ele>
        <time>2022-02-28T12:20:00Z</time>
      </trkpt>
      <trkpt lat="46.90227" lon="-0.366">
        <ele>158</ele>
        <time>2022-02-28T12:20:14Z</time>
      </trkpt>
      <trkpt lat="46.90242" lon="-0.36585">
        <ele>157</ele>
        <time>2022-02-28T12:20:17Z</time>
      </trkpt>
      <trkpt lat="46.90285" lon="-0.36533">
        <ele>157</ele>
        <time>2022-02-28T12:20:27Z</time>
      </trkpt>
      <trkpt lat="46.90306" lon="-0.36515">
        <ele>156</ele>
        <time>2022-02-28T12:20:31Z</time>
      </trkpt>
      <trkpt lat="46.9032" lon="-0.36509">
        <ele>156</ele>
        <time>2022-02-28T12:20:34Z</time>
      </trkpt>
      <trkpt lat="46.9035" lon="-0.36504">
        <ele>156</ele>
        <time>2022-02-28T12:20:39Z</time>
      </trkpt>
      <trkpt lat="46.90388" lon="-0.36505">
        <ele>157</ele>
        <time>2022-02-28T12:20:46Z</time>
      </trkpt>
      <trkpt lat="46.90405" lon="-0.36501">
        <ele>158</ele>
        <time>2022-02-28T12:20:49Z</time>
      </trkpt>
      <trkpt lat="46.90439" lon="-0.36488">
        <ele>158</ele>
        <time>2022-02-28T12:20:55Z</time>
      </trkpt>
      <trkpt lat="46.90471" lon="-0.36472">
        <ele>158</ele>
        <time>2022-02-28T12:21:01Z</time>
      </trkpt>
      <trkpt lat="46.90502" lon="-0.36451">
        <ele>158</ele>
        <time>2022-02-28T12:21:07Z</time>
      </trkpt>
      <trkpt lat="46.90529" lon="-0.36419">
        <ele>158</ele>
        <time>2022-02-28T12:21:14Z</time>
      </trkpt>
      <trkpt lat="46.90562" lon="-0.3637">
        <ele>159</ele>
        <time>2022-02-28T12:21:22Z</time>
      </trkpt>
      <trkpt lat="46.90636" lon="-0.36221">
        <ele>159</ele>
        <time>2022-02-28T12:21:44Z</time>
      </trkpt>
      <trkpt lat="46.90734" lon="-0.35995">
        <ele>161</ele>
        <time>2022-02-28T12:22:17Z</time>
      </trkpt>
      <trkpt lat="46.90842" lon="-0.35822">
        <ele>164</ele>
        <time>2022-02-28T12:22:45Z</time>
      </trkpt>
      <trkpt lat="46.90881" lon="-0.35735">
        <ele>166</ele>
        <time>2022-02-28T12:22:58Z</time>
      </trkpt>
      <trkpt lat="46.90925" lon="-0.35627">
        <ele>163</ele>
        <time>2022-02-28T12:23:13Z</time>
      </trkpt>
      <trkpt lat="46.90936" lon="-0.35586">
        <ele>161</ele>
        <time>2022-02-28T12:23:19Z</time>
      </trkpt>
      <trkpt lat="46.90938" lon="-0.35562">
        <ele>161</ele>
        <time>2022-02-28T12:23:22Z</time>
      </trkpt>
      <trkpt lat="46.90934" lon="-0.35493">
        <ele>159</ele>
        <time>2022-02-28T12:23:30Z</time>
      </trkpt>
      <trkpt lat="46.90936" lon="-0.35476">
        <ele>158</ele>
        <time>2022-02-28T12:23:32Z</time>
      </trkpt>
      <trkpt lat="46.90952" lon="-0.35418">
        <ele>156</ele>
        <time>2022-02-28T12:23:40Z</time>
      </trkpt>
      <trkpt lat="46.90962" lon="-0.35387">
        <ele>156</ele>
        <time>2022-02-28T12:23:44Z</time>
      </trkpt>
      <trkpt lat="46.90996" lon="-0.3535">
        <ele>156</ele>
        <time>2022-02-28T12:23:51Z</time>
      </trkpt>
      <trkpt lat="46.91033" lon="-0.35316">
        <ele>155</ele>
        <time>2022-02-28T12:23:59Z</time>
      </trkpt>
      <trkpt lat="46.91075" lon="-0.35295">
        <ele>155</ele>
        <time>2022-02-28T12:24:07Z</time>
      </trkpt>
      <trkpt lat="46.91089" lon="-0.3529">
        <ele>155</ele>
        <time>2022-02-28T12:24:10Z</time>
      </trkpt>
      <trkpt lat="46.91115" lon="-0.35264">
        <ele>155</ele>
        <time>2022-02-28T12:24:15Z</time>
      </trkpt>
      <trkpt lat="46.91127" lon="-0.35248">
        <ele>154</ele>
        <time>2022-02-28T12:24:18Z</time>
      </trkpt>
      <trkpt lat="46.91139" lon="-0.35217">
        <ele>154</ele>
        <time>2022-02-28T12:24:23Z</time>
      </trkpt>
      <trkpt lat="46.91156" lon="-0.35143">
        <ele>153</ele>
        <time>2022-02-28T12:24:32Z</time>
      </trkpt>
      <trkpt lat="46.91184" lon="-0.35049">
        <ele>152</ele>
        <time>2022-02-28T12:24:44Z</time>
      </trkpt>
      <trkpt lat="46.91206" lon="-0.34988">
        <ele>152</ele>
        <time>2022-02-28T12:24:53Z</time>
      </trkpt>
      <trkpt lat="46.91223" lon="-0.34953">
        <ele>151</ele>
        <time>2022-02-28T12:24:58Z</time>
      </trkpt>
      <trkpt lat="46.91352" lon="-0.3477">
        <ele>153</ele>
        <time>2022-02-28T12:25:30Z</time>
      </trkpt>
      <trkpt lat="46.91414" lon="-0.34677">
        <ele>154</ele>
        <time>2022-02-28T12:25:46Z</time>
      </trkpt>
      <trkpt lat="46.91431" lon="-0.34636">
        <ele>154</ele>
        <time>2022-02-28T12:25:52Z</time>
      </trkpt>
      <trkpt lat="46.91467" lon="-0.34538">
        <ele>155</ele>
        <time>2022-02-28T12:26:05Z</time>
      </trkpt>
      <trkpt lat="46.91492" lon="-0.34478">
        <ele>155</ele>
        <time>2022-02-28T12:26:14Z</time>
      </trkpt>
      <trkpt lat="46.91526" lon="-0.34402">
        <ele>154</ele>
        <time>2022-02-28T12:26:25Z</time>
      </trkpt>
      <trkpt lat="46.91542" lon="-0.34371">
        <ele>155</ele>
        <time>2022-02-28T12:26:30Z</time>
      </trkpt>
      <trkpt lat="46.9156" lon="-0.34342">
        <ele>156</ele>
        <time>2022-02-28T12:26:34Z</time>
      </trkpt>
      <trkpt lat="46.9169" lon="-0.34169">
        <ele>156</ele>
        <time>2022-02-28T12:27:06Z</time>
      </trkpt>
      <trkpt lat="46.91727" lon="-0.34132">
        <ele>155</ele>
        <time>2022-02-28T12:27:14Z</time>
      </trkpt>
      <trkpt lat="46.91748" lon="-0.34116">
        <ele>154</ele>
        <time>2022-02-28T12:27:18Z</time>
      </trkpt>
      <trkpt lat="46.9177" lon="-0.34105">
        <ele>155</ele>
        <time>2022-02-28T12:27:22Z</time>
      </trkpt>
      <trkpt lat="46.91787" lon="-0.34101">
        <ele>155</ele>
        <time>2022-02-28T12:27:25Z</time>
      </trkpt>
      <trkpt lat="46.91823" lon="-0.34096">
        <ele>155</ele>
        <time>2022-02-28T12:27:31Z</time>
      </trkpt>
      <trkpt lat="46.91909" lon="-0.3409">
        <ele>155</ele>
        <time>2022-02-28T12:27:47Z</time>
      </trkpt>
      <trkpt lat="46.91935" lon="-0.3408">
        <ele>155</ele>
        <time>2022-02-28T12:27:51Z</time>
      </trkpt>
      <trkpt lat="46.91957" lon="-0.34063">
        <ele>155</ele>
        <time>2022-02-28T12:27:56Z</time>
      </trkpt>
      <trkpt lat="46.9198" lon="-0.34036">
        <ele>155</ele>
        <time>2022-02-28T12:28:01Z</time>
      </trkpt>
      <trkpt lat="46.92001" lon="-0.34008">
        <ele>154</ele>
        <time>2022-02-28T12:28:06Z</time>
      </trkpt>
      <trkpt lat="46.92046" lon="-0.33919">
        <ele>155</ele>
        <time>2022-02-28T12:28:20Z</time>
      </trkpt>
      <trkpt lat="46.92087" lon="-0.33826">
        <ele>155</ele>
        <time>2022-02-28T12:28:33Z</time>
      </trkpt>
      <trkpt lat="46.9213" lon="-0.33717">
        <ele>154</ele>
        <time>2022-02-28T12:28:48Z</time>
      </trkpt>
      <trkpt lat="46.92178" lon="-0.33586">
        <ele>152</ele>
        <time>2022-02-28T12:29:06Z</time>
      </trkpt>
      <trkpt lat="46.92223" lon="-0.3346">
        <ele>151</ele>
        <time>2022-02-28T12:29:24Z</time>
      </trkpt>
      <trkpt lat="46.92233" lon="-0.33426">
        <ele>151</ele>
        <time>2022-02-28T12:29:28Z</time>
      </trkpt>
      <trkpt lat="46.92264" lon="-0.33274">
        <ele>150</ele>
        <time>2022-02-28T12:29:48Z</time>
      </trkpt>
      <trkpt lat="46.92313" lon="-0.33091">
        <ele>149</ele>
        <time>2022-02-28T12:30:11Z</time>
      </trkpt>
      <trkpt lat="46.92324" lon="-0.33057">
        <ele>148</ele>
        <time>2022-02-28T12:30:16Z</time>
      </trkpt>
      <trkpt lat="46.92388" lon="-0.32903">
        <ele>146</ele>
        <time>2022-02-28T12:30:38Z</time>
      </trkpt>
      <trkpt lat="46.92443" lon="-0.32785">
        <ele>143</ele>
        <time>2022-02-28T12:30:55Z</time>
      </trkpt>
      <trkpt lat="46.92465" lon="-0.32727">
        <ele>142</ele>
        <time>2022-02-28T12:31:03Z</time>
      </trkpt>
      <trkpt lat="46.92501" lon="-0.32625">
        <ele>140</ele>
        <time>2022-02-28T12:31:17Z</time>
      </trkpt>
      <trkpt lat="46.92511" lon="-0.32601">
        <ele>140</ele>
        <time>2022-02-28T12:31:21Z</time>
      </trkpt>
      <trkpt lat="46.92515" lon="-0.32598">
        <ele>140</ele>
        <time>2022-02-28T12:31:21Z</time>
      </trkpt>
      <trkpt lat="46.92521" lon="-0.32498">
        <ele>139</ele>
        <time>2022-02-28T12:31:34Z</time>
      </trkpt>
      <trkpt lat="46.92508" lon="-0.32261">
        <ele>138</ele>
        <time>2022-02-28T12:32:03Z</time>
      </trkpt>
      <trkpt lat="46.92502" lon="-0.32169">
        <ele>136</ele>
        <time>2022-02-28T12:32:14Z</time>
      </trkpt>
      <trkpt lat="46.92486" lon="-0.32036">
        <ele>132</ele>
        <time>2022-02-28T12:32:30Z</time>
      </trkpt>
      <trkpt lat="46.9247" lon="-0.31845">
        <ele>128</ele>
        <time>2022-02-28T12:32:54Z</time>
      </trkpt>
      <trkpt lat="46.92479" lon="-0.31842">
        <ele>128</ele>
        <time>2022-02-28T12:32:55Z</time>
      </trkpt>
      <trkpt lat="46.92484" lon="-0.31837">
        <ele>128</ele>
        <time>2022-02-28T12:32:56Z</time>
      </trkpt>
      <trkpt lat="46.92491" lon="-0.31826">
        <ele>128</ele>
        <time>2022-02-28T12:32:58Z</time>
      </trkpt>
      <trkpt lat="46.92532" lon="-0.31714">
        <ele>126</ele>
        <time>2022-02-28T12:33:14Z</time>
      </trkpt>
      <trkpt lat="46.9257" lon="-0.31619">
        <ele>125</ele>
        <time>2022-02-28T12:33:27Z</time>
      </trkpt>
      <trkpt lat="46.92605" lon="-0.3156">
        <ele>124</ele>
        <time>2022-02-28T12:33:36Z</time>
      </trkpt>
      <trkpt lat="46.92659" lon="-0.31475">
        <ele>121</ele>
        <time>2022-02-28T12:33:51Z</time>
      </trkpt>
      <trkpt lat="46.92694" lon="-0.31425">
        <ele>121</ele>
        <time>2022-02-28T12:33:59Z</time>
      </trkpt>
      <trkpt lat="46.92816" lon="-0.31308">
        <ele>124</ele>
        <time>2022-02-28T12:34:25Z</time>
      </trkpt>
      <trkpt lat="46.92861" lon="-0.31268">
        <ele>124</ele>
        <time>2022-02-28T12:34:35Z</time>
      </trkpt>
      <trkpt lat="46.92914" lon="-0.31235">
        <ele>125</ele>
        <time>2022-02-28T12:34:45Z</time>
      </trkpt>
      <trkpt lat="46.93004" lon="-0.31183">
        <ele>127</ele>
        <time>2022-02-28T12:35:02Z</time>
      </trkpt>
      <trkpt lat="46.93047" lon="-0.31151">
        <ele>128</ele>
        <time>2022-02-28T12:35:11Z</time>
      </trkpt>
      <trkpt lat="46.93093" lon="-0.31102">
        <ele>128</ele>
        <time>2022-02-28T12:35:21Z</time>
      </trkpt>
      <trkpt lat="46.93168" lon="-0.31008">
        <ele>126</ele>
        <time>2022-02-28T12:35:38Z</time>
      </trkpt>
      <trkpt lat="46.93198" lon="-0.30981">
        <ele>123</ele>
        <time>2022-02-28T12:35:45Z</time>
      </trkpt>
      <trkpt lat="46.93228" lon="-0.30961">
        <ele>121</ele>
        <time>2022-02-28T12:35:50Z</time>
      </trkpt>
      <trkpt lat="46.93356" lon="-0.30896">
        <ele>112</ele>
        <time>2022-02-28T12:36:15Z</time>
      </trkpt>
      <trkpt lat="46.93377" lon="-0.30881">
        <ele>112</ele>
        <time>2022-02-28T12:36:19Z</time>
      </trkpt>
      <trkpt lat="46.93415" lon="-0.30844">
        <ele>111</ele>
        <time>2022-02-28T12:36:27Z</time>
      </trkpt>
      <trkpt lat="46.93532" lon="-0.30699">
        <ele>109</ele>
        <time>2022-02-28T12:36:54Z</time>
      </trkpt>
      <trkpt lat="46.93572" lon="-0.30654">
        <ele>110</ele>
        <time>2022-02-28T12:37:03Z</time>
      </trkpt>
      <trkpt lat="46.93697" lon="-0.30548">
        <ele>115</ele>
        <time>2022-02-28T12:37:29Z</time>
      </trkpt>
      <trkpt lat="46.93779" lon="-0.30481">
        <ele>112</ele>
        <time>2022-02-28T12:37:45Z</time>
      </trkpt>
      <trkpt lat="46.93821" lon="-0.30444">
        <ele>111</ele>
        <time>2022-02-28T12:37:54Z</time>
      </trkpt>
      <trkpt lat="46.93855" lon="-0.3041">
        <ele>109</ele>
        <time>2022-02-28T12:38:02Z</time>
      </trkpt>
      <trkpt lat="46.93891" lon="-0.30365">
        <ele>108</ele>
        <time>2022-02-28T12:38:10Z</time>
      </trkpt>
      <trkpt lat="46.93939" lon="-0.303">
        <ele>106</ele>
        <time>2022-02-28T12:38:22Z</time>
      </trkpt>
      <trkpt lat="46.94008" lon="-0.30178">
        <ele>106</ele>
        <time>2022-02-28T12:38:41Z</time>
      </trkpt>
      <trkpt lat="46.9406" lon="-0.30097">
        <ele>104</ele>
        <time>2022-02-28T12:38:54Z</time>
      </trkpt>
      <trkpt lat="46.94101" lon="-0.30021">
        <ele>104</ele>
        <time>2022-02-28T12:39:06Z</time>
      </trkpt>
      <trkpt lat="46.94127" lon="-0.29981">
        <ele>104</ele>
        <time>2022-02-28T12:39:13Z</time>
      </trkpt>
      <trkpt lat="46.94322" lon="-0.29749">
        <ele>102</ele>
        <time>2022-02-28T12:39:57Z</time>
      </trkpt>
      <trkpt lat="46.94406" lon="-0.29657">
        <ele>100</ele>
        <time>2022-02-28T12:40:16Z</time>
      </trkpt>
      <trkpt lat="46.94759" lon="-0.29003">
        <ele>103</ele>
        <time>2022-02-28T12:41:57Z</time>
      </trkpt>
      <trkpt lat="46.94773" lon="-0.28972">
        <ele>103</ele>
        <time>2022-02-28T12:42:02Z</time>
      </trkpt>
      <trkpt lat="46.94863" lon="-0.28757">
        <ele>102</ele>
        <time>2022-02-28T12:42:33Z</time>
      </trkpt>
      <trkpt lat="46.94939" lon="-0.28595">
        <ele>101</ele>
        <time>2022-02-28T12:42:56Z</time>
      </trkpt>
      <trkpt lat="46.9495" lon="-0.28574">
        <ele>101</ele>
        <time>2022-02-28T12:43:00Z</time>
      </trkpt>
      <trkpt lat="46.95097" lon="-0.28265">
        <ele>102</ele>
        <time>2022-02-28T12:43:45Z</time>
      </trkpt>
      <trkpt lat="46.95129" lon="-0.28192">
        <ele>101</ele>
        <time>2022-02-28T12:43:56Z</time>
      </trkpt>
      <trkpt lat="46.95149" lon="-0.28119">
        <ele>99</ele>
        <time>2022-02-28T12:44:06Z</time>
      </trkpt>
      <trkpt lat="46.95172" lon="-0.28009">
        <ele>98</ele>
        <time>2022-02-28T12:44:19Z</time>
      </trkpt>
      <trkpt lat="46.95184" lon="-0.27958">
        <ele>98</ele>
        <time>2022-02-28T12:44:26Z</time>
      </trkpt>
      <trkpt lat="46.952" lon="-0.27907">
        <ele>99</ele>
        <time>2022-02-28T12:44:33Z</time>
      </trkpt>
      <trkpt lat="46.95237" lon="-0.27807">
        <ele>99</ele>
        <time>2022-02-28T12:44:47Z</time>
      </trkpt>
      <trkpt lat="46.95259" lon="-0.27741">
        <ele>99</ele>
        <time>2022-02-28T12:44:56Z</time>
      </trkpt>
      <trkpt lat="46.95265" lon="-0.27711">
        <ele>98</ele>
        <time>2022-02-28T12:44:59Z</time>
      </trkpt>
      <trkpt lat="46.95299" lon="-0.27488">
        <ele>98</ele>
        <time>2022-02-28T12:45:27Z</time>
      </trkpt>
      <trkpt lat="46.95329" lon="-0.27356">
        <ele>97</ele>
        <time>2022-02-28T12:45:44Z</time>
      </trkpt>
      <trkpt lat="46.95338" lon="-0.27324">
        <ele>97</ele>
        <time>2022-02-28T12:45:48Z</time>
      </trkpt>
      <trkpt lat="46.95359" lon="-0.27276">
        <ele>98</ele>
        <time>2022-02-28T12:45:55Z</time>
      </trkpt>
      <trkpt lat="46.954" lon="-0.27228">
        <ele>99</ele>
        <time>2022-02-28T12:46:04Z</time>
      </trkpt>
      <trkpt lat="46.95408" lon="-0.27193">
        <ele>99</ele>
        <time>2022-02-28T12:46:09Z</time>
      </trkpt>
      <trkpt lat="46.95414" lon="-0.27145">
        <ele>100</ele>
        <time>2022-02-28T12:46:15Z</time>
      </trkpt>
      <trkpt lat="46.95418" lon="-0.2707">
        <ele>99</ele>
        <time>2022-02-28T12:46:24Z</time>
      </trkpt>
      <trkpt lat="46.95421" lon="-0.27048">
        <ele>99</ele>
        <time>2022-02-28T12:46:27Z</time>
      </trkpt>
      <trkpt lat="46.95425" lon="-0.27035">
        <ele>100</ele>
        <time>2022-02-28T12:46:28Z</time>
      </trkpt>
      <trkpt lat="46.95483" lon="-0.26887">
        <ele>101</ele>
        <time>2022-02-28T12:46:49Z</time>
      </trkpt>
      <trkpt lat="46.95543" lon="-0.26752">
        <ele>104</ele>
        <time>2022-02-28T12:47:09Z</time>
      </trkpt>
      <trkpt lat="46.95564" lon="-0.26702">
        <ele>105</ele>
        <time>2022-02-28T12:47:16Z</time>
      </trkpt>
      <trkpt lat="46.95568" lon="-0.26685">
        <ele>105</ele>
        <time>2022-02-28T12:47:18Z</time>
      </trkpt>
      <trkpt lat="46.95572" lon="-0.26656">
        <ele>105</ele>
        <time>2022-02-28T12:47:22Z</time>
      </trkpt>
      <trkpt lat="46.9558" lon="-0.26523">
        <ele>105</ele>
        <time>2022-02-28T12:47:38Z</time>
      </trkpt>
      <trkpt lat="46.95586" lon="-0.26474">
        <ele>105</ele>
        <time>2022-02-28T12:47:44Z</time>
      </trkpt>
      <trkpt lat="46.95622" lon="-0.26353">
        <ele>105</ele>
        <time>2022-02-28T12:48:00Z</time>
      </trkpt>
      <trkpt lat="46.95633" lon="-0.26303">
        <ele>105</ele>
        <time>2022-02-28T12:48:06Z</time>
      </trkpt>
      <trkpt lat="46.95642" lon="-0.26226">
        <ele>105</ele>
        <time>2022-02-28T12:48:16Z</time>
      </trkpt>
      <trkpt lat="46.9566" lon="-0.2614">
        <ele>105</ele>
        <time>2022-02-28T12:48:27Z</time>
      </trkpt>
      <trkpt lat="46.95673" lon="-0.26098">
        <ele>106</ele>
        <time>2022-02-28T12:48:32Z</time>
      </trkpt>
      <trkpt lat="46.95684" lon="-0.2608">
        <ele>105</ele>
        <time>2022-02-28T12:48:35Z</time>
      </trkpt>
      <trkpt lat="46.95698" lon="-0.26063">
        <ele>105</ele>
        <time>2022-02-28T12:48:39Z</time>
      </trkpt>
      <trkpt lat="46.95803" lon="-0.2595">
        <ele>102</ele>
        <time>2022-02-28T12:49:02Z</time>
      </trkpt>
      <trkpt lat="46.95821" lon="-0.25928">
        <ele>102</ele>
        <time>2022-02-28T12:49:06Z</time>
      </trkpt>
      <trkpt lat="46.95833" lon="-0.25909">
        <ele>102</ele>
        <time>2022-02-28T12:49:09Z</time>
      </trkpt>
      <trkpt lat="46.95837" lon="-0.25897">
        <ele>102</ele>
        <time>2022-02-28T12:49:11Z</time>
      </trkpt>
      <trkpt lat="46.95846" lon="-0.25862">
        <ele>102</ele>
        <time>2022-02-28T12:49:15Z</time>
      </trkpt>
      <trkpt lat="46.95851" lon="-0.25828">
        <ele>102</ele>
        <time>2022-02-28T12:49:19Z</time>
      </trkpt>
      <trkpt lat="46.95892" lon="-0.25571">
        <ele>100</ele>
        <time>2022-02-28T12:49:51Z</time>
      </trkpt>
      <trkpt lat="46.95941" lon="-0.25343">
        <ele>100</ele>
        <time>2022-02-28T12:50:21Z</time>
      </trkpt>
      <trkpt lat="46.95986" lon="-0.25108">
        <ele>104</ele>
        <time>2022-02-28T12:50:50Z</time>
      </trkpt>
      <trkpt lat="46.96005" lon="-0.25019">
        <ele>102</ele>
        <time>2022-02-28T12:51:01Z</time>
      </trkpt>
      <trkpt lat="46.9604" lon="-0.24839">
        <ele>102</ele>
        <time>2022-02-28T12:51:24Z</time>
      </trkpt>
      <trkpt lat="46.96046" lon="-0.24816">
        <ele>102</ele>
        <time>2022-02-28T12:51:27Z</time>
      </trkpt>
      <trkpt lat="46.96055" lon="-0.24796">
        <ele>102</ele>
        <time>2022-02-28T12:51:30Z</time>
      </trkpt>
      <trkpt lat="46.96076" lon="-0.24763">
        <ele>102</ele>
        <time>2022-02-28T12:51:36Z</time>
      </trkpt>
      <trkpt lat="46.96172" lon="-0.24645">
        <ele>102</ele>
        <time>2022-02-28T12:51:58Z</time>
      </trkpt>
      <trkpt lat="46.96177" lon="-0.24635">
        <ele>102</ele>
        <time>2022-02-28T12:51:59Z</time>
      </trkpt>
      <trkpt lat="46.96179" lon="-0.2463">
        <ele>102</ele>
        <time>2022-02-28T12:52:00Z</time>
      </trkpt>
      <trkpt lat="46.96179" lon="-0.2462">
        <ele>102</ele>
        <time>2022-02-28T12:52:01Z</time>
      </trkpt>
      <trkpt lat="46.96165" lon="-0.24594">
        <ele>102</ele>
        <time>2022-02-28T12:52:05Z</time>
      </trkpt>
      <trkpt lat="46.96165" lon="-0.24584">
        <ele>102</ele>
        <time>2022-02-28T12:52:07Z</time>
      </trkpt>
      <trkpt lat="46.96167" lon="-0.24574">
        <ele>102</ele>
        <time>2022-02-28T12:52:08Z</time>
      </trkpt>
      <trkpt lat="46.96238" lon="-0.24437">
        <ele>100</ele>
        <time>2022-02-28T12:52:29Z</time>
      </trkpt>
      <trkpt lat="46.96252" lon="-0.24405">
        <ele>100</ele>
        <time>2022-02-28T12:52:33Z</time>
      </trkpt>
      <trkpt lat="46.96262" lon="-0.24375">
        <ele>101</ele>
        <time>2022-02-28T12:52:37Z</time>
      </trkpt>
      <trkpt lat="46.9627" lon="-0.24341">
        <ele>101</ele>
        <time>2022-02-28T12:52:42Z</time>
      </trkpt>
      <trkpt lat="46.96283" lon="-0.24272">
        <ele>100</ele>
        <time>2022-02-28T12:52:50Z</time>
      </trkpt>
      <trkpt lat="46.96295" lon="-0.24229">
        <ele>100</ele>
        <time>2022-02-28T12:52:56Z</time>
      </trkpt>
      <trkpt lat="46.96303" lon="-0.24206">
        <ele>99</ele>
        <time>2022-02-28T12:52:59Z</time>
      </trkpt>
      <trkpt lat="46.96336" lon="-0.24136">
        <ele>99</ele>
        <time>2022-02-28T12:53:10Z</time>
      </trkpt>
      <trkpt lat="46.96373" lon="-0.24051">
        <ele>100</ele>
        <time>2022-02-28T12:53:22Z</time>
      </trkpt>
      <trkpt lat="46.96389" lon="-0.24004">
        <ele>100</ele>
        <time>2022-02-28T12:53:28Z</time>
      </trkpt>
      <trkpt lat="46.96393" lon="-0.23978">
        <ele>100</ele>
        <time>2022-02-28T12:53:31Z</time>
      </trkpt>
      <trkpt lat="46.96396" lon="-0.23942">
        <ele>100</ele>
        <time>2022-02-28T12:53:36Z</time>
      </trkpt>
      <trkpt lat="46.96395" lon="-0.23907">
        <ele>100</ele>
        <time>2022-02-28T12:53:40Z</time>
      </trkpt>
      <trkpt lat="46.9638" lon="-0.23759">
        <ele>97</ele>
        <time>2022-02-28T12:53:58Z</time>
      </trkpt>
      <trkpt lat="46.96379" lon="-0.23713">
        <ele>95</ele>
        <time>2022-02-28T12:54:04Z</time>
      </trkpt>
      <trkpt lat="46.9638" lon="-0.23652">
        <ele>91</ele>
        <time>2022-02-28T12:54:11Z</time>
      </trkpt>
      <trkpt lat="46.96367" lon="-0.23517">
        <ele>85</ele>
        <time>2022-02-28T12:54:28Z</time>
      </trkpt>
      <trkpt lat="46.96345" lon="-0.23363">
        <ele>89</ele>
        <time>2022-02-28T12:54:47Z</time>
      </trkpt>
      <trkpt lat="46.96345" lon="-0.23347">
        <ele>90</ele>
        <time>2022-02-28T12:54:49Z</time>
      </trkpt>
      <trkpt lat="46.96347" lon="-0.2333">
        <ele>90</ele>
        <time>2022-02-28T12:54:51Z</time>
      </trkpt>
      <trkpt lat="46.96353" lon="-0.23311">
        <ele>92</ele>
        <time>2022-02-28T12:54:53Z</time>
      </trkpt>
      <trkpt lat="46.96362" lon="-0.23291">
        <ele>93</ele>
        <time>2022-02-28T12:54:56Z</time>
      </trkpt>
      <trkpt lat="46.96375" lon="-0.23263">
        <ele>94</ele>
        <time>2022-02-28T12:55:00Z</time>
      </trkpt>
      <trkpt lat="46.96385" lon="-0.2324">
        <ele>95</ele>
        <time>2022-02-28T12:55:04Z</time>
      </trkpt>
      <trkpt lat="46.9639" lon="-0.23224">
        <ele>96</ele>
        <time>2022-02-28T12:55:06Z</time>
      </trkpt>
      <trkpt lat="46.96393" lon="-0.23205">
        <ele>96</ele>
        <time>2022-02-28T12:55:08Z</time>
      </trkpt>
      <trkpt lat="46.96392" lon="-0.23184">
        <ele>97</ele>
        <time>2022-02-28T12:55:11Z</time>
      </trkpt>
      <trkpt lat="46.96386" lon="-0.23109">
        <ele>98</ele>
        <time>2022-02-28T12:55:20Z</time>
      </trkpt>
      <trkpt lat="46.96385" lon="-0.23084">
        <ele>99</ele>
        <time>2022-02-28T12:55:23Z</time>
      </trkpt>
      <trkpt lat="46.96387" lon="-0.23059">
        <ele>100</ele>
        <time>2022-02-28T12:55:26Z</time>
      </trkpt>
      <trkpt lat="46.9639" lon="-0.23034">
        <ele>100</ele>
        <time>2022-02-28T12:55:29Z</time>
      </trkpt>
      <trkpt lat="46.96403" lon="-0.22961">
        <ele>101</ele>
        <time>2022-02-28T12:55:38Z</time>
      </trkpt>
      <trkpt lat="46.96414" lon="-0.22909">
        <ele>101</ele>
        <time>2022-02-28T12:55:45Z</time>
      </trkpt>
      <trkpt lat="46.96429" lon="-0.22881">
        <ele>101</ele>
        <time>2022-02-28T12:55:49Z</time>
      </trkpt>
      <trkpt lat="46.96438" lon="-0.22869">
        <ele>101</ele>
        <time>2022-02-28T12:55:51Z</time>
      </trkpt>
      <trkpt lat="46.96486" lon="-0.22829">
        <ele>102</ele>
        <time>2022-02-28T12:56:01Z</time>
      </trkpt>
      <trkpt lat="46.9651" lon="-0.22795">
        <ele>103</ele>
        <time>2022-02-28T12:56:07Z</time>
      </trkpt>
      <trkpt lat="46.96553" lon="-0.22722">
        <ele>103</ele>
        <time>2022-02-28T12:56:19Z</time>
      </trkpt>
      <trkpt lat="46.96563" lon="-0.22693">
        <ele>103</ele>
        <time>2022-02-28T12:56:23Z</time>
      </trkpt>
      <trkpt lat="46.96569" lon="-0.22651">
        <ele>103</ele>
        <time>2022-02-28T12:56:28Z</time>
      </trkpt>
      <trkpt lat="46.96566" lon="-0.22592">
        <ele>103</ele>
        <time>2022-02-28T12:56:35Z</time>
      </trkpt>
      <trkpt lat="46.96562" lon="-0.22566">
        <ele>103</ele>
        <time>2022-02-28T12:56:39Z</time>
      </trkpt>
      <trkpt lat="46.96532" lon="-0.22477">
        <ele>103</ele>
        <time>2022-02-28T12:56:51Z</time>
      </trkpt>
      <trkpt lat="46.96514" lon="-0.22414">
        <ele>103</ele>
        <time>2022-02-28T12:56:59Z</time>
      </trkpt>
      <trkpt lat="46.96469" lon="-0.2224">
        <ele>104</ele>
        <time>2022-02-28T12:57:21Z</time>
      </trkpt>
      <trkpt lat="46.96464" lon="-0.22219">
        <ele>103</ele>
        <time>2022-02-28T12:57:24Z</time>
      </trkpt>
      <trkpt lat="46.96446" lon="-0.22094">
        <ele>102</ele>
        <time>2022-02-28T12:57:40Z</time>
      </trkpt>
      <trkpt lat="46.96438" lon="-0.22061">
        <ele>102</ele>
        <time>2022-02-28T12:57:44Z</time>
      </trkpt>
      <trkpt lat="46.96421" lon="-0.22006">
        <ele>102</ele>
        <time>2022-02-28T12:57:51Z</time>
      </trkpt>
      <trkpt lat="46.96415" lon="-0.21978">
        <ele>102</ele>
        <time>2022-02-28T12:57:55Z</time>
      </trkpt>
      <trkpt lat="46.96403" lon="-0.21813">
        <ele>100</ele>
        <time>2022-02-28T12:58:15Z</time>
      </trkpt>
      <trkpt lat="46.96391" lon="-0.2169">
        <ele>98</ele>
        <time>2022-02-28T12:58:30Z</time>
      </trkpt>
      <trkpt lat="46.96377" lon="-0.21641">
        <ele>98</ele>
        <time>2022-02-28T12:58:36Z</time>
      </trkpt>
      <trkpt lat="46.9635" lon="-0.21552">
        <ele>96</ele>
        <time>2022-02-28T12:58:48Z</time>
      </trkpt>
      <trkpt lat="46.96343" lon="-0.21505">
        <ele>94</ele>
        <time>2022-02-28T12:58:54Z</time>
      </trkpt>
      <trkpt lat="46.96411" lon="-0.21444">
        <ele>87</ele>
        <time>2022-02-28T12:59:08Z</time>
      </trkpt>
      <trkpt lat="46.96429" lon="-0.21425">
        <ele>86</ele>
        <time>2022-02-28T12:59:12Z</time>
      </trkpt>
      <trkpt lat="46.96437" lon="-0.21407">
        <ele>84</ele>
        <time>2022-02-28T12:59:15Z</time>
      </trkpt>
      <trkpt lat="46.96438" lon="-0.214">
        <ele>84</ele>
        <time>2022-02-28T12:59:16Z</time>
      </trkpt>
      <trkpt lat="46.96436" lon="-0.21392">
        <ele>84</ele>
        <time>2022-02-28T12:59:17Z</time>
      </trkpt>
      <trkpt lat="46.96424" lon="-0.21367">
        <ele>83</ele>
        <time>2022-02-28T12:59:21Z</time>
      </trkpt>
      <trkpt lat="46.9642" lon="-0.21352">
        <ele>83</ele>
        <time>2022-02-28T12:59:22Z</time>
      </trkpt>
      <trkpt lat="46.96421" lon="-0.21315">
        <ele>84</ele>
        <time>2022-02-28T12:59:27Z</time>
      </trkpt>
      <trkpt lat="46.96443" lon="-0.21315">
        <ele>83</ele>
        <time>2022-02-28T12:59:31Z</time>
      </trkpt>
      <trkpt lat="46.96462" lon="-0.21324">
        <ele>81</ele>
        <time>2022-02-28T12:59:34Z</time>
      </trkpt>
      <trkpt lat="46.96472" lon="-0.21327">
        <ele>81</ele>
        <time>2022-02-28T12:59:36Z</time>
      </trkpt>
      <trkpt lat="46.96525" lon="-0.21325">
        <ele>79</ele>
        <time>2022-02-28T12:59:46Z</time>
      </trkpt>
      <trkpt lat="46.9654" lon="-0.21326">
        <ele>78</ele>
        <time>2022-02-28T12:59:48Z</time>
      </trkpt>
      <trkpt lat="46.96552" lon="-0.21331">
        <ele>77</ele>
        <time>2022-02-28T12:59:51Z</time>
      </trkpt>
      <trkpt lat="46.96576" lon="-0.21346">
        <ele>77</ele>
        <time>2022-02-28T12:59:55Z</time>
      </trkpt>
      <trkpt lat="46.96603" lon="-0.21349">
        <ele>76</ele>
        <time>2022-02-28T13:00:00Z</time>
      </trkpt>
      <trkpt lat="46.96621" lon="-0.21356">
        <ele>76</ele>
        <time>2022-02-28T13:00:03Z</time>
      </trkpt>
      <trkpt lat="46.96673" lon="-0.21385">
        <ele>72</ele>
        <time>2022-02-28T13:00:13Z</time>
      </trkpt>
      <trkpt lat="46.96701" lon="-0.21395">
        <ele>67</ele>
        <time>2022-02-28T13:00:18Z</time>
      </trkpt>
      <trkpt lat="46.96714" lon="-0.21399">
        <ele>65</ele>
        <time>2022-02-28T13:00:21Z</time>
      </trkpt>
      <trkpt lat="46.96724" lon="-0.21398">
        <ele>63</ele>
        <time>2022-02-28T13:00:23Z</time>
      </trkpt>
      <trkpt lat="46.96732" lon="-0.21395">
        <ele>62</ele>
        <time>2022-02-28T13:00:24Z</time>
      </trkpt>
      <trkpt lat="46.96739" lon="-0.21388">
        <ele>62</ele>
        <time>2022-02-28T13:00:26Z</time>
      </trkpt>
      <trkpt lat="46.96759" lon="-0.21349">
        <ele>65</ele>
        <time>2022-02-28T13:00:31Z</time>
      </trkpt>
      <trkpt lat="46.96775" lon="-0.21322">
        <ele>67</ele>
        <time>2022-02-28T13:00:36Z</time>
      </trkpt>
      <trkpt lat="46.96795" lon="-0.21301">
        <ele>66</ele>
        <time>2022-02-28T13:00:40Z</time>
      </trkpt>
      <trkpt lat="46.96809" lon="-0.21291">
        <ele>65</ele>
        <time>2022-02-28T13:00:43Z</time>
      </trkpt>
      <trkpt lat="46.96823" lon="-0.21286">
        <ele>64</ele>
        <time>2022-02-28T13:00:45Z</time>
      </trkpt>
      <trkpt lat="46.96845" lon="-0.21283">
        <ele>62</ele>
        <time>2022-02-28T13:00:49Z</time>
      </trkpt>
      <trkpt lat="46.96916" lon="-0.21288">
        <ele>59</ele>
        <time>2022-02-28T13:01:02Z</time>
      </trkpt>
      <trkpt lat="46.96958" lon="-0.21285">
        <ele>59</ele>
        <time>2022-02-28T13:01:10Z</time>
      </trkpt>
      <trkpt lat="46.96987" lon="-0.21293">
        <ele>58</ele>
        <time>2022-02-28T13:01:15Z</time>
      </trkpt>
      <trkpt lat="46.97012" lon="-0.21242">
        <ele>62</ele>
        <time>2022-02-28T13:01:22Z</time>
      </trkpt>
      <trkpt lat="46.97016" lon="-0.21237">
        <ele>63</ele>
        <time>2022-02-28T13:01:23Z</time>
      </trkpt>
      <trkpt lat="46.97026" lon="-0.21233">
        <ele>63</ele>
        <time>2022-02-28T13:01:25Z</time>
      </trkpt>
      <trkpt lat="46.97021" lon="-0.21242">
        <ele>62</ele>
        <time>2022-02-28T13:01:27Z</time>
      </trkpt>
      <trkpt lat="46.9705" lon="-0.21286">
        <ele>59</ele>
        <time>2022-02-28T13:01:34Z</time>
      </trkpt>
      <trkpt lat="46.97061" lon="-0.2131">
        <ele>57</ele>
        <time>2022-02-28T13:01:38Z</time>
      </trkpt>
      <trkpt lat="46.97066" lon="-0.21354">
        <ele>55</ele>
        <time>2022-02-28T13:01:43Z</time>
      </trkpt>
      <trkpt lat="46.97067" lon="-0.21387">
        <ele>54</ele>
        <time>2022-02-28T13:01:47Z</time>
      </trkpt>
      <trkpt lat="46.97073" lon="-0.21433">
        <ele>53</ele>
        <time>2022-02-28T13:01:53Z</time>
      </trkpt>
      <trkpt lat="46.97072" lon="-0.21443">
        <ele>53</ele>
        <time>2022-02-28T13:01:54Z</time>
      </trkpt>
      <trkpt lat="46.97055" lon="-0.21522">
        <ele>61</ele>
        <time>2022-02-28T13:02:04Z</time>
      </trkpt>
      <trkpt lat="46.97051" lon="-0.21542">
        <ele>64</ele>
        <time>2022-02-28T13:02:06Z</time>
      </trkpt>
      <trkpt lat="46.97084" lon="-0.21612">
        <ele>69</ele>
        <time>2022-02-28T13:02:17Z</time>
      </trkpt>
      <trkpt lat="46.97105" lon="-0.21643">
        <ele>72</ele>
        <time>2022-02-28T13:02:22Z</time>
      </trkpt>
      <trkpt lat="46.97114" lon="-0.21652">
        <ele>73</ele>
        <time>2022-02-28T13:02:24Z</time>
      </trkpt>
      <trkpt lat="46.97137" lon="-0.21666">
        <ele>72</ele>
        <time>2022-02-28T13:02:28Z</time>
      </trkpt>
      <trkpt lat="46.97157" lon="-0.21674">
        <ele>71</ele>
        <time>2022-02-28T13:02:32Z</time>
      </trkpt>
      <trkpt lat="46.97177" lon="-0.21679">
        <ele>71</ele>
        <time>2022-02-28T13:02:36Z</time>
      </trkpt>
      <trkpt lat="46.97212" lon="-0.21678">
        <ele>73</ele>
        <time>2022-02-28T13:02:42Z</time>
      </trkpt>
      <trkpt lat="46.97233" lon="-0.21668">
        <ele>74</ele>
        <time>2022-02-28T13:02:46Z</time>
      </trkpt>
      <trkpt lat="46.97287" lon="-0.21631">
        <ele>74</ele>
        <time>2022-02-28T13:02:57Z</time>
      </trkpt>
      <trkpt lat="46.97297" lon="-0.21634">
        <ele>76</ele>
        <time>2022-02-28T13:02:58Z</time>
      </trkpt>
      <trkpt lat="46.97333" lon="-0.21609">
        <ele>79</ele>
        <time>2022-02-28T13:03:05Z</time>
      </trkpt>
      <trkpt lat="46.97341" lon="-0.2158">
        <ele>78</ele>
        <time>2022-02-28T13:03:09Z</time>
      </trkpt>
      <trkpt lat="46.97363" lon="-0.21524">
        <ele>79</ele>
        <time>2022-02-28T13:03:17Z</time>
      </trkpt>
      <trkpt lat="46.97364" lon="-0.21488">
        <ele>77</ele>
        <time>2022-02-28T13:03:21Z</time>
      </trkpt>
      <trkpt lat="46.97366" lon="-0.21468">
        <ele>76</ele>
        <time>2022-02-28T13:03:24Z</time>
      </trkpt>
      <trkpt lat="46.97407" lon="-0.21464">
        <ele>85</ele>
        <time>2022-02-28T13:03:31Z</time>
      </trkpt>
      <trkpt lat="46.9742" lon="-0.21466">
        <ele>88</ele>
        <time>2022-02-28T13:03:34Z</time>
      </trkpt>
      <trkpt lat="46.97431" lon="-0.21474">
        <ele>89</ele>
        <time>2022-02-28T13:03:36Z</time>
      </trkpt>
      <trkpt lat="46.9745" lon="-0.21479">
        <ele>90</ele>
        <time>2022-02-28T13:03:39Z</time>
      </trkpt>
      <trkpt lat="46.97456" lon="-0.21424">
        <ele>89</ele>
        <time>2022-02-28T13:03:46Z</time>
      </trkpt>
      <trkpt lat="46.97452" lon="-0.21418">
        <ele>89</ele>
        <time>2022-02-28T13:03:47Z</time>
      </trkpt>
      <trkpt lat="46.97458" lon="-0.21355">
        <ele>88</ele>
        <time>2022-02-28T13:03:55Z</time>
      </trkpt>
      <trkpt lat="46.97461" lon="-0.21308">
        <ele>86</ele>
        <time>2022-02-28T13:04:00Z</time>
      </trkpt>
      <trkpt lat="46.97466" lon="-0.21277">
        <ele>85</ele>
        <time>2022-02-28T13:04:04Z</time>
      </trkpt>
      <trkpt lat="46.97469" lon="-0.21273">
        <ele>85</ele>
        <time>2022-02-28T13:04:05Z</time>
      </trkpt>
      <trkpt lat="46.97476" lon="-0.21269">
        <ele>85</ele>
        <time>2022-02-28T13:04:06Z</time>
      </trkpt>
      <trkpt lat="46.97488" lon="-0.21248">
        <ele>85</ele>
        <time>2022-02-28T13:04:10Z</time>
      </trkpt>
      <trkpt lat="46.97489" lon="-0.2124">
        <ele>84</ele>
        <time>2022-02-28T13:04:11Z</time>
      </trkpt>
      <trkpt lat="46.97494" lon="-0.21233">
        <ele>84</ele>
        <time>2022-02-28T13:04:12Z</time>
      </trkpt>
      <trkpt lat="46.97505" lon="-0.21224">
        <ele>84</ele>
        <time>2022-02-28T13:04:14Z</time>
      </trkpt>
      <trkpt lat="46.97532" lon="-0.21219">
        <ele>85</ele>
        <time>2022-02-28T13:04:19Z</time>
      </trkpt>
      <trkpt lat="46.97606" lon="-0.21167">
        <ele>87</ele>
        <time>2022-02-28T13:04:34Z</time>
      </trkpt>
      <trkpt lat="46.97612" lon="-0.21159">
        <ele>87</ele>
        <time>2022-02-28T13:04:35Z</time>
      </trkpt>
      <trkpt lat="46.97617" lon="-0.21144">
        <ele>87</ele>
        <time>2022-02-28T13:04:37Z</time>
      </trkpt>
      <trkpt lat="46.9762" lon="-0.21119">
        <ele>86</ele>
        <time>2022-02-28T13:04:40Z</time>
      </trkpt>
      <trkpt lat="46.97626" lon="-0.21121">
        <ele>87</ele>
        <time>2022-02-28T13:04:41Z</time>
      </trkpt>
      <trkpt lat="46.97654" lon="-0.21036">
        <ele>89</ele>
        <time>2022-02-28T13:04:53Z</time>
      </trkpt>
      <trkpt lat="46.97705" lon="-0.20839">
        <ele>91</ele>
        <time>2022-02-28T13:05:18Z</time>
      </trkpt>
      <trkpt lat="46.9771" lon="-0.20749">
        <ele>92</ele>
        <time>2022-02-28T13:05:29Z</time>
      </trkpt>
      <trkpt lat="46.9772" lon="-0.20733">
        <ele>94</ele>
        <time>2022-02-28T13:05:32Z</time>
      </trkpt>
      <trkpt lat="46.97737" lon="-0.20727">
        <ele>96</ele>
        <time>2022-02-28T13:05:35Z</time>
      </trkpt>
      <trkpt lat="46.97746" lon="-0.20712">
        <ele>97</ele>
        <time>2022-02-28T13:05:37Z</time>
      </trkpt>
      <trkpt lat="46.97748" lon="-0.20705">
        <ele>98</ele>
        <time>2022-02-28T13:05:38Z</time>
      </trkpt>
      <trkpt lat="46.97749" lon="-0.20684">
        <ele>98</ele>
        <time>2022-02-28T13:05:41Z</time>
      </trkpt>
      <trkpt lat="46.97731" lon="-0.20605">
        <ele>98</ele>
        <time>2022-02-28T13:05:51Z</time>
      </trkpt>
      <trkpt lat="46.97746" lon="-0.20599">
        <ele>100</ele>
        <time>2022-02-28T13:05:54Z</time>
      </trkpt>
      <trkpt lat="46.97751" lon="-0.20601">
        <ele>101</ele>
        <time>2022-02-28T13:05:55Z</time>
      </trkpt>
      <trkpt lat="46.97754" lon="-0.20605">
        <ele>101</ele>
        <time>2022-02-28T13:05:55Z</time>
      </trkpt>
      <trkpt lat="46.9778" lon="-0.20551">
        <ele>102</ele>
        <time>2022-02-28T13:06:03Z</time>
      </trkpt>
      <trkpt lat="46.97815" lon="-0.20465">
        <ele>103</ele>
        <time>2022-02-28T13:06:16Z</time>
      </trkpt>
      <trkpt lat="46.97826" lon="-0.20438">
        <ele>102</ele>
        <time>2022-02-28T13:06:19Z</time>
      </trkpt>
      <trkpt lat="46.97842" lon="-0.20385">
        <ele>102</ele>
        <time>2022-02-28T13:06:26Z</time>
      </trkpt>
      <trkpt lat="46.9786" lon="-0.20274">
        <ele>100</ele>
        <time>2022-02-28T13:06:40Z</time>
      </trkpt>
      <trkpt lat="46.97911" lon="-0.19922">
        <ele>95</ele>
        <time>2022-02-28T13:07:24Z</time>
      </trkpt>
      <trkpt lat="46.97914" lon="-0.19871">
        <ele>95</ele>
        <time>2022-02-28T13:07:30Z</time>
      </trkpt>
      <trkpt lat="46.97911" lon="-0.19862">
        <ele>95</ele>
        <time>2022-02-28T13:07:31Z</time>
      </trkpt>
      <trkpt lat="46.97913" lon="-0.19853">
        <ele>94</ele>
        <time>2022-02-28T13:07:33Z</time>
      </trkpt>
      <trkpt lat="46.97917" lon="-0.19849">
        <ele>94</ele>
        <time>2022-02-28T13:07:33Z</time>
      </trkpt>
      <trkpt lat="46.97934" lon="-0.19854">
        <ele>94</ele>
        <time>2022-02-28T13:07:36Z</time>
      </trkpt>
      <trkpt lat="46.97947" lon="-0.19871">
        <ele>94</ele>
        <time>2022-02-28T13:07:40Z</time>
      </trkpt>
      <trkpt lat="46.97974" lon="-0.19888">
        <ele>93</ele>
        <time>2022-02-28T13:07:45Z</time>
      </trkpt>
      <trkpt lat="46.98066" lon="-0.19898">
        <ele>91</ele>
        <time>2022-02-28T13:08:01Z</time>
      </trkpt>
      <trkpt lat="46.98133" lon="-0.19902">
        <ele>91</ele>
        <time>2022-02-28T13:08:13Z</time>
      </trkpt>
      <trkpt lat="46.98182" lon="-0.19902">
        <ele>91</ele>
        <time>2022-02-28T13:08:22Z</time>
      </trkpt>
      <trkpt lat="46.98246" lon="-0.19897">
        <ele>90</ele>
        <time>2022-02-28T13:08:33Z</time>
      </trkpt>
      <trkpt lat="46.98308" lon="-0.1989">
        <ele>89</ele>
        <time>2022-02-28T13:08:44Z</time>
      </trkpt>
      <trkpt lat="46.98393" lon="-0.19872">
        <ele>88</ele>
        <time>2022-02-28T13:09:00Z</time>
      </trkpt>
      <trkpt lat="46.98504" lon="-0.19838">
        <ele>88</ele>
        <time>2022-02-28T13:09:20Z</time>
      </trkpt>
      <trkpt lat="46.98569" lon="-0.19815">
        <ele>89</ele>
        <time>2022-02-28T13:09:32Z</time>
      </trkpt>
      <trkpt lat="46.98648" lon="-0.19784">
        <ele>90</ele>
        <time>2022-02-28T13:09:46Z</time>
      </trkpt>
      <trkpt lat="46.98647" lon="-0.19767">
        <ele>89</ele>
        <time>2022-02-28T13:09:48Z</time>
      </trkpt>
      <trkpt lat="46.98652" lon="-0.1972">
        <ele>88</ele>
        <time>2022-02-28T13:09:54Z</time>
      </trkpt>
      <trkpt lat="46.98659" lon="-0.19691">
        <ele>87</ele>
        <time>2022-02-28T13:09:58Z</time>
      </trkpt>
      <trkpt lat="46.98681" lon="-0.19636">
        <ele>86</ele>
        <time>2022-02-28T13:10:06Z</time>
      </trkpt>
      <trkpt lat="46.98712" lon="-0.19568">
        <ele>86</ele>
        <time>2022-02-28T13:10:15Z</time>
      </trkpt>
      <trkpt lat="46.98738" lon="-0.19522">
        <ele>86</ele>
        <time>2022-02-28T13:10:23Z</time>
      </trkpt>
      <trkpt lat="46.98769" lon="-0.19475">
        <ele>86</ele>
        <time>2022-02-28T13:10:31Z</time>
      </trkpt>
      <trkpt lat="46.98796" lon="-0.19437">
        <ele>85</ele>
        <time>2022-02-28T13:10:37Z</time>
      </trkpt>
      <trkpt lat="46.98891" lon="-0.19315">
        <ele>85</ele>
        <time>2022-02-28T13:11:00Z</time>
      </trkpt>
      <trkpt lat="46.98964" lon="-0.19225">
        <ele>84</ele>
        <time>2022-02-28T13:11:17Z</time>
      </trkpt>
      <trkpt lat="46.99065" lon="-0.19108">
        <ele>84</ele>
        <time>2022-02-28T13:11:40Z</time>
      </trkpt>
      <trkpt lat="46.99104" lon="-0.19055">
        <ele>82</ele>
        <time>2022-02-28T13:11:49Z</time>
      </trkpt>
      <trkpt lat="46.99227" lon="-0.18847">
        <ele>75</ele>
        <time>2022-02-28T13:12:23Z</time>
      </trkpt>
      <trkpt lat="46.99336" lon="-0.18657">
        <ele>75</ele>
        <time>2022-02-28T13:12:53Z</time>
      </trkpt>
      <trkpt lat="46.99478" lon="-0.18385">
        <ele>75</ele>
        <time>2022-02-28T13:13:34Z</time>
      </trkpt>
      <trkpt lat="46.99566" lon="-0.18207">
        <ele>70</ele>
        <time>2022-02-28T13:14:01Z</time>
      </trkpt>
      <trkpt lat="46.99603" lon="-0.18144">
        <ele>68</ele>
        <time>2022-02-28T13:14:11Z</time>
      </trkpt>
      <trkpt lat="46.9965" lon="-0.18082">
        <ele>66</ele>
        <time>2022-02-28T13:14:22Z</time>
      </trkpt>
      <trkpt lat="46.99745" lon="-0.17988">
        <ele>64</ele>
        <time>2022-02-28T13:14:43Z</time>
      </trkpt>
      <trkpt lat="46.99757" lon="-0.17975">
        <ele>64</ele>
        <time>2022-02-28T13:14:45Z</time>
      </trkpt>
      <trkpt lat="46.99779" lon="-0.17947">
        <ele>63</ele>
        <time>2022-02-28T13:14:50Z</time>
      </trkpt>
      <trkpt lat="46.99789" lon="-0.17929">
        <ele>63</ele>
        <time>2022-02-28T13:14:53Z</time>
      </trkpt>
      <trkpt lat="46.99798" lon="-0.17907">
        <ele>62</ele>
        <time>2022-02-28T13:14:56Z</time>
      </trkpt>
      <trkpt lat="46.99828" lon="-0.17802">
        <ele>61</ele>
        <time>2022-02-28T13:15:10Z</time>
      </trkpt>
      <trkpt lat="46.99838" lon="-0.17777">
        <ele>61</ele>
        <time>2022-02-28T13:15:14Z</time>
      </trkpt>
      <trkpt lat="46.99846" lon="-0.17763">
        <ele>61</ele>
        <time>2022-02-28T13:15:16Z</time>
      </trkpt>
      <trkpt lat="46.99912" lon="-0.17663">
        <ele>60</ele>
        <time>2022-02-28T13:15:33Z</time>
      </trkpt>
      <trkpt lat="46.99956" lon="-0.17603">
        <ele>60</ele>
        <time>2022-02-28T13:15:44Z</time>
      </trkpt>
      <trkpt lat="47.00076" lon="-0.17456">
        <ele>58</ele>
        <time>2022-02-28T13:16:11Z</time>
      </trkpt>
      <trkpt lat="47.00088" lon="-0.17438">
        <ele>58</ele>
        <time>2022-02-28T13:16:14Z</time>
      </trkpt>
      <trkpt lat="47.00093" lon="-0.17443">
        <ele>58</ele>
        <time>2022-02-28T13:16:15Z</time>
      </trkpt>
      <trkpt lat="47.00129" lon="-0.17464">
        <ele>57</ele>
        <time>2022-02-28T13:16:22Z</time>
      </trkpt>
      <trkpt lat="47.00147" lon="-0.1748">
        <ele>57</ele>
        <time>2022-02-28T13:16:26Z</time>
      </trkpt>
      <trkpt lat="47.00175" lon="-0.17513">
        <ele>56</ele>
        <time>2022-02-28T13:16:33Z</time>
      </trkpt>
      <trkpt lat="47.0019" lon="-0.1754">
        <ele>56</ele>
        <time>2022-02-28T13:16:37Z</time>
      </trkpt>
      <trkpt lat="47.00198" lon="-0.17559">
        <ele>57</ele>
        <time>2022-02-28T13:16:39Z</time>
      </trkpt>
      <trkpt lat="47.00211" lon="-0.17602">
        <ele>57</ele>
        <time>2022-02-28T13:16:45Z</time>
      </trkpt>
      <trkpt lat="47.00239" lon="-0.17722">
        <ele>57</ele>
        <time>2022-02-28T13:17:01Z</time>
      </trkpt>
      <trkpt lat="47.00249" lon="-0.17756">
        <ele>57</ele>
        <time>2022-02-28T13:17:05Z</time>
      </trkpt>
      <trkpt lat="47.00262" lon="-0.17796">
        <ele>58</ele>
        <time>2022-02-28T13:17:10Z</time>
      </trkpt>
      <trkpt lat="47.00274" lon="-0.17817">
        <ele>58</ele>
        <time>2022-02-28T13:17:14Z</time>
      </trkpt>
      <trkpt lat="47.00293" lon="-0.17834">
        <ele>59</ele>
        <time>2022-02-28T13:17:18Z</time>
      </trkpt>
      <trkpt lat="47.00309" lon="-0.17844">
        <ele>59</ele>
        <time>2022-02-28T13:17:21Z</time>
      </trkpt>
      <trkpt lat="47.00324" lon="-0.17849">
        <ele>60</ele>
        <time>2022-02-28T13:17:24Z</time>
      </trkpt>
      <trkpt lat="47.00353" lon="-0.17855">
        <ele>59</ele>
        <time>2022-02-28T13:17:29Z</time>
      </trkpt>
      <trkpt lat="47.00394" lon="-0.17854">
        <ele>57</ele>
        <time>2022-02-28T13:17:36Z</time>
      </trkpt>
      <trkpt lat="47.0041" lon="-0.17858">
        <ele>56</ele>
        <time>2022-02-28T13:17:39Z</time>
      </trkpt>
      <trkpt lat="47.00432" lon="-0.17869">
        <ele>56</ele>
        <time>2022-02-28T13:17:43Z</time>
      </trkpt>
      <trkpt lat="47.00447" lon="-0.1788">
        <ele>56</ele>
        <time>2022-02-28T13:17:46Z</time>
      </trkpt>
      <trkpt lat="47.00478" lon="-0.17914">
        <ele>56</ele>
        <time>2022-02-28T13:17:53Z</time>
      </trkpt>
      <trkpt lat="47.00521" lon="-0.17978">
        <ele>56</ele>
        <time>2022-02-28T13:18:04Z</time>
      </trkpt>
      <trkpt lat="47.00533" lon="-0.17991">
        <ele>56</ele>
        <time>2022-02-28T13:18:07Z</time>
      </trkpt>
      <trkpt lat="47.00544" lon="-0.18001">
        <ele>56</ele>
        <time>2022-02-28T13:18:09Z</time>
      </trkpt>
      <trkpt lat="47.00581" lon="-0.18025">
        <ele>57</ele>
        <time>2022-02-28T13:18:16Z</time>
      </trkpt>
      <trkpt lat="47.00598" lon="-0.18039">
        <ele>57</ele>
        <time>2022-02-28T13:18:19Z</time>
      </trkpt>
      <trkpt lat="47.00632" lon="-0.18084">
        <ele>57</ele>
        <time>2022-02-28T13:18:28Z</time>
      </trkpt>
      <trkpt lat="47.00662" lon="-0.18129">
        <ele>56</ele>
        <time>2022-02-28T13:18:35Z</time>
      </trkpt>
      <trkpt lat="47.00685" lon="-0.18169">
        <ele>56</ele>
        <time>2022-02-28T13:18:42Z</time>
      </trkpt>
      <trkpt lat="47.00702" lon="-0.18215">
        <ele>57</ele>
        <time>2022-02-28T13:18:48Z</time>
      </trkpt>
      <trkpt lat="47.00732" lon="-0.18302">
        <ele>56</ele>
        <time>2022-02-28T13:19:00Z</time>
      </trkpt>
      <trkpt lat="47.0074" lon="-0.18322">
        <ele>55</ele>
        <time>2022-02-28T13:19:03Z</time>
      </trkpt>
      <trkpt lat="47.00767" lon="-0.18375">
        <ele>56</ele>
        <time>2022-02-28T13:19:11Z</time>
      </trkpt>
      <trkpt lat="47.00855" lon="-0.18518">
        <ele>56</ele>
        <time>2022-02-28T13:19:34Z</time>
      </trkpt>
      <trkpt lat="47.00863" lon="-0.18528">
        <ele>55</ele>
        <time>2022-02-28T13:19:36Z</time>
      </trkpt>
      <trkpt lat="47.00877" lon="-0.18539">
        <ele>55</ele>
        <time>2022-02-28T13:19:39Z</time>
      </trkpt>
      <trkpt lat="47.00884" lon="-0.18542">
        <ele>55</ele>
        <time>2022-02-28T13:19:40Z</time>
      </trkpt>
      <trkpt lat="47.00911" lon="-0.18548">
        <ele>55</ele>
        <time>2022-02-28T13:19:45Z</time>
      </trkpt>
      <trkpt lat="47.01003" lon="-0.18506">
        <ele>56</ele>
        <time>2022-02-28T13:20:02Z</time>
      </trkpt>
      <trkpt lat="47.01038" lon="-0.18493">
        <ele>56</ele>
        <time>2022-02-28T13:20:08Z</time>
      </trkpt>
      <trkpt lat="47.01053" lon="-0.18494">
        <ele>56</ele>
        <time>2022-02-28T13:20:11Z</time>
      </trkpt>
      <trkpt lat="47.01124" lon="-0.1853">
        <ele>56</ele>
        <time>2022-02-28T13:20:24Z</time>
      </trkpt>
      <trkpt lat="47.0116" lon="-0.18535">
        <ele>55</ele>
        <time>2022-02-28T13:20:31Z</time>
      </trkpt>
      <trkpt lat="47.0117" lon="-0.18535">
        <ele>55</ele>
        <time>2022-02-28T13:20:33Z</time>
      </trkpt>
      <trkpt lat="47.01186" lon="-0.1853">
        <ele>56</ele>
        <time>2022-02-28T13:20:36Z</time>
      </trkpt>
      <trkpt lat="47.01201" lon="-0.18522">
        <ele>56</ele>
        <time>2022-02-28T13:20:38Z</time>
      </trkpt>
      <trkpt lat="47.01231" lon="-0.18565">
        <ele>56</ele>
        <time>2022-02-28T13:20:46Z</time>
      </trkpt>
      <trkpt lat="47.01312" lon="-0.18516">
        <ele>55</ele>
        <time>2022-02-28T13:21:01Z</time>
      </trkpt>
      <trkpt lat="47.01347" lon="-0.18491">
        <ele>54</ele>
        <time>2022-02-28T13:21:08Z</time>
      </trkpt>
      <trkpt lat="47.01402" lon="-0.18427">
        <ele>55</ele>
        <time>2022-02-28T13:21:21Z</time>
      </trkpt>
      <trkpt lat="47.01413" lon="-0.18415">
        <ele>56</ele>
        <time>2022-02-28T13:21:23Z</time>
      </trkpt>
      <trkpt lat="47.01421" lon="-0.18408">
        <ele>56</ele>
        <time>2022-02-28T13:21:25Z</time>
      </trkpt>
      <trkpt lat="47.01484" lon="-0.18377">
        <ele>53</ele>
        <time>2022-02-28T13:21:37Z</time>
      </trkpt>
      <trkpt lat="47.01545" lon="-0.18327">
        <ele>50</ele>
        <time>2022-02-28T13:21:49Z</time>
      </trkpt>
      <trkpt lat="47.0155" lon="-0.18324">
        <ele>50</ele>
        <time>2022-02-28T13:21:50Z</time>
      </trkpt>
      <trkpt lat="47.01598" lon="-0.18295">
        <ele>50</ele>
        <time>2022-02-28T13:21:59Z</time>
      </trkpt>
      <trkpt lat="47.01608" lon="-0.18292">
        <ele>51</ele>
        <time>2022-02-28T13:22:01Z</time>
      </trkpt>
      <trkpt lat="47.01618" lon="-0.18282">
        <ele>51</ele>
        <time>2022-02-28T13:22:03Z</time>
      </trkpt>
      <trkpt lat="47.01641" lon="-0.18247">
        <ele>51</ele>
        <time>2022-02-28T13:22:09Z</time>
      </trkpt>
      <trkpt lat="47.01661" lon="-0.18223">
        <ele>52</ele>
        <time>2022-02-28T13:22:14Z</time>
      </trkpt>
      <trkpt lat="47.01675" lon="-0.18207">
        <ele>52</ele>
        <time>2022-02-28T13:22:17Z</time>
      </trkpt>
      <trkpt lat="47.01687" lon="-0.18198">
        <ele>52</ele>
        <time>2022-02-28T13:22:19Z</time>
      </trkpt>
      <trkpt lat="47.01721" lon="-0.18183">
        <ele>52</ele>
        <time>2022-02-28T13:22:26Z</time>
      </trkpt>
      <trkpt lat="47.018" lon="-0.1816">
        <ele>52</ele>
        <time>2022-02-28T13:22:40Z</time>
      </trkpt>
      <trkpt lat="47.01922" lon="-0.18099">
        <ele>51</ele>
        <time>2022-02-28T13:23:03Z</time>
      </trkpt>
      <trkpt lat="47.01941" lon="-0.18086">
        <ele>51</ele>
        <time>2022-02-28T13:23:07Z</time>
      </trkpt>
      <trkpt lat="47.01974" lon="-0.18046">
        <ele>51</ele>
        <time>2022-02-28T13:23:14Z</time>
      </trkpt>
      <trkpt lat="47.02001" lon="-0.17995">
        <ele>51</ele>
        <time>2022-02-28T13:23:22Z</time>
      </trkpt>
      <trkpt lat="47.02067" lon="-0.17837">
        <ele>49</ele>
        <time>2022-02-28T13:23:45Z</time>
      </trkpt>
      <trkpt lat="47.0208" lon="-0.17812">
        <ele>49</ele>
        <time>2022-02-28T13:23:49Z</time>
      </trkpt>
      <trkpt lat="47.02112" lon="-0.17763">
        <ele>49</ele>
        <time>2022-02-28T13:23:57Z</time>
      </trkpt>
      <trkpt lat="47.0217" lon="-0.17681">
        <ele>48</ele>
        <time>2022-02-28T13:24:11Z</time>
      </trkpt>
      <trkpt lat="47.02235" lon="-0.17603">
        <ele>48</ele>
        <time>2022-02-28T13:24:26Z</time>
      </trkpt>
      <trkpt lat="47.02318" lon="-0.17509">
        <ele>47</ele>
        <time>2022-02-28T13:24:45Z</time>
      </trkpt>
      <trkpt lat="47.02396" lon="-0.17434">
        <ele>48</ele>
        <time>2022-02-28T13:25:01Z</time>
      </trkpt>
      <trkpt lat="47.02407" lon="-0.17427">
        <ele>48</ele>
        <time>2022-02-28T13:25:03Z</time>
      </trkpt>
      <trkpt lat="47.02444" lon="-0.17414">
        <ele>49</ele>
        <time>2022-02-28T13:25:10Z</time>
      </trkpt>
      <trkpt lat="47.02451" lon="-0.17411">
        <ele>49</ele>
        <time>2022-02-28T13:25:11Z</time>
      </trkpt>
      <trkpt lat="47.02457" lon="-0.17406">
        <ele>49</ele>
        <time>2022-02-28T13:25:13Z</time>
      </trkpt>
      <trkpt lat="47.02462" lon="-0.17396">
        <ele>49</ele>
        <time>2022-02-28T13:25:14Z</time>
      </trkpt>
      <trkpt lat="47.02469" lon="-0.17421">
        <ele>49</ele>
        <time>2022-02-28T13:25:17Z</time>
      </trkpt>
      <trkpt lat="47.02478" lon="-0.17468">
        <ele>49</ele>
        <time>2022-02-28T13:25:23Z</time>
      </trkpt>
      <trkpt lat="47.02485" lon="-0.17494">
        <ele>49</ele>
        <time>2022-02-28T13:25:27Z</time>
      </trkpt>
      <trkpt lat="47.02498" lon="-0.17526">
        <ele>49</ele>
        <time>2022-02-28T13:25:31Z</time>
      </trkpt>
      <trkpt lat="47.02507" lon="-0.17539">
        <ele>49</ele>
        <time>2022-02-28T13:25:34Z</time>
      </trkpt>
      <trkpt lat="47.02514" lon="-0.17543">
        <ele>49</ele>
        <time>2022-02-28T13:25:35Z</time>
      </trkpt>
      <trkpt lat="47.02525" lon="-0.17544">
        <ele>49</ele>
        <time>2022-02-28T13:25:37Z</time>
      </trkpt>
      <trkpt lat="47.02533" lon="-0.1754">
        <ele>49</ele>
        <time>2022-02-28T13:25:38Z</time>
      </trkpt>
      <trkpt lat="47.02564" lon="-0.17517">
        <ele>50</ele>
        <time>2022-02-28T13:25:45Z</time>
      </trkpt>
      <trkpt lat="47.02741" lon="-0.17367">
        <ele>53</ele>
        <time>2022-02-28T13:26:21Z</time>
      </trkpt>
      <trkpt lat="47.02784" lon="-0.17339">
        <ele>53</ele>
        <time>2022-02-28T13:26:29Z</time>
      </trkpt>
      <trkpt lat="47.02806" lon="-0.1733">
        <ele>52</ele>
        <time>2022-02-28T13:26:33Z</time>
      </trkpt>
      <trkpt lat="47.0298" lon="-0.17236">
        <ele>52</ele>
        <time>2022-02-28T13:27:06Z</time>
      </trkpt>
      <trkpt lat="47.0317" lon="-0.17136">
        <ele>52</ele>
        <time>2022-02-28T13:27:42Z</time>
      </trkpt>
      <trkpt lat="47.03196" lon="-0.17126">
        <ele>52</ele>
        <time>2022-02-28T13:27:47Z</time>
      </trkpt>
      <trkpt lat="47.03256" lon="-0.17116">
        <ele>50</ele>
        <time>2022-02-28T13:27:58Z</time>
      </trkpt>
      <trkpt lat="47.03276" lon="-0.17108">
        <ele>50</ele>
        <time>2022-02-28T13:28:01Z</time>
      </trkpt>
      <trkpt lat="47.03284" lon="-0.17102">
        <ele>50</ele>
        <time>2022-02-28T13:28:03Z</time>
      </trkpt>
      <trkpt lat="47.03319" lon="-0.17069">
        <ele>50</ele>
        <time>2022-02-28T13:28:10Z</time>
      </trkpt>
      <trkpt lat="47.03346" lon="-0.17046">
        <ele>49</ele>
        <time>2022-02-28T13:28:16Z</time>
      </trkpt>
      <trkpt lat="47.03514" lon="-0.16936">
        <ele>48</ele>
        <time>2022-02-28T13:28:49Z</time>
      </trkpt>
      <trkpt lat="47.03532" lon="-0.16928">
        <ele>48</ele>
        <time>2022-02-28T13:28:52Z</time>
      </trkpt>
      <trkpt lat="47.03547" lon="-0.16925">
        <ele>48</ele>
        <time>2022-02-28T13:28:55Z</time>
      </trkpt>
      <trkpt lat="47.03657" lon="-0.16912">
        <ele>47</ele>
        <time>2022-02-28T13:29:14Z</time>
      </trkpt>
      <trkpt lat="47.03719" lon="-0.1692">
        <ele>46</ele>
        <time>2022-02-28T13:29:26Z</time>
      </trkpt>
      <trkpt lat="47.03733" lon="-0.16915">
        <ele>46</ele>
        <time>2022-02-28T13:29:28Z</time>
      </trkpt>
      <trkpt lat="47.03741" lon="-0.16908">
        <ele>46</ele>
        <time>2022-02-28T13:29:30Z</time>
      </trkpt>
      <trkpt lat="47.03759" lon="-0.16886">
        <ele>46</ele>
        <time>2022-02-28T13:29:34Z</time>
      </trkpt>
      <trkpt lat="47.03757" lon="-0.16879">
        <ele>46</ele>
        <time>2022-02-28T13:29:35Z</time>
      </trkpt>
      <trkpt lat="47.03793" lon="-0.16836">
        <ele>46</ele>
        <time>2022-02-28T13:29:43Z</time>
      </trkpt>
      <trkpt lat="47.03818" lon="-0.16814">
        <ele>46</ele>
        <time>2022-02-28T13:29:48Z</time>
      </trkpt>
      <trkpt lat="47.03842" lon="-0.16798">
        <ele>46</ele>
        <time>2022-02-28T13:29:53Z</time>
      </trkpt>
      <trkpt lat="47.03894" lon="-0.16778">
        <ele>45</ele>
        <time>2022-02-28T13:30:03Z</time>
      </trkpt>
      <trkpt lat="47.03914" lon="-0.16764">
        <ele>45</ele>
        <time>2022-02-28T13:30:06Z</time>
      </trkpt>
      <trkpt lat="47.03925" lon="-0.16759">
        <ele>45</ele>
        <time>2022-02-28T13:30:09Z</time>
      </trkpt>
      <trkpt lat="47.03937" lon="-0.16759">
        <ele>45</ele>
        <time>2022-02-28T13:30:11Z</time>
      </trkpt>
      <trkpt lat="47.03994" lon="-0.16766">
        <ele>44</ele>
        <time>2022-02-28T13:30:21Z</time>
      </trkpt>
      <trkpt lat="47.04016" lon="-0.16765">
        <ele>44</ele>
        <time>2022-02-28T13:30:25Z</time>
      </trkpt>
      <trkpt lat="47.0411" lon="-0.16747">
        <ele>45</ele>
        <time>2022-02-28T13:30:42Z</time>
      </trkpt>
      <trkpt lat="47.04137" lon="-0.1674">
        <ele>45</ele>
        <time>2022-02-28T13:30:46Z</time>
      </trkpt>
      <trkpt lat="47.04162" lon="-0.16731">
        <ele>45</ele>
        <time>2022-02-28T13:30:51Z</time>
      </trkpt>
      <trkpt lat="47.04183" lon="-0.1672">
        <ele>45</ele>
        <time>2022-02-28T13:30:55Z</time>
      </trkpt>
      <trkpt lat="47.04203" lon="-0.16707">
        <ele>45</ele>
        <time>2022-02-28T13:30:59Z</time>
      </trkpt>
      <trkpt lat="47.0431" lon="-0.16616">
        <ele>46</ele>
        <time>2022-02-28T13:31:21Z</time>
      </trkpt>
      <trkpt lat="47.04419" lon="-0.16555">
        <ele>44</ele>
        <time>2022-02-28T13:31:42Z</time>
      </trkpt>
      <trkpt lat="47.04436" lon="-0.16547">
        <ele>45</ele>
        <time>2022-02-28T13:31:45Z</time>
      </trkpt>
      <trkpt lat="47.04479" lon="-0.16536">
        <ele>46</ele>
        <time>2022-02-28T13:31:53Z</time>
      </trkpt>
      <trkpt lat="47.04504" lon="-0.16532">
        <ele>47</ele>
        <time>2022-02-28T13:31:57Z</time>
      </trkpt>
      <trkpt lat="47.04517" lon="-0.16526">
        <ele>47</ele>
        <time>2022-02-28T13:32:00Z</time>
      </trkpt>
      <trkpt lat="47.04556" lon="-0.16494">
        <ele>49</ele>
        <time>2022-02-28T13:32:07Z</time>
      </trkpt>
      <trkpt lat="47.04573" lon="-0.16483">
        <ele>49</ele>
        <time>2022-02-28T13:32:11Z</time>
      </trkpt>
      <trkpt lat="47.04819" lon="-0.16431">
        <ele>47</ele>
        <time>2022-02-28T13:32:55Z</time>
      </trkpt>
      <trkpt lat="47.04862" lon="-0.16419">
        <ele>46</ele>
        <time>2022-02-28T13:33:03Z</time>
      </trkpt>
      <trkpt lat="47.04884" lon="-0.16407">
        <ele>46</ele>
        <time>2022-02-28T13:33:07Z</time>
      </trkpt>
      <trkpt lat="47.0491" lon="-0.1639">
        <ele>45</ele>
        <time>2022-02-28T13:33:12Z</time>
      </trkpt>
      <trkpt lat="47.04948" lon="-0.16361">
        <ele>44</ele>
        <time>2022-02-28T13:33:20Z</time>
      </trkpt>
      <trkpt lat="47.05048" lon="-0.16306">
        <ele>44</ele>
        <time>2022-02-28T13:33:39Z</time>
      </trkpt>
      <trkpt lat="47.05066" lon="-0.16298">
        <ele>44</ele>
        <time>2022-02-28T13:33:42Z</time>
      </trkpt>
      <trkpt lat="47.05079" lon="-0.16295">
        <ele>45</ele>
        <time>2022-02-28T13:33:44Z</time>
      </trkpt>
      <trkpt lat="47.05098" lon="-0.16296">
        <ele>45</ele>
        <time>2022-02-28T13:33:48Z</time>
      </trkpt>
      <trkpt lat="47.0515" lon="-0.16312">
        <ele>45</ele>
        <time>2022-02-28T13:33:57Z</time>
      </trkpt>
      <trkpt lat="47.05202" lon="-0.16321">
        <ele>46</ele>
        <time>2022-02-28T13:34:07Z</time>
      </trkpt>
      <trkpt lat="47.05247" lon="-0.16326">
        <ele>47</ele>
        <time>2022-02-28T13:34:15Z</time>
      </trkpt>
      <trkpt lat="47.05265" lon="-0.16326">
        <ele>47</ele>
        <time>2022-02-28T13:34:18Z</time>
      </trkpt>
      <trkpt lat="47.05266" lon="-0.16341">
        <ele>47</ele>
        <time>2022-02-28T13:34:20Z</time>
      </trkpt>
      <trkpt lat="47.05371" lon="-0.16336">
        <ele>46</ele>
        <time>2022-02-28T13:34:38Z</time>
      </trkpt>
      <trkpt lat="47.05384" lon="-0.16341">
        <ele>45</ele>
        <time>2022-02-28T13:34:41Z</time>
      </trkpt>
      <trkpt lat="47.05391" lon="-0.16347">
        <ele>45</ele>
        <time>2022-02-28T13:34:42Z</time>
      </trkpt>
      <trkpt lat="47.05396" lon="-0.16355">
        <ele>45</ele>
        <time>2022-02-28T13:34:43Z</time>
      </trkpt>
      <trkpt lat="47.05422" lon="-0.164">
        <ele>45</ele>
        <time>2022-02-28T13:34:51Z</time>
      </trkpt>
      <trkpt lat="47.05433" lon="-0.16404">
        <ele>45</ele>
        <time>2022-02-28T13:34:53Z</time>
      </trkpt>
      <trkpt lat="47.05454" lon="-0.16397">
        <ele>44</ele>
        <time>2022-02-28T13:34:56Z</time>
      </trkpt>
      <trkpt lat="47.05537" lon="-0.16353">
        <ele>44</ele>
        <time>2022-02-28T13:35:12Z</time>
      </trkpt>
      <trkpt lat="47.05561" lon="-0.16336">
        <ele>44</ele>
        <time>2022-02-28T13:35:17Z</time>
      </trkpt>
      <trkpt lat="47.05588" lon="-0.16302">
        <ele>45</ele>
        <time>2022-02-28T13:35:23Z</time>
      </trkpt>
      <trkpt lat="47.05612" lon="-0.1628">
        <ele>45</ele>
        <time>2022-02-28T13:35:28Z</time>
      </trkpt>
      <trkpt lat="47.05633" lon="-0.16265">
        <ele>44</ele>
        <time>2022-02-28T13:35:32Z</time>
      </trkpt>
      <trkpt lat="47.05652" lon="-0.16256">
        <ele>44</ele>
        <time>2022-02-28T13:35:36Z</time>
      </trkpt>
      <trkpt lat="47.05714" lon="-0.16238">
        <ele>43</ele>
        <time>2022-02-28T13:35:47Z</time>
      </trkpt>
      <trkpt lat="47.05735" lon="-0.16229">
        <ele>43</ele>
        <time>2022-02-28T13:35:51Z</time>
      </trkpt>
      <trkpt lat="47.05761" lon="-0.16213">
        <ele>42</ele>
        <time>2022-02-28T13:35:56Z</time>
      </trkpt>
      <trkpt lat="47.05786" lon="-0.16193">
        <ele>42</ele>
        <time>2022-02-28T13:36:01Z</time>
      </trkpt>
      <trkpt lat="47.05807" lon="-0.16172">
        <ele>41</ele>
        <time>2022-02-28T13:36:06Z</time>
      </trkpt>
      <trkpt lat="47.05897" lon="-0.1604">
        <ele>41</ele>
        <time>2022-02-28T13:36:28Z</time>
      </trkpt>
      <trkpt lat="47.05912" lon="-0.16022">
        <ele>40</ele>
        <time>2022-02-28T13:36:32Z</time>
      </trkpt>
      <trkpt lat="47.05931" lon="-0.16005">
        <ele>40</ele>
        <time>2022-02-28T13:36:36Z</time>
      </trkpt>
      <trkpt lat="47.05997" lon="-0.1597">
        <ele>40</ele>
        <time>2022-02-28T13:36:48Z</time>
      </trkpt>
      <trkpt lat="47.06025" lon="-0.1595">
        <ele>40</ele>
        <time>2022-02-28T13:36:54Z</time>
      </trkpt>
      <trkpt lat="47.06052" lon="-0.15927">
        <ele>39</ele>
        <time>2022-02-28T13:36:59Z</time>
      </trkpt>
      <trkpt lat="47.0609" lon="-0.15888">
        <ele>39</ele>
        <time>2022-02-28T13:37:08Z</time>
      </trkpt>
      <trkpt lat="47.0614" lon="-0.15834">
        <ele>38</ele>
        <time>2022-02-28T13:37:19Z</time>
      </trkpt>
      <trkpt lat="47.06183" lon="-0.15776">
        <ele>38</ele>
        <time>2022-02-28T13:37:29Z</time>
      </trkpt>
      <trkpt lat="47.06197" lon="-0.15752">
        <ele>39</ele>
        <time>2022-02-28T13:37:33Z</time>
      </trkpt>
      <trkpt lat="47.06214" lon="-0.15713">
        <ele>39</ele>
        <time>2022-02-28T13:37:38Z</time>
      </trkpt>
      <trkpt lat="47.06222" lon="-0.15698">
        <ele>39</ele>
        <time>2022-02-28T13:37:41Z</time>
      </trkpt>
      <trkpt lat="47.06293" lon="-0.15609">
        <ele>41</ele>
        <time>2022-02-28T13:37:57Z</time>
      </trkpt>
      <trkpt lat="47.06303" lon="-0.15599">
        <ele>42</ele>
        <time>2022-02-28T13:37:59Z</time>
      </trkpt>
      <trkpt lat="47.0631" lon="-0.15595">
        <ele>42</ele>
        <time>2022-02-28T13:38:01Z</time>
      </trkpt>
      <trkpt lat="47.06326" lon="-0.15585">
        <ele>43</ele>
        <time>2022-02-28T13:38:04Z</time>
      </trkpt>
      <trkpt lat="47.06448" lon="-0.15539">
        <ele>40</ele>
        <time>2022-02-28T13:38:26Z</time>
      </trkpt>
      <trkpt lat="47.06469" lon="-0.15526">
        <ele>40</ele>
        <time>2022-02-28T13:38:30Z</time>
      </trkpt>
      <trkpt lat="47.065" lon="-0.15516">
        <ele>39</ele>
        <time>2022-02-28T13:38:36Z</time>
      </trkpt>
      <trkpt lat="47.06515" lon="-0.15536">
        <ele>39</ele>
        <time>2022-02-28T13:38:40Z</time>
      </trkpt>
      <trkpt lat="47.06528" lon="-0.15548">
        <ele>39</ele>
        <time>2022-02-28T13:38:42Z</time>
      </trkpt>
      <trkpt lat="47.06575" lon="-0.15575">
        <ele>38</ele>
        <time>2022-02-28T13:38:51Z</time>
      </trkpt>
      <trkpt lat="47.06588" lon="-0.15586">
        <ele>38</ele>
        <time>2022-02-28T13:38:54Z</time>
      </trkpt>
      <trkpt lat="47.066" lon="-0.15602">
        <ele>38</ele>
        <time>2022-02-28T13:38:57Z</time>
      </trkpt>
      <trkpt lat="47.06682" lon="-0.15724">
        <ele>39</ele>
        <time>2022-02-28T13:39:18Z</time>
      </trkpt>
      <trkpt lat="47.06721" lon="-0.15778">
        <ele>39</ele>
        <time>2022-02-28T13:39:27Z</time>
      </trkpt>
      <trkpt lat="47.06784" lon="-0.15891">
        <ele>39</ele>
        <time>2022-02-28T13:39:45Z</time>
      </trkpt>
      <trkpt lat="47.06848" lon="-0.16015">
        <ele>38</ele>
        <time>2022-02-28T13:40:04Z</time>
      </trkpt>
      <trkpt lat="47.06859" lon="-0.1603">
        <ele>39</ele>
        <time>2022-02-28T13:40:06Z</time>
      </trkpt>
      <trkpt lat="47.06878" lon="-0.16048">
        <ele>39</ele>
        <time>2022-02-28T13:40:10Z</time>
      </trkpt>
      <trkpt lat="47.06949" lon="-0.16089">
        <ele>40</ele>
        <time>2022-02-28T13:40:24Z</time>
      </trkpt>
      <trkpt lat="47.07019" lon="-0.16101">
        <ele>42</ele>
        <time>2022-02-28T13:40:37Z</time>
      </trkpt>
      <trkpt lat="47.07036" lon="-0.1611">
        <ele>42</ele>
        <time>2022-02-28T13:40:40Z</time>
      </trkpt>
      <trkpt lat="47.07055" lon="-0.16122">
        <ele>42</ele>
        <time>2022-02-28T13:40:43Z</time>
      </trkpt>
      <trkpt lat="47.07112" lon="-0.16168">
        <ele>40</ele>
        <time>2022-02-28T13:40:55Z</time>
      </trkpt>
      <trkpt lat="47.07127" lon="-0.16183">
        <ele>40</ele>
        <time>2022-02-28T13:40:58Z</time>
      </trkpt>
      <trkpt lat="47.07198" lon="-0.16277">
        <ele>38</ele>
        <time>2022-02-28T13:41:15Z</time>
      </trkpt>
      <trkpt lat="47.07215" lon="-0.16296">
        <ele>38</ele>
        <time>2022-02-28T13:41:19Z</time>
      </trkpt>
      <trkpt lat="47.07248" lon="-0.16324">
        <ele>37</ele>
        <time>2022-02-28T13:41:26Z</time>
      </trkpt>
      <trkpt lat="47.07272" lon="-0.16348">
        <ele>38</ele>
        <time>2022-02-28T13:41:31Z</time>
      </trkpt>
      <trkpt lat="47.07294" lon="-0.16374">
        <ele>38</ele>
        <time>2022-02-28T13:41:36Z</time>
      </trkpt>
      <trkpt lat="47.0734" lon="-0.16434">
        <ele>38</ele>
        <time>2022-02-28T13:41:47Z</time>
      </trkpt>
      <trkpt lat="47.07374" lon="-0.16471">
        <ele>39</ele>
        <time>2022-02-28T13:41:55Z</time>
      </trkpt>
      <trkpt lat="47.07423" lon="-0.16517">
        <ele>38</ele>
        <time>2022-02-28T13:42:05Z</time>
      </trkpt>
      <trkpt lat="47.07461" lon="-0.16549">
        <ele>38</ele>
        <time>2022-02-28T13:42:13Z</time>
      </trkpt>
      <trkpt lat="47.07533" lon="-0.16603">
        <ele>38</ele>
        <time>2022-02-28T13:42:27Z</time>
      </trkpt>
      <trkpt lat="47.07552" lon="-0.16619">
        <ele>38</ele>
        <time>2022-02-28T13:42:31Z</time>
      </trkpt>
      <trkpt lat="47.07603" lon="-0.16677">
        <ele>39</ele>
        <time>2022-02-28T13:42:42Z</time>
      </trkpt>
      <trkpt lat="47.07612" lon="-0.16683">
        <ele>39</ele>
        <time>2022-02-28T13:42:44Z</time>
      </trkpt>
      <trkpt lat="47.0762" lon="-0.16684">
        <ele>39</ele>
        <time>2022-02-28T13:42:46Z</time>
      </trkpt>
      <trkpt lat="47.07629" lon="-0.1668">
        <ele>39</ele>
        <time>2022-02-28T13:42:47Z</time>
      </trkpt>
      <trkpt lat="47.07637" lon="-0.16673">
        <ele>39</ele>
        <time>2022-02-28T13:42:49Z</time>
      </trkpt>
      <trkpt lat="47.07663" lon="-0.16635">
        <ele>40</ele>
        <time>2022-02-28T13:42:55Z</time>
      </trkpt>
      <trkpt lat="47.07673" lon="-0.16624">
        <ele>41</ele>
        <time>2022-02-28T13:42:58Z</time>
      </trkpt>
      <trkpt lat="47.07701" lon="-0.1661">
        <ele>41</ele>
        <time>2022-02-28T13:43:03Z</time>
      </trkpt>
      <trkpt lat="47.07715" lon="-0.16606">
        <ele>41</ele>
        <time>2022-02-28T13:43:06Z</time>
      </trkpt>
      <trkpt lat="47.0777" lon="-0.16608">
        <ele>40</ele>
        <time>2022-02-28T13:43:15Z</time>
      </trkpt>
      <trkpt lat="47.07815" lon="-0.16603">
        <ele>39</ele>
        <time>2022-02-28T13:43:23Z</time>
      </trkpt>
      <trkpt lat="47.07829" lon="-0.16604">
        <ele>38</ele>
        <time>2022-02-28T13:43:26Z</time>
      </trkpt>
      <trkpt lat="47.07859" lon="-0.16614">
        <ele>38</ele>
        <time>2022-02-28T13:43:31Z</time>
      </trkpt>
      <trkpt lat="47.07866" lon="-0.16617">
        <ele>38</ele>
        <time>2022-02-28T13:43:33Z</time>
      </trkpt>
      <trkpt lat="47.07897" lon="-0.16625">
        <ele>37</ele>
        <time>2022-02-28T13:43:38Z</time>
      </trkpt>
      <trkpt lat="47.07919" lon="-0.16623">
        <ele>37</ele>
        <time>2022-02-28T13:43:42Z</time>
      </trkpt>
      <trkpt lat="47.07939" lon="-0.16618">
        <ele>37</ele>
        <time>2022-02-28T13:43:46Z</time>
      </trkpt>
      <trkpt lat="47.07956" lon="-0.16609">
        <ele>38</ele>
        <time>2022-02-28T13:43:49Z</time>
      </trkpt>
      <trkpt lat="47.07976" lon="-0.16592">
        <ele>38</ele>
        <time>2022-02-28T13:43:53Z</time>
      </trkpt>
      <trkpt lat="47.08008" lon="-0.16561">
        <ele>39</ele>
        <time>2022-02-28T13:44:00Z</time>
      </trkpt>
      <trkpt lat="47.08161" lon="-0.16377">
        <ele>43</ele>
        <time>2022-02-28T13:44:35Z</time>
      </trkpt>
      <trkpt lat="47.08191" lon="-0.16349">
        <ele>43</ele>
        <time>2022-02-28T13:44:41Z</time>
      </trkpt>
      <trkpt lat="47.08201" lon="-0.16343">
        <ele>43</ele>
        <time>2022-02-28T13:44:43Z</time>
      </trkpt>
      <trkpt lat="47.08213" lon="-0.16344">
        <ele>43</ele>
        <time>2022-02-28T13:44:45Z</time>
      </trkpt>
      <trkpt lat="47.08221" lon="-0.1635">
        <ele>43</ele>
        <time>2022-02-28T13:44:47Z</time>
      </trkpt>
      <trkpt lat="47.08232" lon="-0.16363">
        <ele>43</ele>
        <time>2022-02-28T13:44:50Z</time>
      </trkpt>
      <trkpt lat="47.08237" lon="-0.1641">
        <ele>41</ele>
        <time>2022-02-28T13:44:55Z</time>
      </trkpt>
      <trkpt lat="47.08242" lon="-0.16426">
        <ele>41</ele>
        <time>2022-02-28T13:44:57Z</time>
      </trkpt>
      <trkpt lat="47.08266" lon="-0.16471">
        <ele>40</ele>
        <time>2022-02-28T13:45:04Z</time>
      </trkpt>
      <trkpt lat="47.08277" lon="-0.16498">
        <ele>40</ele>
        <time>2022-02-28T13:45:08Z</time>
      </trkpt>
      <trkpt lat="47.08307" lon="-0.16608">
        <ele>41</ele>
        <time>2022-02-28T13:45:23Z</time>
      </trkpt>
      <trkpt lat="47.08309" lon="-0.16634">
        <ele>41</ele>
        <time>2022-02-28T13:45:26Z</time>
      </trkpt>
      <trkpt lat="47.08308" lon="-0.16679">
        <ele>41</ele>
        <time>2022-02-28T13:45:31Z</time>
      </trkpt>
      <trkpt lat="47.08312" lon="-0.16706">
        <ele>41</ele>
        <time>2022-02-28T13:45:35Z</time>
      </trkpt>
      <trkpt lat="47.08324" lon="-0.1674">
        <ele>42</ele>
        <time>2022-02-28T13:45:39Z</time>
      </trkpt>
      <trkpt lat="47.08402" lon="-0.16866">
        <ele>44</ele>
        <time>2022-02-28T13:46:00Z</time>
      </trkpt>
      <trkpt lat="47.0843" lon="-0.16925">
        <ele>43</ele>
        <time>2022-02-28T13:46:09Z</time>
      </trkpt>
      <trkpt lat="47.08488" lon="-0.17062">
        <ele>41</ele>
        <time>2022-02-28T13:46:28Z</time>
      </trkpt>
      <trkpt lat="47.08498" lon="-0.1709">
        <ele>41</ele>
        <time>2022-02-28T13:46:32Z</time>
      </trkpt>
      <trkpt lat="47.08507" lon="-0.17125">
        <ele>41</ele>
        <time>2022-02-28T13:46:36Z</time>
      </trkpt>
      <trkpt lat="47.08512" lon="-0.17162">
        <ele>41</ele>
        <time>2022-02-28T13:46:41Z</time>
      </trkpt>
      <trkpt lat="47.0852" lon="-0.17269">
        <ele>40</ele>
        <time>2022-02-28T13:46:54Z</time>
      </trkpt>
      <trkpt lat="47.08534" lon="-0.17365">
        <ele>38</ele>
        <time>2022-02-28T13:47:06Z</time>
      </trkpt>
      <trkpt lat="47.08552" lon="-0.17537">
        <ele>38</ele>
        <time>2022-02-28T13:47:27Z</time>
      </trkpt>
      <trkpt lat="47.08554" lon="-0.17571">
        <ele>38</ele>
        <time>2022-02-28T13:47:31Z</time>
      </trkpt>
      <trkpt lat="47.08552" lon="-0.17614">
        <ele>38</ele>
        <time>2022-02-28T13:47:36Z</time>
      </trkpt>
      <trkpt lat="47.08552" lon="-0.17631">
        <ele>39</ele>
        <time>2022-02-28T13:47:38Z</time>
      </trkpt>
      <trkpt lat="47.08541" lon="-0.17869">
        <ele>42</ele>
        <time>2022-02-28T13:48:07Z</time>
      </trkpt>
      <trkpt lat="47.08537" lon="-0.17928">
        <ele>41</ele>
        <time>2022-02-28T13:48:15Z</time>
      </trkpt>
      <trkpt lat="47.08532" lon="-0.17948">
        <ele>41</ele>
        <time>2022-02-28T13:48:17Z</time>
      </trkpt>
      <trkpt lat="47.08522" lon="-0.17962">
        <ele>41</ele>
        <time>2022-02-28T13:48:20Z</time>
      </trkpt>
      <trkpt lat="47.08496" lon="-0.17988">
        <ele>41</ele>
        <time>2022-02-28T13:48:25Z</time>
      </trkpt>
      <trkpt lat="47.08475" lon="-0.18033">
        <ele>40</ele>
        <time>2022-02-28T13:48:32Z</time>
      </trkpt>
      <trkpt lat="47.08467" lon="-0.18059">
        <ele>39</ele>
        <time>2022-02-28T13:48:35Z</time>
      </trkpt>
      <trkpt lat="47.0846" lon="-0.18088">
        <ele>39</ele>
        <time>2022-02-28T13:48:39Z</time>
      </trkpt>
      <trkpt lat="47.08451" lon="-0.18149">
        <ele>40</ele>
        <time>2022-02-28T13:48:46Z</time>
      </trkpt>
      <trkpt lat="47.08422" lon="-0.18254">
        <ele>42</ele>
        <time>2022-02-28T13:49:00Z</time>
      </trkpt>
      <trkpt lat="47.08411" lon="-0.18314">
        <ele>44</ele>
        <time>2022-02-28T13:49:08Z</time>
      </trkpt>
      <trkpt lat="47.08404" lon="-0.18364">
        <ele>45</ele>
        <time>2022-02-28T13:49:14Z</time>
      </trkpt>
      <trkpt lat="47.08404" lon="-0.18401">
        <ele>46</ele>
        <time>2022-02-28T13:49:18Z</time>
      </trkpt>
      <trkpt lat="47.08406" lon="-0.18465">
        <ele>48</ele>
        <time>2022-02-28T13:49:26Z</time>
      </trkpt>
      <trkpt lat="47.08404" lon="-0.1848">
        <ele>48</ele>
        <time>2022-02-28T13:49:28Z</time>
      </trkpt>
      <trkpt lat="47.08395" lon="-0.18503">
        <ele>48</ele>
        <time>2022-02-28T13:49:31Z</time>
      </trkpt>
      <trkpt lat="47.08373" lon="-0.18554">
        <ele>49</ele>
        <time>2022-02-28T13:49:39Z</time>
      </trkpt>
      <trkpt lat="47.08357" lon="-0.18601">
        <ele>50</ele>
        <time>2022-02-28T13:49:45Z</time>
      </trkpt>
      <trkpt lat="47.08351" lon="-0.1863">
        <ele>51</ele>
        <time>2022-02-28T13:49:49Z</time>
      </trkpt>
      <trkpt lat="47.08355" lon="-0.1869">
        <ele>52</ele>
        <time>2022-02-28T13:49:56Z</time>
      </trkpt>
      <trkpt lat="47.08366" lon="-0.18745">
        <ele>54</ele>
        <time>2022-02-28T13:50:03Z</time>
      </trkpt>
      <trkpt lat="47.08381" lon="-0.18805">
        <ele>55</ele>
        <time>2022-02-28T13:50:11Z</time>
      </trkpt>
      <trkpt lat="47.08392" lon="-0.18989">
        <ele>50</ele>
        <time>2022-02-28T13:50:33Z</time>
      </trkpt>
      <trkpt lat="47.08396" lon="-0.18992">
        <ele>50</ele>
        <time>2022-02-28T13:50:34Z</time>
      </trkpt>
      <trkpt lat="47.08435" lon="-0.19054">
        <ele>48</ele>
        <time>2022-02-28T13:50:44Z</time>
      </trkpt>
      <trkpt lat="47.08463" lon="-0.19124">
        <ele>44</ele>
        <time>2022-02-28T13:50:54Z</time>
      </trkpt>
      <trkpt lat="47.0853" lon="-0.19277">
        <ele>38</ele>
        <time>2022-02-28T13:51:16Z</time>
      </trkpt>
      <trkpt lat="47.08549" lon="-0.19323">
        <ele>37</ele>
        <time>2022-02-28T13:51:22Z</time>
      </trkpt>
      <trkpt lat="47.08597" lon="-0.1947">
        <ele>37</ele>
        <time>2022-02-28T13:51:42Z</time>
      </trkpt>
      <trkpt lat="47.08611" lon="-0.19497">
        <ele>36</ele>
        <time>2022-02-28T13:51:46Z</time>
      </trkpt>
      <trkpt lat="47.08666" lon="-0.19593">
        <ele>36</ele>
        <time>2022-02-28T13:52:01Z</time>
      </trkpt>
      <trkpt lat="47.0868" lon="-0.19628">
        <ele>35</ele>
        <time>2022-02-28T13:52:06Z</time>
      </trkpt>
      <trkpt lat="47.08687" lon="-0.19656">
        <ele>35</ele>
        <time>2022-02-28T13:52:10Z</time>
      </trkpt>
      <trkpt lat="47.08714" lon="-0.19648">
        <ele>35</ele>
        <time>2022-02-28T13:52:15Z</time>
      </trkpt>
      <trkpt lat="47.08741" lon="-0.19637">
        <ele>35</ele>
        <time>2022-02-28T13:52:20Z</time>
      </trkpt>
      <trkpt lat="47.08759" lon="-0.19623">
        <ele>36</ele>
        <time>2022-02-28T13:52:23Z</time>
      </trkpt>
      <trkpt lat="47.08821" lon="-0.19569">
        <ele>36</ele>
        <time>2022-02-28T13:52:36Z</time>
      </trkpt>
      <trkpt lat="47.08858" lon="-0.19541">
        <ele>36</ele>
        <time>2022-02-28T13:52:44Z</time>
      </trkpt>
      <trkpt lat="47.08886" lon="-0.19528">
        <ele>36</ele>
        <time>2022-02-28T13:52:49Z</time>
      </trkpt>
      <trkpt lat="47.08912" lon="-0.19524">
        <ele>36</ele>
        <time>2022-02-28T13:52:54Z</time>
      </trkpt>
      <trkpt lat="47.08946" lon="-0.19522">
        <ele>35</ele>
        <time>2022-02-28T13:53:00Z</time>
      </trkpt>
      <trkpt lat="47.09031" lon="-0.19508">
        <ele>35</ele>
        <time>2022-02-28T13:53:15Z</time>
      </trkpt>
      <trkpt lat="47.09077" lon="-0.19495">
        <ele>35</ele>
        <time>2022-02-28T13:53:23Z</time>
      </trkpt>
      <trkpt lat="47.09111" lon="-0.19483">
        <ele>35</ele>
        <time>2022-02-28T13:53:29Z</time>
      </trkpt>
      <trkpt lat="47.09148" lon="-0.19463">
        <ele>35</ele>
        <time>2022-02-28T13:53:36Z</time>
      </trkpt>
      <trkpt lat="47.0924" lon="-0.19407">
        <ele>35</ele>
        <time>2022-02-28T13:53:54Z</time>
      </trkpt>
      <trkpt lat="47.09345" lon="-0.19329">
        <ele>36</ele>
        <time>2022-02-28T13:54:15Z</time>
      </trkpt>
      <trkpt lat="47.09384" lon="-0.19293">
        <ele>37</ele>
        <time>2022-02-28T13:54:23Z</time>
      </trkpt>
      <trkpt lat="47.09498" lon="-0.19154">
        <ele>37</ele>
        <time>2022-02-28T13:54:50Z</time>
      </trkpt>
      <trkpt lat="47.09529" lon="-0.19128">
        <ele>37</ele>
        <time>2022-02-28T13:54:56Z</time>
      </trkpt>
      <trkpt lat="47.0956" lon="-0.19108">
        <ele>36</ele>
        <time>2022-02-28T13:55:02Z</time>
      </trkpt>
      <trkpt lat="47.09582" lon="-0.19099">
        <ele>35</ele>
        <time>2022-02-28T13:55:06Z</time>
      </trkpt>
      <trkpt lat="47.09604" lon="-0.19161">
        <ele>37</ele>
        <time>2022-02-28T13:55:15Z</time>
      </trkpt>
      <trkpt lat="47.09639" lon="-0.19247">
        <ele>37</ele>
        <time>2022-02-28T13:55:27Z</time>
      </trkpt>
      <trkpt lat="47.09658" lon="-0.19285">
        <ele>37</ele>
        <time>2022-02-28T13:55:32Z</time>
      </trkpt>
      <trkpt lat="47.09679" lon="-0.19316">
        <ele>36</ele>
        <time>2022-02-28T13:55:38Z</time>
      </trkpt>
      <trkpt lat="47.09719" lon="-0.19356">
        <ele>37</ele>
        <time>2022-02-28T13:55:46Z</time>
      </trkpt>
      <trkpt lat="47.09791" lon="-0.19403">
        <ele>36</ele>
        <time>2022-02-28T13:56:00Z</time>
      </trkpt>
      <trkpt lat="47.09855" lon="-0.19443">
        <ele>35</ele>
        <time>2022-02-28T13:56:13Z</time>
      </trkpt>
      <trkpt lat="47.10229" lon="-0.1968">
        <ele>34</ele>
        <time>2022-02-28T13:57:25Z</time>
      </trkpt>
      <trkpt lat="47.10351" lon="-0.19741">
        <ele>34</ele>
        <time>2022-02-28T13:57:48Z</time>
      </trkpt>
      <trkpt lat="47.10507" lon="-0.19815">
        <ele>34</ele>
        <time>2022-02-28T13:58:17Z</time>
      </trkpt>
      <trkpt lat="47.10567" lon="-0.19826">
        <ele>32</ele>
        <time>2022-02-28T13:58:28Z</time>
      </trkpt>
      <trkpt lat="47.10578" lon="-0.19832">
        <ele>32</ele>
        <time>2022-02-28T13:58:30Z</time>
      </trkpt>
      <trkpt lat="47.10595" lon="-0.19849">
        <ele>32</ele>
        <time>2022-02-28T13:58:34Z</time>
      </trkpt>
      <trkpt lat="47.10644" lon="-0.19916">
        <ele>33</ele>
        <time>2022-02-28T13:58:46Z</time>
      </trkpt>
      <trkpt lat="47.10692" lon="-0.19986">
        <ele>34</ele>
        <time>2022-02-28T13:58:58Z</time>
      </trkpt>
      <trkpt lat="47.1072" lon="-0.20037">
        <ele>34</ele>
        <time>2022-02-28T13:59:06Z</time>
      </trkpt>
      <trkpt lat="47.10753" lon="-0.20106">
        <ele>34</ele>
        <time>2022-02-28T13:59:16Z</time>
      </trkpt>
      <trkpt lat="47.10859" lon="-0.20273">
        <ele>38</ele>
        <time>2022-02-28T13:59:44Z</time>
      </trkpt>
      <trkpt lat="47.10886" lon="-0.20309">
        <ele>39</ele>
        <time>2022-02-28T13:59:50Z</time>
      </trkpt>
      <trkpt lat="47.10956" lon="-0.20389">
        <ele>41</ele>
        <time>2022-02-28T14:00:06Z</time>
      </trkpt>
      <trkpt lat="47.11027" lon="-0.20494">
        <ele>41</ele>
        <time>2022-02-28T14:00:24Z</time>
      </trkpt>
      <trkpt lat="47.11087" lon="-0.204">
        <ele>43</ele>
        <time>2022-02-28T14:00:39Z</time>
      </trkpt>
      <trkpt lat="47.11266" lon="-0.20101">
        <ele>38</ele>
        <time>2022-02-28T14:01:28Z</time>
      </trkpt>
      <trkpt lat="47.11326" lon="-0.20032">
        <ele>38</ele>
        <time>2022-02-28T14:01:41Z</time>
      </trkpt>
      <trkpt lat="47.11394" lon="-0.19959">
        <ele>38</ele>
        <time>2022-02-28T14:01:56Z</time>
      </trkpt>
      <trkpt lat="47.11432" lon="-0.19923">
        <ele>38</ele>
        <time>2022-02-28T14:02:04Z</time>
      </trkpt>
      <trkpt lat="47.11464" lon="-0.199">
        <ele>38</ele>
        <time>2022-02-28T14:02:10Z</time>
      </trkpt>
      <trkpt lat="47.11523" lon="-0.19865">
        <ele>37</ele>
        <time>2022-02-28T14:02:22Z</time>
      </trkpt>
      <trkpt lat="47.11766" lon="-0.19681">
        <ele>37</ele>
        <time>2022-02-28T14:03:10Z</time>
      </trkpt>
      <trkpt lat="47.1178" lon="-0.19668">
        <ele>37</ele>
        <time>2022-02-28T14:03:13Z</time>
      </trkpt>
      <trkpt lat="47.11839" lon="-0.19587">
        <ele>36</ele>
        <time>2022-02-28T14:03:28Z</time>
      </trkpt>
      <trkpt lat="47.11871" lon="-0.19551">
        <ele>36</ele>
        <time>2022-02-28T14:03:35Z</time>
      </trkpt>
      <trkpt lat="47.12031" lon="-0.19405">
        <ele>37</ele>
        <time>2022-02-28T14:04:08Z</time>
      </trkpt>
      <trkpt lat="47.12103" lon="-0.19326">
        <ele>36</ele>
        <time>2022-02-28T14:04:24Z</time>
      </trkpt>
      <trkpt lat="47.12149" lon="-0.19264">
        <ele>35</ele>
        <time>2022-02-28T14:04:36Z</time>
      </trkpt>
      <trkpt lat="47.12262" lon="-0.19074">
        <ele>34</ele>
        <time>2022-02-28T14:05:06Z</time>
      </trkpt>
      <trkpt lat="47.12302" lon="-0.18982">
        <ele>34</ele>
        <time>2022-02-28T14:05:19Z</time>
      </trkpt>
      <trkpt lat="47.12423" lon="-0.18682">
        <ele>37</ele>
        <time>2022-02-28T14:06:02Z</time>
      </trkpt>
      <trkpt lat="47.12444" lon="-0.18633">
        <ele>37</ele>
        <time>2022-02-28T14:06:09Z</time>
      </trkpt>
      <trkpt lat="47.12533" lon="-0.18473">
        <ele>36</ele>
        <time>2022-02-28T14:06:34Z</time>
      </trkpt>
      <trkpt lat="47.12707" lon="-0.18171">
        <ele>35</ele>
        <time>2022-02-28T14:07:21Z</time>
      </trkpt>
      <trkpt lat="47.12776" lon="-0.18045">
        <ele>35</ele>
        <time>2022-02-28T14:07:41Z</time>
      </trkpt>
      <trkpt lat="47.12867" lon="-0.17832">
        <ele>34</ele>
        <time>2022-02-28T14:08:11Z</time>
      </trkpt>
      <trkpt lat="47.12886" lon="-0.17797">
        <ele>34</ele>
        <time>2022-02-28T14:08:17Z</time>
      </trkpt>
      <trkpt lat="47.12967" lon="-0.17684">
        <ele>35</ele>
        <time>2022-02-28T14:08:37Z</time>
      </trkpt>
      <trkpt lat="47.12986" lon="-0.17653">
        <ele>35</ele>
        <time>2022-02-28T14:08:42Z</time>
      </trkpt>
      <trkpt lat="47.12993" lon="-0.17645">
        <ele>36</ele>
        <time>2022-02-28T14:08:43Z</time>
      </trkpt>
      <trkpt lat="47.13001" lon="-0.17639">
        <ele>36</ele>
        <time>2022-02-28T14:08:45Z</time>
      </trkpt>
      <trkpt lat="47.1302" lon="-0.17564">
        <ele>36</ele>
        <time>2022-02-28T14:08:55Z</time>
      </trkpt>
      <trkpt lat="47.13026" lon="-0.17526">
        <ele>36</ele>
        <time>2022-02-28T14:08:59Z</time>
      </trkpt>
      <trkpt lat="47.13025" lon="-0.17487">
        <ele>36</ele>
        <time>2022-02-28T14:09:04Z</time>
      </trkpt>
      <trkpt lat="47.13014" lon="-0.17405">
        <ele>36</ele>
        <time>2022-02-28T14:09:14Z</time>
      </trkpt>
      <trkpt lat="47.13013" lon="-0.1736">
        <ele>36</ele>
        <time>2022-02-28T14:09:20Z</time>
      </trkpt>
      <trkpt lat="47.13017" lon="-0.17322">
        <ele>35</ele>
        <time>2022-02-28T14:09:24Z</time>
      </trkpt>
      <trkpt lat="47.13025" lon="-0.17292">
        <ele>35</ele>
        <time>2022-02-28T14:09:28Z</time>
      </trkpt>
      <trkpt lat="47.13043" lon="-0.17256">
        <ele>35</ele>
        <time>2022-02-28T14:09:34Z</time>
      </trkpt>
      <trkpt lat="47.1311" lon="-0.17136">
        <ele>38</ele>
        <time>2022-02-28T14:09:52Z</time>
      </trkpt>
      <trkpt lat="47.13134" lon="-0.17086">
        <ele>39</ele>
        <time>2022-02-28T14:10:00Z</time>
      </trkpt>
      <trkpt lat="47.13146" lon="-0.17051">
        <ele>39</ele>
        <time>2022-02-28T14:10:05Z</time>
      </trkpt>
      <trkpt lat="47.13156" lon="-0.16995">
        <ele>39</ele>
        <time>2022-02-28T14:10:12Z</time>
      </trkpt>
      <trkpt lat="47.13174" lon="-0.16789">
        <ele>37</ele>
        <time>2022-02-28T14:10:37Z</time>
      </trkpt>
      <trkpt lat="47.13185" lon="-0.16727">
        <ele>36</ele>
        <time>2022-02-28T14:10:45Z</time>
      </trkpt>
      <trkpt lat="47.13197" lon="-0.16686">
        <ele>37</ele>
        <time>2022-02-28T14:10:50Z</time>
      </trkpt>
      <trkpt lat="47.1324" lon="-0.16569">
        <ele>39</ele>
        <time>2022-02-28T14:11:06Z</time>
      </trkpt>
      <trkpt lat="47.13248" lon="-0.16542">
        <ele>38</ele>
        <time>2022-02-28T14:11:10Z</time>
      </trkpt>
      <trkpt lat="47.13255" lon="-0.16503">
        <ele>38</ele>
        <time>2022-02-28T14:11:14Z</time>
      </trkpt>
      <trkpt lat="47.13282" lon="-0.16417">
        <ele>38</ele>
        <time>2022-02-28T14:11:26Z</time>
      </trkpt>
      <trkpt lat="47.13314" lon="-0.16342">
        <ele>37</ele>
        <time>2022-02-28T14:11:37Z</time>
      </trkpt>
      <trkpt lat="47.13336" lon="-0.16275">
        <ele>35</ele>
        <time>2022-02-28T14:11:46Z</time>
      </trkpt>
      <trkpt lat="47.13344" lon="-0.16254">
        <ele>35</ele>
        <time>2022-02-28T14:11:49Z</time>
      </trkpt>
      <trkpt lat="47.13373" lon="-0.162">
        <ele>36</ele>
        <time>2022-02-28T14:11:57Z</time>
      </trkpt>
      <trkpt lat="47.13405" lon="-0.16144">
        <ele>36</ele>
        <time>2022-02-28T14:12:06Z</time>
      </trkpt>
      <trkpt lat="47.13465" lon="-0.1605">
        <ele>36</ele>
        <time>2022-02-28T14:12:21Z</time>
      </trkpt>
      <trkpt lat="47.13502" lon="-0.15962">
        <ele>36</ele>
        <time>2022-02-28T14:12:34Z</time>
      </trkpt>
      <trkpt lat="47.13535" lon="-0.15876">
        <ele>37</ele>
        <time>2022-02-28T14:12:46Z</time>
      </trkpt>
      <trkpt lat="47.13546" lon="-0.15855">
        <ele>37</ele>
        <time>2022-02-28T14:12:49Z</time>
      </trkpt>
      <trkpt lat="47.13601" lon="-0.1577">
        <ele>37</ele>
        <time>2022-02-28T14:13:03Z</time>
      </trkpt>
      <trkpt lat="47.1361" lon="-0.1575">
        <ele>36</ele>
        <time>2022-02-28T14:13:06Z</time>
      </trkpt>
      <trkpt lat="47.13619" lon="-0.15722">
        <ele>36</ele>
        <time>2022-02-28T14:13:10Z</time>
      </trkpt>
      <trkpt lat="47.13636" lon="-0.15646">
        <ele>34</ele>
        <time>2022-02-28T14:13:20Z</time>
      </trkpt>
      <trkpt lat="47.13644" lon="-0.1562">
        <ele>34</ele>
        <time>2022-02-28T14:13:23Z</time>
      </trkpt>
      <trkpt lat="47.13667" lon="-0.15568">
        <ele>34</ele>
        <time>2022-02-28T14:13:31Z</time>
      </trkpt>
      <trkpt lat="47.137" lon="-0.15606">
        <ele>37</ele>
        <time>2022-02-28T14:13:38Z</time>
      </trkpt>
      <trkpt lat="47.13714" lon="-0.15613">
        <ele>38</ele>
        <time>2022-02-28T14:13:41Z</time>
      </trkpt>
      <trkpt lat="47.13719" lon="-0.15604">
        <ele>38</ele>
        <time>2022-02-28T14:13:42Z</time>
      </trkpt>
      <trkpt lat="47.13727" lon="-0.15606">
        <ele>39</ele>
        <time>2022-02-28T14:13:43Z</time>
      </trkpt>
      <trkpt lat="47.1373" lon="-0.15612">
        <ele>39</ele>
        <time>2022-02-28T14:13:44Z</time>
      </trkpt>
      <trkpt lat="47.14026" lon="-0.1545">
        <ele>50</ele>
        <time>2022-02-28T14:14:41Z</time>
      </trkpt>
      <trkpt lat="47.14133" lon="-0.15393">
        <ele>51</ele>
        <time>2022-02-28T14:15:01Z</time>
      </trkpt>
      <trkpt lat="47.14218" lon="-0.15351">
        <ele>52</ele>
        <time>2022-02-28T14:15:17Z</time>
      </trkpt>
      <trkpt lat="47.14231" lon="-0.15349">
        <ele>53</ele>
        <time>2022-02-28T14:15:19Z</time>
      </trkpt>
      <trkpt lat="47.14241" lon="-0.15351">
        <ele>53</ele>
        <time>2022-02-28T14:15:21Z</time>
      </trkpt>
      <trkpt lat="47.1426" lon="-0.15361">
        <ele>54</ele>
        <time>2022-02-28T14:15:24Z</time>
      </trkpt>
      <trkpt lat="47.14274" lon="-0.15376">
        <ele>54</ele>
        <time>2022-02-28T14:15:28Z</time>
      </trkpt>
      <trkpt lat="47.14288" lon="-0.15408">
        <ele>55</ele>
        <time>2022-02-28T14:15:32Z</time>
      </trkpt>
      <trkpt lat="47.14287" lon="-0.1542">
        <ele>55</ele>
        <time>2022-02-28T14:15:34Z</time>
      </trkpt>
      <trkpt lat="47.14282" lon="-0.15431">
        <ele>55</ele>
        <time>2022-02-28T14:15:35Z</time>
      </trkpt>
      <trkpt lat="47.14228" lon="-0.15468">
        <ele>54</ele>
        <time>2022-02-28T14:15:46Z</time>
      </trkpt>
      <trkpt lat="47.14212" lon="-0.15487">
        <ele>54</ele>
        <time>2022-02-28T14:15:49Z</time>
      </trkpt>
      <trkpt lat="47.14169" lon="-0.15557">
        <ele>54</ele>
        <time>2022-02-28T14:16:01Z</time>
      </trkpt>
      <trkpt lat="47.14134" lon="-0.15622">
        <ele>54</ele>
        <time>2022-02-28T14:16:11Z</time>
      </trkpt>
      <trkpt lat="47.14126" lon="-0.15642">
        <ele>55</ele>
        <time>2022-02-28T14:16:14Z</time>
      </trkpt>
      <trkpt lat="47.14128" lon="-0.15667">
        <ele>55</ele>
        <time>2022-02-28T14:16:17Z</time>
      </trkpt>
      <trkpt lat="47.14135" lon="-0.15685">
        <ele>55</ele>
        <time>2022-02-28T14:16:19Z</time>
      </trkpt>
      <trkpt lat="47.14254" lon="-0.15833">
        <ele>58</ele>
        <time>2022-02-28T14:16:47Z</time>
      </trkpt>
      <trkpt lat="47.1428" lon="-0.15858">
        <ele>59</ele>
        <time>2022-02-28T14:16:53Z</time>
      </trkpt>
      <trkpt lat="47.14313" lon="-0.15881">
        <ele>59</ele>
        <time>2022-02-28T14:16:59Z</time>
      </trkpt>
      <trkpt lat="47.14404" lon="-0.15912">
        <ele>59</ele>
        <time>2022-02-28T14:17:16Z</time>
      </trkpt>
      <trkpt lat="47.1445" lon="-0.15938">
        <ele>59</ele>
        <time>2022-02-28T14:17:24Z</time>
      </trkpt>
      <trkpt lat="47.14542" lon="-0.16">
        <ele>59</ele>
        <time>2022-02-28T14:17:42Z</time>
      </trkpt>
      <trkpt lat="47.14585" lon="-0.16025">
        <ele>59</ele>
        <time>2022-02-28T14:17:51Z</time>
      </trkpt>
      <trkpt lat="47.1472" lon="-0.161">
        <ele>57</ele>
        <time>2022-02-28T14:18:16Z</time>
      </trkpt>
      <trkpt lat="47.14748" lon="-0.16126">
        <ele>57</ele>
        <time>2022-02-28T14:18:22Z</time>
      </trkpt>
      <trkpt lat="47.14801" lon="-0.16182">
        <ele>57</ele>
        <time>2022-02-28T14:18:34Z</time>
      </trkpt>
      <trkpt lat="47.14913" lon="-0.16266">
        <ele>58</ele>
        <time>2022-02-28T14:18:56Z</time>
      </trkpt>
      <trkpt lat="47.14978" lon="-0.16305">
        <ele>55</ele>
        <time>2022-02-28T14:19:09Z</time>
      </trkpt>
      <trkpt lat="47.15005" lon="-0.16314">
        <ele>53</ele>
        <time>2022-02-28T14:19:14Z</time>
      </trkpt>
      <trkpt lat="47.15051" lon="-0.16319">
        <ele>53</ele>
        <time>2022-02-28T14:19:22Z</time>
      </trkpt>
      <trkpt lat="47.15391" lon="-0.16294">
        <ele>50</ele>
        <time>2022-02-28T14:20:22Z</time>
      </trkpt>
      <trkpt lat="47.15439" lon="-0.16295">
        <ele>49</ele>
        <time>2022-02-28T14:20:31Z</time>
      </trkpt>
      <trkpt lat="47.15604" lon="-0.16313">
        <ele>48</ele>
        <time>2022-02-28T14:21:00Z</time>
      </trkpt>
      <trkpt lat="47.1568" lon="-0.16307">
        <ele>49</ele>
        <time>2022-02-28T14:21:14Z</time>
      </trkpt>
      <trkpt lat="47.15722" lon="-0.16299">
        <ele>51</ele>
        <time>2022-02-28T14:21:21Z</time>
      </trkpt>
      <trkpt lat="47.15869" lon="-0.1625">
        <ele>56</ele>
        <time>2022-02-28T14:21:48Z</time>
      </trkpt>
      <trkpt lat="47.15903" lon="-0.16241">
        <ele>59</ele>
        <time>2022-02-28T14:21:54Z</time>
      </trkpt>
      <trkpt lat="47.15919" lon="-0.16239">
        <ele>60</ele>
        <time>2022-02-28T14:21:57Z</time>
      </trkpt>
      <trkpt lat="47.16004" lon="-0.16251">
        <ele>61</ele>
        <time>2022-02-28T14:22:12Z</time>
      </trkpt>
      <trkpt lat="47.16034" lon="-0.16249">
        <ele>61</ele>
        <time>2022-02-28T14:22:18Z</time>
      </trkpt>
      <trkpt lat="47.16081" lon="-0.16224">
        <ele>60</ele>
        <time>2022-02-28T14:22:27Z</time>
      </trkpt>
      <trkpt lat="47.16109" lon="-0.16215">
        <ele>60</ele>
        <time>2022-02-28T14:22:32Z</time>
      </trkpt>
      <trkpt lat="47.16197" lon="-0.16195">
        <ele>58</ele>
        <time>2022-02-28T14:22:48Z</time>
      </trkpt>
      <trkpt lat="47.16218" lon="-0.16189">
        <ele>57</ele>
        <time>2022-02-28T14:22:51Z</time>
      </trkpt>
      <trkpt lat="47.16245" lon="-0.16176">
        <ele>56</ele>
        <time>2022-02-28T14:22:57Z</time>
      </trkpt>
      <trkpt lat="47.1636" lon="-0.16106">
        <ele>56</ele>
        <time>2022-02-28T14:23:19Z</time>
      </trkpt>
      <trkpt lat="47.16385" lon="-0.16097">
        <ele>57</ele>
        <time>2022-02-28T14:23:23Z</time>
      </trkpt>
      <trkpt lat="47.16403" lon="-0.16095">
        <ele>57</ele>
        <time>2022-02-28T14:23:26Z</time>
      </trkpt>
      <trkpt lat="47.16442" lon="-0.16095">
        <ele>56</ele>
        <time>2022-02-28T14:23:33Z</time>
      </trkpt>
      <trkpt lat="47.16537" lon="-0.16117">
        <ele>56</ele>
        <time>2022-02-28T14:23:51Z</time>
      </trkpt>
      <trkpt lat="47.16662" lon="-0.16151">
        <ele>56</ele>
        <time>2022-02-28T14:24:13Z</time>
      </trkpt>
      <trkpt lat="47.16764" lon="-0.16184">
        <ele>54</ele>
        <time>2022-02-28T14:24:32Z</time>
      </trkpt>
      <trkpt lat="47.16783" lon="-0.16195">
        <ele>53</ele>
        <time>2022-02-28T14:24:35Z</time>
      </trkpt>
      <trkpt lat="47.168" lon="-0.16211">
        <ele>53</ele>
        <time>2022-02-28T14:24:39Z</time>
      </trkpt>
      <trkpt lat="47.16835" lon="-0.16256">
        <ele>54</ele>
        <time>2022-02-28T14:24:47Z</time>
      </trkpt>
      <trkpt lat="47.16882" lon="-0.16304">
        <ele>53</ele>
        <time>2022-02-28T14:24:57Z</time>
      </trkpt>
      <trkpt lat="47.16907" lon="-0.16323">
        <ele>53</ele>
        <time>2022-02-28T14:25:02Z</time>
      </trkpt>
      <trkpt lat="47.16961" lon="-0.16356">
        <ele>54</ele>
        <time>2022-02-28T14:25:13Z</time>
      </trkpt>
      <trkpt lat="47.16995" lon="-0.16367">
        <ele>55</ele>
        <time>2022-02-28T14:25:19Z</time>
      </trkpt>
      <trkpt lat="47.17038" lon="-0.16375">
        <ele>57</ele>
        <time>2022-02-28T14:25:27Z</time>
      </trkpt>
      <trkpt lat="47.17145" lon="-0.16381">
        <ele>58</ele>
        <time>2022-02-28T14:25:46Z</time>
      </trkpt>
      <trkpt lat="47.17185" lon="-0.16378">
        <ele>56</ele>
        <time>2022-02-28T14:25:53Z</time>
      </trkpt>
      <trkpt lat="47.17311" lon="-0.1636">
        <ele>51</ele>
        <time>2022-02-28T14:26:15Z</time>
      </trkpt>
      <trkpt lat="47.17347" lon="-0.16363">
        <ele>51</ele>
        <time>2022-02-28T14:26:22Z</time>
      </trkpt>
      <trkpt lat="47.17373" lon="-0.1637">
        <ele>50</ele>
        <time>2022-02-28T14:26:27Z</time>
      </trkpt>
      <trkpt lat="47.17461" lon="-0.1641">
        <ele>49</ele>
        <time>2022-02-28T14:26:43Z</time>
      </trkpt>
      <trkpt lat="47.17501" lon="-0.16425">
        <ele>49</ele>
        <time>2022-02-28T14:26:50Z</time>
      </trkpt>
      <trkpt lat="47.17593" lon="-0.16452">
        <ele>48</ele>
        <time>2022-02-28T14:27:07Z</time>
      </trkpt>
      <trkpt lat="47.1762" lon="-0.16468">
        <ele>48</ele>
        <time>2022-02-28T14:27:12Z</time>
      </trkpt>
      <trkpt lat="47.17714" lon="-0.16551">
        <ele>48</ele>
        <time>2022-02-28T14:27:32Z</time>
      </trkpt>
      <trkpt lat="47.17801" lon="-0.16617">
        <ele>46</ele>
        <time>2022-02-28T14:27:49Z</time>
      </trkpt>
      <trkpt lat="47.17816" lon="-0.16622">
        <ele>45</ele>
        <time>2022-02-28T14:27:52Z</time>
      </trkpt>
      <trkpt lat="47.1784" lon="-0.1662">
        <ele>45</ele>
        <time>2022-02-28T14:27:56Z</time>
      </trkpt>
      <trkpt lat="47.17857" lon="-0.16611">
        <ele>45</ele>
        <time>2022-02-28T14:27:59Z</time>
      </trkpt>
      <trkpt lat="47.17948" lon="-0.16544">
        <ele>44</ele>
        <time>2022-02-28T14:28:17Z</time>
      </trkpt>
      <trkpt lat="47.17964" lon="-0.16537">
        <ele>44</ele>
        <time>2022-02-28T14:28:20Z</time>
      </trkpt>
      <trkpt lat="47.17973" lon="-0.16536">
        <ele>44</ele>
        <time>2022-02-28T14:28:22Z</time>
      </trkpt>
      <trkpt lat="47.18083" lon="-0.16555">
        <ele>44</ele>
        <time>2022-02-28T14:28:42Z</time>
      </trkpt>
      <trkpt lat="47.18113" lon="-0.16553">
        <ele>44</ele>
        <time>2022-02-28T14:28:47Z</time>
      </trkpt>
      <trkpt lat="47.1813" lon="-0.16556">
        <ele>44</ele>
        <time>2022-02-28T14:28:50Z</time>
      </trkpt>
      <trkpt lat="47.18144" lon="-0.16563">
        <ele>44</ele>
        <time>2022-02-28T14:28:53Z</time>
      </trkpt>
      <trkpt lat="47.18187" lon="-0.16591">
        <ele>44</ele>
        <time>2022-02-28T14:29:01Z</time>
      </trkpt>
      <trkpt lat="47.18212" lon="-0.1663">
        <ele>44</ele>
        <time>2022-02-28T14:29:08Z</time>
      </trkpt>
      <trkpt lat="47.18252" lon="-0.16665">
        <ele>43</ele>
        <time>2022-02-28T14:29:16Z</time>
      </trkpt>
      <trkpt lat="47.18349" lon="-0.16725">
        <ele>44</ele>
        <time>2022-02-28T14:29:35Z</time>
      </trkpt>
      <trkpt lat="47.18358" lon="-0.16729">
        <ele>44</ele>
        <time>2022-02-28T14:29:36Z</time>
      </trkpt>
      <trkpt lat="47.18387" lon="-0.1673">
        <ele>45</ele>
        <time>2022-02-28T14:29:41Z</time>
      </trkpt>
      <trkpt lat="47.18521" lon="-0.1671">
        <ele>45</ele>
        <time>2022-02-28T14:30:05Z</time>
      </trkpt>
      <trkpt lat="47.18606" lon="-0.16702">
        <ele>44</ele>
        <time>2022-02-28T14:30:21Z</time>
      </trkpt>
      <trkpt lat="47.18658" lon="-0.1671">
        <ele>43</ele>
        <time>2022-02-28T14:30:30Z</time>
      </trkpt>
      <trkpt lat="47.18684" lon="-0.16717">
        <ele>42</ele>
        <time>2022-02-28T14:30:35Z</time>
      </trkpt>
      <trkpt lat="47.18866" lon="-0.16783">
        <ele>42</ele>
        <time>2022-02-28T14:31:08Z</time>
      </trkpt>
      <trkpt lat="47.18935" lon="-0.16796">
        <ele>43</ele>
        <time>2022-02-28T14:31:20Z</time>
      </trkpt>
      <trkpt lat="47.18943" lon="-0.16794">
        <ele>44</ele>
        <time>2022-02-28T14:31:22Z</time>
      </trkpt>
      <trkpt lat="47.18949" lon="-0.16788">
        <ele>44</ele>
        <time>2022-02-28T14:31:23Z</time>
      </trkpt>
      <trkpt lat="47.19005" lon="-0.16672">
        <ele>45</ele>
        <time>2022-02-28T14:31:40Z</time>
      </trkpt>
      <trkpt lat="47.19008" lon="-0.16659">
        <ele>45</ele>
        <time>2022-02-28T14:31:42Z</time>
      </trkpt>
      <trkpt lat="47.19009" lon="-0.16643">
        <ele>45</ele>
        <time>2022-02-28T14:31:44Z</time>
      </trkpt>
      <trkpt lat="47.19003" lon="-0.16584">
        <ele>44</ele>
        <time>2022-02-28T14:31:51Z</time>
      </trkpt>
      <trkpt lat="47.19003" lon="-0.16524">
        <ele>44</ele>
        <time>2022-02-28T14:31:58Z</time>
      </trkpt>
      <trkpt lat="47.19007" lon="-0.16505">
        <ele>44</ele>
        <time>2022-02-28T14:32:01Z</time>
      </trkpt>
      <trkpt lat="47.19016" lon="-0.16492">
        <ele>44</ele>
        <time>2022-02-28T14:32:03Z</time>
      </trkpt>
      <trkpt lat="47.19053" lon="-0.16469">
        <ele>44</ele>
        <time>2022-02-28T14:32:10Z</time>
      </trkpt>
      <trkpt lat="47.19067" lon="-0.16462">
        <ele>44</ele>
        <time>2022-02-28T14:32:13Z</time>
      </trkpt>
      <trkpt lat="47.19177" lon="-0.16458">
        <ele>47</ele>
        <time>2022-02-28T14:32:32Z</time>
      </trkpt>
      <trkpt lat="47.19205" lon="-0.1646">
        <ele>48</ele>
        <time>2022-02-28T14:32:37Z</time>
      </trkpt>
      <trkpt lat="47.19243" lon="-0.16468">
        <ele>49</ele>
        <time>2022-02-28T14:32:44Z</time>
      </trkpt>
      <trkpt lat="47.19315" lon="-0.16488">
        <ele>51</ele>
        <time>2022-02-28T14:32:57Z</time>
      </trkpt>
      <trkpt lat="47.19381" lon="-0.16514">
        <ele>53</ele>
        <time>2022-02-28T14:33:09Z</time>
      </trkpt>
      <trkpt lat="47.19408" lon="-0.16528">
        <ele>53</ele>
        <time>2022-02-28T14:33:14Z</time>
      </trkpt>
      <trkpt lat="47.19456" lon="-0.16561">
        <ele>53</ele>
        <time>2022-02-28T14:33:24Z</time>
      </trkpt>
      <trkpt lat="47.19508" lon="-0.16591">
        <ele>53</ele>
        <time>2022-02-28T14:33:34Z</time>
      </trkpt>
      <trkpt lat="47.19553" lon="-0.16622">
        <ele>54</ele>
        <time>2022-02-28T14:33:43Z</time>
      </trkpt>
      <trkpt lat="47.19669" lon="-0.16695">
        <ele>54</ele>
        <time>2022-02-28T14:34:05Z</time>
      </trkpt>
      <trkpt lat="47.19683" lon="-0.167">
        <ele>54</ele>
        <time>2022-02-28T14:34:08Z</time>
      </trkpt>
      <trkpt lat="47.19714" lon="-0.16707">
        <ele>55</ele>
        <time>2022-02-28T14:34:13Z</time>
      </trkpt>
      <trkpt lat="47.19739" lon="-0.16708">
        <ele>56</ele>
        <time>2022-02-28T14:34:18Z</time>
      </trkpt>
      <trkpt lat="47.19773" lon="-0.16706">
        <ele>56</ele>
        <time>2022-02-28T14:34:24Z</time>
      </trkpt>
      <trkpt lat="47.19831" lon="-0.16707">
        <ele>56</ele>
        <time>2022-02-28T14:34:34Z</time>
      </trkpt>
      <trkpt lat="47.19918" lon="-0.16737">
        <ele>56</ele>
        <time>2022-02-28T14:34:50Z</time>
      </trkpt>
      <trkpt lat="47.19926" lon="-0.16743">
        <ele>56</ele>
        <time>2022-02-28T14:34:51Z</time>
      </trkpt>
      <trkpt lat="47.19939" lon="-0.16759">
        <ele>57</ele>
        <time>2022-02-28T14:34:55Z</time>
      </trkpt>
      <trkpt lat="47.19943" lon="-0.16772">
        <ele>57</ele>
        <time>2022-02-28T14:34:56Z</time>
      </trkpt>
      <trkpt lat="47.19952" lon="-0.16824">
        <ele>58</ele>
        <time>2022-02-28T14:35:03Z</time>
      </trkpt>
      <trkpt lat="47.19961" lon="-0.16845">
        <ele>59</ele>
        <time>2022-02-28T14:35:06Z</time>
      </trkpt>
      <trkpt lat="47.19974" lon="-0.16858">
        <ele>60</ele>
        <time>2022-02-28T14:35:09Z</time>
      </trkpt>
      <trkpt lat="47.20035" lon="-0.16889">
        <ele>62</ele>
        <time>2022-02-28T14:35:20Z</time>
      </trkpt>
      <trkpt lat="47.20062" lon="-0.16896">
        <ele>62</ele>
        <time>2022-02-28T14:35:25Z</time>
      </trkpt>
      <trkpt lat="47.20066" lon="-0.16934">
        <ele>63</ele>
        <time>2022-02-28T14:35:30Z</time>
      </trkpt>
      <trkpt lat="47.20153" lon="-0.16956">
        <ele>63</ele>
        <time>2022-02-28T14:35:45Z</time>
      </trkpt>
      <trkpt lat="47.20205" lon="-0.16972">
        <ele>63</ele>
        <time>2022-02-28T14:35:55Z</time>
      </trkpt>
      <trkpt lat="47.20222" lon="-0.16983">
        <ele>64</ele>
        <time>2022-02-28T14:35:58Z</time>
      </trkpt>
      <trkpt lat="47.2024" lon="-0.17006">
        <ele>65</ele>
        <time>2022-02-28T14:36:02Z</time>
      </trkpt>
      <trkpt lat="47.20254" lon="-0.17042">
        <ele>65</ele>
        <time>2022-02-28T14:36:07Z</time>
      </trkpt>
      <trkpt lat="47.20273" lon="-0.17111">
        <ele>65</ele>
        <time>2022-02-28T14:36:16Z</time>
      </trkpt>
      <trkpt lat="47.20286" lon="-0.17169">
        <ele>66</ele>
        <time>2022-02-28T14:36:24Z</time>
      </trkpt>
      <trkpt lat="47.20292" lon="-0.17188">
        <ele>65</ele>
        <time>2022-02-28T14:36:26Z</time>
      </trkpt>
      <trkpt lat="47.20307" lon="-0.17212">
        <ele>65</ele>
        <time>2022-02-28T14:36:30Z</time>
      </trkpt>
      <trkpt lat="47.20335" lon="-0.1723">
        <ele>65</ele>
        <time>2022-02-28T14:36:36Z</time>
      </trkpt>
      <trkpt lat="47.20465" lon="-0.17296">
        <ele>64</ele>
        <time>2022-02-28T14:37:00Z</time>
      </trkpt>
      <trkpt lat="47.20526" lon="-0.17335">
        <ele>62</ele>
        <time>2022-02-28T14:37:12Z</time>
      </trkpt>
      <trkpt lat="47.20547" lon="-0.17357">
        <ele>62</ele>
        <time>2022-02-28T14:37:16Z</time>
      </trkpt>
      <trkpt lat="47.20554" lon="-0.17365">
        <ele>62</ele>
        <time>2022-02-28T14:37:18Z</time>
      </trkpt>
      <trkpt lat="47.2057" lon="-0.17396">
        <ele>63</ele>
        <time>2022-02-28T14:37:23Z</time>
      </trkpt>
      <trkpt lat="47.20608" lon="-0.1752">
        <ele>63</ele>
        <time>2022-02-28T14:37:39Z</time>
      </trkpt>
      <trkpt lat="47.20674" lon="-0.17656">
        <ele>59</ele>
        <time>2022-02-28T14:37:59Z</time>
      </trkpt>
      <trkpt lat="47.20697" lon="-0.17682">
        <ele>57</ele>
        <time>2022-02-28T14:38:05Z</time>
      </trkpt>
      <trkpt lat="47.20815" lon="-0.17782">
        <ele>59</ele>
        <time>2022-02-28T14:38:29Z</time>
      </trkpt>
      <trkpt lat="47.20868" lon="-0.17836">
        <ele>63</ele>
        <time>2022-02-28T14:38:40Z</time>
      </trkpt>
      <trkpt lat="47.20934" lon="-0.17894">
        <ele>63</ele>
        <time>2022-02-28T14:38:54Z</time>
      </trkpt>
      <trkpt lat="47.20956" lon="-0.17909">
        <ele>63</ele>
        <time>2022-02-28T14:38:58Z</time>
      </trkpt>
      <trkpt lat="47.21102" lon="-0.17952">
        <ele>65</ele>
        <time>2022-02-28T14:39:25Z</time>
      </trkpt>
      <trkpt lat="47.21142" lon="-0.17968">
        <ele>65</ele>
        <time>2022-02-28T14:39:32Z</time>
      </trkpt>
      <trkpt lat="47.21168" lon="-0.17982">
        <ele>64</ele>
        <time>2022-02-28T14:39:37Z</time>
      </trkpt>
      <trkpt lat="47.21182" lon="-0.17984">
        <ele>64</ele>
        <time>2022-02-28T14:39:39Z</time>
      </trkpt>
      <trkpt lat="47.21196" lon="-0.17981">
        <ele>64</ele>
        <time>2022-02-28T14:39:42Z</time>
      </trkpt>
      <trkpt lat="47.21211" lon="-0.17975">
        <ele>64</ele>
        <time>2022-02-28T14:39:45Z</time>
      </trkpt>
      <trkpt lat="47.21259" lon="-0.17947">
        <ele>64</ele>
        <time>2022-02-28T14:39:54Z</time>
      </trkpt>
      <trkpt lat="47.21266" lon="-0.17935">
        <ele>64</ele>
        <time>2022-02-28T14:39:56Z</time>
      </trkpt>
      <trkpt lat="47.21356" lon="-0.17672">
        <ele>63</ele>
        <time>2022-02-28T14:40:31Z</time>
      </trkpt>
      <trkpt lat="47.21372" lon="-0.17633">
        <ele>63</ele>
        <time>2022-02-28T14:40:37Z</time>
      </trkpt>
      <trkpt lat="47.21371" lon="-0.17625">
        <ele>63</ele>
        <time>2022-02-28T14:40:38Z</time>
      </trkpt>
      <trkpt lat="47.21373" lon="-0.17618">
        <ele>63</ele>
        <time>2022-02-28T14:40:39Z</time>
      </trkpt>
      <trkpt lat="47.21376" lon="-0.17611">
        <ele>62</ele>
        <time>2022-02-28T14:40:40Z</time>
      </trkpt>
      <trkpt lat="47.21381" lon="-0.17607">
        <ele>62</ele>
        <time>2022-02-28T14:40:41Z</time>
      </trkpt>
      <trkpt lat="47.21385" lon="-0.17605">
        <ele>62</ele>
        <time>2022-02-28T14:40:42Z</time>
      </trkpt>
      <trkpt lat="47.21393" lon="-0.17607">
        <ele>62</ele>
        <time>2022-02-28T14:40:43Z</time>
      </trkpt>
      <trkpt lat="47.21398" lon="-0.17614">
        <ele>62</ele>
        <time>2022-02-28T14:40:44Z</time>
      </trkpt>
      <trkpt lat="47.21412" lon="-0.17617">
        <ele>62</ele>
        <time>2022-02-28T14:40:47Z</time>
      </trkpt>
      <trkpt lat="47.21426" lon="-0.17614">
        <ele>62</ele>
        <time>2022-02-28T14:40:49Z</time>
      </trkpt>
      <trkpt lat="47.2145" lon="-0.17621">
        <ele>61</ele>
        <time>2022-02-28T14:40:54Z</time>
      </trkpt>
      <trkpt lat="47.21474" lon="-0.17633">
        <ele>61</ele>
        <time>2022-02-28T14:40:58Z</time>
      </trkpt>
      <trkpt lat="47.21508" lon="-0.17656">
        <ele>60</ele>
        <time>2022-02-28T14:41:05Z</time>
      </trkpt>
      <trkpt lat="47.21522" lon="-0.17664">
        <ele>59</ele>
        <time>2022-02-28T14:41:08Z</time>
      </trkpt>
      <trkpt lat="47.21532" lon="-0.17666">
        <ele>59</ele>
        <time>2022-02-28T14:41:09Z</time>
      </trkpt>
      <trkpt lat="47.21543" lon="-0.17664">
        <ele>59</ele>
        <time>2022-02-28T14:41:11Z</time>
      </trkpt>
      <trkpt lat="47.21552" lon="-0.17658">
        <ele>58</ele>
        <time>2022-02-28T14:41:13Z</time>
      </trkpt>
      <trkpt lat="47.21572" lon="-0.17638">
        <ele>58</ele>
        <time>2022-02-28T14:41:17Z</time>
      </trkpt>
      <trkpt lat="47.21597" lon="-0.17608">
        <ele>58</ele>
        <time>2022-02-28T14:41:23Z</time>
      </trkpt>
      <trkpt lat="47.21657" lon="-0.17519">
        <ele>58</ele>
        <time>2022-02-28T14:41:38Z</time>
      </trkpt>
      <trkpt lat="47.21684" lon="-0.1749">
        <ele>58</ele>
        <time>2022-02-28T14:41:44Z</time>
      </trkpt>
      <trkpt lat="47.21726" lon="-0.17457">
        <ele>57</ele>
        <time>2022-02-28T14:41:53Z</time>
      </trkpt>
      <trkpt lat="47.21754" lon="-0.17438">
        <ele>56</ele>
        <time>2022-02-28T14:41:58Z</time>
      </trkpt>
      <trkpt lat="47.21778" lon="-0.17428">
        <ele>55</ele>
        <time>2022-02-28T14:42:03Z</time>
      </trkpt>
      <trkpt lat="47.21799" lon="-0.17423">
        <ele>55</ele>
        <time>2022-02-28T14:42:06Z</time>
      </trkpt>
      <trkpt lat="47.21811" lon="-0.17423">
        <ele>54</ele>
        <time>2022-02-28T14:42:09Z</time>
      </trkpt>
      <trkpt lat="47.21821" lon="-0.17428">
        <ele>54</ele>
        <time>2022-02-28T14:42:10Z</time>
      </trkpt>
      <trkpt lat="47.21826" lon="-0.17416">
        <ele>54</ele>
        <time>2022-02-28T14:42:12Z</time>
      </trkpt>
      <trkpt lat="47.2187" lon="-0.17349">
        <ele>55</ele>
        <time>2022-02-28T14:42:23Z</time>
      </trkpt>
      <trkpt lat="47.21876" lon="-0.17332">
        <ele>56</ele>
        <time>2022-02-28T14:42:26Z</time>
      </trkpt>
      <trkpt lat="47.21877" lon="-0.17317">
        <ele>56</ele>
        <time>2022-02-28T14:42:28Z</time>
      </trkpt>
      <trkpt lat="47.21864" lon="-0.1726">
        <ele>57</ele>
        <time>2022-02-28T14:42:35Z</time>
      </trkpt>
      <trkpt lat="47.21862" lon="-0.17244">
        <ele>57</ele>
        <time>2022-02-28T14:42:37Z</time>
      </trkpt>
      <trkpt lat="47.21868" lon="-0.17205">
        <ele>56</ele>
        <time>2022-02-28T14:42:42Z</time>
      </trkpt>
      <trkpt lat="47.21895" lon="-0.17053">
        <ele>53</ele>
        <time>2022-02-28T14:43:01Z</time>
      </trkpt>
      <trkpt lat="47.21908" lon="-0.17009">
        <ele>52</ele>
        <time>2022-02-28T14:43:06Z</time>
      </trkpt>
      <trkpt lat="47.2192" lon="-0.16981">
        <ele>51</ele>
        <time>2022-02-28T14:43:10Z</time>
      </trkpt>
      <trkpt lat="47.21987" lon="-0.16846">
        <ele>48</ele>
        <time>2022-02-28T14:43:31Z</time>
      </trkpt>
      <trkpt lat="47.21998" lon="-0.16819">
        <ele>48</ele>
        <time>2022-02-28T14:43:34Z</time>
      </trkpt>
      <trkpt lat="47.22002" lon="-0.1682">
        <ele>48</ele>
        <time>2022-02-28T14:43:35Z</time>
      </trkpt>
      <trkpt lat="47.22013" lon="-0.16819">
        <ele>48</ele>
        <time>2022-02-28T14:43:37Z</time>
      </trkpt>
      <trkpt lat="47.2203" lon="-0.16806">
        <ele>47</ele>
        <time>2022-02-28T14:43:40Z</time>
      </trkpt>
      <trkpt lat="47.22047" lon="-0.1678">
        <ele>47</ele>
        <time>2022-02-28T14:43:45Z</time>
      </trkpt>
      <trkpt lat="47.22089" lon="-0.16724">
        <ele>47</ele>
        <time>2022-02-28T14:43:55Z</time>
      </trkpt>
      <trkpt lat="47.22133" lon="-0.16671">
        <ele>45</ele>
        <time>2022-02-28T14:44:05Z</time>
      </trkpt>
      <trkpt lat="47.2218" lon="-0.16622">
        <ele>45</ele>
        <time>2022-02-28T14:44:15Z</time>
      </trkpt>
      <trkpt lat="47.22245" lon="-0.16562">
        <ele>43</ele>
        <time>2022-02-28T14:44:29Z</time>
      </trkpt>
      <trkpt lat="47.2234" lon="-0.16465">
        <ele>43</ele>
        <time>2022-02-28T14:44:49Z</time>
      </trkpt>
      <trkpt lat="47.22356" lon="-0.16452">
        <ele>43</ele>
        <time>2022-02-28T14:44:53Z</time>
      </trkpt>
      <trkpt lat="47.22385" lon="-0.1644">
        <ele>43</ele>
        <time>2022-02-28T14:44:58Z</time>
      </trkpt>
      <trkpt lat="47.2241" lon="-0.16435">
        <ele>44</ele>
        <time>2022-02-28T14:45:03Z</time>
      </trkpt>
      <trkpt lat="47.22436" lon="-0.16434">
        <ele>43</ele>
        <time>2022-02-28T14:45:07Z</time>
      </trkpt>
      <trkpt lat="47.22488" lon="-0.16437">
        <ele>42</ele>
        <time>2022-02-28T14:45:16Z</time>
      </trkpt>
      <trkpt lat="47.22531" lon="-0.16436">
        <ele>42</ele>
        <time>2022-02-28T14:45:24Z</time>
      </trkpt>
      <trkpt lat="47.22616" lon="-0.16425">
        <ele>41</ele>
        <time>2022-02-28T14:45:39Z</time>
      </trkpt>
      <trkpt lat="47.22719" lon="-0.16415">
        <ele>42</ele>
        <time>2022-02-28T14:45:58Z</time>
      </trkpt>
      <trkpt lat="47.22857" lon="-0.16412">
        <ele>43</ele>
        <time>2022-02-28T14:46:22Z</time>
      </trkpt>
      <trkpt lat="47.22992" lon="-0.16417">
        <ele>45</ele>
        <time>2022-02-28T14:46:46Z</time>
      </trkpt>
      <trkpt lat="47.23003" lon="-0.16405">
        <ele>45</ele>
        <time>2022-02-28T14:46:49Z</time>
      </trkpt>
      <trkpt lat="47.23364" lon="-0.16474">
        <ele>39</ele>
        <time>2022-02-28T14:47:53Z</time>
      </trkpt>
      <trkpt lat="47.23435" lon="-0.16486">
        <ele>40</ele>
        <time>2022-02-28T14:48:06Z</time>
      </trkpt>
      <trkpt lat="47.23454" lon="-0.16378">
        <ele>40</ele>
        <time>2022-02-28T14:48:20Z</time>
      </trkpt>
      <trkpt lat="47.23461" lon="-0.16299">
        <ele>40</ele>
        <time>2022-02-28T14:48:29Z</time>
      </trkpt>
      <trkpt lat="47.23469" lon="-0.16258">
        <ele>40</ele>
        <time>2022-02-28T14:48:34Z</time>
      </trkpt>
      <trkpt lat="47.23466" lon="-0.16253">
        <ele>40</ele>
        <time>2022-02-28T14:48:35Z</time>
      </trkpt>
      <trkpt lat="47.23466" lon="-0.16247">
        <ele>40</ele>
        <time>2022-02-28T14:48:36Z</time>
      </trkpt>
      <trkpt lat="47.23468" lon="-0.16242">
        <ele>41</ele>
        <time>2022-02-28T14:48:37Z</time>
      </trkpt>
      <trkpt lat="47.23473" lon="-0.1624">
        <ele>41</ele>
        <time>2022-02-28T14:48:38Z</time>
      </trkpt>
      <trkpt lat="47.23475" lon="-0.16241">
        <ele>41</ele>
        <time>2022-02-28T14:48:38Z</time>
      </trkpt>
      <trkpt lat="47.23479" lon="-0.16247">
        <ele>41</ele>
        <time>2022-02-28T14:48:39Z</time>
      </trkpt>
      <trkpt lat="47.23507" lon="-0.16222">
        <ele>43</ele>
        <time>2022-02-28T14:48:45Z</time>
      </trkpt>
      <trkpt lat="47.23544" lon="-0.16198">
        <ele>45</ele>
        <time>2022-02-28T14:48:52Z</time>
      </trkpt>
      <trkpt lat="47.23567" lon="-0.16179">
        <ele>46</ele>
        <time>2022-02-28T14:48:57Z</time>
      </trkpt>
      <trkpt lat="47.23586" lon="-0.1615">
        <ele>47</ele>
        <time>2022-02-28T14:49:02Z</time>
      </trkpt>
      <trkpt lat="47.23601" lon="-0.16114">
        <ele>49</ele>
        <time>2022-02-28T14:49:07Z</time>
      </trkpt>
      <trkpt lat="47.23613" lon="-0.16092">
        <ele>49</ele>
        <time>2022-02-28T14:49:10Z</time>
      </trkpt>
      <trkpt lat="47.23633" lon="-0.16068">
        <ele>50</ele>
        <time>2022-02-28T14:49:15Z</time>
      </trkpt>
      <trkpt lat="47.23645" lon="-0.16046">
        <ele>51</ele>
        <time>2022-02-28T14:49:18Z</time>
      </trkpt>
      <trkpt lat="47.23676" lon="-0.15968">
        <ele>52</ele>
        <time>2022-02-28T14:49:29Z</time>
      </trkpt>
      <trkpt lat="47.23682" lon="-0.15977">
        <ele>52</ele>
        <time>2022-02-28T14:49:31Z</time>
      </trkpt>
      <trkpt lat="47.23742" lon="-0.16041">
        <ele>54</ele>
        <time>2022-02-28T14:49:44Z</time>
      </trkpt>
      <trkpt lat="47.23789" lon="-0.16105">
        <ele>55</ele>
        <time>2022-02-28T14:49:55Z</time>
      </trkpt>
      <trkpt lat="47.23832" lon="-0.16155">
        <ele>55</ele>
        <time>2022-02-28T14:50:05Z</time>
      </trkpt>
      <trkpt lat="47.23846" lon="-0.16175">
        <ele>55</ele>
        <time>2022-02-28T14:50:08Z</time>
      </trkpt>
      <trkpt lat="47.23877" lon="-0.16224">
        <ele>56</ele>
        <time>2022-02-28T14:50:16Z</time>
      </trkpt>
      <trkpt lat="47.23908" lon="-0.16276">
        <ele>57</ele>
        <time>2022-02-28T14:50:25Z</time>
      </trkpt>
      <trkpt lat="47.2397" lon="-0.16388">
        <ele>58</ele>
        <time>2022-02-28T14:50:42Z</time>
      </trkpt>
      <trkpt lat="47.24021" lon="-0.16536">
        <ele>60</ele>
        <time>2022-02-28T14:51:02Z</time>
      </trkpt>
      <trkpt lat="47.24038" lon="-0.1656">
        <ele>62</ele>
        <time>2022-02-28T14:51:06Z</time>
      </trkpt>
      <trkpt lat="47.24071" lon="-0.1658">
        <ele>64</ele>
        <time>2022-02-28T14:51:13Z</time>
      </trkpt>
      <trkpt lat="47.24151" lon="-0.1662">
        <ele>65</ele>
        <time>2022-02-28T14:51:28Z</time>
      </trkpt>
      <trkpt lat="47.24177" lon="-0.16629">
        <ele>65</ele>
        <time>2022-02-28T14:51:33Z</time>
      </trkpt>
      <trkpt lat="47.24247" lon="-0.1664">
        <ele>67</ele>
        <time>2022-02-28T14:51:45Z</time>
      </trkpt>
      <trkpt lat="47.24378" lon="-0.16678">
        <ele>72</ele>
        <time>2022-02-28T14:52:09Z</time>
      </trkpt>
      <trkpt lat="47.24483" lon="-0.16649">
        <ele>72</ele>
        <time>2022-02-28T14:52:28Z</time>
      </trkpt>
      <trkpt lat="47.24511" lon="-0.16646">
        <ele>71</ele>
        <time>2022-02-28T14:52:33Z</time>
      </trkpt>
      <trkpt lat="47.24655" lon="-0.16677">
        <ele>70</ele>
        <time>2022-02-28T14:52:59Z</time>
      </trkpt>
      <trkpt lat="47.24854" lon="-0.16673">
        <ele>75</ele>
        <time>2022-02-28T14:53:34Z</time>
      </trkpt>
      <trkpt lat="47.2501" lon="-0.16618">
        <ele>77</ele>
        <time>2022-02-28T14:54:03Z</time>
      </trkpt>
      <trkpt lat="47.25133" lon="-0.16644">
        <ele>77</ele>
        <time>2022-02-28T14:54:25Z</time>
      </trkpt>
      <trkpt lat="47.25261" lon="-0.16628">
        <ele>77</ele>
        <time>2022-02-28T14:54:48Z</time>
      </trkpt>
      <trkpt lat="47.25394" lon="-0.16634">
        <ele>77</ele>
        <time>2022-02-28T14:55:11Z</time>
      </trkpt>
      <trkpt lat="47.25496" lon="-0.1662">
        <ele>76</ele>
        <time>2022-02-28T14:55:30Z</time>
      </trkpt>
      <trkpt lat="47.26138" lon="-0.16557">
        <ele>74</ele>
        <time>2022-02-28T14:57:24Z</time>
      </trkpt>
      <trkpt lat="47.26163" lon="-0.16554">
        <ele>74</ele>
        <time>2022-02-28T14:57:29Z</time>
      </trkpt>
      <trkpt lat="47.2617" lon="-0.16546">
        <ele>73</ele>
        <time>2022-02-28T14:57:30Z</time>
      </trkpt>
      <trkpt lat="47.26181" lon="-0.16548">
        <ele>73</ele>
        <time>2022-02-28T14:57:32Z</time>
      </trkpt>
      <trkpt lat="47.26217" lon="-0.16539">
        <ele>71</ele>
        <time>2022-02-28T14:57:39Z</time>
      </trkpt>
      <trkpt lat="47.26228" lon="-0.16539">
        <ele>70</ele>
        <time>2022-02-28T14:57:41Z</time>
      </trkpt>
      <trkpt lat="47.26246" lon="-0.16545">
        <ele>70</ele>
        <time>2022-02-28T14:57:44Z</time>
      </trkpt>
      <trkpt lat="47.26258" lon="-0.16553">
        <ele>70</ele>
        <time>2022-02-28T14:57:46Z</time>
      </trkpt>
      <trkpt lat="47.26283" lon="-0.16577">
        <ele>70</ele>
        <time>2022-02-28T14:57:51Z</time>
      </trkpt>
      <trkpt lat="47.263" lon="-0.16589">
        <ele>70</ele>
        <time>2022-02-28T14:57:55Z</time>
      </trkpt>
      <trkpt lat="47.26363" lon="-0.16617">
        <ele>69</ele>
        <time>2022-02-28T14:58:07Z</time>
      </trkpt>
      <trkpt lat="47.26377" lon="-0.16627">
        <ele>69</ele>
        <time>2022-02-28T14:58:09Z</time>
      </trkpt>
      <trkpt lat="47.26747" lon="-0.17026">
        <ele>80</ele>
        <time>2022-02-28T14:59:31Z</time>
      </trkpt>
      <trkpt lat="47.26773" lon="-0.17057">
        <ele>79</ele>
        <time>2022-02-28T14:59:37Z</time>
      </trkpt>
      <trkpt lat="47.26786" lon="-0.17077">
        <ele>78</ele>
        <time>2022-02-28T14:59:40Z</time>
      </trkpt>
      <trkpt lat="47.26791" lon="-0.17086">
        <ele>78</ele>
        <time>2022-02-28T14:59:42Z</time>
      </trkpt>
      <trkpt lat="47.26796" lon="-0.17105">
        <ele>77</ele>
        <time>2022-02-28T14:59:44Z</time>
      </trkpt>
      <trkpt lat="47.26797" lon="-0.17117">
        <ele>76</ele>
        <time>2022-02-28T14:59:45Z</time>
      </trkpt>
      <trkpt lat="47.26803" lon="-0.17258">
        <ele>75</ele>
        <time>2022-02-28T15:00:03Z</time>
      </trkpt>
      <trkpt lat="47.26806" lon="-0.17275">
        <ele>75</ele>
        <time>2022-02-28T15:00:05Z</time>
      </trkpt>
      <trkpt lat="47.26809" lon="-0.17285">
        <ele>75</ele>
        <time>2022-02-28T15:00:06Z</time>
      </trkpt>
      <trkpt lat="47.26813" lon="-0.1729">
        <ele>75</ele>
        <time>2022-02-28T15:00:07Z</time>
      </trkpt>
      <trkpt lat="47.26806" lon="-0.17316">
        <ele>76</ele>
        <time>2022-02-28T15:00:10Z</time>
      </trkpt>
      <trkpt lat="47.26813" lon="-0.17496">
        <ele>76</ele>
        <time>2022-02-28T15:00:32Z</time>
      </trkpt>
      <trkpt lat="47.26823" lon="-0.17835">
        <ele>75</ele>
        <time>2022-02-28T15:01:13Z</time>
      </trkpt>
      <trkpt lat="47.26817" lon="-0.17935">
        <ele>75</ele>
        <time>2022-02-28T15:01:25Z</time>
      </trkpt>
      <trkpt lat="47.26801" lon="-0.18149">
        <ele>76</ele>
        <time>2022-02-28T15:01:51Z</time>
      </trkpt>
      <trkpt lat="47.26794" lon="-0.1885">
        <ele>79</ele>
        <time>2022-02-28T15:03:16Z</time>
      </trkpt>
      <trkpt lat="47.26792" lon="-0.18876">
        <ele>79</ele>
        <time>2022-02-28T15:03:19Z</time>
      </trkpt>
      <trkpt lat="47.26785" lon="-0.18904">
        <ele>79</ele>
        <time>2022-02-28T15:03:23Z</time>
      </trkpt>
      <trkpt lat="47.26783" lon="-0.18911">
        <ele>79</ele>
        <time>2022-02-28T15:03:23Z</time>
      </trkpt>
      <trkpt lat="47.26751" lon="-0.18962">
        <ele>79</ele>
        <time>2022-02-28T15:03:32Z</time>
      </trkpt>
      <trkpt lat="47.26745" lon="-0.1898">
        <ele>79</ele>
        <time>2022-02-28T15:03:34Z</time>
      </trkpt>
      <trkpt lat="47.26743" lon="-0.19003">
        <ele>79</ele>
        <time>2022-02-28T15:03:37Z</time>
      </trkpt>
      <trkpt lat="47.26768" lon="-0.19117">
        <ele>80</ele>
        <time>2022-02-28T15:03:52Z</time>
      </trkpt>
      <trkpt lat="47.26838" lon="-0.19372">
        <ele>81</ele>
        <time>2022-02-28T15:04:25Z</time>
      </trkpt>
      <trkpt lat="47.26874" lon="-0.19451">
        <ele>82</ele>
        <time>2022-02-28T15:04:36Z</time>
      </trkpt>
      <trkpt lat="47.26893" lon="-0.195">
        <ele>82</ele>
        <time>2022-02-28T15:04:43Z</time>
      </trkpt>
      <trkpt lat="47.26913" lon="-0.19558">
        <ele>83</ele>
        <time>2022-02-28T15:04:51Z</time>
      </trkpt>
      <trkpt lat="47.26928" lon="-0.1961">
        <ele>83</ele>
        <time>2022-02-28T15:04:58Z</time>
      </trkpt>
      <trkpt lat="47.26937" lon="-0.19657">
        <ele>83</ele>
        <time>2022-02-28T15:05:04Z</time>
      </trkpt>
      <trkpt lat="47.2694" lon="-0.19679">
        <ele>83</ele>
        <time>2022-02-28T15:05:06Z</time>
      </trkpt>
      <trkpt lat="47.26939" lon="-0.19732">
        <ele>84</ele>
        <time>2022-02-28T15:05:13Z</time>
      </trkpt>
      <trkpt lat="47.26941" lon="-0.19754">
        <ele>84</ele>
        <time>2022-02-28T15:05:15Z</time>
      </trkpt>
      <trkpt lat="47.27016" lon="-0.20038">
        <ele>84</ele>
        <time>2022-02-28T15:05:52Z</time>
      </trkpt>
      <trkpt lat="47.27018" lon="-0.20069">
        <ele>83</ele>
        <time>2022-02-28T15:05:56Z</time>
      </trkpt>
      <trkpt lat="47.27015" lon="-0.20096">
        <ele>83</ele>
        <time>2022-02-28T15:05:59Z</time>
      </trkpt>
      <trkpt lat="47.26981" lon="-0.2026">
        <ele>82</ele>
        <time>2022-02-28T15:06:20Z</time>
      </trkpt>
      <trkpt lat="47.26979" lon="-0.20295">
        <ele>81</ele>
        <time>2022-02-28T15:06:24Z</time>
      </trkpt>
      <trkpt lat="47.26983" lon="-0.20328">
        <ele>80</ele>
        <time>2022-02-28T15:06:28Z</time>
      </trkpt>
      <trkpt lat="47.2712" lon="-0.20988">
        <ele>87</ele>
        <time>2022-02-28T15:07:52Z</time>
      </trkpt>
      <trkpt lat="47.27126" lon="-0.21012">
        <ele>88</ele>
        <time>2022-02-28T15:07:55Z</time>
      </trkpt>
      <trkpt lat="47.27135" lon="-0.21041">
        <ele>89</ele>
        <time>2022-02-28T15:07:59Z</time>
      </trkpt>
      <trkpt lat="47.27155" lon="-0.21078">
        <ele>91</ele>
        <time>2022-02-28T15:08:04Z</time>
      </trkpt>
      <trkpt lat="47.27322" lon="-0.21304">
        <ele>93</ele>
        <time>2022-02-28T15:08:45Z</time>
      </trkpt>
      <trkpt lat="47.2734" lon="-0.21333">
        <ele>92</ele>
        <time>2022-02-28T15:08:49Z</time>
      </trkpt>
      <trkpt lat="47.27357" lon="-0.21378">
        <ele>93</ele>
        <time>2022-02-28T15:08:56Z</time>
      </trkpt>
      <trkpt lat="47.27404" lon="-0.21528">
        <ele>94</ele>
        <time>2022-02-28T15:09:16Z</time>
      </trkpt>
      <trkpt lat="47.27416" lon="-0.21559">
        <ele>94</ele>
        <time>2022-02-28T15:09:20Z</time>
      </trkpt>
      <trkpt lat="47.27431" lon="-0.21592">
        <ele>94</ele>
        <time>2022-02-28T15:09:25Z</time>
      </trkpt>
      <trkpt lat="47.27456" lon="-0.21635">
        <ele>94</ele>
        <time>2022-02-28T15:09:31Z</time>
      </trkpt>
      <trkpt lat="47.27487" lon="-0.21681">
        <ele>93</ele>
        <time>2022-02-28T15:09:39Z</time>
      </trkpt>
      <trkpt lat="47.2754" lon="-0.21738">
        <ele>92</ele>
        <time>2022-02-28T15:09:51Z</time>
      </trkpt>
      <trkpt lat="47.27559" lon="-0.21762">
        <ele>92</ele>
        <time>2022-02-28T15:09:55Z</time>
      </trkpt>
      <trkpt lat="47.27693" lon="-0.21955">
        <ele>92</ele>
        <time>2022-02-28T15:10:29Z</time>
      </trkpt>
      <trkpt lat="47.27788" lon="-0.22089">
        <ele>92</ele>
        <time>2022-02-28T15:10:52Z</time>
      </trkpt>
      <trkpt lat="47.27813" lon="-0.22131">
        <ele>91</ele>
        <time>2022-02-28T15:10:59Z</time>
      </trkpt>
      <trkpt lat="47.27856" lon="-0.2221">
        <ele>91</ele>
        <time>2022-02-28T15:11:11Z</time>
      </trkpt>
      <trkpt lat="47.27883" lon="-0.2227">
        <ele>89</ele>
        <time>2022-02-28T15:11:20Z</time>
      </trkpt>
      <trkpt lat="47.27901" lon="-0.22317">
        <ele>88</ele>
        <time>2022-02-28T15:11:26Z</time>
      </trkpt>
      <trkpt lat="47.27914" lon="-0.22363">
        <ele>87</ele>
        <time>2022-02-28T15:11:32Z</time>
      </trkpt>
      <trkpt lat="47.27929" lon="-0.22443">
        <ele>85</ele>
        <time>2022-02-28T15:11:42Z</time>
      </trkpt>
      <trkpt lat="47.27938" lon="-0.22486">
        <ele>85</ele>
        <time>2022-02-28T15:11:48Z</time>
      </trkpt>
      <trkpt lat="47.27944" lon="-0.22505">
        <ele>84</ele>
        <time>2022-02-28T15:11:50Z</time>
      </trkpt>
      <trkpt lat="47.27951" lon="-0.22525">
        <ele>84</ele>
        <time>2022-02-28T15:11:53Z</time>
      </trkpt>
      <trkpt lat="47.28017" lon="-0.22673">
        <ele>87</ele>
        <time>2022-02-28T15:12:14Z</time>
      </trkpt>
      <trkpt lat="47.28023" lon="-0.22689">
        <ele>87</ele>
        <time>2022-02-28T15:12:17Z</time>
      </trkpt>
      <trkpt lat="47.28025" lon="-0.22703">
        <ele>88</ele>
        <time>2022-02-28T15:12:18Z</time>
      </trkpt>
      <trkpt lat="47.28026" lon="-0.22716">
        <ele>88</ele>
        <time>2022-02-28T15:12:20Z</time>
      </trkpt>
      <trkpt lat="47.28016" lon="-0.2282">
        <ele>89</ele>
        <time>2022-02-28T15:12:33Z</time>
      </trkpt>
      <trkpt lat="47.28016" lon="-0.22844">
        <ele>89</ele>
        <time>2022-02-28T15:12:35Z</time>
      </trkpt>
      <trkpt lat="47.28023" lon="-0.22897">
        <ele>90</ele>
        <time>2022-02-28T15:12:42Z</time>
      </trkpt>
      <trkpt lat="47.2803" lon="-0.22929">
        <ele>91</ele>
        <time>2022-02-28T15:12:46Z</time>
      </trkpt>
      <trkpt lat="47.28097" lon="-0.23162">
        <ele>94</ele>
        <time>2022-02-28T15:13:17Z</time>
      </trkpt>
      <trkpt lat="47.28135" lon="-0.2332">
        <ele>95</ele>
        <time>2022-02-28T15:13:37Z</time>
      </trkpt>
      <trkpt lat="47.28178" lon="-0.23522">
        <ele>96</ele>
        <time>2022-02-28T15:14:02Z</time>
      </trkpt>
      <trkpt lat="47.2819" lon="-0.23595">
        <ele>96</ele>
        <time>2022-02-28T15:14:11Z</time>
      </trkpt>
      <trkpt lat="47.28206" lon="-0.23742">
        <ele>97</ele>
        <time>2022-02-28T15:14:29Z</time>
      </trkpt>
      <trkpt lat="47.28218" lon="-0.23817">
        <ele>98</ele>
        <time>2022-02-28T15:14:39Z</time>
      </trkpt>
      <trkpt lat="47.2827" lon="-0.24054">
        <ele>96</ele>
        <time>2022-02-28T15:15:09Z</time>
      </trkpt>
      <trkpt lat="47.28282" lon="-0.24112">
        <ele>96</ele>
        <time>2022-02-28T15:15:16Z</time>
      </trkpt>
      <trkpt lat="47.28331" lon="-0.24409">
        <ele>93</ele>
        <time>2022-02-28T15:15:53Z</time>
      </trkpt>
      <trkpt lat="47.28343" lon="-0.24458">
        <ele>93</ele>
        <time>2022-02-28T15:15:59Z</time>
      </trkpt>
      <trkpt lat="47.28394" lon="-0.24652">
        <ele>92</ele>
        <time>2022-02-28T15:16:24Z</time>
      </trkpt>
      <trkpt lat="47.28447" lon="-0.24842">
        <ele>89</ele>
        <time>2022-02-28T15:16:49Z</time>
      </trkpt>
      <trkpt lat="47.28486" lon="-0.24973">
        <ele>89</ele>
        <time>2022-02-28T15:17:06Z</time>
      </trkpt>
      <trkpt lat="47.28539" lon="-0.25117">
        <ele>88</ele>
        <time>2022-02-28T15:17:26Z</time>
      </trkpt>
      <trkpt lat="47.28606" lon="-0.25259">
        <ele>82</ele>
        <time>2022-02-28T15:17:47Z</time>
      </trkpt>
      <trkpt lat="47.28623" lon="-0.25303">
        <ele>80</ele>
        <time>2022-02-28T15:17:53Z</time>
      </trkpt>
      <trkpt lat="47.28627" lon="-0.25333">
        <ele>80</ele>
        <time>2022-02-28T15:17:57Z</time>
      </trkpt>
      <trkpt lat="47.28627" lon="-0.25375">
        <ele>79</ele>
        <time>2022-02-28T15:18:02Z</time>
      </trkpt>
      <trkpt lat="47.28657" lon="-0.25435">
        <ele>76</ele>
        <time>2022-02-28T15:18:11Z</time>
      </trkpt>
      <trkpt lat="47.28699" lon="-0.25477">
        <ele>72</ele>
        <time>2022-02-28T15:18:20Z</time>
      </trkpt>
      <trkpt lat="47.28704" lon="-0.25489">
        <ele>72</ele>
        <time>2022-02-28T15:18:22Z</time>
      </trkpt>
      <trkpt lat="47.28716" lon="-0.25535">
        <ele>72</ele>
        <time>2022-02-28T15:18:28Z</time>
      </trkpt>
      <trkpt lat="47.28707" lon="-0.25543">
        <ele>72</ele>
        <time>2022-02-28T15:18:30Z</time>
      </trkpt>
      <trkpt lat="47.28711" lon="-0.25559">
        <ele>72</ele>
        <time>2022-02-28T15:18:32Z</time>
      </trkpt>
      <trkpt lat="47.28711" lon="-0.25574">
        <ele>73</ele>
        <time>2022-02-28T15:18:33Z</time>
      </trkpt>
      <trkpt lat="47.28702" lon="-0.25669">
        <ele>77</ele>
        <time>2022-02-28T15:18:45Z</time>
      </trkpt>
      <trkpt lat="47.287" lon="-0.25698">
        <ele>78</ele>
        <time>2022-02-28T15:18:49Z</time>
      </trkpt>
      <trkpt lat="47.2871" lon="-0.25861">
        <ele>81</ele>
        <time>2022-02-28T15:19:08Z</time>
      </trkpt>
      <trkpt lat="47.28709" lon="-0.25891">
        <ele>81</ele>
        <time>2022-02-28T15:19:12Z</time>
      </trkpt>
      <trkpt lat="47.28707" lon="-0.25913">
        <ele>80</ele>
        <time>2022-02-28T15:19:15Z</time>
      </trkpt>
      <trkpt lat="47.28703" lon="-0.25929">
        <ele>80</ele>
        <time>2022-02-28T15:19:17Z</time>
      </trkpt>
      <trkpt lat="47.28689" lon="-0.25969">
        <ele>81</ele>
        <time>2022-02-28T15:19:22Z</time>
      </trkpt>
      <trkpt lat="47.2868" lon="-0.26001">
        <ele>81</ele>
        <time>2022-02-28T15:19:26Z</time>
      </trkpt>
      <trkpt lat="47.28674" lon="-0.26032">
        <ele>82</ele>
        <time>2022-02-28T15:19:30Z</time>
      </trkpt>
      <trkpt lat="47.28651" lon="-0.26194">
        <ele>84</ele>
        <time>2022-02-28T15:19:50Z</time>
      </trkpt>
      <trkpt lat="47.28638" lon="-0.26261">
        <ele>86</ele>
        <time>2022-02-28T15:19:59Z</time>
      </trkpt>
      <trkpt lat="47.28623" lon="-0.2633">
        <ele>87</ele>
        <time>2022-02-28T15:20:07Z</time>
      </trkpt>
      <trkpt lat="47.28617" lon="-0.26349">
        <ele>87</ele>
        <time>2022-02-28T15:20:10Z</time>
      </trkpt>
      <trkpt lat="47.28604" lon="-0.26382">
        <ele>88</ele>
        <time>2022-02-28T15:20:14Z</time>
      </trkpt>
      <trkpt lat="47.28548" lon="-0.26464">
        <ele>89</ele>
        <time>2022-02-28T15:20:28Z</time>
      </trkpt>
      <trkpt lat="47.28494" lon="-0.2659">
        <ele>90</ele>
        <time>2022-02-28T15:20:46Z</time>
      </trkpt>
      <trkpt lat="47.28486" lon="-0.26619">
        <ele>90</ele>
        <time>2022-02-28T15:20:50Z</time>
      </trkpt>
      <trkpt lat="47.28483" lon="-0.26641">
        <ele>90</ele>
        <time>2022-02-28T15:20:53Z</time>
      </trkpt>
      <trkpt lat="47.28503" lon="-0.27089">
        <ele>96</ele>
        <time>2022-02-28T15:21:47Z</time>
      </trkpt>
      <trkpt lat="47.28509" lon="-0.27138">
        <ele>96</ele>
        <time>2022-02-28T15:21:53Z</time>
      </trkpt>
      <trkpt lat="47.28521" lon="-0.27197">
        <ele>96</ele>
        <time>2022-02-28T15:22:01Z</time>
      </trkpt>
      <trkpt lat="47.28557" lon="-0.2732">
        <ele>96</ele>
        <time>2022-02-28T15:22:17Z</time>
      </trkpt>
      <trkpt lat="47.2871" lon="-0.27871">
        <ele>97</ele>
        <time>2022-02-28T15:23:29Z</time>
      </trkpt>
      <trkpt lat="47.28806" lon="-0.28223">
        <ele>97</ele>
        <time>2022-02-28T15:24:14Z</time>
      </trkpt>
      <trkpt lat="47.28815" lon="-0.28258">
        <ele>97</ele>
        <time>2022-02-28T15:24:19Z</time>
      </trkpt>
      <trkpt lat="47.28817" lon="-0.28277">
        <ele>97</ele>
        <time>2022-02-28T15:24:21Z</time>
      </trkpt>
      <trkpt lat="47.28818" lon="-0.2832">
        <ele>96</ele>
        <time>2022-02-28T15:24:26Z</time>
      </trkpt>
      <trkpt lat="47.28813" lon="-0.28343">
        <ele>96</ele>
        <time>2022-02-28T15:24:29Z</time>
      </trkpt>
      <trkpt lat="47.28805" lon="-0.28367">
        <ele>96</ele>
        <time>2022-02-28T15:24:33Z</time>
      </trkpt>
      <trkpt lat="47.28794" lon="-0.28386">
        <ele>96</ele>
        <time>2022-02-28T15:24:36Z</time>
      </trkpt>
      <trkpt lat="47.2878" lon="-0.28406">
        <ele>96</ele>
        <time>2022-02-28T15:24:39Z</time>
      </trkpt>
      <trkpt lat="47.28612" lon="-0.28597">
        <ele>96</ele>
        <time>2022-02-28T15:25:17Z</time>
      </trkpt>
      <trkpt lat="47.28588" lon="-0.28628">
        <ele>98</ele>
        <time>2022-02-28T15:25:22Z</time>
      </trkpt>
      <trkpt lat="47.28579" lon="-0.28642">
        <ele>98</ele>
        <time>2022-02-28T15:25:25Z</time>
      </trkpt>
      <trkpt lat="47.28569" lon="-0.28669">
        <ele>98</ele>
        <time>2022-02-28T15:25:28Z</time>
      </trkpt>
      <trkpt lat="47.28561" lon="-0.28708">
        <ele>98</ele>
        <time>2022-02-28T15:25:33Z</time>
      </trkpt>
      <trkpt lat="47.2856" lon="-0.28746">
        <ele>97</ele>
        <time>2022-02-28T15:25:38Z</time>
      </trkpt>
      <trkpt lat="47.28564" lon="-0.28771">
        <ele>97</ele>
        <time>2022-02-28T15:25:41Z</time>
      </trkpt>
      <trkpt lat="47.28571" lon="-0.28801">
        <ele>97</ele>
        <time>2022-02-28T15:25:45Z</time>
      </trkpt>
      <trkpt lat="47.28605" lon="-0.28883">
        <ele>93</ele>
        <time>2022-02-28T15:25:57Z</time>
      </trkpt>
      <trkpt lat="47.28617" lon="-0.28918">
        <ele>91</ele>
        <time>2022-02-28T15:26:01Z</time>
      </trkpt>
      <trkpt lat="47.28629" lon="-0.28965">
        <ele>88</ele>
        <time>2022-02-28T15:26:07Z</time>
      </trkpt>
      <trkpt lat="47.2864" lon="-0.2908">
        <ele>88</ele>
        <time>2022-02-28T15:26:21Z</time>
      </trkpt>
      <trkpt lat="47.28657" lon="-0.29273">
        <ele>89</ele>
        <time>2022-02-28T15:26:45Z</time>
      </trkpt>
      <trkpt lat="47.28659" lon="-0.29336">
        <ele>87</ele>
        <time>2022-02-28T15:26:52Z</time>
      </trkpt>
      <trkpt lat="47.28656" lon="-0.29395">
        <ele>89</ele>
        <time>2022-02-28T15:27:00Z</time>
      </trkpt>
      <trkpt lat="47.28646" lon="-0.29468">
        <ele>91</ele>
        <time>2022-02-28T15:27:09Z</time>
      </trkpt>
      <trkpt lat="47.28644" lon="-0.29508">
        <ele>91</ele>
        <time>2022-02-28T15:27:13Z</time>
      </trkpt>
      <trkpt lat="47.28643" lon="-0.29543">
        <ele>91</ele>
        <time>2022-02-28T15:27:18Z</time>
      </trkpt>
      <trkpt lat="47.28646" lon="-0.296">
        <ele>90</ele>
        <time>2022-02-28T15:27:25Z</time>
      </trkpt>
      <trkpt lat="47.2865" lon="-0.29628">
        <ele>91</ele>
        <time>2022-02-28T15:27:28Z</time>
      </trkpt>
      <trkpt lat="47.28688" lon="-0.29742">
        <ele>93</ele>
        <time>2022-02-28T15:27:43Z</time>
      </trkpt>
      <trkpt lat="47.28692" lon="-0.29766">
        <ele>93</ele>
        <time>2022-02-28T15:27:46Z</time>
      </trkpt>
      <trkpt lat="47.28691" lon="-0.29797">
        <ele>92</ele>
        <time>2022-02-28T15:27:50Z</time>
      </trkpt>
      <trkpt lat="47.2863" lon="-0.30163">
        <ele>93</ele>
        <time>2022-02-28T15:28:36Z</time>
      </trkpt>
      <trkpt lat="47.28622" lon="-0.30198">
        <ele>92</ele>
        <time>2022-02-28T15:28:40Z</time>
      </trkpt>
      <trkpt lat="47.28524" lon="-0.30562">
        <ele>82</ele>
        <time>2022-02-28T15:29:27Z</time>
      </trkpt>
      <trkpt lat="47.28486" lon="-0.30711">
        <ele>80</ele>
        <time>2022-02-28T15:29:46Z</time>
      </trkpt>
      <trkpt lat="47.28484" lon="-0.30725">
        <ele>80</ele>
        <time>2022-02-28T15:29:48Z</time>
      </trkpt>
      <trkpt lat="47.28482" lon="-0.30898">
        <ele>77</ele>
        <time>2022-02-28T15:30:09Z</time>
      </trkpt>
      <trkpt lat="47.28485" lon="-0.30932">
        <ele>78</ele>
        <time>2022-02-28T15:30:13Z</time>
      </trkpt>
      <trkpt lat="47.28491" lon="-0.30965">
        <ele>78</ele>
        <time>2022-02-28T15:30:17Z</time>
      </trkpt>
      <trkpt lat="47.28517" lon="-0.3108">
        <ele>80</ele>
        <time>2022-02-28T15:30:32Z</time>
      </trkpt>
      <trkpt lat="47.28524" lon="-0.31104">
        <ele>81</ele>
        <time>2022-02-28T15:30:35Z</time>
      </trkpt>
      <trkpt lat="47.28535" lon="-0.31128">
        <ele>82</ele>
        <time>2022-02-28T15:30:39Z</time>
      </trkpt>
      <trkpt lat="47.28629" lon="-0.31263">
        <ele>96</ele>
        <time>2022-02-28T15:31:02Z</time>
      </trkpt>
      <trkpt lat="47.28642" lon="-0.31289">
        <ele>96</ele>
        <time>2022-02-28T15:31:06Z</time>
      </trkpt>
      <trkpt lat="47.28737" lon="-0.31484">
        <ele>88</ele>
        <time>2022-02-28T15:31:35Z</time>
      </trkpt>
      <trkpt lat="47.28799" lon="-0.31573">
        <ele>78</ele>
        <time>2022-02-28T15:31:50Z</time>
      </trkpt>
      <trkpt lat="47.28843" lon="-0.31665">
        <ele>73</ele>
        <time>2022-02-28T15:32:04Z</time>
      </trkpt>
      <trkpt lat="47.28859" lon="-0.31689">
        <ele>72</ele>
        <time>2022-02-28T15:32:08Z</time>
      </trkpt>
      <trkpt lat="47.28906" lon="-0.31749">
        <ele>70</ele>
        <time>2022-02-28T15:32:19Z</time>
      </trkpt>
      <trkpt lat="47.28941" lon="-0.31799">
        <ele>68</ele>
        <time>2022-02-28T15:32:28Z</time>
      </trkpt>
      <trkpt lat="47.28971" lon="-0.31856">
        <ele>67</ele>
        <time>2022-02-28T15:32:36Z</time>
      </trkpt>
      <trkpt lat="47.28986" lon="-0.31871">
        <ele>67</ele>
        <time>2022-02-28T15:32:40Z</time>
      </trkpt>
      <trkpt lat="47.29004" lon="-0.3188">
        <ele>66</ele>
        <time>2022-02-28T15:32:43Z</time>
      </trkpt>
      <trkpt lat="47.291" lon="-0.31916">
        <ele>65</ele>
        <time>2022-02-28T15:33:01Z</time>
      </trkpt>
      <trkpt lat="47.29187" lon="-0.31959">
        <ele>66</ele>
        <time>2022-02-28T15:33:17Z</time>
      </trkpt>
      <trkpt lat="47.29292" lon="-0.32015">
        <ele>67</ele>
        <time>2022-02-28T15:33:37Z</time>
      </trkpt>
      <trkpt lat="47.29322" lon="-0.32044">
        <ele>66</ele>
        <time>2022-02-28T15:33:43Z</time>
      </trkpt>
      <trkpt lat="47.29341" lon="-0.32069">
        <ele>65</ele>
        <time>2022-02-28T15:33:48Z</time>
      </trkpt>
      <trkpt lat="47.29378" lon="-0.32126">
        <ele>64</ele>
        <time>2022-02-28T15:33:57Z</time>
      </trkpt>
      <trkpt lat="47.29402" lon="-0.32154">
        <ele>63</ele>
        <time>2022-02-28T15:34:03Z</time>
      </trkpt>
      <trkpt lat="47.29448" lon="-0.32191">
        <ele>63</ele>
        <time>2022-02-28T15:34:12Z</time>
      </trkpt>
      <trkpt lat="47.29489" lon="-0.32216">
        <ele>64</ele>
        <time>2022-02-28T15:34:20Z</time>
      </trkpt>
      <trkpt lat="47.2951" lon="-0.32234">
        <ele>64</ele>
        <time>2022-02-28T15:34:24Z</time>
      </trkpt>
      <trkpt lat="47.29538" lon="-0.32263">
        <ele>64</ele>
        <time>2022-02-28T15:34:30Z</time>
      </trkpt>
      <trkpt lat="47.29552" lon="-0.32275">
        <ele>64</ele>
        <time>2022-02-28T15:34:33Z</time>
      </trkpt>
      <trkpt lat="47.29636" lon="-0.32368">
        <ele>63</ele>
        <time>2022-02-28T15:34:52Z</time>
      </trkpt>
      <trkpt lat="47.29546" lon="-0.32544">
        <ele>62</ele>
        <time>2022-02-28T15:35:18Z</time>
      </trkpt>
      <trkpt lat="47.29539" lon="-0.32566">
        <ele>62</ele>
        <time>2022-02-28T15:35:21Z</time>
      </trkpt>
      <trkpt lat="47.29542" lon="-0.3262">
        <ele>62</ele>
        <time>2022-02-28T15:35:28Z</time>
      </trkpt>
      <trkpt lat="47.29546" lon="-0.32622">
        <ele>62</ele>
        <time>2022-02-28T15:35:29Z</time>
      </trkpt>
      <trkpt lat="47.29605" lon="-0.32689">
        <ele>62</ele>
        <time>2022-02-28T15:35:42Z</time>
      </trkpt>
      <trkpt lat="47.2962" lon="-0.32702">
        <ele>62</ele>
        <time>2022-02-28T15:35:45Z</time>
      </trkpt>
      <trkpt lat="47.29686" lon="-0.32742">
        <ele>61</ele>
        <time>2022-02-28T15:35:58Z</time>
      </trkpt>
      <trkpt lat="47.29775" lon="-0.32804">
        <ele>60</ele>
        <time>2022-02-28T15:36:15Z</time>
      </trkpt>
      <trkpt lat="47.29839" lon="-0.32836">
        <ele>58</ele>
        <time>2022-02-28T15:36:27Z</time>
      </trkpt>
      <trkpt lat="47.29963" lon="-0.32878">
        <ele>59</ele>
        <time>2022-02-28T15:36:50Z</time>
      </trkpt>
      <trkpt lat="47.30055" lon="-0.32913">
        <ele>60</ele>
        <time>2022-02-28T15:37:07Z</time>
      </trkpt>
      <trkpt lat="47.30088" lon="-0.3292">
        <ele>60</ele>
        <time>2022-02-28T15:37:13Z</time>
      </trkpt>
      <trkpt lat="47.30115" lon="-0.32917">
        <ele>59</ele>
        <time>2022-02-28T15:37:18Z</time>
      </trkpt>
      <trkpt lat="47.30143" lon="-0.32909">
        <ele>58</ele>
        <time>2022-02-28T15:37:23Z</time>
      </trkpt>
      <trkpt lat="47.3016" lon="-0.32899">
        <ele>58</ele>
        <time>2022-02-28T15:37:26Z</time>
      </trkpt>
      <trkpt lat="47.30175" lon="-0.32882">
        <ele>58</ele>
        <time>2022-02-28T15:37:29Z</time>
      </trkpt>
      <trkpt lat="47.30193" lon="-0.32851">
        <ele>58</ele>
        <time>2022-02-28T15:37:34Z</time>
      </trkpt>
      <trkpt lat="47.302" lon="-0.32843">
        <ele>59</ele>
        <time>2022-02-28T15:37:36Z</time>
      </trkpt>
      <trkpt lat="47.30215" lon="-0.32837">
        <ele>59</ele>
        <time>2022-02-28T15:37:39Z</time>
      </trkpt>
      <trkpt lat="47.30225" lon="-0.32838">
        <ele>60</ele>
        <time>2022-02-28T15:37:40Z</time>
      </trkpt>
      <trkpt lat="47.30291" lon="-0.32886">
        <ele>63</ele>
        <time>2022-02-28T15:37:53Z</time>
      </trkpt>
      <trkpt lat="47.30312" lon="-0.32903">
        <ele>64</ele>
        <time>2022-02-28T15:37:58Z</time>
      </trkpt>
      <trkpt lat="47.30327" lon="-0.3292">
        <ele>64</ele>
        <time>2022-02-28T15:38:01Z</time>
      </trkpt>
      <trkpt lat="47.30343" lon="-0.32941">
        <ele>64</ele>
        <time>2022-02-28T15:38:05Z</time>
      </trkpt>
      <trkpt lat="47.30367" lon="-0.32988">
        <ele>64</ele>
        <time>2022-02-28T15:38:12Z</time>
      </trkpt>
      <trkpt lat="47.30401" lon="-0.33098">
        <ele>63</ele>
        <time>2022-02-28T15:38:27Z</time>
      </trkpt>
      <trkpt lat="47.30439" lon="-0.33191">
        <ele>63</ele>
        <time>2022-02-28T15:38:40Z</time>
      </trkpt>
      <trkpt lat="47.3045" lon="-0.3323">
        <ele>63</ele>
        <time>2022-02-28T15:38:45Z</time>
      </trkpt>
      <trkpt lat="47.30473" lon="-0.33366">
        <ele>61</ele>
        <time>2022-02-28T15:39:02Z</time>
      </trkpt>
      <trkpt lat="47.30484" lon="-0.33407">
        <ele>61</ele>
        <time>2022-02-28T15:39:07Z</time>
      </trkpt>
      <trkpt lat="47.30497" lon="-0.33446">
        <ele>61</ele>
        <time>2022-02-28T15:39:12Z</time>
      </trkpt>
      <trkpt lat="47.3052" lon="-0.33482">
        <ele>61</ele>
        <time>2022-02-28T15:39:18Z</time>
      </trkpt>
      <trkpt lat="47.30551" lon="-0.33515">
        <ele>61</ele>
        <time>2022-02-28T15:39:25Z</time>
      </trkpt>
      <trkpt lat="47.30583" lon="-0.33538">
        <ele>62</ele>
        <time>2022-02-28T15:39:31Z</time>
      </trkpt>
      <trkpt lat="47.30599" lon="-0.33544">
        <ele>62</ele>
        <time>2022-02-28T15:39:34Z</time>
      </trkpt>
      <trkpt lat="47.30647" lon="-0.33555">
        <ele>62</ele>
        <time>2022-02-28T15:39:43Z</time>
      </trkpt>
      <trkpt lat="47.30671" lon="-0.33552">
        <ele>63</ele>
        <time>2022-02-28T15:39:47Z</time>
      </trkpt>
      <trkpt lat="47.30684" lon="-0.33555">
        <ele>64</ele>
        <time>2022-02-28T15:39:49Z</time>
      </trkpt>
      <trkpt lat="47.308" lon="-0.33638">
        <ele>68</ele>
        <time>2022-02-28T15:40:12Z</time>
      </trkpt>
      <trkpt lat="47.30895" lon="-0.3372">
        <ele>64</ele>
        <time>2022-02-28T15:40:32Z</time>
      </trkpt>
      <trkpt lat="47.30916" lon="-0.33735">
        <ele>64</ele>
        <time>2022-02-28T15:40:36Z</time>
      </trkpt>
      <trkpt lat="47.30947" lon="-0.3377">
        <ele>62</ele>
        <time>2022-02-28T15:40:43Z</time>
      </trkpt>
      <trkpt lat="47.31023" lon="-0.33885">
        <ele>57</ele>
        <time>2022-02-28T15:41:02Z</time>
      </trkpt>
      <trkpt lat="47.31044" lon="-0.33915">
        <ele>57</ele>
        <time>2022-02-28T15:41:08Z</time>
      </trkpt>
      <trkpt lat="47.31065" lon="-0.33938">
        <ele>57</ele>
        <time>2022-02-28T15:41:12Z</time>
      </trkpt>
      <trkpt lat="47.31096" lon="-0.33958">
        <ele>56</ele>
        <time>2022-02-28T15:41:18Z</time>
      </trkpt>
      <trkpt lat="47.31117" lon="-0.33965">
        <ele>56</ele>
        <time>2022-02-28T15:41:22Z</time>
      </trkpt>
      <trkpt lat="47.31139" lon="-0.33966">
        <ele>55</ele>
        <time>2022-02-28T15:41:26Z</time>
      </trkpt>
      <trkpt lat="47.31233" lon="-0.33965">
        <ele>54</ele>
        <time>2022-02-28T15:41:43Z</time>
      </trkpt>
      <trkpt lat="47.31261" lon="-0.3397">
        <ele>54</ele>
        <time>2022-02-28T15:41:48Z</time>
      </trkpt>
      <trkpt lat="47.31378" lon="-0.34016">
        <ele>58</ele>
        <time>2022-02-28T15:42:09Z</time>
      </trkpt>
      <trkpt lat="47.31413" lon="-0.34036">
        <ele>59</ele>
        <time>2022-02-28T15:42:16Z</time>
      </trkpt>
      <trkpt lat="47.31479" lon="-0.34077">
        <ele>58</ele>
        <time>2022-02-28T15:42:29Z</time>
      </trkpt>
      <trkpt lat="47.31526" lon="-0.341">
        <ele>57</ele>
        <time>2022-02-28T15:42:38Z</time>
      </trkpt>
      <trkpt lat="47.31646" lon="-0.34142">
        <ele>55</ele>
        <time>2022-02-28T15:43:00Z</time>
      </trkpt>
      <trkpt lat="47.31707" lon="-0.34142">
        <ele>55</ele>
        <time>2022-02-28T15:43:10Z</time>
      </trkpt>
      <trkpt lat="47.31883" lon="-0.34208">
        <ele>59</ele>
        <time>2022-02-28T15:43:43Z</time>
      </trkpt>
      <trkpt lat="47.31892" lon="-0.34214">
        <ele>59</ele>
        <time>2022-02-28T15:43:45Z</time>
      </trkpt>
      <trkpt lat="47.319" lon="-0.34223">
        <ele>60</ele>
        <time>2022-02-28T15:43:46Z</time>
      </trkpt>
      <trkpt lat="47.31907" lon="-0.3424">
        <ele>60</ele>
        <time>2022-02-28T15:43:49Z</time>
      </trkpt>
      <trkpt lat="47.31936" lon="-0.34451">
        <ele>58</ele>
        <time>2022-02-28T15:44:15Z</time>
      </trkpt>
      <trkpt lat="47.31946" lon="-0.34499">
        <ele>58</ele>
        <time>2022-02-28T15:44:21Z</time>
      </trkpt>
      <trkpt lat="47.31961" lon="-0.34508">
        <ele>58</ele>
        <time>2022-02-28T15:44:24Z</time>
      </trkpt>
      <trkpt lat="47.3198" lon="-0.34515">
        <ele>59</ele>
        <time>2022-02-28T15:44:27Z</time>
      </trkpt>
      <trkpt lat="47.32001" lon="-0.3452">
        <ele>59</ele>
        <time>2022-02-28T15:44:31Z</time>
      </trkpt>
      <trkpt lat="47.32074" lon="-0.3453">
        <ele>62</ele>
        <time>2022-02-28T15:44:44Z</time>
      </trkpt>
      <trkpt lat="47.32123" lon="-0.34541">
        <ele>62</ele>
        <time>2022-02-28T15:44:53Z</time>
      </trkpt>
      <trkpt lat="47.32144" lon="-0.34548">
        <ele>63</ele>
        <time>2022-02-28T15:44:57Z</time>
      </trkpt>
      <trkpt lat="47.32251" lon="-0.34619">
        <ele>64</ele>
        <time>2022-02-28T15:45:17Z</time>
      </trkpt>
      <trkpt lat="47.3236" lon="-0.34701">
        <ele>56</ele>
        <time>2022-02-28T15:45:39Z</time>
      </trkpt>
      <trkpt lat="47.32425" lon="-0.34743">
        <ele>54</ele>
        <time>2022-02-28T15:45:52Z</time>
      </trkpt>
      <trkpt lat="47.32447" lon="-0.34752">
        <ele>54</ele>
        <time>2022-02-28T15:45:56Z</time>
      </trkpt>
      <trkpt lat="47.32513" lon="-0.34767">
        <ele>53</ele>
        <time>2022-02-28T15:46:08Z</time>
      </trkpt>
      <trkpt lat="47.3254" lon="-0.34767">
        <ele>52</ele>
        <time>2022-02-28T15:46:13Z</time>
      </trkpt>
      <trkpt lat="47.32632" lon="-0.34733">
        <ele>54</ele>
        <time>2022-02-28T15:46:29Z</time>
      </trkpt>
      <trkpt lat="47.32643" lon="-0.34725">
        <ele>54</ele>
        <time>2022-02-28T15:46:32Z</time>
      </trkpt>
      <trkpt lat="47.32647" lon="-0.34724">
        <ele>54</ele>
        <time>2022-02-28T15:46:32Z</time>
      </trkpt>
      <trkpt lat="47.3266" lon="-0.34693">
        <ele>55</ele>
        <time>2022-02-28T15:46:37Z</time>
      </trkpt>
      <trkpt lat="47.32668" lon="-0.34698">
        <ele>55</ele>
        <time>2022-02-28T15:46:38Z</time>
      </trkpt>
      <trkpt lat="47.32926" lon="-0.34682">
        <ele>57</ele>
        <time>2022-02-28T15:47:24Z</time>
      </trkpt>
      <trkpt lat="47.32951" lon="-0.3469">
        <ele>56</ele>
        <time>2022-02-28T15:47:29Z</time>
      </trkpt>
      <trkpt lat="47.33019" lon="-0.34763">
        <ele>54</ele>
        <time>2022-02-28T15:47:44Z</time>
      </trkpt>
      <trkpt lat="47.33049" lon="-0.34801">
        <ele>53</ele>
        <time>2022-02-28T15:47:51Z</time>
      </trkpt>
      <trkpt lat="47.33074" lon="-0.34842">
        <ele>52</ele>
        <time>2022-02-28T15:47:57Z</time>
      </trkpt>
      <trkpt lat="47.33102" lon="-0.34896">
        <ele>52</ele>
        <time>2022-02-28T15:48:06Z</time>
      </trkpt>
      <trkpt lat="47.33129" lon="-0.34933">
        <ele>53</ele>
        <time>2022-02-28T15:48:12Z</time>
      </trkpt>
      <trkpt lat="47.332" lon="-0.35011">
        <ele>54</ele>
        <time>2022-02-28T15:48:28Z</time>
      </trkpt>
      <trkpt lat="47.33219" lon="-0.3503">
        <ele>55</ele>
        <time>2022-02-28T15:48:32Z</time>
      </trkpt>
      <trkpt lat="47.33234" lon="-0.3504">
        <ele>56</ele>
        <time>2022-02-28T15:48:35Z</time>
      </trkpt>
      <trkpt lat="47.3336" lon="-0.35098">
        <ele>57</ele>
        <time>2022-02-28T15:48:58Z</time>
      </trkpt>
      <trkpt lat="47.33373" lon="-0.35106">
        <ele>58</ele>
        <time>2022-02-28T15:49:01Z</time>
      </trkpt>
      <trkpt lat="47.33392" lon="-0.35123">
        <ele>58</ele>
        <time>2022-02-28T15:49:05Z</time>
      </trkpt>
      <trkpt lat="47.33407" lon="-0.35145">
        <ele>59</ele>
        <time>2022-02-28T15:49:09Z</time>
      </trkpt>
      <trkpt lat="47.33415" lon="-0.35159">
        <ele>59</ele>
        <time>2022-02-28T15:49:11Z</time>
      </trkpt>
      <trkpt lat="47.33441" lon="-0.35221">
        <ele>59</ele>
        <time>2022-02-28T15:49:20Z</time>
      </trkpt>
      <trkpt lat="47.3346" lon="-0.35256">
        <ele>60</ele>
        <time>2022-02-28T15:49:25Z</time>
      </trkpt>
      <trkpt lat="47.33508" lon="-0.35333">
        <ele>61</ele>
        <time>2022-02-28T15:49:38Z</time>
      </trkpt>
      <trkpt lat="47.33551" lon="-0.35392">
        <ele>60</ele>
        <time>2022-02-28T15:49:48Z</time>
      </trkpt>
      <trkpt lat="47.33619" lon="-0.35478">
        <ele>60</ele>
        <time>2022-02-28T15:50:04Z</time>
      </trkpt>
      <trkpt lat="47.33635" lon="-0.35491">
        <ele>60</ele>
        <time>2022-02-28T15:50:07Z</time>
      </trkpt>
      <trkpt lat="47.33706" lon="-0.35533">
        <ele>59</ele>
        <time>2022-02-28T15:50:21Z</time>
      </trkpt>
      <trkpt lat="47.33722" lon="-0.35545">
        <ele>59</ele>
        <time>2022-02-28T15:50:24Z</time>
      </trkpt>
      <trkpt lat="47.33752" lon="-0.35578">
        <ele>59</ele>
        <time>2022-02-28T15:50:31Z</time>
      </trkpt>
      <trkpt lat="47.33797" lon="-0.35649">
        <ele>56</ele>
        <time>2022-02-28T15:50:43Z</time>
      </trkpt>
      <trkpt lat="47.33825" lon="-0.35681">
        <ele>55</ele>
        <time>2022-02-28T15:50:49Z</time>
      </trkpt>
      <trkpt lat="47.3386" lon="-0.35714">
        <ele>55</ele>
        <time>2022-02-28T15:50:56Z</time>
      </trkpt>
      <trkpt lat="47.33889" lon="-0.35744">
        <ele>56</ele>
        <time>2022-02-28T15:51:03Z</time>
      </trkpt>
      <trkpt lat="47.33915" lon="-0.35781">
        <ele>57</ele>
        <time>2022-02-28T15:51:09Z</time>
      </trkpt>
      <trkpt lat="47.33933" lon="-0.35823">
        <ele>57</ele>
        <time>2022-02-28T15:51:15Z</time>
      </trkpt>
      <trkpt lat="47.33952" lon="-0.35893">
        <ele>56</ele>
        <time>2022-02-28T15:51:24Z</time>
      </trkpt>
      <trkpt lat="47.33958" lon="-0.35921">
        <ele>55</ele>
        <time>2022-02-28T15:51:28Z</time>
      </trkpt>
      <trkpt lat="47.34028" lon="-0.35914">
        <ele>55</ele>
        <time>2022-02-28T15:51:40Z</time>
      </trkpt>
      <trkpt lat="47.34041" lon="-0.359">
        <ele>55</ele>
        <time>2022-02-28T15:51:43Z</time>
      </trkpt>
      <trkpt lat="47.34124" lon="-0.35801">
        <ele>56</ele>
        <time>2022-02-28T15:52:02Z</time>
      </trkpt>
      <trkpt lat="47.34209" lon="-0.35675">
        <ele>57</ele>
        <time>2022-02-28T15:52:23Z</time>
      </trkpt>
      <trkpt lat="47.34239" lon="-0.35638">
        <ele>56</ele>
        <time>2022-02-28T15:52:30Z</time>
      </trkpt>
      <trkpt lat="47.34278" lon="-0.35585">
        <ele>55</ele>
        <time>2022-02-28T15:52:40Z</time>
      </trkpt>
      <trkpt lat="47.34298" lon="-0.35546">
        <ele>55</ele>
        <time>2022-02-28T15:52:46Z</time>
      </trkpt>
      <trkpt lat="47.34311" lon="-0.35498">
        <ele>54</ele>
        <time>2022-02-28T15:52:52Z</time>
      </trkpt>
      <trkpt lat="47.34306" lon="-0.35492">
        <ele>54</ele>
        <time>2022-02-28T15:52:53Z</time>
      </trkpt>
      <trkpt lat="47.34304" lon="-0.35488">
        <ele>54</ele>
        <time>2022-02-28T15:52:54Z</time>
      </trkpt>
      <trkpt lat="47.34304" lon="-0.35478">
        <ele>54</ele>
        <time>2022-02-28T15:52:55Z</time>
      </trkpt>
      <trkpt lat="47.34308" lon="-0.3547">
        <ele>54</ele>
        <time>2022-02-28T15:52:56Z</time>
      </trkpt>
      <trkpt lat="47.3431" lon="-0.35468">
        <ele>54</ele>
        <time>2022-02-28T15:52:56Z</time>
      </trkpt>
      <trkpt lat="47.34317" lon="-0.35468">
        <ele>54</ele>
        <time>2022-02-28T15:52:58Z</time>
      </trkpt>
      <trkpt lat="47.34322" lon="-0.35474">
        <ele>54</ele>
        <time>2022-02-28T15:52:59Z</time>
      </trkpt>
      <trkpt lat="47.34324" lon="-0.35484">
        <ele>53</ele>
        <time>2022-02-28T15:53:00Z</time>
      </trkpt>
      <trkpt lat="47.34323" lon="-0.35489">
        <ele>53</ele>
        <time>2022-02-28T15:53:01Z</time>
      </trkpt>
      <trkpt lat="47.34344" lon="-0.35493">
        <ele>53</ele>
        <time>2022-02-28T15:53:04Z</time>
      </trkpt>
      <trkpt lat="47.3435" lon="-0.35491">
        <ele>53</ele>
        <time>2022-02-28T15:53:06Z</time>
      </trkpt>
      <trkpt lat="47.34399" lon="-0.35433">
        <ele>54</ele>
        <time>2022-02-28T15:53:17Z</time>
      </trkpt>
      <trkpt lat="47.34448" lon="-0.35383">
        <ele>55</ele>
        <time>2022-02-28T15:53:27Z</time>
      </trkpt>
      <trkpt lat="47.34463" lon="-0.35363">
        <ele>55</ele>
        <time>2022-02-28T15:53:31Z</time>
      </trkpt>
      <trkpt lat="47.34488" lon="-0.35327">
        <ele>55</ele>
        <time>2022-02-28T15:53:37Z</time>
      </trkpt>
      <trkpt lat="47.34542" lon="-0.35236">
        <ele>55</ele>
        <time>2022-02-28T15:53:52Z</time>
      </trkpt>
      <trkpt lat="47.34579" lon="-0.35187">
        <ele>56</ele>
        <time>2022-02-28T15:54:01Z</time>
      </trkpt>
      <trkpt lat="47.34667" lon="-0.35081">
        <ele>56</ele>
        <time>2022-02-28T15:54:21Z</time>
      </trkpt>
      <trkpt lat="47.3469" lon="-0.35057">
        <ele>57</ele>
        <time>2022-02-28T15:54:26Z</time>
      </trkpt>
      <trkpt lat="47.34721" lon="-0.35035">
        <ele>57</ele>
        <time>2022-02-28T15:54:32Z</time>
      </trkpt>
      <trkpt lat="47.34854" lon="-0.34965">
        <ele>56</ele>
        <time>2022-02-28T15:54:57Z</time>
      </trkpt>
      <trkpt lat="47.3493" lon="-0.3494">
        <ele>56</ele>
        <time>2022-02-28T15:55:11Z</time>
      </trkpt>
      <trkpt lat="47.34945" lon="-0.34933">
        <ele>56</ele>
        <time>2022-02-28T15:55:14Z</time>
      </trkpt>
      <trkpt lat="47.35001" lon="-0.34894">
        <ele>57</ele>
        <time>2022-02-28T15:55:25Z</time>
      </trkpt>
      <trkpt lat="47.35028" lon="-0.3488">
        <ele>57</ele>
        <time>2022-02-28T15:55:30Z</time>
      </trkpt>
      <trkpt lat="47.35055" lon="-0.34878">
        <ele>57</ele>
        <time>2022-02-28T15:55:35Z</time>
      </trkpt>
      <trkpt lat="47.35071" lon="-0.34879">
        <ele>57</ele>
        <time>2022-02-28T15:55:37Z</time>
      </trkpt>
      <trkpt lat="47.35093" lon="-0.34883">
        <ele>57</ele>
        <time>2022-02-28T15:55:41Z</time>
      </trkpt>
      <trkpt lat="47.35182" lon="-0.34911">
        <ele>56</ele>
        <time>2022-02-28T15:55:58Z</time>
      </trkpt>
      <trkpt lat="47.35254" lon="-0.34928">
        <ele>55</ele>
        <time>2022-02-28T15:56:11Z</time>
      </trkpt>
      <trkpt lat="47.35352" lon="-0.34956">
        <ele>52</ele>
        <time>2022-02-28T15:56:28Z</time>
      </trkpt>
      <trkpt lat="47.35564" lon="-0.35047">
        <ele>51</ele>
        <time>2022-02-28T15:57:08Z</time>
      </trkpt>
      <trkpt lat="47.35616" lon="-0.35083">
        <ele>52</ele>
        <time>2022-02-28T15:57:18Z</time>
      </trkpt>
      <trkpt lat="47.35672" lon="-0.35128">
        <ele>52</ele>
        <time>2022-02-28T15:57:29Z</time>
      </trkpt>
      <trkpt lat="47.35724" lon="-0.35181">
        <ele>50</ele>
        <time>2022-02-28T15:57:40Z</time>
      </trkpt>
      <trkpt lat="47.3574" lon="-0.35194">
        <ele>48</ele>
        <time>2022-02-28T15:57:44Z</time>
      </trkpt>
      <trkpt lat="47.35783" lon="-0.35219">
        <ele>46</ele>
        <time>2022-02-28T15:57:52Z</time>
      </trkpt>
      <trkpt lat="47.35819" lon="-0.35246">
        <ele>45</ele>
        <time>2022-02-28T15:57:59Z</time>
      </trkpt>
      <trkpt lat="47.3585" lon="-0.35262">
        <ele>44</ele>
        <time>2022-02-28T15:58:05Z</time>
      </trkpt>
      <trkpt lat="47.35872" lon="-0.35277">
        <ele>43</ele>
        <time>2022-02-28T15:58:09Z</time>
      </trkpt>
      <trkpt lat="47.35885" lon="-0.35293">
        <ele>43</ele>
        <time>2022-02-28T15:58:12Z</time>
      </trkpt>
      <trkpt lat="47.35902" lon="-0.3533">
        <ele>42</ele>
        <time>2022-02-28T15:58:18Z</time>
      </trkpt>
      <trkpt lat="47.35912" lon="-0.35344">
        <ele>42</ele>
        <time>2022-02-28T15:58:20Z</time>
      </trkpt>
      <trkpt lat="47.35924" lon="-0.35352">
        <ele>42</ele>
        <time>2022-02-28T15:58:22Z</time>
      </trkpt>
      <trkpt lat="47.35934" lon="-0.35354">
        <ele>43</ele>
        <time>2022-02-28T15:58:24Z</time>
      </trkpt>
      <trkpt lat="47.3599" lon="-0.35354">
        <ele>43</ele>
        <time>2022-02-28T15:58:34Z</time>
      </trkpt>
      <trkpt lat="47.36111" lon="-0.35351">
        <ele>43</ele>
        <time>2022-02-28T15:58:56Z</time>
      </trkpt>
      <trkpt lat="47.36124" lon="-0.35353">
        <ele>43</ele>
        <time>2022-02-28T15:58:58Z</time>
      </trkpt>
      <trkpt lat="47.36136" lon="-0.35358">
        <ele>43</ele>
        <time>2022-02-28T15:59:00Z</time>
      </trkpt>
      <trkpt lat="47.36199" lon="-0.35425">
        <ele>45</ele>
        <time>2022-02-28T15:59:14Z</time>
      </trkpt>
      <trkpt lat="47.36233" lon="-0.35457">
        <ele>47</ele>
        <time>2022-02-28T15:59:21Z</time>
      </trkpt>
      <trkpt lat="47.36238" lon="-0.35457">
        <ele>47</ele>
        <time>2022-02-28T15:59:22Z</time>
      </trkpt>
      <trkpt lat="47.3624" lon="-0.35465">
        <ele>47</ele>
        <time>2022-02-28T15:59:23Z</time>
      </trkpt>
      <trkpt lat="47.36265" lon="-0.35491">
        <ele>49</ele>
        <time>2022-02-28T15:59:29Z</time>
      </trkpt>
      <trkpt lat="47.36276" lon="-0.35501">
        <ele>49</ele>
        <time>2022-02-28T15:59:31Z</time>
      </trkpt>
      <trkpt lat="47.36282" lon="-0.35501">
        <ele>49</ele>
        <time>2022-02-28T15:59:32Z</time>
      </trkpt>
      <trkpt lat="47.3631" lon="-0.35488">
        <ele>49</ele>
        <time>2022-02-28T15:59:37Z</time>
      </trkpt>
      <trkpt lat="47.36325" lon="-0.35474">
        <ele>48</ele>
        <time>2022-02-28T15:59:40Z</time>
      </trkpt>
      <trkpt lat="47.36344" lon="-0.35467">
        <ele>48</ele>
        <time>2022-02-28T15:59:44Z</time>
      </trkpt>
      <trkpt lat="47.36392" lon="-0.35442">
        <ele>45</ele>
        <time>2022-02-28T15:59:53Z</time>
      </trkpt>
      <trkpt lat="47.36413" lon="-0.35434">
        <ele>44</ele>
        <time>2022-02-28T15:59:57Z</time>
      </trkpt>
      <trkpt lat="47.36423" lon="-0.35433">
        <ele>44</ele>
        <time>2022-02-28T15:59:59Z</time>
      </trkpt>
      <trkpt lat="47.3646" lon="-0.35436">
        <ele>43</ele>
        <time>2022-02-28T16:00:05Z</time>
      </trkpt>
      <trkpt lat="47.36487" lon="-0.35444">
        <ele>43</ele>
        <time>2022-02-28T16:00:10Z</time>
      </trkpt>
      <trkpt lat="47.36515" lon="-0.35466">
        <ele>43</ele>
        <time>2022-02-28T16:00:16Z</time>
      </trkpt>
      <trkpt lat="47.36528" lon="-0.35486">
        <ele>43</ele>
        <time>2022-02-28T16:00:19Z</time>
      </trkpt>
      <trkpt lat="47.36538" lon="-0.35511">
        <ele>43</ele>
        <time>2022-02-28T16:00:23Z</time>
      </trkpt>
      <trkpt lat="47.36625" lon="-0.35898">
        <ele>46</ele>
        <time>2022-02-28T16:01:12Z</time>
      </trkpt>
      <trkpt lat="47.36635" lon="-0.35926">
        <ele>47</ele>
        <time>2022-02-28T16:01:15Z</time>
      </trkpt>
      <trkpt lat="47.36652" lon="-0.35955">
        <ele>48</ele>
        <time>2022-02-28T16:01:20Z</time>
      </trkpt>
      <trkpt lat="47.36727" lon="-0.3605">
        <ele>51</ele>
        <time>2022-02-28T16:01:38Z</time>
      </trkpt>
      <trkpt lat="47.36741" lon="-0.36075">
        <ele>52</ele>
        <time>2022-02-28T16:01:42Z</time>
      </trkpt>
      <trkpt lat="47.36757" lon="-0.36112">
        <ele>53</ele>
        <time>2022-02-28T16:01:47Z</time>
      </trkpt>
      <trkpt lat="47.36865" lon="-0.36422">
        <ele>60</ele>
        <time>2022-02-28T16:02:29Z</time>
      </trkpt>
      <trkpt lat="47.36874" lon="-0.36444">
        <ele>62</ele>
        <time>2022-02-28T16:02:32Z</time>
      </trkpt>
      <trkpt lat="47.36884" lon="-0.36463">
        <ele>63</ele>
        <time>2022-02-28T16:02:35Z</time>
      </trkpt>
      <trkpt lat="47.36898" lon="-0.36483">
        <ele>66</ele>
        <time>2022-02-28T16:02:38Z</time>
      </trkpt>
      <trkpt lat="47.36911" lon="-0.36494">
        <ele>67</ele>
        <time>2022-02-28T16:02:41Z</time>
      </trkpt>
      <trkpt lat="47.36923" lon="-0.36501">
        <ele>68</ele>
        <time>2022-02-28T16:02:43Z</time>
      </trkpt>
      <trkpt lat="47.37159" lon="-0.36583">
        <ele>76</ele>
        <time>2022-02-28T16:03:26Z</time>
      </trkpt>
      <trkpt lat="47.37199" lon="-0.36605">
        <ele>77</ele>
        <time>2022-02-28T16:03:34Z</time>
      </trkpt>
      <trkpt lat="47.37216" lon="-0.36621">
        <ele>78</ele>
        <time>2022-02-28T16:03:38Z</time>
      </trkpt>
      <trkpt lat="47.37231" lon="-0.36637">
        <ele>78</ele>
        <time>2022-02-28T16:03:41Z</time>
      </trkpt>
      <trkpt lat="47.37258" lon="-0.36677">
        <ele>78</ele>
        <time>2022-02-28T16:03:48Z</time>
      </trkpt>
      <trkpt lat="47.37271" lon="-0.36705">
        <ele>79</ele>
        <time>2022-02-28T16:03:52Z</time>
      </trkpt>
      <trkpt lat="47.37381" lon="-0.36997">
        <ele>85</ele>
        <time>2022-02-28T16:04:32Z</time>
      </trkpt>
      <trkpt lat="47.37697" lon="-0.3784">
        <ele>86</ele>
        <time>2022-02-28T16:06:28Z</time>
      </trkpt>
      <trkpt lat="47.37906" lon="-0.38403">
        <ele>84</ele>
        <time>2022-02-28T16:07:46Z</time>
      </trkpt>
      <trkpt lat="47.37931" lon="-0.38466">
        <ele>83</ele>
        <time>2022-02-28T16:07:54Z</time>
      </trkpt>
      <trkpt lat="47.37984" lon="-0.38572">
        <ele>81</ele>
        <time>2022-02-28T16:08:10Z</time>
      </trkpt>
      <trkpt lat="47.38149" lon="-0.38889">
        <ele>82</ele>
        <time>2022-02-28T16:08:58Z</time>
      </trkpt>
      <trkpt lat="47.38566" lon="-0.39675">
        <ele>84</ele>
        <time>2022-02-28T16:10:59Z</time>
      </trkpt>
      <trkpt lat="47.38617" lon="-0.39778">
        <ele>86</ele>
        <time>2022-02-28T16:11:14Z</time>
      </trkpt>
      <trkpt lat="47.3867" lon="-0.39893">
        <ele>87</ele>
        <time>2022-02-28T16:11:31Z</time>
      </trkpt>
      <trkpt lat="47.38737" lon="-0.4005">
        <ele>86</ele>
        <time>2022-02-28T16:11:53Z</time>
      </trkpt>
      <trkpt lat="47.38754" lon="-0.401">
        <ele>84</ele>
        <time>2022-02-28T16:12:00Z</time>
      </trkpt>
      <trkpt lat="47.38824" lon="-0.40359">
        <ele>81</ele>
        <time>2022-02-28T16:12:34Z</time>
      </trkpt>
      <trkpt lat="47.38831" lon="-0.40394">
        <ele>81</ele>
        <time>2022-02-28T16:12:38Z</time>
      </trkpt>
      <trkpt lat="47.38834" lon="-0.4043">
        <ele>81</ele>
        <time>2022-02-28T16:12:42Z</time>
      </trkpt>
      <trkpt lat="47.38839" lon="-0.40634">
        <ele>82</ele>
        <time>2022-02-28T16:13:07Z</time>
      </trkpt>
      <trkpt lat="47.38845" lon="-0.40702">
        <ele>82</ele>
        <time>2022-02-28T16:13:15Z</time>
      </trkpt>
      <trkpt lat="47.38862" lon="-0.40809">
        <ele>80</ele>
        <time>2022-02-28T16:13:28Z</time>
      </trkpt>
      <trkpt lat="47.38866" lon="-0.40863">
        <ele>80</ele>
        <time>2022-02-28T16:13:35Z</time>
      </trkpt>
      <trkpt lat="47.38866" lon="-0.40913">
        <ele>80</ele>
        <time>2022-02-28T16:13:41Z</time>
      </trkpt>
      <trkpt lat="47.38854" lon="-0.40995">
        <ele>82</ele>
        <time>2022-02-28T16:13:51Z</time>
      </trkpt>
      <trkpt lat="47.38834" lon="-0.4109">
        <ele>81</ele>
        <time>2022-02-28T16:14:03Z</time>
      </trkpt>
      <trkpt lat="47.38815" lon="-0.41196">
        <ele>80</ele>
        <time>2022-02-28T16:14:16Z</time>
      </trkpt>
      <trkpt lat="47.38811" lon="-0.41234">
        <ele>80</ele>
        <time>2022-02-28T16:14:21Z</time>
      </trkpt>
      <trkpt lat="47.38808" lon="-0.41274">
        <ele>80</ele>
        <time>2022-02-28T16:14:26Z</time>
      </trkpt>
      <trkpt lat="47.38794" lon="-0.41628">
        <ele>78</ele>
        <time>2022-02-28T16:15:08Z</time>
      </trkpt>
      <trkpt lat="47.38795" lon="-0.41695">
        <ele>77</ele>
        <time>2022-02-28T16:15:17Z</time>
      </trkpt>
      <trkpt lat="47.38805" lon="-0.4198">
        <ele>78</ele>
        <time>2022-02-28T16:15:51Z</time>
      </trkpt>
      <trkpt lat="47.38808" lon="-0.42027">
        <ele>78</ele>
        <time>2022-02-28T16:15:57Z</time>
      </trkpt>
      <trkpt lat="47.38815" lon="-0.42065">
        <ele>79</ele>
        <time>2022-02-28T16:16:01Z</time>
      </trkpt>
      <trkpt lat="47.38841" lon="-0.42151">
        <ele>79</ele>
        <time>2022-02-28T16:16:13Z</time>
      </trkpt>
      <trkpt lat="47.39017" lon="-0.42673">
        <ele>80</ele>
        <time>2022-02-28T16:17:23Z</time>
      </trkpt>
      <trkpt lat="47.3911" lon="-0.42927">
        <ele>77</ele>
        <time>2022-02-28T16:17:58Z</time>
      </trkpt>
      <trkpt lat="47.39144" lon="-0.43">
        <ele>78</ele>
        <time>2022-02-28T16:18:08Z</time>
      </trkpt>
      <trkpt lat="47.39149" lon="-0.43">
        <ele>78</ele>
        <time>2022-02-28T16:18:09Z</time>
      </trkpt>
      <trkpt lat="47.39153" lon="-0.43004">
        <ele>78</ele>
        <time>2022-02-28T16:18:10Z</time>
      </trkpt>
      <trkpt lat="47.39153" lon="-0.43015">
        <ele>78</ele>
        <time>2022-02-28T16:18:11Z</time>
      </trkpt>
      <trkpt lat="47.39149" lon="-0.43019">
        <ele>78</ele>
        <time>2022-02-28T16:18:12Z</time>
      </trkpt>
      <trkpt lat="47.39154" lon="-0.43044">
        <ele>78</ele>
        <time>2022-02-28T16:18:15Z</time>
      </trkpt>
      <trkpt lat="47.3917" lon="-0.43089">
        <ele>79</ele>
        <time>2022-02-28T16:18:22Z</time>
      </trkpt>
      <trkpt lat="47.39192" lon="-0.43147">
        <ele>79</ele>
        <time>2022-02-28T16:18:30Z</time>
      </trkpt>
      <trkpt lat="47.39195" lon="-0.4316">
        <ele>79</ele>
        <time>2022-02-28T16:18:31Z</time>
      </trkpt>
      <trkpt lat="47.39211" lon="-0.43207">
        <ele>80</ele>
        <time>2022-02-28T16:18:38Z</time>
      </trkpt>
      <trkpt lat="47.39224" lon="-0.43236">
        <ele>81</ele>
        <time>2022-02-28T16:18:42Z</time>
      </trkpt>
      <trkpt lat="47.39234" lon="-0.43263">
        <ele>81</ele>
        <time>2022-02-28T16:18:45Z</time>
      </trkpt>
      <trkpt lat="47.39236" lon="-0.43277">
        <ele>81</ele>
        <time>2022-02-28T16:18:47Z</time>
      </trkpt>
      <trkpt lat="47.39248" lon="-0.4331">
        <ele>80</ele>
        <time>2022-02-28T16:18:52Z</time>
      </trkpt>
      <trkpt lat="47.39255" lon="-0.43321">
        <ele>80</ele>
        <time>2022-02-28T16:18:54Z</time>
      </trkpt>
      <trkpt lat="47.39273" lon="-0.43373">
        <ele>80</ele>
        <time>2022-02-28T16:19:01Z</time>
      </trkpt>
      <trkpt lat="47.39275" lon="-0.43385">
        <ele>80</ele>
        <time>2022-02-28T16:19:02Z</time>
      </trkpt>
      <trkpt lat="47.39297" lon="-0.43445">
        <ele>81</ele>
        <time>2022-02-28T16:19:10Z</time>
      </trkpt>
      <trkpt lat="47.39304" lon="-0.43456">
        <ele>81</ele>
        <time>2022-02-28T16:19:12Z</time>
      </trkpt>
      <trkpt lat="47.39327" lon="-0.43516">
        <ele>81</ele>
        <time>2022-02-28T16:19:20Z</time>
      </trkpt>
      <trkpt lat="47.39332" lon="-0.43539">
        <ele>80</ele>
        <time>2022-02-28T16:19:23Z</time>
      </trkpt>
      <trkpt lat="47.39385" lon="-0.43678">
        <ele>78</ele>
        <time>2022-02-28T16:19:43Z</time>
      </trkpt>
      <trkpt lat="47.39398" lon="-0.43809">
        <ele>71</ele>
        <time>2022-02-28T16:19:58Z</time>
      </trkpt>
      <trkpt lat="47.39408" lon="-0.43885">
        <ele>65</ele>
        <time>2022-02-28T16:20:08Z</time>
      </trkpt>
      <trkpt lat="47.39418" lon="-0.43941">
        <ele>62</ele>
        <time>2022-02-28T16:20:15Z</time>
      </trkpt>
      <trkpt lat="47.3943" lon="-0.43994">
        <ele>59</ele>
        <time>2022-02-28T16:20:21Z</time>
      </trkpt>
      <trkpt lat="47.39458" lon="-0.44083">
        <ele>55</ele>
        <time>2022-02-28T16:20:33Z</time>
      </trkpt>
      <trkpt lat="47.39473" lon="-0.44124">
        <ele>53</ele>
        <time>2022-02-28T16:20:39Z</time>
      </trkpt>
      <trkpt lat="47.3961" lon="-0.44432">
        <ele>35</ele>
        <time>2022-02-28T16:21:23Z</time>
      </trkpt>
      <trkpt lat="47.39629" lon="-0.4448">
        <ele>35</ele>
        <time>2022-02-28T16:21:30Z</time>
      </trkpt>
      <trkpt lat="47.39636" lon="-0.44504">
        <ele>35</ele>
        <time>2022-02-28T16:21:33Z</time>
      </trkpt>
      <trkpt lat="47.39645" lon="-0.44554">
        <ele>34</ele>
        <time>2022-02-28T16:21:39Z</time>
      </trkpt>
      <trkpt lat="47.39654" lon="-0.44555">
        <ele>34</ele>
        <time>2022-02-28T16:21:41Z</time>
      </trkpt>
      <trkpt lat="47.39658" lon="-0.44559">
        <ele>34</ele>
        <time>2022-02-28T16:21:42Z</time>
      </trkpt>
      <trkpt lat="47.39661" lon="-0.44571">
        <ele>33</ele>
        <time>2022-02-28T16:21:43Z</time>
      </trkpt>
      <trkpt lat="47.39659" lon="-0.44584">
        <ele>33</ele>
        <time>2022-02-28T16:21:45Z</time>
      </trkpt>
      <trkpt lat="47.39674" lon="-0.44601">
        <ele>33</ele>
        <time>2022-02-28T16:21:48Z</time>
      </trkpt>
      <trkpt lat="47.39694" lon="-0.44661">
        <ele>33</ele>
        <time>2022-02-28T16:21:56Z</time>
      </trkpt>
      <trkpt lat="47.39715" lon="-0.44715">
        <ele>33</ele>
        <time>2022-02-28T16:22:04Z</time>
      </trkpt>
      <trkpt lat="47.39808" lon="-0.4492">
        <ele>31</ele>
        <time>2022-02-28T16:22:34Z</time>
      </trkpt>
      <trkpt lat="47.39842" lon="-0.44997">
        <ele>29</ele>
        <time>2022-02-28T16:22:45Z</time>
      </trkpt>
      <trkpt lat="47.3987" lon="-0.45072">
        <ele>27</ele>
        <time>2022-02-28T16:22:55Z</time>
      </trkpt>
      <trkpt lat="47.39881" lon="-0.45083">
        <ele>27</ele>
        <time>2022-02-28T16:22:57Z</time>
      </trkpt>
      <trkpt lat="47.39885" lon="-0.45094">
        <ele>27</ele>
        <time>2022-02-28T16:22:59Z</time>
      </trkpt>
      <trkpt lat="47.39904" lon="-0.45163">
        <ele>26</ele>
        <time>2022-02-28T16:23:08Z</time>
      </trkpt>
      <trkpt lat="47.39951" lon="-0.45397">
        <ele>30</ele>
        <time>2022-02-28T16:23:37Z</time>
      </trkpt>
      <trkpt lat="47.39961" lon="-0.45433">
        <ele>30</ele>
        <time>2022-02-28T16:23:42Z</time>
      </trkpt>
      <trkpt lat="47.39973" lon="-0.45466">
        <ele>30</ele>
        <time>2022-02-28T16:23:46Z</time>
      </trkpt>
      <trkpt lat="47.40029" lon="-0.45595">
        <ele>30</ele>
        <time>2022-02-28T16:24:05Z</time>
      </trkpt>
      <trkpt lat="47.40061" lon="-0.45707">
        <ele>29</ele>
        <time>2022-02-28T16:24:20Z</time>
      </trkpt>
      <trkpt lat="47.40079" lon="-0.45777">
        <ele>28</ele>
        <time>2022-02-28T16:24:29Z</time>
      </trkpt>
      <trkpt lat="47.4017" lon="-0.46102">
        <ele>28</ele>
        <time>2022-02-28T16:25:11Z</time>
      </trkpt>
      <trkpt lat="47.40175" lon="-0.46123">
        <ele>28</ele>
        <time>2022-02-28T16:25:14Z</time>
      </trkpt>
      <trkpt lat="47.40183" lon="-0.46197">
        <ele>27</ele>
        <time>2022-02-28T16:25:23Z</time>
      </trkpt>
      <trkpt lat="47.40187" lon="-0.46221">
        <ele>26</ele>
        <time>2022-02-28T16:25:26Z</time>
      </trkpt>
      <trkpt lat="47.40194" lon="-0.46246">
        <ele>25</ele>
        <time>2022-02-28T16:25:29Z</time>
      </trkpt>
      <trkpt lat="47.40272" lon="-0.46458">
        <ele>22</ele>
        <time>2022-02-28T16:25:58Z</time>
      </trkpt>
      <trkpt lat="47.40298" lon="-0.46542">
        <ele>24</ele>
        <time>2022-02-28T16:26:09Z</time>
      </trkpt>
      <trkpt lat="47.40311" lon="-0.46598">
        <ele>25</ele>
        <time>2022-02-28T16:26:16Z</time>
      </trkpt>
      <trkpt lat="47.40322" lon="-0.46668">
        <ele>27</ele>
        <time>2022-02-28T16:26:25Z</time>
      </trkpt>
      <trkpt lat="47.4034" lon="-0.4681">
        <ele>31</ele>
        <time>2022-02-28T16:26:42Z</time>
      </trkpt>
      <trkpt lat="47.4035" lon="-0.46853">
        <ele>32</ele>
        <time>2022-02-28T16:26:48Z</time>
      </trkpt>
      <trkpt lat="47.40357" lon="-0.46872">
        <ele>32</ele>
        <time>2022-02-28T16:26:50Z</time>
      </trkpt>
      <trkpt lat="47.40371" lon="-0.46899">
        <ele>32</ele>
        <time>2022-02-28T16:26:54Z</time>
      </trkpt>
      <trkpt lat="47.40404" lon="-0.46945">
        <ele>31</ele>
        <time>2022-02-28T16:27:02Z</time>
      </trkpt>
      <trkpt lat="47.40419" lon="-0.4697">
        <ele>31</ele>
        <time>2022-02-28T16:27:07Z</time>
      </trkpt>
      <trkpt lat="47.40443" lon="-0.4702">
        <ele>31</ele>
        <time>2022-02-28T16:27:14Z</time>
      </trkpt>
      <trkpt lat="47.4055" lon="-0.47258">
        <ele>25</ele>
        <time>2022-02-28T16:27:48Z</time>
      </trkpt>
      <trkpt lat="47.4059" lon="-0.47353">
        <ele>25</ele>
        <time>2022-02-28T16:28:02Z</time>
      </trkpt>
      <trkpt lat="47.406" lon="-0.4737">
        <ele>24</ele>
        <time>2022-02-28T16:28:04Z</time>
      </trkpt>
      <trkpt lat="47.40641" lon="-0.47402">
        <ele>23</ele>
        <time>2022-02-28T16:28:13Z</time>
      </trkpt>
      <trkpt lat="47.40702" lon="-0.4747">
        <ele>23</ele>
        <time>2022-02-28T16:28:26Z</time>
      </trkpt>
      <trkpt lat="47.40743" lon="-0.4754">
        <ele>24</ele>
        <time>2022-02-28T16:28:37Z</time>
      </trkpt>
      <trkpt lat="47.40755" lon="-0.47558">
        <ele>24</ele>
        <time>2022-02-28T16:28:41Z</time>
      </trkpt>
      <trkpt lat="47.40764" lon="-0.47578">
        <ele>23</ele>
        <time>2022-02-28T16:28:43Z</time>
      </trkpt>
      <trkpt lat="47.40772" lon="-0.47613">
        <ele>23</ele>
        <time>2022-02-28T16:28:48Z</time>
      </trkpt>
      <trkpt lat="47.40773" lon="-0.47637">
        <ele>24</ele>
        <time>2022-02-28T16:28:51Z</time>
      </trkpt>
      <trkpt lat="47.40765" lon="-0.47743">
        <ele>24</ele>
        <time>2022-02-28T16:29:04Z</time>
      </trkpt>
      <trkpt lat="47.40768" lon="-0.47823">
        <ele>25</ele>
        <time>2022-02-28T16:29:13Z</time>
      </trkpt>
      <trkpt lat="47.40776" lon="-0.47875">
        <ele>25</ele>
        <time>2022-02-28T16:29:20Z</time>
      </trkpt>
      <trkpt lat="47.40781" lon="-0.47876">
        <ele>25</ele>
        <time>2022-02-28T16:29:21Z</time>
      </trkpt>
      <trkpt lat="47.40789" lon="-0.4789">
        <ele>25</ele>
        <time>2022-02-28T16:29:23Z</time>
      </trkpt>
      <trkpt lat="47.4081" lon="-0.47938">
        <ele>25</ele>
        <time>2022-02-28T16:29:30Z</time>
      </trkpt>
      <trkpt lat="47.40817" lon="-0.47955">
        <ele>24</ele>
        <time>2022-02-28T16:29:32Z</time>
      </trkpt>
      <trkpt lat="47.40835" lon="-0.48018">
        <ele>24</ele>
        <time>2022-02-28T16:29:40Z</time>
      </trkpt>
      <trkpt lat="47.40841" lon="-0.48047">
        <ele>24</ele>
        <time>2022-02-28T16:29:44Z</time>
      </trkpt>
      <trkpt lat="47.40849" lon="-0.48099">
        <ele>23</ele>
        <time>2022-02-28T16:29:50Z</time>
      </trkpt>
      <trkpt lat="47.40851" lon="-0.4813">
        <ele>23</ele>
        <time>2022-02-28T16:29:54Z</time>
      </trkpt>
      <trkpt lat="47.40856" lon="-0.48131">
        <ele>23</ele>
        <time>2022-02-28T16:29:55Z</time>
      </trkpt>
      <trkpt lat="47.4086" lon="-0.4814">
        <ele>22</ele>
        <time>2022-02-28T16:29:56Z</time>
      </trkpt>
      <trkpt lat="47.40859" lon="-0.48147">
        <ele>22</ele>
        <time>2022-02-28T16:29:57Z</time>
      </trkpt>
      <trkpt lat="47.40855" lon="-0.48152">
        <ele>23</ele>
        <time>2022-02-28T16:29:58Z</time>
      </trkpt>
      <trkpt lat="47.40876" lon="-0.48284">
        <ele>20</ele>
        <time>2022-02-28T16:30:14Z</time>
      </trkpt>
      <trkpt lat="47.40887" lon="-0.48332">
        <ele>20</ele>
        <time>2022-02-28T16:30:21Z</time>
      </trkpt>
      <trkpt lat="47.40899" lon="-0.48361">
        <ele>21</ele>
        <time>2022-02-28T16:30:25Z</time>
      </trkpt>
      <trkpt lat="47.40908" lon="-0.4838">
        <ele>21</ele>
        <time>2022-02-28T16:30:27Z</time>
      </trkpt>
      <trkpt lat="47.41011" lon="-0.48634">
        <ele>18</ele>
        <time>2022-02-28T16:31:03Z</time>
      </trkpt>
      <trkpt lat="47.41144" lon="-0.49036">
        <ele>25</ele>
        <time>2022-02-28T16:31:57Z</time>
      </trkpt>
      <trkpt lat="47.41171" lon="-0.49119">
        <ele>22</ele>
        <time>2022-02-28T16:32:08Z</time>
      </trkpt>
      <trkpt lat="47.4121" lon="-0.49291">
        <ele>21</ele>
        <time>2022-02-28T16:32:30Z</time>
      </trkpt>
      <trkpt lat="47.41288" lon="-0.49689">
        <ele>21</ele>
        <time>2022-02-28T16:33:20Z</time>
      </trkpt>
      <trkpt lat="47.41303" lon="-0.49784">
        <ele>19</ele>
        <time>2022-02-28T16:33:32Z</time>
      </trkpt>
      <trkpt lat="47.41307" lon="-0.49833">
        <ele>20</ele>
        <time>2022-02-28T16:33:37Z</time>
      </trkpt>
      <trkpt lat="47.41327" lon="-0.50199">
        <ele>20</ele>
        <time>2022-02-28T16:34:22Z</time>
      </trkpt>
      <trkpt lat="47.41345" lon="-0.50265">
        <ele>20</ele>
        <time>2022-02-28T16:34:30Z</time>
      </trkpt>
      <trkpt lat="47.41355" lon="-0.50314">
        <ele>20</ele>
        <time>2022-02-28T16:34:36Z</time>
      </trkpt>
      <trkpt lat="47.41357" lon="-0.50353">
        <ele>19</ele>
        <time>2022-02-28T16:34:41Z</time>
      </trkpt>
      <trkpt lat="47.41354" lon="-0.50389">
        <ele>18</ele>
        <time>2022-02-28T16:34:45Z</time>
      </trkpt>
      <trkpt lat="47.41396" lon="-0.50631">
        <ele>23</ele>
        <time>2022-02-28T16:35:16Z</time>
      </trkpt>
      <trkpt lat="47.41409" lon="-0.50719">
        <ele>24</ele>
        <time>2022-02-28T16:35:26Z</time>
      </trkpt>
      <trkpt lat="47.41412" lon="-0.50755">
        <ele>24</ele>
        <time>2022-02-28T16:35:31Z</time>
      </trkpt>
      <trkpt lat="47.41412" lon="-0.50798">
        <ele>23</ele>
        <time>2022-02-28T16:35:36Z</time>
      </trkpt>
      <trkpt lat="47.41395" lon="-0.5095">
        <ele>20</ele>
        <time>2022-02-28T16:35:55Z</time>
      </trkpt>
      <trkpt lat="47.41386" lon="-0.51009">
        <ele>22</ele>
        <time>2022-02-28T16:36:02Z</time>
      </trkpt>
      <trkpt lat="47.41377" lon="-0.51034">
        <ele>22</ele>
        <time>2022-02-28T16:36:05Z</time>
      </trkpt>
      <trkpt lat="47.41357" lon="-0.51074">
        <ele>22</ele>
        <time>2022-02-28T16:36:11Z</time>
      </trkpt>
      <trkpt lat="47.41235" lon="-0.51287">
        <ele>19</ele>
        <time>2022-02-28T16:36:45Z</time>
      </trkpt>
      <trkpt lat="47.41178" lon="-0.51381">
        <ele>20</ele>
        <time>2022-02-28T16:37:00Z</time>
      </trkpt>
      <trkpt lat="47.41101" lon="-0.51482">
        <ele>19</ele>
        <time>2022-02-28T16:37:18Z</time>
      </trkpt>
      <trkpt lat="47.41086" lon="-0.51506">
        <ele>18</ele>
        <time>2022-02-28T16:37:22Z</time>
      </trkpt>
      <trkpt lat="47.41079" lon="-0.51521">
        <ele>18</ele>
        <time>2022-02-28T16:37:24Z</time>
      </trkpt>
      <trkpt lat="47.41071" lon="-0.51548">
        <ele>18</ele>
        <time>2022-02-28T16:37:28Z</time>
      </trkpt>
      <trkpt lat="47.41065" lon="-0.5158">
        <ele>18</ele>
        <time>2022-02-28T16:37:32Z</time>
      </trkpt>
      <trkpt lat="47.41026" lon="-0.51849">
        <ele>22</ele>
        <time>2022-02-28T16:38:05Z</time>
      </trkpt>
      <trkpt lat="47.40995" lon="-0.52069">
        <ele>19</ele>
        <time>2022-02-28T16:38:32Z</time>
      </trkpt>
      <trkpt lat="47.40981" lon="-0.52143">
        <ele>19</ele>
        <time>2022-02-28T16:38:41Z</time>
      </trkpt>
      <trkpt lat="47.4096" lon="-0.52224">
        <ele>20</ele>
        <time>2022-02-28T16:38:52Z</time>
      </trkpt>
      <trkpt lat="47.40942" lon="-0.52311">
        <ele>20</ele>
        <time>2022-02-28T16:39:03Z</time>
      </trkpt>
      <trkpt lat="47.4093" lon="-0.52407">
        <ele>21</ele>
        <time>2022-02-28T16:39:15Z</time>
      </trkpt>
      <trkpt lat="47.40931" lon="-0.52412">
        <ele>21</ele>
        <time>2022-02-28T16:39:15Z</time>
      </trkpt>
      <trkpt lat="47.40931" lon="-0.52447">
        <ele>21</ele>
        <time>2022-02-28T16:39:19Z</time>
      </trkpt>
      <trkpt lat="47.4094" lon="-0.52483">
        <ele>21</ele>
        <time>2022-02-28T16:39:24Z</time>
      </trkpt>
      <trkpt lat="47.4101" lon="-0.52451">
        <ele>21</ele>
        <time>2022-02-28T16:39:37Z</time>
      </trkpt>
      <trkpt lat="47.41041" lon="-0.5244">
        <ele>20</ele>
        <time>2022-02-28T16:39:43Z</time>
      </trkpt>
      <trkpt lat="47.41184" lon="-0.52389">
        <ele>19</ele>
        <time>2022-02-28T16:40:09Z</time>
      </trkpt>
      <trkpt lat="47.41229" lon="-0.52378">
        <ele>21</ele>
        <time>2022-02-28T16:40:17Z</time>
      </trkpt>
      <trkpt lat="47.4136" lon="-0.52339">
        <ele>21</ele>
        <time>2022-02-28T16:40:41Z</time>
      </trkpt>
      <trkpt lat="47.41466" lon="-0.52315">
        <ele>23</ele>
        <time>2022-02-28T16:41:00Z</time>
      </trkpt>
      <trkpt lat="47.41501" lon="-0.52314">
        <ele>24</ele>
        <time>2022-02-28T16:41:06Z</time>
      </trkpt>
      <trkpt lat="47.41588" lon="-0.52319">
        <ele>24</ele>
        <time>2022-02-28T16:41:22Z</time>
      </trkpt>
      <trkpt lat="47.41689" lon="-0.52329">
        <ele>23</ele>
        <time>2022-02-28T16:41:40Z</time>
      </trkpt>
      <trkpt lat="47.41822" lon="-0.52337">
        <ele>22</ele>
        <time>2022-02-28T16:42:03Z</time>
      </trkpt>
      <trkpt lat="47.41835" lon="-0.5233">
        <ele>22</ele>
        <time>2022-02-28T16:42:06Z</time>
      </trkpt>
      <trkpt lat="47.41836" lon="-0.52321">
        <ele>22</ele>
        <time>2022-02-28T16:42:07Z</time>
      </trkpt>
      <trkpt lat="47.41841" lon="-0.52316">
        <ele>22</ele>
        <time>2022-02-28T16:42:08Z</time>
      </trkpt>
      <trkpt lat="47.41847" lon="-0.52316">
        <ele>22</ele>
        <time>2022-02-28T16:42:09Z</time>
      </trkpt>
      <trkpt lat="47.41852" lon="-0.52322">
        <ele>22</ele>
        <time>2022-02-28T16:42:10Z</time>
      </trkpt>
      <trkpt lat="47.41852" lon="-0.52327">
        <ele>22</ele>
        <time>2022-02-28T16:42:11Z</time>
      </trkpt>
      <trkpt lat="47.41865" lon="-0.52342">
        <ele>22</ele>
        <time>2022-02-28T16:42:14Z</time>
      </trkpt>
      <trkpt lat="47.41976" lon="-0.5235">
        <ele>17</ele>
        <time>2022-02-28T16:42:33Z</time>
      </trkpt>
      <trkpt lat="47.42255" lon="-0.52371">
        <ele>21</ele>
        <time>2022-02-28T16:43:23Z</time>
      </trkpt>
      <trkpt lat="47.42284" lon="-0.52377">
        <ele>22</ele>
        <time>2022-02-28T16:43:28Z</time>
      </trkpt>
      <trkpt lat="47.42379" lon="-0.52442">
        <ele>24</ele>
        <time>2022-02-28T16:43:47Z</time>
      </trkpt>
      <trkpt lat="47.42437" lon="-0.52485">
        <ele>23</ele>
        <time>2022-02-28T16:43:59Z</time>
      </trkpt>
      <trkpt lat="47.42452" lon="-0.52498">
        <ele>23</ele>
        <time>2022-02-28T16:44:02Z</time>
      </trkpt>
      <trkpt lat="47.42473" lon="-0.52507">
        <ele>22</ele>
        <time>2022-02-28T16:44:06Z</time>
      </trkpt>
      <trkpt lat="47.4248" lon="-0.52505">
        <ele>22</ele>
        <time>2022-02-28T16:44:07Z</time>
      </trkpt>
      <trkpt lat="47.42488" lon="-0.52511">
        <ele>22</ele>
        <time>2022-02-28T16:44:08Z</time>
      </trkpt>
      <trkpt lat="47.42524" lon="-0.5254">
        <ele>23</ele>
        <time>2022-02-28T16:44:16Z</time>
      </trkpt>
      <trkpt lat="47.42595" lon="-0.5259">
        <ele>22</ele>
        <time>2022-02-28T16:44:30Z</time>
      </trkpt>
      <trkpt lat="47.42607" lon="-0.526">
        <ele>21</ele>
        <time>2022-02-28T16:44:32Z</time>
      </trkpt>
      <trkpt lat="47.4261" lon="-0.52605">
        <ele>21</ele>
        <time>2022-02-28T16:44:33Z</time>
      </trkpt>
      <trkpt lat="47.42645" lon="-0.52631">
        <ele>20</ele>
        <time>2022-02-28T16:44:40Z</time>
      </trkpt>
      <trkpt lat="47.42731" lon="-0.52692">
        <ele>21</ele>
        <time>2022-02-28T16:44:57Z</time>
      </trkpt>
      <trkpt lat="47.42799" lon="-0.52739">
        <ele>23</ele>
        <time>2022-02-28T16:45:10Z</time>
      </trkpt>
      <trkpt lat="47.42867" lon="-0.52773">
        <ele>22</ele>
        <time>2022-02-28T16:45:23Z</time>
      </trkpt>
      <trkpt lat="47.42895" lon="-0.52784">
        <ele>21</ele>
        <time>2022-02-28T16:45:28Z</time>
      </trkpt>
      <trkpt lat="47.42914" lon="-0.52789">
        <ele>21</ele>
        <time>2022-02-28T16:45:32Z</time>
      </trkpt>
      <trkpt lat="47.42969" lon="-0.52794">
        <ele>20</ele>
        <time>2022-02-28T16:45:41Z</time>
      </trkpt>
      <trkpt lat="47.42982" lon="-0.52797">
        <ele>20</ele>
        <time>2022-02-28T16:45:44Z</time>
      </trkpt>
      <trkpt lat="47.43013" lon="-0.52806">
        <ele>20</ele>
        <time>2022-02-28T16:45:49Z</time>
      </trkpt>
      <trkpt lat="47.4305" lon="-0.5282">
        <ele>19</ele>
        <time>2022-02-28T16:45:56Z</time>
      </trkpt>
      <trkpt lat="47.4308" lon="-0.52831">
        <ele>19</ele>
        <time>2022-02-28T16:46:02Z</time>
      </trkpt>
      <trkpt lat="47.43172" lon="-0.52866">
        <ele>21</ele>
        <time>2022-02-28T16:46:19Z</time>
      </trkpt>
      <trkpt lat="47.43211" lon="-0.52887">
        <ele>22</ele>
        <time>2022-02-28T16:46:26Z</time>
      </trkpt>
      <trkpt lat="47.43204" lon="-0.5293">
        <ele>22</ele>
        <time>2022-02-28T16:46:31Z</time>
      </trkpt>
      <trkpt lat="47.43201" lon="-0.5296">
        <ele>21</ele>
        <time>2022-02-28T16:46:35Z</time>
      </trkpt>
      <trkpt lat="47.43188" lon="-0.53117">
        <ele>22</ele>
        <time>2022-02-28T16:46:54Z</time>
      </trkpt>
      <trkpt lat="47.43186" lon="-0.53156">
        <ele>23</ele>
        <time>2022-02-28T16:46:59Z</time>
      </trkpt>
      <trkpt lat="47.43182" lon="-0.53207">
        <ele>23</ele>
        <time>2022-02-28T16:47:05Z</time>
      </trkpt>
      <trkpt lat="47.43183" lon="-0.53237">
        <ele>23</ele>
        <time>2022-02-28T16:47:08Z</time>
      </trkpt>
      <trkpt lat="47.43187" lon="-0.53271">
        <ele>23</ele>
        <time>2022-02-28T16:47:13Z</time>
      </trkpt>
      <trkpt lat="47.43207" lon="-0.53367">
        <ele>22</ele>
        <time>2022-02-28T16:47:25Z</time>
      </trkpt>
      <trkpt lat="47.43213" lon="-0.53377">
        <ele>22</ele>
        <time>2022-02-28T16:47:26Z</time>
      </trkpt>
      <trkpt lat="47.43221" lon="-0.53383">
        <ele>22</ele>
        <time>2022-02-28T16:47:28Z</time>
      </trkpt>
      <trkpt lat="47.43224" lon="-0.53387">
        <ele>22</ele>
        <time>2022-02-28T16:47:29Z</time>
      </trkpt>
      <trkpt lat="47.4322" lon="-0.53418">
        <ele>22</ele>
        <time>2022-02-28T16:47:32Z</time>
      </trkpt>
      <trkpt lat="47.43222" lon="-0.53432">
        <ele>22</ele>
        <time>2022-02-28T16:47:34Z</time>
      </trkpt>
      <trkpt lat="47.43228" lon="-0.53449">
        <ele>22</ele>
        <time>2022-02-28T16:47:36Z</time>
      </trkpt>
      <trkpt lat="47.43236" lon="-0.53461">
        <ele>21</ele>
        <time>2022-02-28T16:47:38Z</time>
      </trkpt>
      <trkpt lat="47.43238" lon="-0.53477">
        <ele>21</ele>
        <time>2022-02-28T16:47:40Z</time>
      </trkpt>
      <trkpt lat="47.43237" lon="-0.53485">
        <ele>21</ele>
        <time>2022-02-28T16:47:41Z</time>
      </trkpt>
      <trkpt lat="47.43229" lon="-0.53498">
        <ele>21</ele>
        <time>2022-02-28T16:47:44Z</time>
      </trkpt>
      <trkpt lat="47.4322" lon="-0.53502">
        <ele>21</ele>
        <time>2022-02-28T16:47:45Z</time>
      </trkpt>
      <trkpt lat="47.43215" lon="-0.53501">
        <ele>21</ele>
        <time>2022-02-28T16:47:46Z</time>
      </trkpt>
      <trkpt lat="47.43203" lon="-0.53511">
        <ele>21</ele>
        <time>2022-02-28T16:47:49Z</time>
      </trkpt>
      <trkpt lat="47.43193" lon="-0.53528">
        <ele>20</ele>
        <time>2022-02-28T16:47:51Z</time>
      </trkpt>
      <trkpt lat="47.43182" lon="-0.53558">
        <ele>20</ele>
        <time>2022-02-28T16:47:55Z</time>
      </trkpt>
      <trkpt lat="47.43128" lon="-0.53744">
        <ele>18</ele>
        <time>2022-02-28T16:48:20Z</time>
      </trkpt>
      <trkpt lat="47.43009" lon="-0.54138">
        <ele>19</ele>
        <time>2022-02-28T16:49:12Z</time>
      </trkpt>
      <trkpt lat="47.43008" lon="-0.54157">
        <ele>19</ele>
        <time>2022-02-28T16:49:14Z</time>
      </trkpt>
      <trkpt lat="47.43011" lon="-0.54173">
        <ele>19</ele>
        <time>2022-02-28T16:49:16Z</time>
      </trkpt>
      <trkpt lat="47.4301" lon="-0.54181">
        <ele>19</ele>
        <time>2022-02-28T16:49:17Z</time>
      </trkpt>
      <trkpt lat="47.43004" lon="-0.54194">
        <ele>20</ele>
        <time>2022-02-28T16:49:19Z</time>
      </trkpt>
      <trkpt lat="47.42996" lon="-0.542">
        <ele>20</ele>
        <time>2022-02-28T16:49:20Z</time>
      </trkpt>
      <trkpt lat="47.42988" lon="-0.54212">
        <ele>20</ele>
        <time>2022-02-28T16:49:22Z</time>
      </trkpt>
      <trkpt lat="47.42897" lon="-0.54508">
        <ele>20</ele>
        <time>2022-02-28T16:50:02Z</time>
      </trkpt>
      <trkpt lat="47.42899" lon="-0.54527">
        <ele>20</ele>
        <time>2022-02-28T16:50:04Z</time>
      </trkpt>
      <trkpt lat="47.42905" lon="-0.54547">
        <ele>20</ele>
        <time>2022-02-28T16:50:07Z</time>
      </trkpt>
      <trkpt lat="47.42951" lon="-0.54587">
        <ele>20</ele>
        <time>2022-02-28T16:50:16Z</time>
      </trkpt>
      <trkpt lat="47.42954" lon="-0.54592">
        <ele>20</ele>
        <time>2022-02-28T16:50:17Z</time>
      </trkpt>
      <trkpt lat="47.42956" lon="-0.5462">
        <ele>22</ele>
        <time>2022-02-28T16:50:20Z</time>
      </trkpt>
      <trkpt lat="47.42954" lon="-0.54634">
        <ele>22</ele>
        <time>2022-02-28T16:50:22Z</time>
      </trkpt>
      <trkpt lat="47.42864" lon="-0.54928">
        <ele>25</ele>
        <time>2022-02-28T16:51:01Z</time>
      </trkpt>
      <trkpt lat="47.42858" lon="-0.54938">
        <ele>25</ele>
        <time>2022-02-28T16:51:02Z</time>
      </trkpt>
      <trkpt lat="47.42865" lon="-0.54988">
        <ele>25</ele>
        <time>2022-02-28T16:51:09Z</time>
      </trkpt>
      <trkpt lat="47.42876" lon="-0.54987">
        <ele>26</ele>
        <time>2022-02-28T16:51:11Z</time>
      </trkpt>
      <trkpt lat="47.42887" lon="-0.54981">
        <ele>26</ele>
        <time>2022-02-28T16:51:13Z</time>
      </trkpt>
      <trkpt lat="47.42918" lon="-0.54956">
        <ele>27</ele>
        <time>2022-02-28T16:51:19Z</time>
      </trkpt>
      <trkpt lat="47.42941" lon="-0.54943">
        <ele>28</ele>
        <time>2022-02-28T16:51:23Z</time>
      </trkpt>
      <trkpt lat="47.42949" lon="-0.54951">
        <ele>28</ele>
        <time>2022-02-28T16:51:25Z</time>
      </trkpt>
      <trkpt lat="47.4296" lon="-0.54967">
        <ele>28</ele>
        <time>2022-02-28T16:51:28Z</time>
      </trkpt>
      <trkpt lat="47.4299" lon="-0.55044">
        <ele>31</ele>
        <time>2022-02-28T16:51:38Z</time>
      </trkpt>
      <trkpt lat="47.43057" lon="-0.55169">
        <ele>33</ele>
        <time>2022-02-28T16:51:58Z</time>
      </trkpt>
      <trkpt lat="47.43097" lon="-0.55254">
        <ele>33</ele>
        <time>2022-02-28T16:52:10Z</time>
      </trkpt>
      <trkpt lat="47.43161" lon="-0.5542">
        <ele>32</ele>
        <time>2022-02-28T16:52:33Z</time>
      </trkpt>
      <trkpt lat="47.43193" lon="-0.55476">
        <ele>32</ele>
        <time>2022-02-28T16:52:42Z</time>
      </trkpt>
      <trkpt lat="47.43201" lon="-0.55507">
        <ele>33</ele>
        <time>2022-02-28T16:52:46Z</time>
      </trkpt>
      <trkpt lat="47.43215" lon="-0.55545">
        <ele>34</ele>
        <time>2022-02-28T16:52:51Z</time>
      </trkpt>
      <trkpt lat="47.43256" lon="-0.55634">
        <ele>35</ele>
        <time>2022-02-28T16:53:04Z</time>
      </trkpt>
      <trkpt lat="47.4328" lon="-0.55695">
        <ele>35</ele>
        <time>2022-02-28T16:53:13Z</time>
      </trkpt>
      <trkpt lat="47.4331" lon="-0.55765">
        <ele>35</ele>
        <time>2022-02-28T16:53:23Z</time>
      </trkpt>
      <trkpt lat="47.43327" lon="-0.55795">
        <ele>35</ele>
        <time>2022-02-28T16:53:27Z</time>
      </trkpt>
      <trkpt lat="47.43372" lon="-0.55855">
        <ele>37</ele>
        <time>2022-02-28T16:53:38Z</time>
      </trkpt>
      <trkpt lat="47.43394" lon="-0.55901">
        <ele>37</ele>
        <time>2022-02-28T16:53:45Z</time>
      </trkpt>
      <trkpt lat="47.43419" lon="-0.55967">
        <ele>37</ele>
        <time>2022-02-28T16:53:54Z</time>
      </trkpt>
      <trkpt lat="47.4345" lon="-0.56029">
        <ele>36</ele>
        <time>2022-02-28T16:54:03Z</time>
      </trkpt>
      <trkpt lat="47.43477" lon="-0.56077">
        <ele>37</ele>
        <time>2022-02-28T16:54:11Z</time>
      </trkpt>
      <trkpt lat="47.43545" lon="-0.56178">
        <ele>39</ele>
        <time>2022-02-28T16:54:28Z</time>
      </trkpt>
      <trkpt lat="47.43629" lon="-0.56317">
        <ele>39</ele>
        <time>2022-02-28T16:54:50Z</time>
      </trkpt>
      <trkpt lat="47.43637" lon="-0.56337">
        <ele>39</ele>
        <time>2022-02-28T16:54:53Z</time>
      </trkpt>
      <trkpt lat="47.43692" lon="-0.56453">
        <ele>39</ele>
        <time>2022-02-28T16:55:10Z</time>
      </trkpt>
      <trkpt lat="47.43712" lon="-0.56489">
        <ele>39</ele>
        <time>2022-02-28T16:55:16Z</time>
      </trkpt>
      <trkpt lat="47.43743" lon="-0.56524">
        <ele>40</ele>
        <time>2022-02-28T16:55:23Z</time>
      </trkpt>
      <trkpt lat="47.4376" lon="-0.56534">
        <ele>41</ele>
        <time>2022-02-28T16:55:26Z</time>
      </trkpt>
      <trkpt lat="47.4377" lon="-0.56547">
        <ele>40</ele>
        <time>2022-02-28T16:55:28Z</time>
      </trkpt>
      <trkpt lat="47.43799" lon="-0.56611">
        <ele>40</ele>
        <time>2022-02-28T16:55:38Z</time>
      </trkpt>
      <trkpt lat="47.43816" lon="-0.56638">
        <ele>39</ele>
        <time>2022-02-28T16:55:42Z</time>
      </trkpt>
      <trkpt lat="47.43926" lon="-0.56791">
        <ele>40</ele>
        <time>2022-02-28T16:56:09Z</time>
      </trkpt>
      <trkpt lat="47.44021" lon="-0.56937">
        <ele>41</ele>
        <time>2022-02-28T16:56:33Z</time>
      </trkpt>
      <trkpt lat="47.44068" lon="-0.57038">
        <ele>42</ele>
        <time>2022-02-28T16:56:48Z</time>
      </trkpt>
      <trkpt lat="47.44091" lon="-0.57097">
        <ele>42</ele>
        <time>2022-02-28T16:56:56Z</time>
      </trkpt>
      <trkpt lat="47.44101" lon="-0.57131">
        <ele>43</ele>
        <time>2022-02-28T16:57:01Z</time>
      </trkpt>
      <trkpt lat="47.44116" lon="-0.57143">
        <ele>43</ele>
        <time>2022-02-28T16:57:04Z</time>
      </trkpt>
      <trkpt lat="47.44136" lon="-0.57169">
        <ele>44</ele>
        <time>2022-02-28T16:57:08Z</time>
      </trkpt>
      <trkpt lat="47.44156" lon="-0.57207">
        <ele>45</ele>
        <time>2022-02-28T16:57:14Z</time>
      </trkpt>
      <trkpt lat="47.44175" lon="-0.57235">
        <ele>46</ele>
        <time>2022-02-28T16:57:19Z</time>
      </trkpt>
      <trkpt lat="47.4424" lon="-0.57325">
        <ele>47</ele>
        <time>2022-02-28T16:57:35Z</time>
      </trkpt>
      <trkpt lat="47.44282" lon="-0.57387">
        <ele>45</ele>
        <time>2022-02-28T16:57:45Z</time>
      </trkpt>
      <trkpt lat="47.44289" lon="-0.57396">
        <ele>44</ele>
        <time>2022-02-28T16:57:47Z</time>
      </trkpt>
      <trkpt lat="47.44295" lon="-0.57399">
        <ele>44</ele>
        <time>2022-02-28T16:57:48Z</time>
      </trkpt>
      <trkpt lat="47.44303" lon="-0.57407">
        <ele>44</ele>
        <time>2022-02-28T16:57:50Z</time>
      </trkpt>
      <trkpt lat="47.44312" lon="-0.57424">
        <ele>43</ele>
        <time>2022-02-28T16:57:53Z</time>
      </trkpt>
      <trkpt lat="47.44391" lon="-0.57526">
        <ele>43</ele>
        <time>2022-02-28T16:58:11Z</time>
      </trkpt>
      <trkpt lat="47.44414" lon="-0.57559">
        <ele>43</ele>
        <time>2022-02-28T16:58:17Z</time>
      </trkpt>
      <trkpt lat="47.44472" lon="-0.57677">
        <ele>42</ele>
        <time>2022-02-28T16:58:34Z</time>
      </trkpt>
      <trkpt lat="47.44542" lon="-0.57615">
        <ele>42</ele>
        <time>2022-02-28T16:58:49Z</time>
      </trkpt>
      <trkpt lat="47.44859" lon="-0.57342">
        <ele>39</ele>
        <time>2022-02-28T16:59:54Z</time>
      </trkpt>
      <trkpt lat="47.44874" lon="-0.57317">
        <ele>40</ele>
        <time>2022-02-28T16:59:58Z</time>
      </trkpt>
      <trkpt lat="47.44873" lon="-0.57309">
        <ele>40</ele>
        <time>2022-02-28T16:59:59Z</time>
      </trkpt>
      <trkpt lat="47.44876" lon="-0.57294">
        <ele>40</ele>
        <time>2022-02-28T17:00:01Z</time>
      </trkpt>
      <trkpt lat="47.44884" lon="-0.57285">
        <ele>41</ele>
        <time>2022-02-28T17:00:03Z</time>
      </trkpt>
      <trkpt lat="47.44894" lon="-0.57285">
        <ele>41</ele>
        <time>2022-02-28T17:00:05Z</time>
      </trkpt>
      <trkpt lat="47.449" lon="-0.57289">
        <ele>41</ele>
        <time>2022-02-28T17:00:06Z</time>
      </trkpt>
      <trkpt lat="47.44906" lon="-0.57299">
        <ele>40</ele>
        <time>2022-02-28T17:00:07Z</time>
      </trkpt>
      <trkpt lat="47.44907" lon="-0.57312">
        <ele>40</ele>
        <time>2022-02-28T17:00:09Z</time>
      </trkpt>
      <trkpt lat="47.44904" lon="-0.57323">
        <ele>39</ele>
        <time>2022-02-28T17:00:10Z</time>
      </trkpt>
      <trkpt lat="47.44903" lon="-0.57346">
        <ele>39</ele>
        <time>2022-02-28T17:00:13Z</time>
      </trkpt>
      <trkpt lat="47.44907" lon="-0.57369">
        <ele>38</ele>
        <time>2022-02-28T17:00:16Z</time>
      </trkpt>
      <trkpt lat="47.44962" lon="-0.57529">
        <ele>37</ele>
        <time>2022-02-28T17:00:38Z</time>
      </trkpt>
      <trkpt lat="47.44973" lon="-0.57561">
        <ele>39</ele>
        <time>2022-02-28T17:00:42Z</time>
      </trkpt>
      <trkpt lat="47.44981" lon="-0.57572">
        <ele>40</ele>
        <time>2022-02-28T17:00:44Z</time>
      </trkpt>
      <trkpt lat="47.4499" lon="-0.5758">
        <ele>41</ele>
        <time>2022-02-28T17:00:46Z</time>
      </trkpt>
      <trkpt lat="47.44998" lon="-0.57583">
        <ele>41</ele>
        <time>2022-02-28T17:00:47Z</time>
      </trkpt>
      <trkpt lat="47.45023" lon="-0.57583">
        <ele>42</ele>
        <time>2022-02-28T17:00:52Z</time>
      </trkpt>
      <trkpt lat="47.45036" lon="-0.57579">
        <ele>42</ele>
        <time>2022-02-28T17:00:54Z</time>
      </trkpt>
      <trkpt lat="47.45047" lon="-0.57571">
        <ele>42</ele>
        <time>2022-02-28T17:00:56Z</time>
      </trkpt>
      <trkpt lat="47.45259" lon="-0.57349">
        <ele>36</ele>
        <time>2022-02-28T17:01:43Z</time>
      </trkpt>
      <trkpt lat="47.45358" lon="-0.57236">
        <ele>35</ele>
        <time>2022-02-28T17:02:05Z</time>
      </trkpt>
      <trkpt lat="47.4537" lon="-0.57226">
        <ele>34</ele>
        <time>2022-02-28T17:02:07Z</time>
      </trkpt>
      <trkpt lat="47.4541" lon="-0.57199">
        <ele>33</ele>
        <time>2022-02-28T17:02:15Z</time>
      </trkpt>
      <trkpt lat="47.45444" lon="-0.57184">
        <ele>32</ele>
        <time>2022-02-28T17:02:21Z</time>
      </trkpt>
      <trkpt lat="47.45503" lon="-0.57155">
        <ele>29</ele>
        <time>2022-02-28T17:02:32Z</time>
      </trkpt>
      <trkpt lat="47.45563" lon="-0.5711">
        <ele>29</ele>
        <time>2022-02-28T17:02:44Z</time>
      </trkpt>
      <trkpt lat="47.45573" lon="-0.57108">
        <ele>28</ele>
        <time>2022-02-28T17:02:46Z</time>
      </trkpt>
      <trkpt lat="47.45582" lon="-0.57113">
        <ele>28</ele>
        <time>2022-02-28T17:02:48Z</time>
      </trkpt>
      <trkpt lat="47.45616" lon="-0.57167">
        <ele>22</ele>
        <time>2022-02-28T17:02:57Z</time>
      </trkpt>
      <trkpt lat="47.45621" lon="-0.57164">
        <ele>22</ele>
        <time>2022-02-28T17:02:58Z</time>
      </trkpt>
      <trkpt lat="47.45626" lon="-0.57166">
        <ele>22</ele>
        <time>2022-02-28T17:02:59Z</time>
      </trkpt>
      <trkpt lat="47.45673" lon="-0.57104">
        <ele>24</ele>
        <time>2022-02-28T17:03:10Z</time>
      </trkpt>
      <trkpt lat="47.45675" lon="-0.57097">
        <ele>25</ele>
        <time>2022-02-28T17:03:11Z</time>
      </trkpt>
      <trkpt lat="47.4568" lon="-0.5709">
        <ele>25</ele>
        <time>2022-02-28T17:03:12Z</time>
      </trkpt>
      <trkpt lat="47.45689" lon="-0.57082">
        <ele>25</ele>
        <time>2022-02-28T17:03:14Z</time>
      </trkpt>
      <trkpt lat="47.45691" lon="-0.57077">
        <ele>25</ele>
        <time>2022-02-28T17:03:15Z</time>
      </trkpt>
      <trkpt lat="47.45716" lon="-0.57052">
        <ele>25</ele>
        <time>2022-02-28T17:03:20Z</time>
      </trkpt>
      <trkpt lat="47.4579" lon="-0.56984">
        <ele>27</ele>
        <time>2022-02-28T17:03:35Z</time>
      </trkpt>
      <trkpt lat="47.45855" lon="-0.56934">
        <ele>27</ele>
        <time>2022-02-28T17:03:48Z</time>
      </trkpt>
      <trkpt lat="47.46145" lon="-0.5673">
        <ele>19</ele>
        <time>2022-02-28T17:04:46Z</time>
      </trkpt>
      <trkpt lat="47.4623" lon="-0.56657">
        <ele>22</ele>
        <time>2022-02-28T17:05:03Z</time>
      </trkpt>
      <trkpt lat="47.46228" lon="-0.5665">
        <ele>22</ele>
        <time>2022-02-28T17:05:04Z</time>
      </trkpt>
      <trkpt lat="47.46229" lon="-0.56644">
        <ele>22</ele>
        <time>2022-02-28T17:05:05Z</time>
      </trkpt>
      <trkpt lat="47.46232" lon="-0.56639">
        <ele>23</ele>
        <time>2022-02-28T17:05:06Z</time>
      </trkpt>
      <trkpt lat="47.46237" lon="-0.56637">
        <ele>23</ele>
        <time>2022-02-28T17:05:06Z</time>
      </trkpt>
      <trkpt lat="47.46243" lon="-0.5664">
        <ele>22</ele>
        <time>2022-02-28T17:05:08Z</time>
      </trkpt>
      <trkpt lat="47.46245" lon="-0.56649">
        <ele>22</ele>
        <time>2022-02-28T17:05:09Z</time>
      </trkpt>
      <trkpt lat="47.46252" lon="-0.56648">
        <ele>22</ele>
        <time>2022-02-28T17:05:10Z</time>
      </trkpt>
      <trkpt lat="47.46469" lon="-0.56579">
        <ele>23</ele>
        <time>2022-02-28T17:05:49Z</time>
      </trkpt>
      <trkpt lat="47.4647" lon="-0.56568">
        <ele>23</ele>
        <time>2022-02-28T17:05:51Z</time>
      </trkpt>
      <trkpt lat="47.46474" lon="-0.56558">
        <ele>23</ele>
        <time>2022-02-28T17:05:52Z</time>
      </trkpt>
      <trkpt lat="47.46482" lon="-0.56553">
        <ele>23</ele>
        <time>2022-02-28T17:05:54Z</time>
      </trkpt>
      <trkpt lat="47.46491" lon="-0.56557">
        <ele>23</ele>
        <time>2022-02-28T17:05:55Z</time>
      </trkpt>
      <trkpt lat="47.46495" lon="-0.56562">
        <ele>23</ele>
        <time>2022-02-28T17:05:56Z</time>
      </trkpt>
      <trkpt lat="47.46497" lon="-0.56572">
        <ele>23</ele>
        <time>2022-02-28T17:05:58Z</time>
      </trkpt>
      <trkpt lat="47.46724" lon="-0.56541">
        <ele>23</ele>
        <time>2022-02-28T17:06:38Z</time>
      </trkpt>
      <trkpt lat="47.46738" lon="-0.56535">
        <ele>23</ele>
        <time>2022-02-28T17:06:41Z</time>
      </trkpt>
      <trkpt lat="47.46762" lon="-0.56521">
        <ele>23</ele>
        <time>2022-02-28T17:06:45Z</time>
      </trkpt>
      <trkpt lat="47.46859" lon="-0.56448">
        <ele>23</ele>
        <time>2022-02-28T17:07:05Z</time>
      </trkpt>
      <trkpt lat="47.46872" lon="-0.56436">
        <ele>22</ele>
        <time>2022-02-28T17:07:07Z</time>
      </trkpt>
      <trkpt lat="47.46874" lon="-0.56426">
        <ele>21</ele>
        <time>2022-02-28T17:07:09Z</time>
      </trkpt>
      <trkpt lat="47.46888" lon="-0.56414">
        <ele>20</ele>
        <time>2022-02-28T17:07:12Z</time>
      </trkpt>
      <trkpt lat="47.46893" lon="-0.56404">
        <ele>20</ele>
        <time>2022-02-28T17:07:13Z</time>
      </trkpt>
      <trkpt lat="47.46901" lon="-0.56378">
        <ele>23</ele>
        <time>2022-02-28T17:07:17Z</time>
      </trkpt>
      <trkpt lat="47.46907" lon="-0.56339">
        <ele>27</ele>
        <time>2022-02-28T17:07:21Z</time>
      </trkpt>
      <trkpt lat="47.46919" lon="-0.56298">
        <ele>28</ele>
        <time>2022-02-28T17:07:27Z</time>
      </trkpt>
      <trkpt lat="47.46923" lon="-0.56287">
        <ele>28</ele>
        <time>2022-02-28T17:07:28Z</time>
      </trkpt>
      <trkpt lat="47.46935" lon="-0.56263">
        <ele>28</ele>
        <time>2022-02-28T17:07:32Z</time>
      </trkpt>
      <trkpt lat="47.46966" lon="-0.56185">
        <ele>29</ele>
        <time>2022-02-28T17:07:43Z</time>
      </trkpt>
      <trkpt lat="47.46983" lon="-0.5617">
        <ele>29</ele>
        <time>2022-02-28T17:07:46Z</time>
      </trkpt>
      <trkpt lat="47.46987" lon="-0.56182">
        <ele>27</ele>
        <time>2022-02-28T17:07:48Z</time>
      </trkpt>
      <trkpt lat="47.46992" lon="-0.56183">
        <ele>26</ele>
        <time>2022-02-28T17:07:49Z</time>
      </trkpt>
      <trkpt lat="47.46997" lon="-0.56194">
        <ele>25</ele>
        <time>2022-02-28T17:07:50Z</time>
      </trkpt>
      <trkpt lat="47.47005" lon="-0.56213">
        <ele>22</ele>
        <time>2022-02-28T17:07:53Z</time>
      </trkpt>
      <trkpt lat="47.47014" lon="-0.56246">
        <ele>19</ele>
        <time>2022-02-28T17:07:57Z</time>
      </trkpt>
      <trkpt lat="47.47019" lon="-0.5625">
        <ele>19</ele>
        <time>2022-02-28T17:07:58Z</time>
      </trkpt>
      <trkpt lat="47.47022" lon="-0.56255">
        <ele>18</ele>
        <time>2022-02-28T17:07:59Z</time>
      </trkpt>
      <trkpt lat="47.47093" lon="-0.5644">
        <ele>19</ele>
        <time>2022-02-28T17:08:25Z</time>
      </trkpt>
      <trkpt lat="47.47092" lon="-0.56454">
        <ele>20</ele>
        <time>2022-02-28T17:08:26Z</time>
      </trkpt>
      <trkpt lat="47.47103" lon="-0.56482">
        <ele>22</ele>
        <time>2022-02-28T17:08:30Z</time>
      </trkpt>
      <trkpt lat="47.47141" lon="-0.5658">
        <ele>23</ele>
        <time>2022-02-28T17:08:44Z</time>
      </trkpt>
      <trkpt lat="47.47159" lon="-0.56627">
        <ele>24</ele>
        <time>2022-02-28T17:08:50Z</time>
      </trkpt>
      <trkpt lat="47.47182" lon="-0.56669">
        <ele>25</ele>
        <time>2022-02-28T17:08:57Z</time>
      </trkpt>
      <trkpt lat="47.47188" lon="-0.5668">
        <ele>26</ele>
        <time>2022-02-28T17:08:59Z</time>
      </trkpt>
      <trkpt lat="47.47192" lon="-0.56681">
        <ele>26</ele>
        <time>2022-02-28T17:08:59Z</time>
      </trkpt>
      <trkpt lat="47.47199" lon="-0.56689">
        <ele>26</ele>
        <time>2022-02-28T17:09:01Z</time>
      </trkpt>
      <trkpt lat="47.47203" lon="-0.56701">
        <ele>26</ele>
        <time>2022-02-28T17:09:02Z</time>
      </trkpt>
      <trkpt lat="47.47201" lon="-0.56712">
        <ele>26</ele>
        <time>2022-02-28T17:09:04Z</time>
      </trkpt>
      <trkpt lat="47.47194" lon="-0.56722">
        <ele>26</ele>
        <time>2022-02-28T17:09:06Z</time>
      </trkpt>
      <trkpt lat="47.4719" lon="-0.56725">
        <ele>26</ele>
        <time>2022-02-28T17:09:06Z</time>
      </trkpt>
      <trkpt lat="47.47185" lon="-0.56733">
        <ele>26</ele>
        <time>2022-02-28T17:09:08Z</time>
      </trkpt>
      <trkpt lat="47.47037" lon="-0.56922">
        <ele>21</ele>
        <time>2022-02-28T17:09:42Z</time>
      </trkpt>
      <trkpt lat="47.47033" lon="-0.56929">
        <ele>21</ele>
        <time>2022-02-28T17:09:44Z</time>
      </trkpt>
      <trkpt lat="47.4706" lon="-0.57056">
        <ele>18</ele>
        <time>2022-02-28T17:10:00Z</time>
      </trkpt>
      <trkpt lat="47.47089" lon="-0.57178">
        <ele>19</ele>
        <time>2022-02-28T17:10:15Z</time>
      </trkpt>
      <trkpt lat="47.47121" lon="-0.57289">
        <ele>17</ele>
        <time>2022-02-28T17:10:30Z</time>
      </trkpt>
      <trkpt lat="47.47149" lon="-0.57366">
        <ele>18</ele>
        <time>2022-02-28T17:10:40Z</time>
      </trkpt>
      <trkpt lat="47.47189" lon="-0.57466">
        <ele>22</ele>
        <time>2022-02-28T17:10:54Z</time>
      </trkpt>
      <trkpt lat="47.4728" lon="-0.57669">
        <ele>22</ele>
        <time>2022-02-28T17:11:23Z</time>
      </trkpt>
      <trkpt lat="47.47303" lon="-0.57729">
        <ele>24</ele>
        <time>2022-02-28T17:11:32Z</time>
      </trkpt>
      <trkpt lat="47.47339" lon="-0.57835">
        <ele>28</ele>
        <time>2022-02-28T17:11:46Z</time>
      </trkpt>
      <trkpt lat="47.47342" lon="-0.57995">
        <ele>30</ele>
        <time>2022-02-28T17:12:05Z</time>
      </trkpt>
      <trkpt lat="47.47338" lon="-0.58031">
        <ele>30</ele>
        <time>2022-02-28T17:12:10Z</time>
      </trkpt>
      <trkpt lat="47.47287" lon="-0.58211">
        <ele>32</ele>
        <time>2022-02-28T17:12:33Z</time>
      </trkpt>
      <trkpt lat="47.47285" lon="-0.5821">
        <ele>32</ele>
        <time>2022-02-28T17:12:33Z</time>
      </trkpt>
    </trkseg>
  </trk>
</gpx>